<?xml version="1.0" encoding="UTF-8" standalone="no" ?>
<gpx xmlns="http://www.topografix.com/GPX/1/1" xmlns:xsi="http://www.w3.org/2001/XMLSchema-instance" xsi:schemaLocation="http://www.topografix.com/GPX/1/1 http://www.topografix.com/GPX/1/1/gpx.xsd" version="1.1" creator="VisuGPX - https://www.visugpx.com">
  <metadata>
    <name>Rando en groupe à Roussillon (Haute Tinée)</name>
    <desc><![CDATA[Groupe 3 de Roussillon au vieux pont romain de Clans]]></desc>
  </metadata>
  <trk>
    <name><![CDATA[2012-04-10 14h47m50]]></name>
    <trkseg>
      <trkpt lat="43.96034" lon="7.15839">
        <ele>410.00001063845</ele>
        <time>2012-04-10T09:07:02Z</time>
      </trkpt>
      <trkpt lat="43.96033" lon="7.15838">
        <ele>406.00002421325</ele>
        <time>2012-04-10T09:07:07Z</time>
      </trkpt>
      <trkpt lat="43.96034" lon="7.15838">
        <ele>405.00002002855</ele>
        <time>2012-04-10T09:07:12Z</time>
      </trkpt>
      <trkpt lat="43.96037" lon="7.15838">
        <ele>403.00001969773</ele>
        <time>2012-04-10T09:07:17Z</time>
      </trkpt>
      <trkpt lat="43.96042" lon="7.15838">
        <ele>406.99999713027</ele>
        <time>2012-04-10T09:07:22Z</time>
      </trkpt>
      <trkpt lat="43.96046" lon="7.15838">
        <ele>408.9999815439</ele>
        <time>2012-04-10T09:07:27Z</time>
      </trkpt>
      <trkpt lat="43.9605" lon="7.15838">
        <ele>400.99998165739</ele>
        <time>2012-04-10T09:07:32Z</time>
      </trkpt>
      <trkpt lat="43.96053" lon="7.15838">
        <ele>404.99999796509</ele>
        <time>2012-04-10T09:07:37Z</time>
      </trkpt>
      <trkpt lat="43.96058" lon="7.15839">
        <ele>406.99999021122</ele>
        <time>2012-04-10T09:07:42Z</time>
      </trkpt>
      <trkpt lat="43.9606" lon="7.15839">
        <ele>401.9999656872</ele>
        <time>2012-04-10T09:07:47Z</time>
      </trkpt>
      <trkpt lat="43.96062" lon="7.15841">
        <ele>403.99999467549</ele>
        <time>2012-04-10T09:07:52Z</time>
      </trkpt>
      <trkpt lat="43.96069" lon="7.15843">
        <ele>405.99999883772</ele>
        <time>2012-04-10T09:07:57Z</time>
      </trkpt>
      <trkpt lat="43.96074" lon="7.15846">
        <ele>408.99999683516</ele>
        <time>2012-04-10T09:08:02Z</time>
      </trkpt>
      <trkpt lat="43.96079" lon="7.15852">
        <ele>410.99999452853</ele>
        <time>2012-04-10T09:08:07Z</time>
      </trkpt>
      <trkpt lat="43.96085" lon="7.15856">
        <ele>413.99999407353</ele>
        <time>2012-04-10T09:08:12Z</time>
      </trkpt>
      <trkpt lat="43.9609" lon="7.15858">
        <ele>413.0000004394</ele>
        <time>2012-04-10T09:08:17Z</time>
      </trkpt>
      <trkpt lat="43.96095" lon="7.15862">
        <ele>406.99999001755</ele>
        <time>2012-04-10T09:08:22Z</time>
      </trkpt>
      <trkpt lat="43.961" lon="7.15866">
        <ele>404.99997182087</ele>
        <time>2012-04-10T09:08:27Z</time>
      </trkpt>
      <trkpt lat="43.96106" lon="7.1587">
        <ele>401.99998845443</ele>
        <time>2012-04-10T09:08:32Z</time>
      </trkpt>
      <trkpt lat="43.9611" lon="7.15873">
        <ele>406.00000841474</ele>
        <time>2012-04-10T09:08:37Z</time>
      </trkpt>
      <trkpt lat="43.96113" lon="7.15876">
        <ele>406.00000954312</ele>
        <time>2012-04-10T09:08:42Z</time>
      </trkpt>
      <trkpt lat="43.96116" lon="7.1588">
        <ele>404.99998481198</ele>
        <time>2012-04-10T09:08:47Z</time>
      </trkpt>
      <trkpt lat="43.96119" lon="7.15885">
        <ele>404.99998425675</ele>
        <time>2012-04-10T09:08:52Z</time>
      </trkpt>
      <trkpt lat="43.96122" lon="7.15888">
        <ele>407.99998583183</ele>
        <time>2012-04-10T09:08:57Z</time>
      </trkpt>
      <trkpt lat="43.96126" lon="7.15892">
        <ele>413.99999947946</ele>
        <time>2012-04-10T09:09:02Z</time>
      </trkpt>
      <trkpt lat="43.96128" lon="7.15896">
        <ele>405.0000277927</ele>
        <time>2012-04-10T09:09:07Z</time>
      </trkpt>
      <trkpt lat="43.96129" lon="7.15898">
        <ele>402.00008089316</ele>
        <time>2012-04-10T09:09:12Z</time>
      </trkpt>
      <trkpt lat="43.96131" lon="7.15901">
        <ele>409.00003857225</ele>
        <time>2012-04-10T09:09:17Z</time>
      </trkpt>
      <trkpt lat="43.96134" lon="7.15904">
        <ele>417.00002282754</ele>
        <time>2012-04-10T09:09:22Z</time>
      </trkpt>
      <trkpt lat="43.96138" lon="7.15908">
        <ele>412.00001543569</ele>
        <time>2012-04-10T09:09:27Z</time>
      </trkpt>
      <trkpt lat="43.9614" lon="7.15911">
        <ele>403.00003045835</ele>
        <time>2012-04-10T09:09:32Z</time>
      </trkpt>
      <trkpt lat="43.96143" lon="7.15914">
        <ele>406.00005519329</ele>
        <time>2012-04-10T09:09:37Z</time>
      </trkpt>
      <trkpt lat="43.96145" lon="7.15917">
        <ele>417.00009056387</ele>
        <time>2012-04-10T09:09:42Z</time>
      </trkpt>
      <trkpt lat="43.96147" lon="7.1592">
        <ele>425.00012482055</ele>
        <time>2012-04-10T09:09:47Z</time>
      </trkpt>
      <trkpt lat="43.96148" lon="7.15921">
        <ele>425.00009130936</ele>
        <time>2012-04-10T09:09:52Z</time>
      </trkpt>
      <trkpt lat="43.96149" lon="7.15923">
        <ele>425.00010188151</ele>
        <time>2012-04-10T09:09:57Z</time>
      </trkpt>
      <trkpt lat="43.96149" lon="7.15923">
        <ele>424.00009083409</ele>
        <time>2012-04-10T09:10:02Z</time>
      </trkpt>
      <trkpt lat="43.96148" lon="7.15924">
        <ele>426.00009697215</ele>
        <time>2012-04-10T09:10:07Z</time>
      </trkpt>
      <trkpt lat="43.96147" lon="7.15925">
        <ele>421.00000758666</ele>
        <time>2012-04-10T09:13:12Z</time>
      </trkpt>
      <trkpt lat="43.96149" lon="7.15935">
        <ele>416.99993512499</ele>
        <time>2012-04-10T09:13:17Z</time>
      </trkpt>
      <trkpt lat="43.96152" lon="7.15945">
        <ele>413.99992517567</ele>
        <time>2012-04-10T09:13:22Z</time>
      </trkpt>
      <trkpt lat="43.96156" lon="7.15951">
        <ele>413.99996224368</ele>
        <time>2012-04-10T09:13:27Z</time>
      </trkpt>
      <trkpt lat="43.9616" lon="7.15958">
        <ele>409.99994238969</ele>
        <time>2012-04-10T09:13:32Z</time>
      </trkpt>
      <trkpt lat="43.96164" lon="7.15962">
        <ele>416.99997976402</ele>
        <time>2012-04-10T09:13:37Z</time>
      </trkpt>
      <trkpt lat="43.96168" lon="7.15963">
        <ele>423.00002588166</ele>
        <time>2012-04-10T09:13:42Z</time>
      </trkpt>
      <trkpt lat="43.9617" lon="7.15957">
        <ele>420.00003928865</ele>
        <time>2012-04-10T09:13:47Z</time>
      </trkpt>
      <trkpt lat="43.96172" lon="7.1595">
        <ele>414.00000509055</ele>
        <time>2012-04-10T09:13:52Z</time>
      </trkpt>
      <trkpt lat="43.96175" lon="7.15946">
        <ele>423.00000133903</ele>
        <time>2012-04-10T09:13:57Z</time>
      </trkpt>
      <trkpt lat="43.96178" lon="7.15942">
        <ele>420.99998039426</ele>
        <time>2012-04-10T09:14:02Z</time>
      </trkpt>
      <trkpt lat="43.96182" lon="7.15938">
        <ele>420.00000963974</ele>
        <time>2012-04-10T09:14:07Z</time>
      </trkpt>
      <trkpt lat="43.96185" lon="7.15935">
        <ele>427.00002291257</ele>
        <time>2012-04-10T09:14:12Z</time>
      </trkpt>
      <trkpt lat="43.96189" lon="7.15933">
        <ele>434.99999664995</ele>
        <time>2012-04-10T09:14:17Z</time>
      </trkpt>
      <trkpt lat="43.96192" lon="7.15932">
        <ele>437.00000458963</ele>
        <time>2012-04-10T09:14:22Z</time>
      </trkpt>
      <trkpt lat="43.96196" lon="7.15932">
        <ele>434.99997063191</ele>
        <time>2012-04-10T09:14:27Z</time>
      </trkpt>
      <trkpt lat="43.96199" lon="7.15932">
        <ele>432.99997957198</ele>
        <time>2012-04-10T09:14:32Z</time>
      </trkpt>
      <trkpt lat="43.96202" lon="7.1593">
        <ele>431.99999811609</ele>
        <time>2012-04-10T09:14:37Z</time>
      </trkpt>
      <trkpt lat="43.96205" lon="7.15927">
        <ele>436.00002714984</ele>
        <time>2012-04-10T09:14:42Z</time>
      </trkpt>
      <trkpt lat="43.96207" lon="7.15921">
        <ele>440.0000287464</ele>
        <time>2012-04-10T09:14:47Z</time>
      </trkpt>
      <trkpt lat="43.9621" lon="7.15917">
        <ele>442.00002700233</ele>
        <time>2012-04-10T09:14:52Z</time>
      </trkpt>
      <trkpt lat="43.96213" lon="7.15915">
        <ele>434.00001116249</ele>
        <time>2012-04-10T09:14:57Z</time>
      </trkpt>
      <trkpt lat="43.96216" lon="7.15917">
        <ele>433.99998151738</ele>
        <time>2012-04-10T09:15:02Z</time>
      </trkpt>
      <trkpt lat="43.96219" lon="7.15915">
        <ele>436.99997425644</ele>
        <time>2012-04-10T09:15:07Z</time>
      </trkpt>
      <trkpt lat="43.96223" lon="7.15914">
        <ele>437.00000867806</ele>
        <time>2012-04-10T09:15:12Z</time>
      </trkpt>
      <trkpt lat="43.96227" lon="7.15913">
        <ele>440.00000704514</ele>
        <time>2012-04-10T09:15:17Z</time>
      </trkpt>
      <trkpt lat="43.96232" lon="7.15913">
        <ele>440.99997560301</ele>
        <time>2012-04-10T09:15:22Z</time>
      </trkpt>
      <trkpt lat="43.96236" lon="7.15913">
        <ele>440.99998439114</ele>
        <time>2012-04-10T09:15:27Z</time>
      </trkpt>
      <trkpt lat="43.9624" lon="7.15913">
        <ele>435.99999716013</ele>
        <time>2012-04-10T09:15:32Z</time>
      </trkpt>
      <trkpt lat="43.96243" lon="7.15912">
        <ele>441.99995746833</ele>
        <time>2012-04-10T09:15:37Z</time>
      </trkpt>
      <trkpt lat="43.96247" lon="7.15911">
        <ele>439.99999492929</ele>
        <time>2012-04-10T09:15:42Z</time>
      </trkpt>
      <trkpt lat="43.9625" lon="7.15909">
        <ele>443.00001641094</ele>
        <time>2012-04-10T09:15:47Z</time>
      </trkpt>
      <trkpt lat="43.96253" lon="7.15906">
        <ele>443.00001645619</ele>
        <time>2012-04-10T09:15:52Z</time>
      </trkpt>
      <trkpt lat="43.96257" lon="7.15905">
        <ele>445.00001944741</ele>
        <time>2012-04-10T09:15:57Z</time>
      </trkpt>
      <trkpt lat="43.96261" lon="7.15903">
        <ele>442.99999851641</ele>
        <time>2012-04-10T09:16:02Z</time>
      </trkpt>
      <trkpt lat="43.96265" lon="7.15899">
        <ele>447.00002693207</ele>
        <time>2012-04-10T09:16:07Z</time>
      </trkpt>
      <trkpt lat="43.96268" lon="7.15896">
        <ele>445.00001436915</ele>
        <time>2012-04-10T09:16:12Z</time>
      </trkpt>
      <trkpt lat="43.96271" lon="7.15894">
        <ele>447.0000020236</ele>
        <time>2012-04-10T09:16:17Z</time>
      </trkpt>
      <trkpt lat="43.96274" lon="7.15892">
        <ele>445.00001428075</ele>
        <time>2012-04-10T09:16:22Z</time>
      </trkpt>
      <trkpt lat="43.96277" lon="7.15888">
        <ele>450.00001875983</ele>
        <time>2012-04-10T09:16:27Z</time>
      </trkpt>
      <trkpt lat="43.9628" lon="7.15887">
        <ele>450.00003250607</ele>
        <time>2012-04-10T09:16:32Z</time>
      </trkpt>
      <trkpt lat="43.96281" lon="7.15883">
        <ele>446.00004579397</ele>
        <time>2012-04-10T09:17:02Z</time>
      </trkpt>
      <trkpt lat="43.96284" lon="7.1588">
        <ele>447.0000210617</ele>
        <time>2012-04-10T09:17:07Z</time>
      </trkpt>
      <trkpt lat="43.96289" lon="7.15878">
        <ele>449.00000380889</ele>
        <time>2012-04-10T09:17:12Z</time>
      </trkpt>
      <trkpt lat="43.96293" lon="7.15874">
        <ele>443.99998681932</ele>
        <time>2012-04-10T09:17:17Z</time>
      </trkpt>
      <trkpt lat="43.96297" lon="7.15871">
        <ele>441.0000103887</ele>
        <time>2012-04-10T09:17:22Z</time>
      </trkpt>
      <trkpt lat="43.96301" lon="7.15867">
        <ele>442.99997755988</ele>
        <time>2012-04-10T09:17:27Z</time>
      </trkpt>
      <trkpt lat="43.96304" lon="7.15864">
        <ele>448.00000092024</ele>
        <time>2012-04-10T09:17:32Z</time>
      </trkpt>
      <trkpt lat="43.96307" lon="7.1586">
        <ele>447.00001363917</ele>
        <time>2012-04-10T09:17:37Z</time>
      </trkpt>
      <trkpt lat="43.9631" lon="7.15855">
        <ele>449.99999744609</ele>
        <time>2012-04-10T09:17:42Z</time>
      </trkpt>
      <trkpt lat="43.96314" lon="7.15852">
        <ele>453.00000352779</ele>
        <time>2012-04-10T09:17:47Z</time>
      </trkpt>
      <trkpt lat="43.96317" lon="7.15849">
        <ele>451.99999854583</ele>
        <time>2012-04-10T09:17:52Z</time>
      </trkpt>
      <trkpt lat="43.9632" lon="7.15845">
        <ele>456.00000247116</ele>
        <time>2012-04-10T09:17:57Z</time>
      </trkpt>
      <trkpt lat="43.96324" lon="7.15842">
        <ele>453.99998567164</ele>
        <time>2012-04-10T09:18:02Z</time>
      </trkpt>
      <trkpt lat="43.96328" lon="7.15838">
        <ele>458.00000731581</ele>
        <time>2012-04-10T09:18:07Z</time>
      </trkpt>
      <trkpt lat="43.96331" lon="7.15835">
        <ele>457.99999489025</ele>
        <time>2012-04-10T09:18:12Z</time>
      </trkpt>
      <trkpt lat="43.96334" lon="7.15832">
        <ele>453.00000032514</ele>
        <time>2012-04-10T09:18:17Z</time>
      </trkpt>
      <trkpt lat="43.96337" lon="7.15828">
        <ele>455.99997218581</ele>
        <time>2012-04-10T09:18:22Z</time>
      </trkpt>
      <trkpt lat="43.96341" lon="7.15824">
        <ele>454.9999753397</ele>
        <time>2012-04-10T09:18:27Z</time>
      </trkpt>
      <trkpt lat="43.96345" lon="7.15821">
        <ele>446.99994643074</ele>
        <time>2012-04-10T09:18:32Z</time>
      </trkpt>
      <trkpt lat="43.96348" lon="7.15819">
        <ele>439.99997414549</ele>
        <time>2012-04-10T09:18:37Z</time>
      </trkpt>
      <trkpt lat="43.96351" lon="7.15817">
        <ele>443.99999630996</ele>
        <time>2012-04-10T09:18:42Z</time>
      </trkpt>
      <trkpt lat="43.96353" lon="7.15813">
        <ele>447.9999906763</ele>
        <time>2012-04-10T09:18:47Z</time>
      </trkpt>
      <trkpt lat="43.96355" lon="7.15809">
        <ele>452.00001278865</ele>
        <time>2012-04-10T09:18:52Z</time>
      </trkpt>
      <trkpt lat="43.96357" lon="7.15804">
        <ele>457.00003392607</ele>
        <time>2012-04-10T09:18:57Z</time>
      </trkpt>
      <trkpt lat="43.96358" lon="7.15799">
        <ele>447.00001421523</ele>
        <time>2012-04-10T09:19:02Z</time>
      </trkpt>
      <trkpt lat="43.96361" lon="7.15794">
        <ele>454.00000847823</ele>
        <time>2012-04-10T09:19:07Z</time>
      </trkpt>
      <trkpt lat="43.96363" lon="7.15789">
        <ele>460.000045246</ele>
        <time>2012-04-10T09:19:12Z</time>
      </trkpt>
      <trkpt lat="43.96365" lon="7.15785">
        <ele>459.0000218526</ele>
        <time>2012-04-10T09:19:17Z</time>
      </trkpt>
      <trkpt lat="43.96368" lon="7.15781">
        <ele>460.99999149847</ele>
        <time>2012-04-10T09:19:22Z</time>
      </trkpt>
      <trkpt lat="43.96371" lon="7.15778">
        <ele>455.99998028334</ele>
        <time>2012-04-10T09:19:27Z</time>
      </trkpt>
      <trkpt lat="43.96375" lon="7.15776">
        <ele>458.99995827802</ele>
        <time>2012-04-10T09:19:32Z</time>
      </trkpt>
      <trkpt lat="43.96379" lon="7.15772">
        <ele>455.9999794363</ele>
        <time>2012-04-10T09:19:37Z</time>
      </trkpt>
      <trkpt lat="43.96382" lon="7.15768">
        <ele>449.99998929035</ele>
        <time>2012-04-10T09:19:42Z</time>
      </trkpt>
      <trkpt lat="43.96386" lon="7.15764">
        <ele>446.99997632431</ele>
        <time>2012-04-10T09:19:47Z</time>
      </trkpt>
      <trkpt lat="43.96389" lon="7.1576">
        <ele>447.99999048906</ele>
        <time>2012-04-10T09:19:52Z</time>
      </trkpt>
      <trkpt lat="43.96392" lon="7.15757">
        <ele>439.99999511992</ele>
        <time>2012-04-10T09:19:57Z</time>
      </trkpt>
      <trkpt lat="43.96394" lon="7.15752">
        <ele>437.99996334374</ele>
        <time>2012-04-10T09:20:02Z</time>
      </trkpt>
      <trkpt lat="43.96395" lon="7.15748">
        <ele>445.99996108826</ele>
        <time>2012-04-10T09:20:07Z</time>
      </trkpt>
      <trkpt lat="43.96397" lon="7.15746">
        <ele>456.99998810065</ele>
        <time>2012-04-10T09:20:12Z</time>
      </trkpt>
      <trkpt lat="43.964" lon="7.15746">
        <ele>464.00007966627</ele>
        <time>2012-04-10T09:20:17Z</time>
      </trkpt>
      <trkpt lat="43.964" lon="7.15742">
        <ele>461.00004594801</ele>
        <time>2012-04-10T09:20:22Z</time>
      </trkpt>
      <trkpt lat="43.96401" lon="7.15737">
        <ele>456.99999823233</ele>
        <time>2012-04-10T09:20:27Z</time>
      </trkpt>
      <trkpt lat="43.96404" lon="7.15733">
        <ele>447.99996831877</ele>
        <time>2012-04-10T09:20:32Z</time>
      </trkpt>
      <trkpt lat="43.96407" lon="7.15729">
        <ele>446.99998028437</ele>
        <time>2012-04-10T09:20:37Z</time>
      </trkpt>
      <trkpt lat="43.9641" lon="7.15725">
        <ele>446.99997162972</ele>
        <time>2012-04-10T09:20:42Z</time>
      </trkpt>
      <trkpt lat="43.96414" lon="7.15722">
        <ele>443.99998939641</ele>
        <time>2012-04-10T09:20:47Z</time>
      </trkpt>
      <trkpt lat="43.96417" lon="7.15718">
        <ele>447.0000011825</ele>
        <time>2012-04-10T09:20:52Z</time>
      </trkpt>
      <trkpt lat="43.9642" lon="7.15715">
        <ele>441.0000414918</ele>
        <time>2012-04-10T09:20:57Z</time>
      </trkpt>
      <trkpt lat="43.96421" lon="7.15712">
        <ele>467.00016296256</ele>
        <time>2012-04-10T09:21:02Z</time>
      </trkpt>
      <trkpt lat="43.96423" lon="7.15709">
        <ele>465.00005951573</ele>
        <time>2012-04-10T09:21:07Z</time>
      </trkpt>
      <trkpt lat="43.96427" lon="7.15707">
        <ele>464.00003076135</ele>
        <time>2012-04-10T09:21:12Z</time>
      </trkpt>
      <trkpt lat="43.96431" lon="7.15706">
        <ele>472.00002680178</ele>
        <time>2012-04-10T09:21:17Z</time>
      </trkpt>
      <trkpt lat="43.96436" lon="7.15708">
        <ele>471.99999900793</ele>
        <time>2012-04-10T09:21:22Z</time>
      </trkpt>
      <trkpt lat="43.96442" lon="7.15712">
        <ele>465.99997020254</ele>
        <time>2012-04-10T09:21:27Z</time>
      </trkpt>
      <trkpt lat="43.96447" lon="7.15717">
        <ele>461.00001472117</ele>
        <time>2012-04-10T09:21:32Z</time>
      </trkpt>
      <trkpt lat="43.9645" lon="7.15722">
        <ele>463.00003069712</ele>
        <time>2012-04-10T09:21:37Z</time>
      </trkpt>
      <trkpt lat="43.96454" lon="7.15726">
        <ele>459.00002871686</ele>
        <time>2012-04-10T09:21:42Z</time>
      </trkpt>
      <trkpt lat="43.96458" lon="7.1573">
        <ele>462.00004213025</ele>
        <time>2012-04-10T09:21:47Z</time>
      </trkpt>
      <trkpt lat="43.96461" lon="7.15735">
        <ele>458.00006468963</ele>
        <time>2012-04-10T09:21:52Z</time>
      </trkpt>
      <trkpt lat="43.96463" lon="7.15736">
        <ele>465.00023329182</ele>
        <time>2012-04-10T09:21:57Z</time>
      </trkpt>
      <trkpt lat="43.96462" lon="7.15735">
        <ele>475.0000584569</ele>
        <time>2012-04-10T09:22:02Z</time>
      </trkpt>
      <trkpt lat="43.96466" lon="7.15739">
        <ele>465.99995503868</ele>
        <time>2012-04-10T09:22:07Z</time>
      </trkpt>
      <trkpt lat="43.9647" lon="7.15742">
        <ele>464.00001627021</ele>
        <time>2012-04-10T09:22:12Z</time>
      </trkpt>
      <trkpt lat="43.96473" lon="7.15748">
        <ele>458.00011636144</ele>
        <time>2012-04-10T09:22:17Z</time>
      </trkpt>
      <trkpt lat="43.96475" lon="7.15755">
        <ele>463.00007891384</ele>
        <time>2012-04-10T09:22:22Z</time>
      </trkpt>
      <trkpt lat="43.96477" lon="7.15762">
        <ele>463.00004013445</ele>
        <time>2012-04-10T09:22:27Z</time>
      </trkpt>
      <trkpt lat="43.96479" lon="7.15765">
        <ele>464.00008017672</ele>
        <time>2012-04-10T09:22:32Z</time>
      </trkpt>
      <trkpt lat="43.9648" lon="7.15764">
        <ele>469.00014706029</ele>
        <time>2012-04-10T09:22:37Z</time>
      </trkpt>
      <trkpt lat="43.9648" lon="7.15765">
        <ele>476.00013619256</ele>
        <time>2012-04-10T09:22:52Z</time>
      </trkpt>
      <trkpt lat="43.96481" lon="7.15768">
        <ele>471.00006624565</ele>
        <time>2012-04-10T09:22:57Z</time>
      </trkpt>
      <trkpt lat="43.96483" lon="7.15773">
        <ele>465.00001640455</ele>
        <time>2012-04-10T09:23:02Z</time>
      </trkpt>
      <trkpt lat="43.96485" lon="7.1578">
        <ele>467.99992502289</ele>
        <time>2012-04-10T09:23:07Z</time>
      </trkpt>
      <trkpt lat="43.96487" lon="7.15789">
        <ele>467.99997471817</ele>
        <time>2012-04-10T09:23:12Z</time>
      </trkpt>
      <trkpt lat="43.96488" lon="7.15796">
        <ele>467.00000358167</ele>
        <time>2012-04-10T09:23:17Z</time>
      </trkpt>
      <trkpt lat="43.96489" lon="7.15801">
        <ele>467.00001052851</ele>
        <time>2012-04-10T09:23:22Z</time>
      </trkpt>
      <trkpt lat="43.96493" lon="7.15807">
        <ele>463.99998961671</ele>
        <time>2012-04-10T09:23:27Z</time>
      </trkpt>
      <trkpt lat="43.96495" lon="7.15813">
        <ele>472.00002196822</ele>
        <time>2012-04-10T09:23:32Z</time>
      </trkpt>
      <trkpt lat="43.96495" lon="7.15818">
        <ele>478.99996509748</ele>
        <time>2012-04-10T09:23:37Z</time>
      </trkpt>
      <trkpt lat="43.96496" lon="7.15822">
        <ele>473.99993329686</ele>
        <time>2012-04-10T09:23:42Z</time>
      </trkpt>
      <trkpt lat="43.96498" lon="7.15828">
        <ele>478.99990028658</ele>
        <time>2012-04-10T09:23:47Z</time>
      </trkpt>
      <trkpt lat="43.96502" lon="7.15833">
        <ele>476.99991469974</ele>
        <time>2012-04-10T09:23:52Z</time>
      </trkpt>
      <trkpt lat="43.96504" lon="7.1584">
        <ele>473.99989765401</ele>
        <time>2012-04-10T09:23:57Z</time>
      </trkpt>
      <trkpt lat="43.96508" lon="7.15849">
        <ele>474.99988465099</ele>
        <time>2012-04-10T09:24:02Z</time>
      </trkpt>
      <trkpt lat="43.9651" lon="7.15856">
        <ele>475.99992515877</ele>
        <time>2012-04-10T09:24:07Z</time>
      </trkpt>
      <trkpt lat="43.96512" lon="7.15863">
        <ele>474.99992768076</ele>
        <time>2012-04-10T09:24:12Z</time>
      </trkpt>
      <trkpt lat="43.96514" lon="7.15869">
        <ele>475.99997923072</ele>
        <time>2012-04-10T09:24:17Z</time>
      </trkpt>
      <trkpt lat="43.96516" lon="7.15876">
        <ele>476.99997379774</ele>
        <time>2012-04-10T09:24:22Z</time>
      </trkpt>
      <trkpt lat="43.96518" lon="7.15884">
        <ele>468.99985578577</ele>
        <time>2012-04-10T09:24:27Z</time>
      </trkpt>
      <trkpt lat="43.9652" lon="7.15893">
        <ele>467.99994734923</ele>
        <time>2012-04-10T09:24:32Z</time>
      </trkpt>
      <trkpt lat="43.96522" lon="7.15901">
        <ele>470.00009200298</ele>
        <time>2012-04-10T09:24:37Z</time>
      </trkpt>
      <trkpt lat="43.96523" lon="7.15906">
        <ele>474.00018195737</ele>
        <time>2012-04-10T09:24:42Z</time>
      </trkpt>
      <trkpt lat="43.96525" lon="7.15911">
        <ele>470.00008884824</ele>
        <time>2012-04-10T09:24:47Z</time>
      </trkpt>
      <trkpt lat="43.96527" lon="7.15915">
        <ele>468.00015324377</ele>
        <time>2012-04-10T09:24:52Z</time>
      </trkpt>
      <trkpt lat="43.96527" lon="7.15917">
        <ele>458.00019294528</ele>
        <time>2012-04-10T09:24:57Z</time>
      </trkpt>
      <trkpt lat="43.9653" lon="7.15919">
        <ele>465.99991330422</ele>
        <time>2012-04-10T09:25:02Z</time>
      </trkpt>
      <trkpt lat="43.96534" lon="7.15923">
        <ele>467.00013885335</ele>
        <time>2012-04-10T09:25:07Z</time>
      </trkpt>
      <trkpt lat="43.96534" lon="7.15926">
        <ele>476.00017838393</ele>
        <time>2012-04-10T09:25:12Z</time>
      </trkpt>
      <trkpt lat="43.96534" lon="7.15926">
        <ele>460.00026377425</ele>
        <time>2012-04-10T09:25:17Z</time>
      </trkpt>
      <trkpt lat="43.96538" lon="7.15929">
        <ele>456.00035062063</ele>
        <time>2012-04-10T09:25:22Z</time>
      </trkpt>
      <trkpt lat="43.96541" lon="7.1593">
        <ele>460.99987449927</ele>
        <time>2012-04-10T09:25:27Z</time>
      </trkpt>
      <trkpt lat="43.96546" lon="7.15932">
        <ele>460.00010777159</ele>
        <time>2012-04-10T09:25:32Z</time>
      </trkpt>
      <trkpt lat="43.96549" lon="7.15934">
        <ele>458.00021839296</ele>
        <time>2012-04-10T09:25:37Z</time>
      </trkpt>
      <trkpt lat="43.96551" lon="7.15935">
        <ele>457.00033240184</ele>
        <time>2012-04-10T09:25:42Z</time>
      </trkpt>
      <trkpt lat="43.96555" lon="7.15939">
        <ele>461.00013018467</ele>
        <time>2012-04-10T09:25:47Z</time>
      </trkpt>
      <trkpt lat="43.96558" lon="7.15943">
        <ele>460.00008020029</ele>
        <time>2012-04-10T09:25:52Z</time>
      </trkpt>
      <trkpt lat="43.96561" lon="7.15946">
        <ele>470.00045759877</ele>
        <time>2012-04-10T09:25:57Z</time>
      </trkpt>
      <trkpt lat="43.96562" lon="7.15949">
        <ele>487.00061138892</ele>
        <time>2012-04-10T09:26:02Z</time>
      </trkpt>
      <trkpt lat="43.96561" lon="7.15948">
        <ele>467.00052925514</ele>
        <time>2012-04-10T09:26:42Z</time>
      </trkpt>
      <trkpt lat="43.96562" lon="7.15948">
        <ele>468.00061717646</ele>
        <time>2012-04-10T09:26:47Z</time>
      </trkpt>
      <trkpt lat="43.96564" lon="7.15951">
        <ele>472.00063841857</ele>
        <time>2012-04-10T09:26:52Z</time>
      </trkpt>
      <trkpt lat="43.96565" lon="7.15952">
        <ele>465.00054442591</ele>
        <time>2012-04-10T09:26:57Z</time>
      </trkpt>
      <trkpt lat="43.96566" lon="7.15954">
        <ele>470.00044682849</ele>
        <time>2012-04-10T09:27:02Z</time>
      </trkpt>
      <trkpt lat="43.96567" lon="7.15955">
        <ele>474.00062408121</ele>
        <time>2012-04-10T09:27:07Z</time>
      </trkpt>
      <trkpt lat="43.96567" lon="7.15955">
        <ele>463.00055892924</ele>
        <time>2012-04-10T09:27:12Z</time>
      </trkpt>
      <trkpt lat="43.96566" lon="7.15954">
        <ele>463.00021483334</ele>
        <time>2012-04-10T09:27:17Z</time>
      </trkpt>
      <trkpt lat="43.96567" lon="7.15955">
        <ele>450.00033717439</ele>
        <time>2012-04-10T09:27:22Z</time>
      </trkpt>
      <trkpt lat="43.9657" lon="7.15957">
        <ele>438.00067954942</ele>
        <time>2012-04-10T09:27:27Z</time>
      </trkpt>
      <trkpt lat="43.9657" lon="7.15958">
        <ele>440.00073887073</ele>
        <time>2012-04-10T09:27:32Z</time>
      </trkpt>
      <trkpt lat="43.96571" lon="7.15959">
        <ele>448.00077717678</ele>
        <time>2012-04-10T09:27:37Z</time>
      </trkpt>
      <trkpt lat="43.96571" lon="7.15959">
        <ele>450.00081230295</ele>
        <time>2012-04-10T09:27:42Z</time>
      </trkpt>
      <trkpt lat="43.96571" lon="7.15958">
        <ele>455.00076696961</ele>
        <time>2012-04-10T09:27:47Z</time>
      </trkpt>
      <trkpt lat="43.96572" lon="7.15959">
        <ele>464.00091589738</ele>
        <time>2012-04-10T09:27:52Z</time>
      </trkpt>
      <trkpt lat="43.96571" lon="7.15959">
        <ele>456.00084674415</ele>
        <time>2012-04-10T09:27:57Z</time>
      </trkpt>
      <trkpt lat="43.96574" lon="7.15961">
        <ele>455.00115128522</ele>
        <time>2012-04-10T09:28:02Z</time>
      </trkpt>
      <trkpt lat="43.96575" lon="7.15962">
        <ele>440.00097058039</ele>
        <time>2012-04-10T09:28:07Z</time>
      </trkpt>
      <trkpt lat="43.96576" lon="7.15959">
        <ele>444.0005695728</ele>
        <time>2012-04-10T09:28:12Z</time>
      </trkpt>
      <trkpt lat="43.96578" lon="7.15956">
        <ele>452.00060317418</ele>
        <time>2012-04-10T09:28:17Z</time>
      </trkpt>
      <trkpt lat="43.96579" lon="7.15955">
        <ele>460.00068098877</ele>
        <time>2012-04-10T09:28:22Z</time>
      </trkpt>
      <trkpt lat="43.9658" lon="7.15954">
        <ele>452.00078261844</ele>
        <time>2012-04-10T09:28:27Z</time>
      </trkpt>
      <trkpt lat="43.96575" lon="7.15956">
        <ele>466.00035756384</ele>
        <time>2012-04-10T09:28:32Z</time>
      </trkpt>
      <trkpt lat="43.96579" lon="7.15954">
        <ele>466.00063318349</ele>
        <time>2012-04-10T09:28:37Z</time>
      </trkpt>
      <trkpt lat="43.96579" lon="7.15954">
        <ele>440.00064786082</ele>
        <time>2012-04-10T09:28:42Z</time>
      </trkpt>
      <trkpt lat="43.9658" lon="7.15956">
        <ele>432.00046088157</ele>
        <time>2012-04-10T09:28:47Z</time>
      </trkpt>
      <trkpt lat="43.96584" lon="7.15959">
        <ele>428.99915167621</ele>
        <time>2012-04-10T09:28:52Z</time>
      </trkpt>
      <trkpt lat="43.96589" lon="7.15966">
        <ele>449.9998239747</ele>
        <time>2012-04-10T09:28:57Z</time>
      </trkpt>
      <trkpt lat="43.96593" lon="7.15969">
        <ele>443.00026955872</ele>
        <time>2012-04-10T09:29:02Z</time>
      </trkpt>
      <trkpt lat="43.96595" lon="7.1597">
        <ele>452.00055556765</ele>
        <time>2012-04-10T09:29:07Z</time>
      </trkpt>
      <trkpt lat="43.96596" lon="7.15973">
        <ele>452.00029908395</ele>
        <time>2012-04-10T09:29:12Z</time>
      </trkpt>
      <trkpt lat="43.96598" lon="7.15985">
        <ele>443.99997046253</ele>
        <time>2012-04-10T09:29:17Z</time>
      </trkpt>
      <trkpt lat="43.966" lon="7.15988">
        <ele>438.00028576204</ele>
        <time>2012-04-10T09:29:22Z</time>
      </trkpt>
      <trkpt lat="43.96602" lon="7.1599">
        <ele>434.00019577603</ele>
        <time>2012-04-10T09:29:27Z</time>
      </trkpt>
      <trkpt lat="43.96604" lon="7.15992">
        <ele>439.00044725523</ele>
        <time>2012-04-10T09:29:32Z</time>
      </trkpt>
      <trkpt lat="43.96606" lon="7.15992">
        <ele>448.00060805255</ele>
        <time>2012-04-10T09:29:37Z</time>
      </trkpt>
      <trkpt lat="43.96606" lon="7.15993">
        <ele>448.00063454061</ele>
        <time>2012-04-10T09:29:42Z</time>
      </trkpt>
      <trkpt lat="43.96604" lon="7.15995">
        <ele>441.00051652341</ele>
        <time>2012-04-10T09:29:47Z</time>
      </trkpt>
      <trkpt lat="43.96604" lon="7.15996">
        <ele>441.00051658178</ele>
        <time>2012-04-10T09:29:52Z</time>
      </trkpt>
      <trkpt lat="43.96604" lon="7.15996">
        <ele>446.00055465062</ele>
        <time>2012-04-10T09:29:57Z</time>
      </trkpt>
      <trkpt lat="43.96603" lon="7.15996">
        <ele>438.00051321728</ele>
        <time>2012-04-10T09:30:02Z</time>
      </trkpt>
      <trkpt lat="43.96603" lon="7.16001">
        <ele>440.00026607008</ele>
        <time>2012-04-10T09:30:07Z</time>
      </trkpt>
      <trkpt lat="43.96604" lon="7.16001">
        <ele>436.00038609339</ele>
        <time>2012-04-10T09:30:12Z</time>
      </trkpt>
      <trkpt lat="43.96604" lon="7.16002">
        <ele>435.00039372438</ele>
        <time>2012-04-10T09:30:17Z</time>
      </trkpt>
      <trkpt lat="43.96605" lon="7.16002">
        <ele>446.0004963974</ele>
        <time>2012-04-10T09:30:22Z</time>
      </trkpt>
      <trkpt lat="43.96604" lon="7.16004">
        <ele>445.00049350727</ele>
        <time>2012-04-10T09:30:27Z</time>
      </trkpt>
      <trkpt lat="43.96606" lon="7.16004">
        <ele>451.00059845789</ele>
        <time>2012-04-10T09:30:32Z</time>
      </trkpt>
      <trkpt lat="43.96605" lon="7.16003">
        <ele>451.00053670045</ele>
        <time>2012-04-10T09:30:37Z</time>
      </trkpt>
      <trkpt lat="43.96604" lon="7.16005">
        <ele>443.00044688937</ele>
        <time>2012-04-10T09:30:42Z</time>
      </trkpt>
      <trkpt lat="43.96604" lon="7.16005">
        <ele>433.00042250418</ele>
        <time>2012-04-10T09:30:52Z</time>
      </trkpt>
      <trkpt lat="43.96606" lon="7.16003">
        <ele>437.00060958056</ele>
        <time>2012-04-10T09:30:57Z</time>
      </trkpt>
      <trkpt lat="43.96605" lon="7.16002">
        <ele>445.00049740465</ele>
        <time>2012-04-10T09:31:02Z</time>
      </trkpt>
      <trkpt lat="43.96605" lon="7.16003">
        <ele>450.00051575729</ele>
        <time>2012-04-10T09:31:07Z</time>
      </trkpt>
      <trkpt lat="43.96604" lon="7.16003">
        <ele>449.0004362864</ele>
        <time>2012-04-10T09:31:12Z</time>
      </trkpt>
      <trkpt lat="43.96603" lon="7.16003">
        <ele>442.00033349036</ele>
        <time>2012-04-10T09:31:17Z</time>
      </trkpt>
      <trkpt lat="43.96606" lon="7.16007">
        <ele>435.99969937012</ele>
        <time>2012-04-10T09:31:22Z</time>
      </trkpt>
      <trkpt lat="43.96606" lon="7.16017">
        <ele>434.99986929917</ele>
        <time>2012-04-10T09:31:27Z</time>
      </trkpt>
      <trkpt lat="43.96607" lon="7.16022">
        <ele>424.00011887411</ele>
        <time>2012-04-10T09:31:32Z</time>
      </trkpt>
      <trkpt lat="43.96612" lon="7.16025">
        <ele>418.99947530676</ele>
        <time>2012-04-10T09:31:37Z</time>
      </trkpt>
      <trkpt lat="43.96618" lon="7.16027">
        <ele>419.99972724749</ele>
        <time>2012-04-10T09:31:42Z</time>
      </trkpt>
      <trkpt lat="43.9662" lon="7.16028">
        <ele>413.99985494391</ele>
        <time>2012-04-10T09:31:47Z</time>
      </trkpt>
      <trkpt lat="43.96627" lon="7.16031">
        <ele>421.99912350179</ele>
        <time>2012-04-10T09:31:52Z</time>
      </trkpt>
      <trkpt lat="43.96639" lon="7.16034">
        <ele>416.99916207264</ele>
        <time>2012-04-10T09:31:57Z</time>
      </trkpt>
      <trkpt lat="43.96648" lon="7.16042">
        <ele>434.99950047107</ele>
        <time>2012-04-10T09:32:02Z</time>
      </trkpt>
      <trkpt lat="43.96653" lon="7.16042">
        <ele>437.9997045301</ele>
        <time>2012-04-10T09:32:07Z</time>
      </trkpt>
      <trkpt lat="43.96654" lon="7.16039">
        <ele>435.99974891138</ele>
        <time>2012-04-10T09:32:12Z</time>
      </trkpt>
      <trkpt lat="43.96657" lon="7.16039">
        <ele>431.99992540831</ele>
        <time>2012-04-10T09:32:17Z</time>
      </trkpt>
      <trkpt lat="43.96659" lon="7.16038">
        <ele>437.00001112972</ele>
        <time>2012-04-10T09:32:22Z</time>
      </trkpt>
      <trkpt lat="43.96661" lon="7.16034">
        <ele>436.00000893104</ele>
        <time>2012-04-10T09:32:27Z</time>
      </trkpt>
      <trkpt lat="43.96663" lon="7.16031">
        <ele>435.99995654236</ele>
        <time>2012-04-10T09:32:32Z</time>
      </trkpt>
      <trkpt lat="43.96663" lon="7.16029">
        <ele>426.99980478036</ele>
        <time>2012-04-10T09:32:37Z</time>
      </trkpt>
      <trkpt lat="43.96665" lon="7.16024">
        <ele>431.99975249397</ele>
        <time>2012-04-10T09:32:42Z</time>
      </trkpt>
      <trkpt lat="43.96668" lon="7.16018">
        <ele>432.99987749915</ele>
        <time>2012-04-10T09:32:47Z</time>
      </trkpt>
      <trkpt lat="43.9667" lon="7.16013">
        <ele>434.99998069186</ele>
        <time>2012-04-10T09:32:52Z</time>
      </trkpt>
      <trkpt lat="43.96671" lon="7.16009">
        <ele>425.99996786335</ele>
        <time>2012-04-10T09:32:57Z</time>
      </trkpt>
      <trkpt lat="43.96672" lon="7.16003">
        <ele>434.99991901673</ele>
        <time>2012-04-10T09:33:02Z</time>
      </trkpt>
      <trkpt lat="43.96673" lon="7.15998">
        <ele>441.99992527744</ele>
        <time>2012-04-10T09:33:07Z</time>
      </trkpt>
      <trkpt lat="43.96676" lon="7.15996">
        <ele>448.00004080276</ele>
        <time>2012-04-10T09:33:12Z</time>
      </trkpt>
      <trkpt lat="43.96677" lon="7.15992">
        <ele>445.00008826223</ele>
        <time>2012-04-10T09:33:17Z</time>
      </trkpt>
      <trkpt lat="43.96677" lon="7.15986">
        <ele>447.0001533353</ele>
        <time>2012-04-10T09:33:22Z</time>
      </trkpt>
      <trkpt lat="43.96679" lon="7.15981">
        <ele>441.00015621668</ele>
        <time>2012-04-10T09:33:27Z</time>
      </trkpt>
      <trkpt lat="43.9668" lon="7.15976">
        <ele>445.00013544965</ele>
        <time>2012-04-10T09:33:32Z</time>
      </trkpt>
      <trkpt lat="43.96682" lon="7.15974">
        <ele>438.00028367097</ele>
        <time>2012-04-10T09:33:37Z</time>
      </trkpt>
      <trkpt lat="43.96681" lon="7.15971">
        <ele>429.00007580265</ele>
        <time>2012-04-10T09:33:42Z</time>
      </trkpt>
      <trkpt lat="43.9668" lon="7.15972">
        <ele>442.9999787133</ele>
        <time>2012-04-10T09:33:47Z</time>
      </trkpt>
      <trkpt lat="43.96681" lon="7.15967">
        <ele>452.99996182217</ele>
        <time>2012-04-10T09:33:52Z</time>
      </trkpt>
      <trkpt lat="43.96682" lon="7.15965">
        <ele>448.00003691145</ele>
        <time>2012-04-10T09:33:57Z</time>
      </trkpt>
      <trkpt lat="43.96683" lon="7.15963">
        <ele>443.00007260742</ele>
        <time>2012-04-10T09:34:02Z</time>
      </trkpt>
      <trkpt lat="43.96684" lon="7.15963">
        <ele>441.00011566226</ele>
        <time>2012-04-10T09:34:07Z</time>
      </trkpt>
      <trkpt lat="43.96683" lon="7.15963">
        <ele>431.00006021425</ele>
        <time>2012-04-10T09:34:12Z</time>
      </trkpt>
      <trkpt lat="43.96683" lon="7.15963">
        <ele>436.00000135295</ele>
        <time>2012-04-10T09:34:17Z</time>
      </trkpt>
      <trkpt lat="43.96685" lon="7.15964">
        <ele>433.99984915748</ele>
        <time>2012-04-10T09:34:22Z</time>
      </trkpt>
      <trkpt lat="43.96685" lon="7.15963">
        <ele>421.99988727907</ele>
        <time>2012-04-10T09:34:32Z</time>
      </trkpt>
      <trkpt lat="43.96685" lon="7.15963">
        <ele>437.99997639931</ele>
        <time>2012-04-10T09:34:47Z</time>
      </trkpt>
      <trkpt lat="43.96685" lon="7.15962">
        <ele>438.00011494508</ele>
        <time>2012-04-10T09:34:52Z</time>
      </trkpt>
      <trkpt lat="43.96685" lon="7.15961">
        <ele>429.00038380819</ele>
        <time>2012-04-10T09:35:22Z</time>
      </trkpt>
      <trkpt lat="43.96685" lon="7.15959">
        <ele>448.00037796554</ele>
        <time>2012-04-10T09:35:27Z</time>
      </trkpt>
      <trkpt lat="43.96685" lon="7.15959">
        <ele>452.00039567522</ele>
        <time>2012-04-10T09:35:32Z</time>
      </trkpt>
      <trkpt lat="43.96685" lon="7.15957">
        <ele>434.00036982819</ele>
        <time>2012-04-10T09:35:47Z</time>
      </trkpt>
      <trkpt lat="43.96683" lon="7.15949">
        <ele>441.99992821917</ele>
        <time>2012-04-10T09:35:52Z</time>
      </trkpt>
      <trkpt lat="43.96684" lon="7.15942">
        <ele>442.99976410636</ele>
        <time>2012-04-10T09:35:57Z</time>
      </trkpt>
      <trkpt lat="43.96686" lon="7.15941">
        <ele>455.99992243981</ele>
        <time>2012-04-10T09:36:02Z</time>
      </trkpt>
      <trkpt lat="43.96688" lon="7.15939">
        <ele>459.00006786135</ele>
        <time>2012-04-10T09:36:07Z</time>
      </trkpt>
      <trkpt lat="43.9669" lon="7.15937">
        <ele>454.00010541776</ele>
        <time>2012-04-10T09:36:12Z</time>
      </trkpt>
      <trkpt lat="43.96691" lon="7.15936">
        <ele>449.0001878169</ele>
        <time>2012-04-10T09:36:17Z</time>
      </trkpt>
      <trkpt lat="43.9669" lon="7.15933">
        <ele>449.99996090554</ele>
        <time>2012-04-10T09:36:22Z</time>
      </trkpt>
      <trkpt lat="43.9669" lon="7.15931">
        <ele>452.99998785449</ele>
        <time>2012-04-10T09:36:27Z</time>
      </trkpt>
      <trkpt lat="43.96689" lon="7.15927">
        <ele>459.9997801732</ele>
        <time>2012-04-10T09:36:32Z</time>
      </trkpt>
      <trkpt lat="43.9669" lon="7.15923">
        <ele>445.99984150316</ele>
        <time>2012-04-10T09:36:37Z</time>
      </trkpt>
      <trkpt lat="43.96692" lon="7.15923">
        <ele>448.00001817235</ele>
        <time>2012-04-10T09:36:42Z</time>
      </trkpt>
      <trkpt lat="43.96692" lon="7.15919">
        <ele>448.00000145546</ele>
        <time>2012-04-10T09:36:47Z</time>
      </trkpt>
      <trkpt lat="43.96694" lon="7.15916">
        <ele>446.00012047796</ele>
        <time>2012-04-10T09:36:52Z</time>
      </trkpt>
      <trkpt lat="43.96695" lon="7.15913">
        <ele>449.00017324492</ele>
        <time>2012-04-10T09:36:57Z</time>
      </trkpt>
      <trkpt lat="43.96696" lon="7.15912">
        <ele>447.00026351459</ele>
        <time>2012-04-10T09:37:02Z</time>
      </trkpt>
      <trkpt lat="43.96697" lon="7.15912">
        <ele>444.00032564167</ele>
        <time>2012-04-10T09:37:07Z</time>
      </trkpt>
      <trkpt lat="43.96699" lon="7.15913">
        <ele>444.00024624784</ele>
        <time>2012-04-10T09:37:12Z</time>
      </trkpt>
      <trkpt lat="43.967" lon="7.15915">
        <ele>446.00028244217</ele>
        <time>2012-04-10T09:37:17Z</time>
      </trkpt>
      <trkpt lat="43.967" lon="7.15918">
        <ele>449.00016490624</ele>
        <time>2012-04-10T09:37:22Z</time>
      </trkpt>
      <trkpt lat="43.96701" lon="7.1592">
        <ele>450.00015515249</ele>
        <time>2012-04-10T09:37:27Z</time>
      </trkpt>
      <trkpt lat="43.96702" lon="7.15923">
        <ele>455.00016772991</ele>
        <time>2012-04-10T09:37:32Z</time>
      </trkpt>
      <trkpt lat="43.96703" lon="7.15923">
        <ele>459.00017658451</ele>
        <time>2012-04-10T09:37:37Z</time>
      </trkpt>
      <trkpt lat="43.96705" lon="7.15925">
        <ele>462.00009699664</ele>
        <time>2012-04-10T09:37:42Z</time>
      </trkpt>
      <trkpt lat="43.96705" lon="7.15926">
        <ele>460.00003397633</ele>
        <time>2012-04-10T09:37:47Z</time>
      </trkpt>
      <trkpt lat="43.96706" lon="7.15925">
        <ele>456.00001091637</ele>
        <time>2012-04-10T09:37:52Z</time>
      </trkpt>
      <trkpt lat="43.96706" lon="7.15924">
        <ele>461.00000544066</ele>
        <time>2012-04-10T09:37:57Z</time>
      </trkpt>
      <trkpt lat="43.96706" lon="7.15922">
        <ele>460.00000021946</ele>
        <time>2012-04-10T09:38:02Z</time>
      </trkpt>
      <trkpt lat="43.96706" lon="7.15921">
        <ele>459.00010348497</ele>
        <time>2012-04-10T09:38:07Z</time>
      </trkpt>
      <trkpt lat="43.96706" lon="7.15919">
        <ele>458.00011204734</ele>
        <time>2012-04-10T09:38:12Z</time>
      </trkpt>
      <trkpt lat="43.96706" lon="7.15917">
        <ele>457.00005267715</ele>
        <time>2012-04-10T09:38:17Z</time>
      </trkpt>
      <trkpt lat="43.96705" lon="7.15915">
        <ele>464.000039483</ele>
        <time>2012-04-10T09:38:22Z</time>
      </trkpt>
      <trkpt lat="43.96705" lon="7.15909">
        <ele>459.00021762422</ele>
        <time>2012-04-10T09:38:27Z</time>
      </trkpt>
      <trkpt lat="43.96704" lon="7.15901">
        <ele>455.00006980648</ele>
        <time>2012-04-10T09:38:32Z</time>
      </trkpt>
      <trkpt lat="43.96703" lon="7.15893">
        <ele>457.00010498408</ele>
        <time>2012-04-10T09:38:37Z</time>
      </trkpt>
      <trkpt lat="43.967" lon="7.15887">
        <ele>473.00013171667</ele>
        <time>2012-04-10T09:38:42Z</time>
      </trkpt>
      <trkpt lat="43.96699" lon="7.15881">
        <ele>464.00009302754</ele>
        <time>2012-04-10T09:38:47Z</time>
      </trkpt>
      <trkpt lat="43.96698" lon="7.15878">
        <ele>460.00015234249</ele>
        <time>2012-04-10T09:38:52Z</time>
      </trkpt>
      <trkpt lat="43.96695" lon="7.15872">
        <ele>451.00010139855</ele>
        <time>2012-04-10T09:38:57Z</time>
      </trkpt>
      <trkpt lat="43.96695" lon="7.15868">
        <ele>456.00007057024</ele>
        <time>2012-04-10T09:39:02Z</time>
      </trkpt>
      <trkpt lat="43.96693" lon="7.15865">
        <ele>458.00002538898</ele>
        <time>2012-04-10T09:39:07Z</time>
      </trkpt>
      <trkpt lat="43.96691" lon="7.1586">
        <ele>472.99994708775</ele>
        <time>2012-04-10T09:39:12Z</time>
      </trkpt>
      <trkpt lat="43.96689" lon="7.15856">
        <ele>483.99991133495</ele>
        <time>2012-04-10T09:39:17Z</time>
      </trkpt>
      <trkpt lat="43.96689" lon="7.15852">
        <ele>486.99987353695</ele>
        <time>2012-04-10T09:39:22Z</time>
      </trkpt>
      <trkpt lat="43.9669" lon="7.15849">
        <ele>474.99988722056</ele>
        <time>2012-04-10T09:39:27Z</time>
      </trkpt>
      <trkpt lat="43.9669" lon="7.15847">
        <ele>458.99996159407</ele>
        <time>2012-04-10T09:39:32Z</time>
      </trkpt>
      <trkpt lat="43.96691" lon="7.15844">
        <ele>472.99995358384</ele>
        <time>2012-04-10T09:39:37Z</time>
      </trkpt>
      <trkpt lat="43.96693" lon="7.15842">
        <ele>476.00002654479</ele>
        <time>2012-04-10T09:39:42Z</time>
      </trkpt>
      <trkpt lat="43.96693" lon="7.15841">
        <ele>476.00006049767</ele>
        <time>2012-04-10T09:39:47Z</time>
      </trkpt>
      <trkpt lat="43.96693" lon="7.15842">
        <ele>463.0000595543</ele>
        <time>2012-04-10T09:39:52Z</time>
      </trkpt>
      <trkpt lat="43.96693" lon="7.15839">
        <ele>468.0001383611</ele>
        <time>2012-04-10T09:39:57Z</time>
      </trkpt>
      <trkpt lat="43.96693" lon="7.15836">
        <ele>470.00017565623</ele>
        <time>2012-04-10T09:40:02Z</time>
      </trkpt>
      <trkpt lat="43.96693" lon="7.15833">
        <ele>467.00032346085</ele>
        <time>2012-04-10T09:40:07Z</time>
      </trkpt>
      <trkpt lat="43.96692" lon="7.15829">
        <ele>476.00025402807</ele>
        <time>2012-04-10T09:40:12Z</time>
      </trkpt>
      <trkpt lat="43.96691" lon="7.15825">
        <ele>475.00015047826</ele>
        <time>2012-04-10T09:40:17Z</time>
      </trkpt>
      <trkpt lat="43.96692" lon="7.15818">
        <ele>482.0001224073</ele>
        <time>2012-04-10T09:40:22Z</time>
      </trkpt>
      <trkpt lat="43.96693" lon="7.1581">
        <ele>484.00007261281</ele>
        <time>2012-04-10T09:40:27Z</time>
      </trkpt>
      <trkpt lat="43.96694" lon="7.15802">
        <ele>486.00010975515</ele>
        <time>2012-04-10T09:40:32Z</time>
      </trkpt>
      <trkpt lat="43.96694" lon="7.15793">
        <ele>491.00003826263</ele>
        <time>2012-04-10T09:40:37Z</time>
      </trkpt>
      <trkpt lat="43.96696" lon="7.15788">
        <ele>483.00003576442</ele>
        <time>2012-04-10T09:40:42Z</time>
      </trkpt>
      <trkpt lat="43.96697" lon="7.15782">
        <ele>476.00005086928</ele>
        <time>2012-04-10T09:40:47Z</time>
      </trkpt>
      <trkpt lat="43.967" lon="7.15778">
        <ele>477.00002960879</ele>
        <time>2012-04-10T09:40:52Z</time>
      </trkpt>
      <trkpt lat="43.96702" lon="7.15773">
        <ele>487.00003229349</ele>
        <time>2012-04-10T09:40:57Z</time>
      </trkpt>
      <trkpt lat="43.96703" lon="7.15768">
        <ele>479.00011849151</ele>
        <time>2012-04-10T09:41:02Z</time>
      </trkpt>
      <trkpt lat="43.96703" lon="7.15762">
        <ele>485.00012999266</ele>
        <time>2012-04-10T09:41:07Z</time>
      </trkpt>
      <trkpt lat="43.96704" lon="7.15757">
        <ele>480.00007120805</ele>
        <time>2012-04-10T09:41:12Z</time>
      </trkpt>
      <trkpt lat="43.96705" lon="7.15751">
        <ele>472.00004797681</ele>
        <time>2012-04-10T09:41:17Z</time>
      </trkpt>
      <trkpt lat="43.96705" lon="7.15743">
        <ele>472.00003390939</ele>
        <time>2012-04-10T09:41:22Z</time>
      </trkpt>
      <trkpt lat="43.96706" lon="7.15736">
        <ele>466.00010980337</ele>
        <time>2012-04-10T09:41:27Z</time>
      </trkpt>
      <trkpt lat="43.96705" lon="7.15732">
        <ele>475.000131991</ele>
        <time>2012-04-10T09:41:32Z</time>
      </trkpt>
      <trkpt lat="43.96707" lon="7.15727">
        <ele>484.00023384912</ele>
        <time>2012-04-10T09:41:37Z</time>
      </trkpt>
      <trkpt lat="43.96705" lon="7.15721">
        <ele>480.00039027352</ele>
        <time>2012-04-10T09:41:42Z</time>
      </trkpt>
      <trkpt lat="43.96701" lon="7.15716">
        <ele>482.00018414101</ele>
        <time>2012-04-10T09:41:47Z</time>
      </trkpt>
      <trkpt lat="43.96698" lon="7.15709">
        <ele>479.00022481529</ele>
        <time>2012-04-10T09:41:52Z</time>
      </trkpt>
      <trkpt lat="43.96697" lon="7.15704">
        <ele>475.00009964388</ele>
        <time>2012-04-10T09:41:57Z</time>
      </trkpt>
      <trkpt lat="43.96697" lon="7.15698">
        <ele>484.00007942904</ele>
        <time>2012-04-10T09:42:02Z</time>
      </trkpt>
      <trkpt lat="43.96696" lon="7.15692">
        <ele>483.0001247059</ele>
        <time>2012-04-10T09:42:07Z</time>
      </trkpt>
      <trkpt lat="43.96695" lon="7.15686">
        <ele>476.00007394754</ele>
        <time>2012-04-10T09:42:12Z</time>
      </trkpt>
      <trkpt lat="43.96694" lon="7.15681">
        <ele>481.0001259484</ele>
        <time>2012-04-10T09:42:17Z</time>
      </trkpt>
      <trkpt lat="43.96693" lon="7.1568">
        <ele>450.0000865744</ele>
        <time>2012-04-10T09:42:22Z</time>
      </trkpt>
      <trkpt lat="43.96695" lon="7.15679">
        <ele>450.00009539521</ele>
        <time>2012-04-10T09:42:27Z</time>
      </trkpt>
      <trkpt lat="43.96696" lon="7.15675">
        <ele>448.0000668761</ele>
        <time>2012-04-10T09:42:32Z</time>
      </trkpt>
      <trkpt lat="43.96698" lon="7.15669">
        <ele>444.99990269099</ele>
        <time>2012-04-10T09:42:37Z</time>
      </trkpt>
      <trkpt lat="43.96703" lon="7.15665">
        <ele>447.99996053913</ele>
        <time>2012-04-10T09:42:42Z</time>
      </trkpt>
      <trkpt lat="43.96706" lon="7.15661">
        <ele>445.00000328101</ele>
        <time>2012-04-10T09:42:47Z</time>
      </trkpt>
      <trkpt lat="43.96709" lon="7.15656">
        <ele>458.00001889461</ele>
        <time>2012-04-10T09:42:52Z</time>
      </trkpt>
      <trkpt lat="43.96711" lon="7.15651">
        <ele>474.00005523465</ele>
        <time>2012-04-10T09:42:57Z</time>
      </trkpt>
      <trkpt lat="43.96713" lon="7.15647">
        <ele>478.00008365532</ele>
        <time>2012-04-10T09:43:02Z</time>
      </trkpt>
      <trkpt lat="43.96716" lon="7.15644">
        <ele>477.00018808919</ele>
        <time>2012-04-10T09:43:07Z</time>
      </trkpt>
      <trkpt lat="43.96717" lon="7.15634">
        <ele>482.00016195513</ele>
        <time>2012-04-10T09:43:12Z</time>
      </trkpt>
      <trkpt lat="43.96716" lon="7.15625">
        <ele>476.0003240003</ele>
        <time>2012-04-10T09:43:17Z</time>
      </trkpt>
      <trkpt lat="43.96715" lon="7.15618">
        <ele>474.00020944218</ele>
        <time>2012-04-10T09:43:22Z</time>
      </trkpt>
      <trkpt lat="43.96714" lon="7.15611">
        <ele>474.00014232853</ele>
        <time>2012-04-10T09:43:27Z</time>
      </trkpt>
      <trkpt lat="43.96713" lon="7.15607">
        <ele>473.00012415227</ele>
        <time>2012-04-10T09:43:32Z</time>
      </trkpt>
      <trkpt lat="43.96712" lon="7.15603">
        <ele>469.00017634505</ele>
        <time>2012-04-10T09:43:37Z</time>
      </trkpt>
      <trkpt lat="43.96709" lon="7.156">
        <ele>468.00011379903</ele>
        <time>2012-04-10T09:43:42Z</time>
      </trkpt>
      <trkpt lat="43.96708" lon="7.15597">
        <ele>475.00012654589</ele>
        <time>2012-04-10T09:43:47Z</time>
      </trkpt>
      <trkpt lat="43.96708" lon="7.15594">
        <ele>481.00007073245</ele>
        <time>2012-04-10T09:43:52Z</time>
      </trkpt>
      <trkpt lat="43.96708" lon="7.15591">
        <ele>480.00003226519</ele>
        <time>2012-04-10T09:43:57Z</time>
      </trkpt>
      <trkpt lat="43.96708" lon="7.15586">
        <ele>483.00007315538</ele>
        <time>2012-04-10T09:44:02Z</time>
      </trkpt>
      <trkpt lat="43.96709" lon="7.15583">
        <ele>486.00008185676</ele>
        <time>2012-04-10T09:44:07Z</time>
      </trkpt>
      <trkpt lat="43.9671" lon="7.15579">
        <ele>485.00006340125</ele>
        <time>2012-04-10T09:44:12Z</time>
      </trkpt>
      <trkpt lat="43.96712" lon="7.15576">
        <ele>473.00011724985</ele>
        <time>2012-04-10T09:44:17Z</time>
      </trkpt>
      <trkpt lat="43.96714" lon="7.15576">
        <ele>479.00015630029</ele>
        <time>2012-04-10T09:44:22Z</time>
      </trkpt>
      <trkpt lat="43.96714" lon="7.15578">
        <ele>487.00006729415</ele>
        <time>2012-04-10T09:44:27Z</time>
      </trkpt>
      <trkpt lat="43.96717" lon="7.1558">
        <ele>479.00013237887</ele>
        <time>2012-04-10T09:44:32Z</time>
      </trkpt>
      <trkpt lat="43.96718" lon="7.15581">
        <ele>485.00011712618</ele>
        <time>2012-04-10T09:44:37Z</time>
      </trkpt>
      <trkpt lat="43.96721" lon="7.1558">
        <ele>481.00000345303</ele>
        <time>2012-04-10T09:44:42Z</time>
      </trkpt>
      <trkpt lat="43.96725" lon="7.1558">
        <ele>479.99994394599</ele>
        <time>2012-04-10T09:44:47Z</time>
      </trkpt>
      <trkpt lat="43.96729" lon="7.15579">
        <ele>483.0000562331</ele>
        <time>2012-04-10T09:44:52Z</time>
      </trkpt>
      <trkpt lat="43.96731" lon="7.15577">
        <ele>482.00010014338</ele>
        <time>2012-04-10T09:44:57Z</time>
      </trkpt>
      <trkpt lat="43.96735" lon="7.15574">
        <ele>481.00012568587</ele>
        <time>2012-04-10T09:45:02Z</time>
      </trkpt>
      <trkpt lat="43.96738" lon="7.15571">
        <ele>478.00006963481</ele>
        <time>2012-04-10T09:45:07Z</time>
      </trkpt>
      <trkpt lat="43.9674" lon="7.15568">
        <ele>479.00008855332</ele>
        <time>2012-04-10T09:45:12Z</time>
      </trkpt>
      <trkpt lat="43.96745" lon="7.15568">
        <ele>473.00006805189</ele>
        <time>2012-04-10T09:45:17Z</time>
      </trkpt>
      <trkpt lat="43.96747" lon="7.15565">
        <ele>476.0000258696</ele>
        <time>2012-04-10T09:45:22Z</time>
      </trkpt>
      <trkpt lat="43.96751" lon="7.15564">
        <ele>480.00008304387</ele>
        <time>2012-04-10T09:45:27Z</time>
      </trkpt>
      <trkpt lat="43.96756" lon="7.15563">
        <ele>484.00005573832</ele>
        <time>2012-04-10T09:45:32Z</time>
      </trkpt>
      <trkpt lat="43.9676" lon="7.15564">
        <ele>480.00013700414</ele>
        <time>2012-04-10T09:45:37Z</time>
      </trkpt>
      <trkpt lat="43.96764" lon="7.15563">
        <ele>477.99998105448</ele>
        <time>2012-04-10T09:45:42Z</time>
      </trkpt>
      <trkpt lat="43.96768" lon="7.15563">
        <ele>473.00011020008</ele>
        <time>2012-04-10T09:45:47Z</time>
      </trkpt>
      <trkpt lat="43.96773" lon="7.15562">
        <ele>471.00019360568</ele>
        <time>2012-04-10T09:45:52Z</time>
      </trkpt>
      <trkpt lat="43.96776" lon="7.1556">
        <ele>468.00013593039</ele>
        <time>2012-04-10T09:45:57Z</time>
      </trkpt>
      <trkpt lat="43.96782" lon="7.15558">
        <ele>472.00016128774</ele>
        <time>2012-04-10T09:46:02Z</time>
      </trkpt>
      <trkpt lat="43.96786" lon="7.15558">
        <ele>466.00019621818</ele>
        <time>2012-04-10T09:46:07Z</time>
      </trkpt>
      <trkpt lat="43.9679" lon="7.15558">
        <ele>467.00023993414</ele>
        <time>2012-04-10T09:46:12Z</time>
      </trkpt>
      <trkpt lat="43.96794" lon="7.15558">
        <ele>462.00013133599</ele>
        <time>2012-04-10T09:46:17Z</time>
      </trkpt>
      <trkpt lat="43.96799" lon="7.15558">
        <ele>470.00022598005</ele>
        <time>2012-04-10T09:46:22Z</time>
      </trkpt>
      <trkpt lat="43.96801" lon="7.15555">
        <ele>469.0001367884</ele>
        <time>2012-04-10T09:46:27Z</time>
      </trkpt>
      <trkpt lat="43.96806" lon="7.15554">
        <ele>475.00030084327</ele>
        <time>2012-04-10T09:46:32Z</time>
      </trkpt>
      <trkpt lat="43.96809" lon="7.15553">
        <ele>471.00022648098</ele>
        <time>2012-04-10T09:46:37Z</time>
      </trkpt>
      <trkpt lat="43.96814" lon="7.15552">
        <ele>471.00000929287</ele>
        <time>2012-04-10T09:46:42Z</time>
      </trkpt>
      <trkpt lat="43.96818" lon="7.15549">
        <ele>476.00004910449</ele>
        <time>2012-04-10T09:46:47Z</time>
      </trkpt>
      <trkpt lat="43.96822" lon="7.15546">
        <ele>480.00006709146</ele>
        <time>2012-04-10T09:46:52Z</time>
      </trkpt>
      <trkpt lat="43.96827" lon="7.15544">
        <ele>477.99979818086</ele>
        <time>2012-04-10T09:46:57Z</time>
      </trkpt>
      <trkpt lat="43.96834" lon="7.1554">
        <ele>480.99956571312</ele>
        <time>2012-04-10T09:47:02Z</time>
      </trkpt>
      <trkpt lat="43.96842" lon="7.15537">
        <ele>476.00007148018</ele>
        <time>2012-04-10T09:47:07Z</time>
      </trkpt>
      <trkpt lat="43.96842" lon="7.15536">
        <ele>472.00006267854</ele>
        <time>2012-04-10T09:47:12Z</time>
      </trkpt>
      <trkpt lat="43.96842" lon="7.15534">
        <ele>481.99999561725</ele>
        <time>2012-04-10T09:47:17Z</time>
      </trkpt>
      <trkpt lat="43.96843" lon="7.15534">
        <ele>481.0001179315</ele>
        <time>2012-04-10T09:47:22Z</time>
      </trkpt>
      <trkpt lat="43.96845" lon="7.15533">
        <ele>487.00001254079</ele>
        <time>2012-04-10T09:47:27Z</time>
      </trkpt>
      <trkpt lat="43.96849" lon="7.15531">
        <ele>493.00014028928</ele>
        <time>2012-04-10T09:47:32Z</time>
      </trkpt>
      <trkpt lat="43.96853" lon="7.1553">
        <ele>475.00053766167</ele>
        <time>2012-04-10T09:47:37Z</time>
      </trkpt>
      <trkpt lat="43.96852" lon="7.1553">
        <ele>473.00036171609</ele>
        <time>2012-04-10T09:47:42Z</time>
      </trkpt>
      <trkpt lat="43.96854" lon="7.15527">
        <ele>476.00002953944</ele>
        <time>2012-04-10T09:47:57Z</time>
      </trkpt>
      <trkpt lat="43.96859" lon="7.15526">
        <ele>482.99980183002</ele>
        <time>2012-04-10T09:48:02Z</time>
      </trkpt>
      <trkpt lat="43.96864" lon="7.15525">
        <ele>482.99993085912</ele>
        <time>2012-04-10T09:48:07Z</time>
      </trkpt>
      <trkpt lat="43.96866" lon="7.15523">
        <ele>478.00002140251</ele>
        <time>2012-04-10T09:48:12Z</time>
      </trkpt>
      <trkpt lat="43.9687" lon="7.15519">
        <ele>472.99999688002</ele>
        <time>2012-04-10T09:48:17Z</time>
      </trkpt>
      <trkpt lat="43.96875" lon="7.15516">
        <ele>480.00004166661</ele>
        <time>2012-04-10T09:48:22Z</time>
      </trkpt>
      <trkpt lat="43.96879" lon="7.15516">
        <ele>480.00016027842</ele>
        <time>2012-04-10T09:48:27Z</time>
      </trkpt>
      <trkpt lat="43.96879" lon="7.15513">
        <ele>484.00009734309</ele>
        <time>2012-04-10T09:48:32Z</time>
      </trkpt>
      <trkpt lat="43.9688" lon="7.15512">
        <ele>485.00013594199</ele>
        <time>2012-04-10T09:48:37Z</time>
      </trkpt>
      <trkpt lat="43.9688" lon="7.15513">
        <ele>475.99994779124</ele>
        <time>2012-04-10T09:48:42Z</time>
      </trkpt>
      <trkpt lat="43.96884" lon="7.15511">
        <ele>482.99990569102</ele>
        <time>2012-04-10T09:48:47Z</time>
      </trkpt>
      <trkpt lat="43.96883" lon="7.15508">
        <ele>484.99982826207</ele>
        <time>2012-04-10T09:48:52Z</time>
      </trkpt>
      <trkpt lat="43.96884" lon="7.15509">
        <ele>485.9999417889</ele>
        <time>2012-04-10T09:48:57Z</time>
      </trkpt>
      <trkpt lat="43.96886" lon="7.15509">
        <ele>480.99991200653</ele>
        <time>2012-04-10T09:49:02Z</time>
      </trkpt>
      <trkpt lat="43.96889" lon="7.15507">
        <ele>486.00016756665</ele>
        <time>2012-04-10T09:49:07Z</time>
      </trkpt>
      <trkpt lat="43.96892" lon="7.15502">
        <ele>484.0000727768</ele>
        <time>2012-04-10T09:49:12Z</time>
      </trkpt>
      <trkpt lat="43.96896" lon="7.155">
        <ele>478.00004685038</ele>
        <time>2012-04-10T09:49:17Z</time>
      </trkpt>
      <trkpt lat="43.96901" lon="7.15497">
        <ele>481.99999454795</ele>
        <time>2012-04-10T09:49:22Z</time>
      </trkpt>
      <trkpt lat="43.96907" lon="7.15496">
        <ele>471.99999842203</ele>
        <time>2012-04-10T09:49:27Z</time>
      </trkpt>
      <trkpt lat="43.9691" lon="7.15491">
        <ele>476.99995713671</ele>
        <time>2012-04-10T09:49:32Z</time>
      </trkpt>
      <trkpt lat="43.96915" lon="7.1549">
        <ele>473.00004153061</ele>
        <time>2012-04-10T09:49:37Z</time>
      </trkpt>
      <trkpt lat="43.9692" lon="7.15489">
        <ele>478.00004155099</ele>
        <time>2012-04-10T09:49:42Z</time>
      </trkpt>
      <trkpt lat="43.96925" lon="7.15487">
        <ele>478.00000050153</ele>
        <time>2012-04-10T09:49:47Z</time>
      </trkpt>
      <trkpt lat="43.96929" lon="7.15487">
        <ele>485.99995231591</ele>
        <time>2012-04-10T09:49:52Z</time>
      </trkpt>
      <trkpt lat="43.96933" lon="7.15486">
        <ele>483.00027548779</ele>
        <time>2012-04-10T09:49:57Z</time>
      </trkpt>
      <trkpt lat="43.96936" lon="7.15486">
        <ele>479.00030207125</ele>
        <time>2012-04-10T09:50:02Z</time>
      </trkpt>
      <trkpt lat="43.96938" lon="7.15487">
        <ele>484.00033877887</ele>
        <time>2012-04-10T09:50:07Z</time>
      </trkpt>
      <trkpt lat="43.96937" lon="7.15489">
        <ele>490.00013085204</ele>
        <time>2012-04-10T09:50:12Z</time>
      </trkpt>
      <trkpt lat="43.96939" lon="7.1549">
        <ele>492.99996557226</ele>
        <time>2012-04-10T09:50:17Z</time>
      </trkpt>
      <trkpt lat="43.96942" lon="7.15493">
        <ele>484.00006866524</ele>
        <time>2012-04-10T09:50:22Z</time>
      </trkpt>
      <trkpt lat="43.96944" lon="7.15494">
        <ele>483.00034517983</ele>
        <time>2012-04-10T09:50:27Z</time>
      </trkpt>
      <trkpt lat="43.96945" lon="7.15494">
        <ele>490.00048734483</ele>
        <time>2012-04-10T09:50:32Z</time>
      </trkpt>
      <trkpt lat="43.96945" lon="7.15492">
        <ele>482.00023075485</ele>
        <time>2012-04-10T09:50:37Z</time>
      </trkpt>
      <trkpt lat="43.96947" lon="7.15492">
        <ele>484.00017709494</ele>
        <time>2012-04-10T09:50:42Z</time>
      </trkpt>
      <trkpt lat="43.96947" lon="7.15493">
        <ele>474.00023655439</ele>
        <time>2012-04-10T09:50:47Z</time>
      </trkpt>
      <trkpt lat="43.96948" lon="7.15493">
        <ele>483.99999899418</ele>
        <time>2012-04-10T09:51:02Z</time>
      </trkpt>
      <trkpt lat="43.96949" lon="7.15493">
        <ele>477.99995615648</ele>
        <time>2012-04-10T09:51:07Z</time>
      </trkpt>
      <trkpt lat="43.96952" lon="7.15494">
        <ele>477.99959766882</ele>
        <time>2012-04-10T09:51:17Z</time>
      </trkpt>
      <trkpt lat="43.96958" lon="7.15496">
        <ele>480.99980957355</ele>
        <time>2012-04-10T09:51:22Z</time>
      </trkpt>
      <trkpt lat="43.96962" lon="7.15497">
        <ele>484.00026547792</ele>
        <time>2012-04-10T09:51:27Z</time>
      </trkpt>
      <trkpt lat="43.96963" lon="7.15497">
        <ele>487.00035631305</ele>
        <time>2012-04-10T09:51:32Z</time>
      </trkpt>
      <trkpt lat="43.96963" lon="7.15496">
        <ele>489.00015479943</ele>
        <time>2012-04-10T09:51:37Z</time>
      </trkpt>
      <trkpt lat="43.96963" lon="7.15496">
        <ele>492.00010921461</ele>
        <time>2012-04-10T09:51:42Z</time>
      </trkpt>
      <trkpt lat="43.96963" lon="7.15496">
        <ele>491.00002428352</ele>
        <time>2012-04-10T09:52:07Z</time>
      </trkpt>
      <trkpt lat="43.96964" lon="7.15496">
        <ele>487.99994463969</ele>
        <time>2012-04-10T09:52:12Z</time>
      </trkpt>
      <trkpt lat="43.96966" lon="7.15495">
        <ele>485.0002299676</ele>
        <time>2012-04-10T09:52:17Z</time>
      </trkpt>
      <trkpt lat="43.96966" lon="7.15495">
        <ele>497.00007715655</ele>
        <time>2012-04-10T09:52:32Z</time>
      </trkpt>
      <trkpt lat="43.96966" lon="7.15494">
        <ele>495.99992365723</ele>
        <time>2012-04-10T09:52:52Z</time>
      </trkpt>
      <trkpt lat="43.96966" lon="7.15492">
        <ele>497.99986029669</ele>
        <time>2012-04-10T09:52:57Z</time>
      </trkpt>
      <trkpt lat="43.96967" lon="7.1549">
        <ele>496.00005523348</ele>
        <time>2012-04-10T09:53:02Z</time>
      </trkpt>
      <trkpt lat="43.96967" lon="7.15492">
        <ele>504.00003544136</ele>
        <time>2012-04-10T09:53:22Z</time>
      </trkpt>
      <trkpt lat="43.96967" lon="7.15492">
        <ele>496.99996788097</ele>
        <time>2012-04-10T09:53:27Z</time>
      </trkpt>
      <trkpt lat="43.96967" lon="7.15492">
        <ele>515.99985954391</ele>
        <time>2012-04-10T09:53:42Z</time>
      </trkpt>
      <trkpt lat="43.96969" lon="7.15495">
        <ele>504.99989781491</ele>
        <time>2012-04-10T09:53:47Z</time>
      </trkpt>
      <trkpt lat="43.96971" lon="7.15491">
        <ele>502.99958617497</ele>
        <time>2012-04-10T09:53:52Z</time>
      </trkpt>
      <trkpt lat="43.96972" lon="7.15487">
        <ele>504.99961312716</ele>
        <time>2012-04-10T09:53:57Z</time>
      </trkpt>
      <trkpt lat="43.96973" lon="7.15483">
        <ele>496.99977651493</ele>
        <time>2012-04-10T09:54:02Z</time>
      </trkpt>
      <trkpt lat="43.96973" lon="7.15482">
        <ele>494.99979539394</ele>
        <time>2012-04-10T09:54:07Z</time>
      </trkpt>
      <trkpt lat="43.96973" lon="7.15482">
        <ele>489.9996652543</ele>
        <time>2012-04-10T09:54:12Z</time>
      </trkpt>
      <trkpt lat="43.96971" lon="7.15482">
        <ele>487.99971192356</ele>
        <time>2012-04-10T09:54:17Z</time>
      </trkpt>
      <trkpt lat="43.96971" lon="7.15477">
        <ele>491.99965267728</ele>
        <time>2012-04-10T09:54:22Z</time>
      </trkpt>
      <trkpt lat="43.96975" lon="7.15477">
        <ele>498.00000864269</ele>
        <time>2012-04-10T09:54:27Z</time>
      </trkpt>
      <trkpt lat="43.96977" lon="7.15479">
        <ele>504.00014101459</ele>
        <time>2012-04-10T09:54:32Z</time>
      </trkpt>
      <trkpt lat="43.96978" lon="7.15483">
        <ele>501.99994530993</ele>
        <time>2012-04-10T09:54:37Z</time>
      </trkpt>
      <trkpt lat="43.96978" lon="7.15486">
        <ele>503.99987124169</ele>
        <time>2012-04-10T09:54:42Z</time>
      </trkpt>
      <trkpt lat="43.96979" lon="7.15486">
        <ele>498.0000879981</ele>
        <time>2012-04-10T09:54:47Z</time>
      </trkpt>
      <trkpt lat="43.96981" lon="7.15488">
        <ele>490.9999396891</ele>
        <time>2012-04-10T09:54:52Z</time>
      </trkpt>
      <trkpt lat="43.96982" lon="7.1549">
        <ele>499.00014751357</ele>
        <time>2012-04-10T09:54:57Z</time>
      </trkpt>
      <trkpt lat="43.96983" lon="7.15492">
        <ele>498.99981644311</ele>
        <time>2012-04-10T09:55:02Z</time>
      </trkpt>
      <trkpt lat="43.96986" lon="7.15495">
        <ele>504.00004724703</ele>
        <time>2012-04-10T09:55:07Z</time>
      </trkpt>
      <trkpt lat="43.96987" lon="7.15496">
        <ele>508.00012994374</ele>
        <time>2012-04-10T09:55:12Z</time>
      </trkpt>
      <trkpt lat="43.96987" lon="7.15498">
        <ele>499.00006308824</ele>
        <time>2012-04-10T09:55:17Z</time>
      </trkpt>
      <trkpt lat="43.96988" lon="7.15498">
        <ele>493.00003077464</ele>
        <time>2012-04-10T09:55:27Z</time>
      </trkpt>
      <trkpt lat="43.96987" lon="7.15502">
        <ele>501.99978978387</ele>
        <time>2012-04-10T09:55:37Z</time>
      </trkpt>
      <trkpt lat="43.96991" lon="7.15506">
        <ele>507.99980731273</ele>
        <time>2012-04-10T09:55:42Z</time>
      </trkpt>
      <trkpt lat="43.96993" lon="7.15513">
        <ele>511.99980945231</ele>
        <time>2012-04-10T09:55:47Z</time>
      </trkpt>
      <trkpt lat="43.96995" lon="7.15514">
        <ele>517.00001956217</ele>
        <time>2012-04-10T09:55:52Z</time>
      </trkpt>
      <trkpt lat="43.96996" lon="7.15511">
        <ele>511.00006851011</ele>
        <time>2012-04-10T09:55:57Z</time>
      </trkpt>
      <trkpt lat="43.96996" lon="7.15509">
        <ele>513.00019055744</ele>
        <time>2012-04-10T09:56:02Z</time>
      </trkpt>
      <trkpt lat="43.96996" lon="7.15508">
        <ele>518.00017716698</ele>
        <time>2012-04-10T09:56:07Z</time>
      </trkpt>
      <trkpt lat="43.96996" lon="7.15509">
        <ele>512.00005017504</ele>
        <time>2012-04-10T09:56:17Z</time>
      </trkpt>
      <trkpt lat="43.96997" lon="7.15509">
        <ele>511.00009844585</ele>
        <time>2012-04-10T09:56:22Z</time>
      </trkpt>
      <trkpt lat="43.96999" lon="7.15514">
        <ele>506.99998005531</ele>
        <time>2012-04-10T09:56:27Z</time>
      </trkpt>
      <trkpt lat="43.96999" lon="7.15517">
        <ele>499.9999558824</ele>
        <time>2012-04-10T09:56:32Z</time>
      </trkpt>
      <trkpt lat="43.97" lon="7.15516">
        <ele>508.99996598201</ele>
        <time>2012-04-10T09:56:47Z</time>
      </trkpt>
      <trkpt lat="43.97002" lon="7.15519">
        <ele>508.00004884202</ele>
        <time>2012-04-10T09:56:52Z</time>
      </trkpt>
      <trkpt lat="43.97004" lon="7.15522">
        <ele>515.00006937601</ele>
        <time>2012-04-10T09:56:57Z</time>
      </trkpt>
      <trkpt lat="43.97004" lon="7.15523">
        <ele>508.00001615676</ele>
        <time>2012-04-10T09:57:02Z</time>
      </trkpt>
      <trkpt lat="43.97009" lon="7.15526">
        <ele>505.99975806265</ele>
        <time>2012-04-10T09:57:07Z</time>
      </trkpt>
      <trkpt lat="43.97012" lon="7.15525">
        <ele>501.00000061653</ele>
        <time>2012-04-10T09:57:12Z</time>
      </trkpt>
      <trkpt lat="43.97014" lon="7.15523">
        <ele>495.00009820478</ele>
        <time>2012-04-10T09:57:17Z</time>
      </trkpt>
      <trkpt lat="43.97016" lon="7.15524">
        <ele>499.00034331745</ele>
        <time>2012-04-10T09:57:22Z</time>
      </trkpt>
      <trkpt lat="43.97018" lon="7.1552">
        <ele>495.00021199421</ele>
        <time>2012-04-10T09:57:27Z</time>
      </trkpt>
      <trkpt lat="43.97021" lon="7.15518">
        <ele>497.00013549585</ele>
        <time>2012-04-10T09:57:32Z</time>
      </trkpt>
      <trkpt lat="43.97025" lon="7.15517">
        <ele>502.00008002262</ele>
        <time>2012-04-10T09:57:37Z</time>
      </trkpt>
      <trkpt lat="43.97025" lon="7.1552">
        <ele>514.99998910711</ele>
        <time>2012-04-10T09:57:42Z</time>
      </trkpt>
      <trkpt lat="43.97024" lon="7.15519">
        <ele>508.99984237511</ele>
        <time>2012-04-10T09:57:47Z</time>
      </trkpt>
      <trkpt lat="43.97024" lon="7.1552">
        <ele>518.99986329229</ele>
        <time>2012-04-10T09:57:52Z</time>
      </trkpt>
      <trkpt lat="43.97028" lon="7.15516">
        <ele>504.9998889539</ele>
        <time>2012-04-10T09:57:57Z</time>
      </trkpt>
      <trkpt lat="43.97031" lon="7.15513">
        <ele>516.00016007783</ele>
        <time>2012-04-10T09:58:02Z</time>
      </trkpt>
      <trkpt lat="43.9703" lon="7.15514">
        <ele>517.00000167149</ele>
        <time>2012-04-10T09:58:07Z</time>
      </trkpt>
      <trkpt lat="43.97029" lon="7.15517">
        <ele>521.99986727746</ele>
        <time>2012-04-10T09:58:17Z</time>
      </trkpt>
      <trkpt lat="43.97031" lon="7.15518">
        <ele>520.00001427309</ele>
        <time>2012-04-10T09:58:22Z</time>
      </trkpt>
      <trkpt lat="43.97031" lon="7.15519">
        <ele>512.00003988219</ele>
        <time>2012-04-10T09:58:27Z</time>
      </trkpt>
      <trkpt lat="43.9703" lon="7.15518">
        <ele>515.99993414681</ele>
        <time>2012-04-10T09:58:32Z</time>
      </trkpt>
      <trkpt lat="43.9703" lon="7.15518">
        <ele>521.99991540315</ele>
        <time>2012-04-10T09:58:42Z</time>
      </trkpt>
      <trkpt lat="43.97031" lon="7.15516">
        <ele>518.00004168941</ele>
        <time>2012-04-10T09:58:47Z</time>
      </trkpt>
      <trkpt lat="43.97033" lon="7.15514">
        <ele>506.00001686968</ele>
        <time>2012-04-10T09:58:52Z</time>
      </trkpt>
      <trkpt lat="43.97037" lon="7.15513">
        <ele>502.99997146389</ele>
        <time>2012-04-10T09:58:57Z</time>
      </trkpt>
      <trkpt lat="43.9704" lon="7.15511">
        <ele>502.00011304887</ele>
        <time>2012-04-10T09:59:02Z</time>
      </trkpt>
      <trkpt lat="43.9704" lon="7.15513">
        <ele>510.99998700942</ele>
        <time>2012-04-10T09:59:07Z</time>
      </trkpt>
      <trkpt lat="43.97038" lon="7.15516">
        <ele>515.9993349295</ele>
        <time>2012-04-10T09:59:12Z</time>
      </trkpt>
      <trkpt lat="43.97038" lon="7.15518">
        <ele>510.99930047072</ele>
        <time>2012-04-10T09:59:17Z</time>
      </trkpt>
      <trkpt lat="43.9704" lon="7.15516">
        <ele>521.99964069256</ele>
        <time>2012-04-10T09:59:42Z</time>
      </trkpt>
      <trkpt lat="43.97038" lon="7.15516">
        <ele>512.99932132268</ele>
        <time>2012-04-10T10:00:07Z</time>
      </trkpt>
      <trkpt lat="43.97038" lon="7.15514">
        <ele>518.99958765676</ele>
        <time>2012-04-10T10:00:12Z</time>
      </trkpt>
      <trkpt lat="43.97038" lon="7.15514">
        <ele>509.99983191161</ele>
        <time>2012-04-10T10:00:17Z</time>
      </trkpt>
      <trkpt lat="43.97035" lon="7.15519">
        <ele>516.99973569661</ele>
        <time>2012-04-10T10:00:22Z</time>
      </trkpt>
      <trkpt lat="43.97033" lon="7.15519">
        <ele>517.99989230652</ele>
        <time>2012-04-10T10:00:27Z</time>
      </trkpt>
      <trkpt lat="43.97032" lon="7.15519">
        <ele>515.99959924683</ele>
        <time>2012-04-10T10:00:32Z</time>
      </trkpt>
      <trkpt lat="43.97032" lon="7.15519">
        <ele>517.99989053239</ele>
        <time>2012-04-10T10:00:37Z</time>
      </trkpt>
      <trkpt lat="43.97032" lon="7.15519">
        <ele>523.0004242322</ele>
        <time>2012-04-10T10:01:02Z</time>
      </trkpt>
      <trkpt lat="43.97035" lon="7.15522">
        <ele>511.00025238432</ele>
        <time>2012-04-10T10:01:07Z</time>
      </trkpt>
      <trkpt lat="43.97035" lon="7.15525">
        <ele>513.00015666098</ele>
        <time>2012-04-10T10:01:12Z</time>
      </trkpt>
      <trkpt lat="43.97035" lon="7.15524">
        <ele>495.00011936767</ele>
        <time>2012-04-10T10:01:47Z</time>
      </trkpt>
      <trkpt lat="43.97035" lon="7.15525">
        <ele>507.00019316696</ele>
        <time>2012-04-10T10:01:57Z</time>
      </trkpt>
      <trkpt lat="43.97035" lon="7.15525">
        <ele>519.00008380486</ele>
        <time>2012-04-10T10:02:17Z</time>
      </trkpt>
      <trkpt lat="43.97034" lon="7.15525">
        <ele>513.00013362269</ele>
        <time>2012-04-10T10:02:22Z</time>
      </trkpt>
      <trkpt lat="43.9703" lon="7.15523">
        <ele>518.00026502098</ele>
        <time>2012-04-10T10:02:27Z</time>
      </trkpt>
      <trkpt lat="43.97025" lon="7.15524">
        <ele>522.00011964022</ele>
        <time>2012-04-10T10:02:32Z</time>
      </trkpt>
      <trkpt lat="43.97022" lon="7.15526">
        <ele>520.00004206581</ele>
        <time>2012-04-10T10:02:37Z</time>
      </trkpt>
      <trkpt lat="43.97019" lon="7.15528">
        <ele>516.99996577745</ele>
        <time>2012-04-10T10:02:42Z</time>
      </trkpt>
      <trkpt lat="43.97019" lon="7.15532">
        <ele>516.99990710181</ele>
        <time>2012-04-10T10:02:47Z</time>
      </trkpt>
      <trkpt lat="43.97018" lon="7.15536">
        <ele>518.99986180018</ele>
        <time>2012-04-10T10:02:52Z</time>
      </trkpt>
      <trkpt lat="43.9702" lon="7.1554">
        <ele>516.99993536239</ele>
        <time>2012-04-10T10:02:57Z</time>
      </trkpt>
      <trkpt lat="43.97023" lon="7.15544">
        <ele>519.99999266442</ele>
        <time>2012-04-10T10:03:02Z</time>
      </trkpt>
      <trkpt lat="43.97025" lon="7.15545">
        <ele>518.00016770861</ele>
        <time>2012-04-10T10:03:07Z</time>
      </trkpt>
      <trkpt lat="43.97025" lon="7.15545">
        <ele>521.00004942717</ele>
        <time>2012-04-10T10:03:12Z</time>
      </trkpt>
      <trkpt lat="43.97028" lon="7.15544">
        <ele>527.00001291212</ele>
        <time>2012-04-10T10:03:17Z</time>
      </trkpt>
      <trkpt lat="43.97031" lon="7.15542">
        <ele>517.99998554499</ele>
        <time>2012-04-10T10:03:22Z</time>
      </trkpt>
      <trkpt lat="43.97036" lon="7.1554">
        <ele>515.99993660391</ele>
        <time>2012-04-10T10:03:27Z</time>
      </trkpt>
      <trkpt lat="43.97039" lon="7.15539">
        <ele>519.00001901449</ele>
        <time>2012-04-10T10:03:32Z</time>
      </trkpt>
      <trkpt lat="43.97042" lon="7.15537">
        <ele>523.00011938984</ele>
        <time>2012-04-10T10:03:37Z</time>
      </trkpt>
      <trkpt lat="43.97045" lon="7.15536">
        <ele>519.00002580852</ele>
        <time>2012-04-10T10:03:42Z</time>
      </trkpt>
      <trkpt lat="43.97048" lon="7.15535">
        <ele>518.99998992718</ele>
        <time>2012-04-10T10:03:47Z</time>
      </trkpt>
      <trkpt lat="43.97052" lon="7.15534">
        <ele>523.99999103557</ele>
        <time>2012-04-10T10:03:52Z</time>
      </trkpt>
      <trkpt lat="43.97054" lon="7.15533">
        <ele>521.00003995096</ele>
        <time>2012-04-10T10:03:57Z</time>
      </trkpt>
      <trkpt lat="43.97058" lon="7.15532">
        <ele>523.99987044189</ele>
        <time>2012-04-10T10:04:02Z</time>
      </trkpt>
      <trkpt lat="43.97063" lon="7.15532">
        <ele>517.99991554217</ele>
        <time>2012-04-10T10:04:07Z</time>
      </trkpt>
      <trkpt lat="43.97068" lon="7.15533">
        <ele>517.99994754214</ele>
        <time>2012-04-10T10:04:12Z</time>
      </trkpt>
      <trkpt lat="43.9707" lon="7.15534">
        <ele>518.00005114707</ele>
        <time>2012-04-10T10:04:17Z</time>
      </trkpt>
      <trkpt lat="43.97073" lon="7.15532">
        <ele>522.00000325446</ele>
        <time>2012-04-10T10:04:22Z</time>
      </trkpt>
      <trkpt lat="43.97077" lon="7.15531">
        <ele>514.99999109688</ele>
        <time>2012-04-10T10:04:27Z</time>
      </trkpt>
      <trkpt lat="43.97081" lon="7.15531">
        <ele>517.99996335095</ele>
        <time>2012-04-10T10:04:32Z</time>
      </trkpt>
      <trkpt lat="43.97086" lon="7.15532">
        <ele>513.99998116759</ele>
        <time>2012-04-10T10:04:37Z</time>
      </trkpt>
      <trkpt lat="43.9709" lon="7.15531">
        <ele>514.00007815958</ele>
        <time>2012-04-10T10:04:42Z</time>
      </trkpt>
      <trkpt lat="43.97093" lon="7.15532">
        <ele>512.00006200142</ele>
        <time>2012-04-10T10:04:47Z</time>
      </trkpt>
      <trkpt lat="43.97097" lon="7.15532">
        <ele>506.0000839078</ele>
        <time>2012-04-10T10:04:52Z</time>
      </trkpt>
      <trkpt lat="43.971" lon="7.15531">
        <ele>512.00013308322</ele>
        <time>2012-04-10T10:04:57Z</time>
      </trkpt>
      <trkpt lat="43.97104" lon="7.15528">
        <ele>517.00009258691</ele>
        <time>2012-04-10T10:05:02Z</time>
      </trkpt>
      <trkpt lat="43.97108" lon="7.15527">
        <ele>513.99999978693</ele>
        <time>2012-04-10T10:05:07Z</time>
      </trkpt>
      <trkpt lat="43.97113" lon="7.15526">
        <ele>511.99999288278</ele>
        <time>2012-04-10T10:05:12Z</time>
      </trkpt>
      <trkpt lat="43.97118" lon="7.15525">
        <ele>503.99991822493</ele>
        <time>2012-04-10T10:05:17Z</time>
      </trkpt>
      <trkpt lat="43.97124" lon="7.15522">
        <ele>509.9997879782</ele>
        <time>2012-04-10T10:05:22Z</time>
      </trkpt>
      <trkpt lat="43.97129" lon="7.1552">
        <ele>509.00000014782</ele>
        <time>2012-04-10T10:05:27Z</time>
      </trkpt>
      <trkpt lat="43.97134" lon="7.15517">
        <ele>513.00003682943</ele>
        <time>2012-04-10T10:05:32Z</time>
      </trkpt>
      <trkpt lat="43.97139" lon="7.15515">
        <ele>518.99987894675</ele>
        <time>2012-04-10T10:05:37Z</time>
      </trkpt>
      <trkpt lat="43.97144" lon="7.15512">
        <ele>517.99979081285</ele>
        <time>2012-04-10T10:05:42Z</time>
      </trkpt>
      <trkpt lat="43.9715" lon="7.15512">
        <ele>512.99997265478</ele>
        <time>2012-04-10T10:05:47Z</time>
      </trkpt>
      <trkpt lat="43.97155" lon="7.1551">
        <ele>515.00021878677</ele>
        <time>2012-04-10T10:05:52Z</time>
      </trkpt>
      <trkpt lat="43.97158" lon="7.15509">
        <ele>513.00050316734</ele>
        <time>2012-04-10T10:05:57Z</time>
      </trkpt>
      <trkpt lat="43.9716" lon="7.15508">
        <ele>506.00031174861</ele>
        <time>2012-04-10T10:06:02Z</time>
      </trkpt>
      <trkpt lat="43.97163" lon="7.15506">
        <ele>506.00002877713</ele>
        <time>2012-04-10T10:06:07Z</time>
      </trkpt>
      <trkpt lat="43.97169" lon="7.15505">
        <ele>512.99985353984</ele>
        <time>2012-04-10T10:06:12Z</time>
      </trkpt>
      <trkpt lat="43.97175" lon="7.15502">
        <ele>510.99991652686</ele>
        <time>2012-04-10T10:06:17Z</time>
      </trkpt>
      <trkpt lat="43.9718" lon="7.15502">
        <ele>517.00003156086</ele>
        <time>2012-04-10T10:06:22Z</time>
      </trkpt>
      <trkpt lat="43.97183" lon="7.155">
        <ele>516.0001896459</ele>
        <time>2012-04-10T10:06:27Z</time>
      </trkpt>
      <trkpt lat="43.97187" lon="7.15499">
        <ele>508.99998573367</ele>
        <time>2012-04-10T10:06:32Z</time>
      </trkpt>
      <trkpt lat="43.9719" lon="7.15496">
        <ele>510.99988850576</ele>
        <time>2012-04-10T10:06:37Z</time>
      </trkpt>
      <trkpt lat="43.97194" lon="7.15494">
        <ele>521.99987693311</ele>
        <time>2012-04-10T10:06:42Z</time>
      </trkpt>
      <trkpt lat="43.97199" lon="7.15493">
        <ele>520.99988083325</ele>
        <time>2012-04-10T10:06:47Z</time>
      </trkpt>
      <trkpt lat="43.97204" lon="7.15491">
        <ele>524.99980821964</ele>
        <time>2012-04-10T10:06:52Z</time>
      </trkpt>
      <trkpt lat="43.97208" lon="7.15488">
        <ele>531.000016494</ele>
        <time>2012-04-10T10:06:57Z</time>
      </trkpt>
      <trkpt lat="43.97212" lon="7.15485">
        <ele>524.99995651506</ele>
        <time>2012-04-10T10:07:02Z</time>
      </trkpt>
      <trkpt lat="43.97217" lon="7.15484">
        <ele>529.99993924376</ele>
        <time>2012-04-10T10:07:07Z</time>
      </trkpt>
      <trkpt lat="43.97221" lon="7.15483">
        <ele>528.00003206445</ele>
        <time>2012-04-10T10:07:12Z</time>
      </trkpt>
      <trkpt lat="43.97224" lon="7.15479">
        <ele>530.99997857678</ele>
        <time>2012-04-10T10:07:17Z</time>
      </trkpt>
      <trkpt lat="43.97228" lon="7.15478">
        <ele>526.00004329407</ele>
        <time>2012-04-10T10:07:22Z</time>
      </trkpt>
      <trkpt lat="43.9723" lon="7.15475">
        <ele>527.00012201582</ele>
        <time>2012-04-10T10:07:27Z</time>
      </trkpt>
      <trkpt lat="43.97233" lon="7.15474">
        <ele>528.00012418102</ele>
        <time>2012-04-10T10:07:32Z</time>
      </trkpt>
      <trkpt lat="43.97237" lon="7.15475">
        <ele>525.00010014538</ele>
        <time>2012-04-10T10:07:37Z</time>
      </trkpt>
      <trkpt lat="43.97241" lon="7.15475">
        <ele>523.9999729623</ele>
        <time>2012-04-10T10:07:42Z</time>
      </trkpt>
      <trkpt lat="43.97244" lon="7.15474">
        <ele>518.00047635125</ele>
        <time>2012-04-10T10:07:47Z</time>
      </trkpt>
      <trkpt lat="43.97243" lon="7.15474">
        <ele>516.00035335992</ele>
        <time>2012-04-10T10:07:52Z</time>
      </trkpt>
      <trkpt lat="43.97244" lon="7.15475">
        <ele>524.00013900401</ele>
        <time>2012-04-10T10:07:57Z</time>
      </trkpt>
      <trkpt lat="43.97248" lon="7.15475">
        <ele>519.99992410651</ele>
        <time>2012-04-10T10:08:02Z</time>
      </trkpt>
      <trkpt lat="43.97252" lon="7.15476">
        <ele>520.00013238519</ele>
        <time>2012-04-10T10:08:07Z</time>
      </trkpt>
      <trkpt lat="43.97255" lon="7.15477">
        <ele>519.00018842246</ele>
        <time>2012-04-10T10:08:12Z</time>
      </trkpt>
      <trkpt lat="43.97257" lon="7.15476">
        <ele>519.00013775411</ele>
        <time>2012-04-10T10:08:17Z</time>
      </trkpt>
      <trkpt lat="43.97261" lon="7.15477">
        <ele>522.00015708901</ele>
        <time>2012-04-10T10:08:22Z</time>
      </trkpt>
      <trkpt lat="43.97264" lon="7.15477">
        <ele>520.0000479605</ele>
        <time>2012-04-10T10:08:27Z</time>
      </trkpt>
      <trkpt lat="43.97266" lon="7.15476">
        <ele>531.00051294574</ele>
        <time>2012-04-10T10:08:32Z</time>
      </trkpt>
      <trkpt lat="43.97268" lon="7.15474">
        <ele>535.99999264728</ele>
        <time>2012-04-10T10:08:52Z</time>
      </trkpt>
      <trkpt lat="43.97272" lon="7.1547">
        <ele>530.99989345374</ele>
        <time>2012-04-10T10:08:57Z</time>
      </trkpt>
      <trkpt lat="43.97277" lon="7.15466">
        <ele>530.99994438403</ele>
        <time>2012-04-10T10:09:02Z</time>
      </trkpt>
      <trkpt lat="43.97282" lon="7.15463">
        <ele>530.99992613718</ele>
        <time>2012-04-10T10:09:07Z</time>
      </trkpt>
      <trkpt lat="43.97287" lon="7.1546">
        <ele>530.9998872827</ele>
        <time>2012-04-10T10:09:12Z</time>
      </trkpt>
      <trkpt lat="43.97292" lon="7.15455">
        <ele>538.99988476708</ele>
        <time>2012-04-10T10:09:17Z</time>
      </trkpt>
      <trkpt lat="43.97296" lon="7.15451">
        <ele>536.99991387909</ele>
        <time>2012-04-10T10:09:22Z</time>
      </trkpt>
      <trkpt lat="43.97301" lon="7.15449">
        <ele>538.99996657819</ele>
        <time>2012-04-10T10:09:27Z</time>
      </trkpt>
      <trkpt lat="43.97305" lon="7.15446">
        <ele>539.9998857769</ele>
        <time>2012-04-10T10:09:32Z</time>
      </trkpt>
      <trkpt lat="43.97311" lon="7.15444">
        <ele>533.99998039547</ele>
        <time>2012-04-10T10:09:37Z</time>
      </trkpt>
      <trkpt lat="43.97314" lon="7.1544">
        <ele>533.00008737772</ele>
        <time>2012-04-10T10:09:42Z</time>
      </trkpt>
      <trkpt lat="43.97317" lon="7.15437">
        <ele>538.99988454055</ele>
        <time>2012-04-10T10:09:47Z</time>
      </trkpt>
      <trkpt lat="43.97323" lon="7.15433">
        <ele>537.9998532275</ele>
        <time>2012-04-10T10:09:52Z</time>
      </trkpt>
      <trkpt lat="43.97327" lon="7.15431">
        <ele>537.00000471924</ele>
        <time>2012-04-10T10:09:57Z</time>
      </trkpt>
      <trkpt lat="43.9733" lon="7.15427">
        <ele>538.99979689983</ele>
        <time>2012-04-10T10:10:02Z</time>
      </trkpt>
      <trkpt lat="43.97335" lon="7.15425">
        <ele>541.99994686834</ele>
        <time>2012-04-10T10:10:07Z</time>
      </trkpt>
      <trkpt lat="43.97338" lon="7.15421">
        <ele>541.00006274622</ele>
        <time>2012-04-10T10:10:12Z</time>
      </trkpt>
      <trkpt lat="43.9734" lon="7.15415">
        <ele>543.00013317836</ele>
        <time>2012-04-10T10:10:17Z</time>
      </trkpt>
      <trkpt lat="43.97342" lon="7.1541">
        <ele>544.00005653823</ele>
        <time>2012-04-10T10:10:22Z</time>
      </trkpt>
      <trkpt lat="43.97344" lon="7.15405">
        <ele>541.00009895616</ele>
        <time>2012-04-10T10:10:27Z</time>
      </trkpt>
      <trkpt lat="43.97347" lon="7.15402">
        <ele>541.0001066115</ele>
        <time>2012-04-10T10:10:32Z</time>
      </trkpt>
      <trkpt lat="43.97349" lon="7.15399">
        <ele>544.00012165749</ele>
        <time>2012-04-10T10:10:37Z</time>
      </trkpt>
      <trkpt lat="43.97352" lon="7.15398">
        <ele>540.00007615831</ele>
        <time>2012-04-10T10:10:42Z</time>
      </trkpt>
      <trkpt lat="43.97355" lon="7.15396">
        <ele>536.00017017403</ele>
        <time>2012-04-10T10:10:47Z</time>
      </trkpt>
      <trkpt lat="43.97356" lon="7.15394">
        <ele>537.0002212127</ele>
        <time>2012-04-10T10:10:52Z</time>
      </trkpt>
      <trkpt lat="43.97358" lon="7.1539">
        <ele>537.00043408664</ele>
        <time>2012-04-10T10:10:57Z</time>
      </trkpt>
      <trkpt lat="43.97361" lon="7.15393">
        <ele>538.00007676514</ele>
        <time>2012-04-10T10:11:02Z</time>
      </trkpt>
      <trkpt lat="43.97363" lon="7.15392">
        <ele>544.00024061161</ele>
        <time>2012-04-10T10:11:07Z</time>
      </trkpt>
      <trkpt lat="43.97367" lon="7.15394">
        <ele>542.00001209842</ele>
        <time>2012-04-10T10:11:12Z</time>
      </trkpt>
      <trkpt lat="43.97371" lon="7.15394">
        <ele>538.00005270067</ele>
        <time>2012-04-10T10:11:17Z</time>
      </trkpt>
      <trkpt lat="43.97373" lon="7.15393">
        <ele>537.00031915504</ele>
        <time>2012-04-10T10:11:22Z</time>
      </trkpt>
      <trkpt lat="43.97376" lon="7.15394">
        <ele>548.0004644165</ele>
        <time>2012-04-10T10:11:27Z</time>
      </trkpt>
      <trkpt lat="43.97376" lon="7.15394">
        <ele>525.00057332985</ele>
        <time>2012-04-10T10:11:32Z</time>
      </trkpt>
      <trkpt lat="43.97376" lon="7.15394">
        <ele>521.00044752669</ele>
        <time>2012-04-10T10:11:37Z</time>
      </trkpt>
      <trkpt lat="43.9738" lon="7.15394">
        <ele>534.99974289434</ele>
        <time>2012-04-10T10:11:42Z</time>
      </trkpt>
      <trkpt lat="43.97386" lon="7.15394">
        <ele>538.99995739215</ele>
        <time>2012-04-10T10:11:47Z</time>
      </trkpt>
      <trkpt lat="43.97388" lon="7.15394">
        <ele>541.99988911167</ele>
        <time>2012-04-10T10:11:52Z</time>
      </trkpt>
      <trkpt lat="43.97392" lon="7.15396">
        <ele>541.0001511688</ele>
        <time>2012-04-10T10:11:57Z</time>
      </trkpt>
      <trkpt lat="43.97396" lon="7.15396">
        <ele>539.99973131631</ele>
        <time>2012-04-10T10:12:02Z</time>
      </trkpt>
      <trkpt lat="43.97402" lon="7.15396">
        <ele>542.00003735218</ele>
        <time>2012-04-10T10:12:07Z</time>
      </trkpt>
      <trkpt lat="43.97405" lon="7.15396">
        <ele>545.00029260544</ele>
        <time>2012-04-10T10:12:12Z</time>
      </trkpt>
      <trkpt lat="43.97405" lon="7.15395">
        <ele>545.00035848622</ele>
        <time>2012-04-10T10:12:17Z</time>
      </trkpt>
      <trkpt lat="43.97408" lon="7.15396">
        <ele>546.99990459407</ele>
        <time>2012-04-10T10:12:27Z</time>
      </trkpt>
      <trkpt lat="43.97411" lon="7.15395">
        <ele>549.00013720644</ele>
        <time>2012-04-10T10:12:32Z</time>
      </trkpt>
      <trkpt lat="43.97414" lon="7.15395">
        <ele>545.00007774434</ele>
        <time>2012-04-10T10:12:37Z</time>
      </trkpt>
      <trkpt lat="43.9742" lon="7.15395">
        <ele>541.99965562284</ele>
        <time>2012-04-10T10:12:42Z</time>
      </trkpt>
      <trkpt lat="43.97425" lon="7.15394">
        <ele>540.99987910633</ele>
        <time>2012-04-10T10:12:47Z</time>
      </trkpt>
      <trkpt lat="43.97429" lon="7.15394">
        <ele>543.00028156928</ele>
        <time>2012-04-10T10:12:52Z</time>
      </trkpt>
      <trkpt lat="43.97431" lon="7.15393">
        <ele>541.00027076469</ele>
        <time>2012-04-10T10:12:57Z</time>
      </trkpt>
      <trkpt lat="43.97432" lon="7.1539">
        <ele>541.0006490313</ele>
        <time>2012-04-10T10:13:02Z</time>
      </trkpt>
      <trkpt lat="43.97432" lon="7.15389">
        <ele>538.00057744838</ele>
        <time>2012-04-10T10:13:12Z</time>
      </trkpt>
      <trkpt lat="43.9743" lon="7.15387">
        <ele>536.00061328492</ele>
        <time>2012-04-10T10:13:17Z</time>
      </trkpt>
      <trkpt lat="43.97429" lon="7.15385">
        <ele>542.00029431096</ele>
        <time>2012-04-10T10:13:22Z</time>
      </trkpt>
      <trkpt lat="43.97429" lon="7.15383">
        <ele>535.00044784195</ele>
        <time>2012-04-10T10:13:27Z</time>
      </trkpt>
      <trkpt lat="43.97429" lon="7.15382">
        <ele>537.0002765307</ele>
        <time>2012-04-10T10:13:32Z</time>
      </trkpt>
      <trkpt lat="43.97428" lon="7.15379">
        <ele>552.99991296506</ele>
        <time>2012-04-10T10:13:42Z</time>
      </trkpt>
      <trkpt lat="43.97428" lon="7.15369">
        <ele>563.99980369621</ele>
        <time>2012-04-10T10:13:47Z</time>
      </trkpt>
      <trkpt lat="43.97429" lon="7.15361">
        <ele>567.99988578065</ele>
        <time>2012-04-10T10:13:52Z</time>
      </trkpt>
      <trkpt lat="43.97428" lon="7.15355">
        <ele>570.00010371067</ele>
        <time>2012-04-10T10:13:57Z</time>
      </trkpt>
      <trkpt lat="43.97426" lon="7.1535">
        <ele>569.00008289225</ele>
        <time>2012-04-10T10:14:02Z</time>
      </trkpt>
      <trkpt lat="43.97423" lon="7.15343">
        <ele>565.00013980805</ele>
        <time>2012-04-10T10:14:07Z</time>
      </trkpt>
      <trkpt lat="43.9742" lon="7.15337">
        <ele>569.00014832762</ele>
        <time>2012-04-10T10:14:12Z</time>
      </trkpt>
      <trkpt lat="43.97417" lon="7.15333">
        <ele>569.9999039779</ele>
        <time>2012-04-10T10:14:17Z</time>
      </trkpt>
      <trkpt lat="43.97417" lon="7.15332">
        <ele>570.99986915373</ele>
        <time>2012-04-10T10:14:22Z</time>
      </trkpt>
      <trkpt lat="43.97417" lon="7.15332">
        <ele>560.99973761773</ele>
        <time>2012-04-10T10:16:12Z</time>
      </trkpt>
      <trkpt lat="43.9742" lon="7.15336">
        <ele>559.9997517877</ele>
        <time>2012-04-10T10:16:32Z</time>
      </trkpt>
      <trkpt lat="43.97423" lon="7.15338">
        <ele>564.00032960676</ele>
        <time>2012-04-10T10:16:37Z</time>
      </trkpt>
      <trkpt lat="43.97423" lon="7.15334">
        <ele>559.00027281082</ele>
        <time>2012-04-10T10:16:42Z</time>
      </trkpt>
      <trkpt lat="43.97423" lon="7.15332">
        <ele>556.0002927005</ele>
        <time>2012-04-10T10:16:47Z</time>
      </trkpt>
      <trkpt lat="43.97422" lon="7.15334">
        <ele>559.00007124077</ele>
        <time>2012-04-10T10:17:12Z</time>
      </trkpt>
      <trkpt lat="43.97422" lon="7.15335">
        <ele>577.99998832717</ele>
        <time>2012-04-10T10:17:22Z</time>
      </trkpt>
      <trkpt lat="43.97421" lon="7.15335">
        <ele>573.00020900774</ele>
        <time>2012-04-10T10:17:52Z</time>
      </trkpt>
      <trkpt lat="43.97422" lon="7.15335">
        <ele>562.00003570949</ele>
        <time>2012-04-10T10:17:57Z</time>
      </trkpt>
      <trkpt lat="43.97424" lon="7.15337">
        <ele>571.00012818615</ele>
        <time>2012-04-10T10:18:02Z</time>
      </trkpt>
      <trkpt lat="43.97425" lon="7.15337">
        <ele>569.00033327557</ele>
        <time>2012-04-10T10:18:07Z</time>
      </trkpt>
      <trkpt lat="43.97424" lon="7.15335">
        <ele>566.00003132238</ele>
        <time>2012-04-10T10:18:17Z</time>
      </trkpt>
      <trkpt lat="43.97423" lon="7.15335">
        <ele>572.99957624934</ele>
        <time>2012-04-10T10:18:22Z</time>
      </trkpt>
      <trkpt lat="43.97428" lon="7.15333">
        <ele>563.9999194027</ele>
        <time>2012-04-10T10:18:27Z</time>
      </trkpt>
      <trkpt lat="43.97433" lon="7.15333">
        <ele>565.00008745512</ele>
        <time>2012-04-10T10:18:32Z</time>
      </trkpt>
      <trkpt lat="43.97434" lon="7.15335">
        <ele>572.0001932742</ele>
        <time>2012-04-10T10:18:37Z</time>
      </trkpt>
      <trkpt lat="43.97432" lon="7.15334">
        <ele>570.00016217804</ele>
        <time>2012-04-10T10:18:42Z</time>
      </trkpt>
      <trkpt lat="43.97429" lon="7.15331">
        <ele>566.99964566137</ele>
        <time>2012-04-10T10:18:47Z</time>
      </trkpt>
      <trkpt lat="43.97429" lon="7.15332">
        <ele>567.99997630637</ele>
        <time>2012-04-10T10:18:52Z</time>
      </trkpt>
      <trkpt lat="43.97426" lon="7.15335">
        <ele>571.00020994348</ele>
        <time>2012-04-10T10:18:57Z</time>
      </trkpt>
      <trkpt lat="43.97424" lon="7.15339">
        <ele>569.99990272974</ele>
        <time>2012-04-10T10:19:02Z</time>
      </trkpt>
      <trkpt lat="43.97422" lon="7.15343">
        <ele>574.99997298131</ele>
        <time>2012-04-10T10:19:07Z</time>
      </trkpt>
      <trkpt lat="43.97421" lon="7.15344">
        <ele>569.99964180985</ele>
        <time>2012-04-10T10:19:12Z</time>
      </trkpt>
      <trkpt lat="43.97423" lon="7.1534">
        <ele>569.99998404438</ele>
        <time>2012-04-10T10:19:17Z</time>
      </trkpt>
      <trkpt lat="43.97422" lon="7.15341">
        <ele>572.9997007574</ele>
        <time>2012-04-10T10:19:22Z</time>
      </trkpt>
      <trkpt lat="43.97422" lon="7.15342">
        <ele>565.99968703049</ele>
        <time>2012-04-10T10:20:37Z</time>
      </trkpt>
      <trkpt lat="43.97422" lon="7.15342">
        <ele>568.99976864219</ele>
        <time>2012-04-10T10:21:17Z</time>
      </trkpt>
      <trkpt lat="43.97422" lon="7.15342">
        <ele>562.99970210705</ele>
        <time>2012-04-10T10:21:27Z</time>
      </trkpt>
      <trkpt lat="43.97423" lon="7.15342">
        <ele>564.99967259358</ele>
        <time>2012-04-10T10:21:32Z</time>
      </trkpt>
      <trkpt lat="43.97425" lon="7.1534">
        <ele>568.00007381569</ele>
        <time>2012-04-10T10:21:37Z</time>
      </trkpt>
      <trkpt lat="43.97425" lon="7.15339">
        <ele>566.00022958419</ele>
        <time>2012-04-10T10:21:42Z</time>
      </trkpt>
      <trkpt lat="43.97425" lon="7.15339">
        <ele>563.99999308638</ele>
        <time>2012-04-10T10:21:47Z</time>
      </trkpt>
      <trkpt lat="43.97427" lon="7.15335">
        <ele>562.99999706998</ele>
        <time>2012-04-10T10:21:52Z</time>
      </trkpt>
      <trkpt lat="43.97429" lon="7.15333">
        <ele>554.00002954629</ele>
        <time>2012-04-10T10:21:57Z</time>
      </trkpt>
      <trkpt lat="43.97432" lon="7.15332">
        <ele>557.00009639847</ele>
        <time>2012-04-10T10:22:02Z</time>
      </trkpt>
      <trkpt lat="43.97433" lon="7.15332">
        <ele>562.00025864095</ele>
        <time>2012-04-10T10:22:07Z</time>
      </trkpt>
      <trkpt lat="43.97433" lon="7.15331">
        <ele>570.00026282111</ele>
        <time>2012-04-10T10:22:17Z</time>
      </trkpt>
      <trkpt lat="43.97433" lon="7.15332">
        <ele>569.00008076098</ele>
        <time>2012-04-10T10:22:22Z</time>
      </trkpt>
      <trkpt lat="43.97433" lon="7.15332">
        <ele>569.99999873456</ele>
        <time>2012-04-10T10:22:27Z</time>
      </trkpt>
      <trkpt lat="43.97433" lon="7.15331">
        <ele>564.99992440832</ele>
        <time>2012-04-10T10:22:32Z</time>
      </trkpt>
      <trkpt lat="43.97434" lon="7.15333">
        <ele>574.9987920185</ele>
        <time>2012-04-10T10:22:47Z</time>
      </trkpt>
      <trkpt lat="43.97435" lon="7.15334">
        <ele>567.99908396699</ele>
        <time>2012-04-10T10:24:12Z</time>
      </trkpt>
      <trkpt lat="43.97436" lon="7.15335">
        <ele>570.99947907577</ele>
        <time>2012-04-10T10:24:42Z</time>
      </trkpt>
      <trkpt lat="43.97436" lon="7.15338">
        <ele>570.00003915416</ele>
        <time>2012-04-10T10:24:47Z</time>
      </trkpt>
      <trkpt lat="43.97434" lon="7.1534">
        <ele>566.99957084192</ele>
        <time>2012-04-10T10:24:52Z</time>
      </trkpt>
      <trkpt lat="43.97433" lon="7.15339">
        <ele>579.00011329767</ele>
        <time>2012-04-10T10:25:12Z</time>
      </trkpt>
      <trkpt lat="43.97433" lon="7.1534">
        <ele>583.00040507812</ele>
        <time>2012-04-10T10:25:17Z</time>
      </trkpt>
      <trkpt lat="43.9743" lon="7.15339">
        <ele>570.99971862946</ele>
        <time>2012-04-10T10:25:22Z</time>
      </trkpt>
      <trkpt lat="43.97431" lon="7.15338">
        <ele>567.99982115795</ele>
        <time>2012-04-10T10:25:37Z</time>
      </trkpt>
      <trkpt lat="43.97432" lon="7.15335">
        <ele>564.00002022416</ele>
        <time>2012-04-10T10:25:42Z</time>
      </trkpt>
      <trkpt lat="43.97433" lon="7.15337">
        <ele>568.00024394796</ele>
        <time>2012-04-10T10:25:47Z</time>
      </trkpt>
      <trkpt lat="43.97433" lon="7.15338">
        <ele>562.00029386403</ele>
        <time>2012-04-10T10:25:52Z</time>
      </trkpt>
      <trkpt lat="43.97433" lon="7.15338">
        <ele>557.00020715252</ele>
        <time>2012-04-10T10:25:57Z</time>
      </trkpt>
      <trkpt lat="43.97434" lon="7.15338">
        <ele>543.99989070255</ele>
        <time>2012-04-10T10:26:02Z</time>
      </trkpt>
      <trkpt lat="43.97435" lon="7.15338">
        <ele>540.9997975775</ele>
        <time>2012-04-10T10:26:07Z</time>
      </trkpt>
      <trkpt lat="43.97435" lon="7.15337">
        <ele>578.9998555886</ele>
        <time>2012-04-10T10:27:07Z</time>
      </trkpt>
      <trkpt lat="43.97435" lon="7.15336">
        <ele>566.00029500271</ele>
        <time>2012-04-10T10:27:22Z</time>
      </trkpt>
      <trkpt lat="43.97435" lon="7.15335">
        <ele>567.0002248069</ele>
        <time>2012-04-10T10:27:27Z</time>
      </trkpt>
      <trkpt lat="43.97434" lon="7.15335">
        <ele>566.00020375084</ele>
        <time>2012-04-10T10:27:32Z</time>
      </trkpt>
      <trkpt lat="43.97434" lon="7.15335">
        <ele>567.00023083839</ele>
        <time>2012-04-10T10:27:37Z</time>
      </trkpt>
      <trkpt lat="43.9743" lon="7.15337">
        <ele>572.00040001337</ele>
        <time>2012-04-10T10:27:42Z</time>
      </trkpt>
      <trkpt lat="43.97423" lon="7.15335">
        <ele>567.99991985944</ele>
        <time>2012-04-10T10:27:47Z</time>
      </trkpt>
      <trkpt lat="43.97424" lon="7.15333">
        <ele>570.00000985702</ele>
        <time>2012-04-10T10:27:52Z</time>
      </trkpt>
      <trkpt lat="43.97426" lon="7.15333">
        <ele>571.00014077132</ele>
        <time>2012-04-10T10:27:57Z</time>
      </trkpt>
      <trkpt lat="43.97427" lon="7.15333">
        <ele>562.00003759947</ele>
        <time>2012-04-10T10:28:02Z</time>
      </trkpt>
      <trkpt lat="43.97427" lon="7.15333">
        <ele>561.99947251395</ele>
        <time>2012-04-10T10:28:07Z</time>
      </trkpt>
      <trkpt lat="43.97427" lon="7.15333">
        <ele>557.99946601147</ele>
        <time>2012-04-10T10:28:12Z</time>
      </trkpt>
      <trkpt lat="43.97427" lon="7.15331">
        <ele>568.99995435657</ele>
        <time>2012-04-10T10:28:22Z</time>
      </trkpt>
      <trkpt lat="43.97427" lon="7.15331">
        <ele>575.00009337832</ele>
        <time>2012-04-10T10:28:32Z</time>
      </trkpt>
      <trkpt lat="43.97427" lon="7.15331">
        <ele>571.0004092129</ele>
        <time>2012-04-10T10:28:37Z</time>
      </trkpt>
      <trkpt lat="43.97426" lon="7.15331">
        <ele>563.00032380045</ele>
        <time>2012-04-10T10:28:42Z</time>
      </trkpt>
      <trkpt lat="43.97426" lon="7.15331">
        <ele>572.0010496994</ele>
        <time>2012-04-10T10:28:47Z</time>
      </trkpt>
      <trkpt lat="43.97424" lon="7.15332">
        <ele>567.00072522146</ele>
        <time>2012-04-10T10:28:52Z</time>
      </trkpt>
      <trkpt lat="43.97422" lon="7.15333">
        <ele>573.00058508179</ele>
        <time>2012-04-10T10:28:57Z</time>
      </trkpt>
      <trkpt lat="43.97425" lon="7.15334">
        <ele>569.00001415417</ele>
        <time>2012-04-10T10:29:02Z</time>
      </trkpt>
      <trkpt lat="43.97424" lon="7.15336">
        <ele>569.99977453972</ele>
        <time>2012-04-10T10:29:07Z</time>
      </trkpt>
      <trkpt lat="43.9742" lon="7.15333">
        <ele>562.99913393204</ele>
        <time>2012-04-10T10:29:12Z</time>
      </trkpt>
      <trkpt lat="43.97421" lon="7.15333">
        <ele>562.99980133009</ele>
        <time>2012-04-10T10:29:17Z</time>
      </trkpt>
      <trkpt lat="43.97422" lon="7.15334">
        <ele>572.99984668117</ele>
        <time>2012-04-10T10:29:22Z</time>
      </trkpt>
      <trkpt lat="43.97422" lon="7.15334">
        <ele>571.99982181028</ele>
        <time>2012-04-10T10:29:27Z</time>
      </trkpt>
      <trkpt lat="43.97423" lon="7.15334">
        <ele>563.99969301209</ele>
        <time>2012-04-10T10:29:32Z</time>
      </trkpt>
      <trkpt lat="43.97423" lon="7.15335">
        <ele>576.99919832743</ele>
        <time>2012-04-10T10:29:37Z</time>
      </trkpt>
      <trkpt lat="43.97425" lon="7.15337">
        <ele>561.99974634048</ele>
        <time>2012-04-10T10:29:42Z</time>
      </trkpt>
      <trkpt lat="43.97428" lon="7.1534">
        <ele>567.00013033832</ele>
        <time>2012-04-10T10:29:47Z</time>
      </trkpt>
      <trkpt lat="43.97429" lon="7.15341">
        <ele>566.00012621854</ele>
        <time>2012-04-10T10:29:52Z</time>
      </trkpt>
      <trkpt lat="43.97426" lon="7.15339">
        <ele>570.00004991189</ele>
        <time>2012-04-10T10:29:57Z</time>
      </trkpt>
      <trkpt lat="43.97426" lon="7.15336">
        <ele>567.00030451744</ele>
        <time>2012-04-10T10:30:02Z</time>
      </trkpt>
      <trkpt lat="43.97428" lon="7.15337">
        <ele>568.00028252727</ele>
        <time>2012-04-10T10:30:07Z</time>
      </trkpt>
      <trkpt lat="43.97428" lon="7.15337">
        <ele>569.00038297325</ele>
        <time>2012-04-10T10:30:17Z</time>
      </trkpt>
      <trkpt lat="43.97428" lon="7.15337">
        <ele>568.0002187814</ele>
        <time>2012-04-10T10:30:22Z</time>
      </trkpt>
      <trkpt lat="43.97428" lon="7.15337">
        <ele>576.00020355616</ele>
        <time>2012-04-10T10:30:37Z</time>
      </trkpt>
      <trkpt lat="43.97428" lon="7.15336">
        <ele>567.99998817265</ele>
        <time>2012-04-10T10:30:47Z</time>
      </trkpt>
      <trkpt lat="43.97431" lon="7.15332">
        <ele>573.00023221221</ele>
        <time>2012-04-10T10:30:52Z</time>
      </trkpt>
      <trkpt lat="43.97433" lon="7.15332">
        <ele>567.00032170487</ele>
        <time>2012-04-10T10:30:57Z</time>
      </trkpt>
      <trkpt lat="43.97436" lon="7.15328">
        <ele>572.00106672423</ele>
        <time>2012-04-10T10:31:02Z</time>
      </trkpt>
      <trkpt lat="43.97435" lon="7.15328">
        <ele>571.00084631757</ele>
        <time>2012-04-10T10:31:07Z</time>
      </trkpt>
      <trkpt lat="43.97434" lon="7.1533">
        <ele>563.00041244864</ele>
        <time>2012-04-10T10:31:12Z</time>
      </trkpt>
      <trkpt lat="43.97436" lon="7.1533">
        <ele>560.00007619814</ele>
        <time>2012-04-10T10:31:17Z</time>
      </trkpt>
      <trkpt lat="43.97441" lon="7.15329">
        <ele>556.9996917846</ele>
        <time>2012-04-10T10:31:22Z</time>
      </trkpt>
      <trkpt lat="43.97446" lon="7.15326">
        <ele>558.99998818713</ele>
        <time>2012-04-10T10:31:27Z</time>
      </trkpt>
      <trkpt lat="43.9745" lon="7.15323">
        <ele>562.00012797084</ele>
        <time>2012-04-10T10:31:32Z</time>
      </trkpt>
      <trkpt lat="43.97452" lon="7.1532">
        <ele>558.00014379454</ele>
        <time>2012-04-10T10:31:37Z</time>
      </trkpt>
      <trkpt lat="43.97454" lon="7.15316">
        <ele>557.00017678624</ele>
        <time>2012-04-10T10:31:42Z</time>
      </trkpt>
      <trkpt lat="43.97457" lon="7.15312">
        <ele>564.00014290135</ele>
        <time>2012-04-10T10:31:47Z</time>
      </trkpt>
      <trkpt lat="43.9746" lon="7.15308">
        <ele>563.00010752996</ele>
        <time>2012-04-10T10:31:52Z</time>
      </trkpt>
      <trkpt lat="43.97464" lon="7.15304">
        <ele>563.99989849951</ele>
        <time>2012-04-10T10:31:57Z</time>
      </trkpt>
      <trkpt lat="43.97468" lon="7.153">
        <ele>567.9999850336</ele>
        <time>2012-04-10T10:32:02Z</time>
      </trkpt>
      <trkpt lat="43.97472" lon="7.15297">
        <ele>569.99995754181</ele>
        <time>2012-04-10T10:32:07Z</time>
      </trkpt>
      <trkpt lat="43.97477" lon="7.15292">
        <ele>564.9999989411</ele>
        <time>2012-04-10T10:32:12Z</time>
      </trkpt>
      <trkpt lat="43.97481" lon="7.15287">
        <ele>567.0000708317</ele>
        <time>2012-04-10T10:32:17Z</time>
      </trkpt>
      <trkpt lat="43.97486" lon="7.15283">
        <ele>567.99994344764</ele>
        <time>2012-04-10T10:32:22Z</time>
      </trkpt>
      <trkpt lat="43.97492" lon="7.1528">
        <ele>567.99999547158</ele>
        <time>2012-04-10T10:32:27Z</time>
      </trkpt>
      <trkpt lat="43.97497" lon="7.15276">
        <ele>568.99998476702</ele>
        <time>2012-04-10T10:32:32Z</time>
      </trkpt>
      <trkpt lat="43.97502" lon="7.15272">
        <ele>570.00002259244</ele>
        <time>2012-04-10T10:32:37Z</time>
      </trkpt>
      <trkpt lat="43.97507" lon="7.15268">
        <ele>564.00007377399</ele>
        <time>2012-04-10T10:32:42Z</time>
      </trkpt>
      <trkpt lat="43.97511" lon="7.15265">
        <ele>568.99999465942</ele>
        <time>2012-04-10T10:32:47Z</time>
      </trkpt>
      <trkpt lat="43.97517" lon="7.15262">
        <ele>568.00002305821</ele>
        <time>2012-04-10T10:32:52Z</time>
      </trkpt>
      <trkpt lat="43.97521" lon="7.15257">
        <ele>569.00001603596</ele>
        <time>2012-04-10T10:32:57Z</time>
      </trkpt>
      <trkpt lat="43.97526" lon="7.15251">
        <ele>568.99992303735</ele>
        <time>2012-04-10T10:33:02Z</time>
      </trkpt>
      <trkpt lat="43.97531" lon="7.15247">
        <ele>569.00006260828</ele>
        <time>2012-04-10T10:33:07Z</time>
      </trkpt>
      <trkpt lat="43.97535" lon="7.15244">
        <ele>574.00014878796</ele>
        <time>2012-04-10T10:33:12Z</time>
      </trkpt>
      <trkpt lat="43.97539" lon="7.15241">
        <ele>567.00018391746</ele>
        <time>2012-04-10T10:33:17Z</time>
      </trkpt>
      <trkpt lat="43.97543" lon="7.15236">
        <ele>571.00001384101</ele>
        <time>2012-04-10T10:33:22Z</time>
      </trkpt>
      <trkpt lat="43.97547" lon="7.15233">
        <ele>575.00005650764</ele>
        <time>2012-04-10T10:33:27Z</time>
      </trkpt>
      <trkpt lat="43.97551" lon="7.15228">
        <ele>581.0001813152</ele>
        <time>2012-04-10T10:33:32Z</time>
      </trkpt>
      <trkpt lat="43.97554" lon="7.15223">
        <ele>571.99996301511</ele>
        <time>2012-04-10T10:33:37Z</time>
      </trkpt>
      <trkpt lat="43.97559" lon="7.15219">
        <ele>572.99997048284</ele>
        <time>2012-04-10T10:33:42Z</time>
      </trkpt>
      <trkpt lat="43.97564" lon="7.15218">
        <ele>567.99995816895</ele>
        <time>2012-04-10T10:33:47Z</time>
      </trkpt>
      <trkpt lat="43.97568" lon="7.15215">
        <ele>573.00009999194</ele>
        <time>2012-04-10T10:33:52Z</time>
      </trkpt>
      <trkpt lat="43.97572" lon="7.15212">
        <ele>570.00004153588</ele>
        <time>2012-04-10T10:33:57Z</time>
      </trkpt>
      <trkpt lat="43.97575" lon="7.1521">
        <ele>569.00025463051</ele>
        <time>2012-04-10T10:34:02Z</time>
      </trkpt>
      <trkpt lat="43.97578" lon="7.15208">
        <ele>564.00014398365</ele>
        <time>2012-04-10T10:34:07Z</time>
      </trkpt>
      <trkpt lat="43.97582" lon="7.15205">
        <ele>574.00025556783</ele>
        <time>2012-04-10T10:34:12Z</time>
      </trkpt>
      <trkpt lat="43.97586" lon="7.15204">
        <ele>577.99998118698</ele>
        <time>2012-04-10T10:34:17Z</time>
      </trkpt>
      <trkpt lat="43.97591" lon="7.15201">
        <ele>573.99994225408</ele>
        <time>2012-04-10T10:34:22Z</time>
      </trkpt>
      <trkpt lat="43.97596" lon="7.15197">
        <ele>580.0000532785</ele>
        <time>2012-04-10T10:34:27Z</time>
      </trkpt>
      <trkpt lat="43.976" lon="7.15195">
        <ele>577.00004833081</ele>
        <time>2012-04-10T10:34:32Z</time>
      </trkpt>
      <trkpt lat="43.97605" lon="7.15194">
        <ele>580.00004261578</ele>
        <time>2012-04-10T10:34:37Z</time>
      </trkpt>
      <trkpt lat="43.9761" lon="7.15192">
        <ele>575.00004837786</ele>
        <time>2012-04-10T10:34:42Z</time>
      </trkpt>
      <trkpt lat="43.97614" lon="7.15192">
        <ele>577.00006287138</ele>
        <time>2012-04-10T10:34:47Z</time>
      </trkpt>
      <trkpt lat="43.97618" lon="7.15192">
        <ele>576.00010311315</ele>
        <time>2012-04-10T10:34:52Z</time>
      </trkpt>
      <trkpt lat="43.97622" lon="7.1519">
        <ele>581.00009031488</ele>
        <time>2012-04-10T10:34:57Z</time>
      </trkpt>
      <trkpt lat="43.97626" lon="7.1519">
        <ele>582.00023276596</ele>
        <time>2012-04-10T10:35:02Z</time>
      </trkpt>
      <trkpt lat="43.9763" lon="7.1519">
        <ele>580.00001808996</ele>
        <time>2012-04-10T10:35:07Z</time>
      </trkpt>
      <trkpt lat="43.97635" lon="7.15189">
        <ele>583.00002406857</ele>
        <time>2012-04-10T10:35:12Z</time>
      </trkpt>
      <trkpt lat="43.97639" lon="7.1519">
        <ele>583.00009441056</ele>
        <time>2012-04-10T10:35:17Z</time>
      </trkpt>
      <trkpt lat="43.97643" lon="7.1519">
        <ele>588.0000800758</ele>
        <time>2012-04-10T10:35:22Z</time>
      </trkpt>
      <trkpt lat="43.97647" lon="7.15191">
        <ele>583.00015986381</ele>
        <time>2012-04-10T10:35:27Z</time>
      </trkpt>
      <trkpt lat="43.97651" lon="7.15193">
        <ele>582.99992838101</ele>
        <time>2012-04-10T10:35:32Z</time>
      </trkpt>
      <trkpt lat="43.97656" lon="7.15194">
        <ele>577.99970214345</ele>
        <time>2012-04-10T10:35:37Z</time>
      </trkpt>
      <trkpt lat="43.97661" lon="7.15194">
        <ele>574.99993514391</ele>
        <time>2012-04-10T10:35:42Z</time>
      </trkpt>
      <trkpt lat="43.97666" lon="7.15195">
        <ele>577.99980379109</ele>
        <time>2012-04-10T10:35:47Z</time>
      </trkpt>
      <trkpt lat="43.97671" lon="7.15194">
        <ele>582.00008884152</ele>
        <time>2012-04-10T10:35:52Z</time>
      </trkpt>
      <trkpt lat="43.97675" lon="7.15192">
        <ele>580.99997900781</ele>
        <time>2012-04-10T10:35:57Z</time>
      </trkpt>
      <trkpt lat="43.9768" lon="7.15192">
        <ele>580.9999094167</ele>
        <time>2012-04-10T10:36:02Z</time>
      </trkpt>
      <trkpt lat="43.97685" lon="7.1519">
        <ele>586.00001456246</ele>
        <time>2012-04-10T10:36:07Z</time>
      </trkpt>
      <trkpt lat="43.9769" lon="7.15189">
        <ele>586.0000658244</ele>
        <time>2012-04-10T10:36:12Z</time>
      </trkpt>
      <trkpt lat="43.97694" lon="7.15189">
        <ele>581.00005152188</ele>
        <time>2012-04-10T10:36:17Z</time>
      </trkpt>
      <trkpt lat="43.97699" lon="7.15189">
        <ele>582.99996705551</ele>
        <time>2012-04-10T10:36:22Z</time>
      </trkpt>
      <trkpt lat="43.97704" lon="7.15188">
        <ele>584.99994084323</ele>
        <time>2012-04-10T10:36:27Z</time>
      </trkpt>
      <trkpt lat="43.97708" lon="7.15188">
        <ele>586.00010417985</ele>
        <time>2012-04-10T10:36:32Z</time>
      </trkpt>
      <trkpt lat="43.97712" lon="7.15188">
        <ele>586.0000834356</ele>
        <time>2012-04-10T10:36:37Z</time>
      </trkpt>
      <trkpt lat="43.97716" lon="7.15188">
        <ele>587.00010038639</ele>
        <time>2012-04-10T10:36:42Z</time>
      </trkpt>
      <trkpt lat="43.97719" lon="7.15189">
        <ele>588.00017597602</ele>
        <time>2012-04-10T10:36:47Z</time>
      </trkpt>
      <trkpt lat="43.97723" lon="7.15188">
        <ele>588.99998304714</ele>
        <time>2012-04-10T10:36:52Z</time>
      </trkpt>
      <trkpt lat="43.97729" lon="7.15189">
        <ele>584.9999454553</ele>
        <time>2012-04-10T10:36:57Z</time>
      </trkpt>
      <trkpt lat="43.97733" lon="7.1519">
        <ele>589.99993274868</ele>
        <time>2012-04-10T10:37:02Z</time>
      </trkpt>
      <trkpt lat="43.97738" lon="7.15192">
        <ele>584.99995494404</ele>
        <time>2012-04-10T10:37:07Z</time>
      </trkpt>
      <trkpt lat="43.97743" lon="7.15192">
        <ele>587.00007128779</ele>
        <time>2012-04-10T10:37:12Z</time>
      </trkpt>
      <trkpt lat="43.97746" lon="7.15192">
        <ele>589.00023771456</ele>
        <time>2012-04-10T10:37:17Z</time>
      </trkpt>
      <trkpt lat="43.9775" lon="7.15193">
        <ele>589.0002165683</ele>
        <time>2012-04-10T10:37:22Z</time>
      </trkpt>
      <trkpt lat="43.97754" lon="7.15193">
        <ele>593.00002854233</ele>
        <time>2012-04-10T10:37:27Z</time>
      </trkpt>
      <trkpt lat="43.97759" lon="7.15194">
        <ele>598.00003849521</ele>
        <time>2012-04-10T10:37:32Z</time>
      </trkpt>
      <trkpt lat="43.97764" lon="7.15195">
        <ele>595.99961023909</ele>
        <time>2012-04-10T10:37:37Z</time>
      </trkpt>
      <trkpt lat="43.9777" lon="7.15196">
        <ele>594.9999149544</ele>
        <time>2012-04-10T10:37:42Z</time>
      </trkpt>
      <trkpt lat="43.97776" lon="7.15196">
        <ele>593.99964349643</ele>
        <time>2012-04-10T10:37:47Z</time>
      </trkpt>
      <trkpt lat="43.97782" lon="7.15197">
        <ele>598.00014673151</ele>
        <time>2012-04-10T10:37:52Z</time>
      </trkpt>
      <trkpt lat="43.97786" lon="7.15197">
        <ele>590.00001358873</ele>
        <time>2012-04-10T10:37:57Z</time>
      </trkpt>
      <trkpt lat="43.97791" lon="7.15197">
        <ele>594.00008415859</ele>
        <time>2012-04-10T10:38:02Z</time>
      </trkpt>
      <trkpt lat="43.97795" lon="7.15195">
        <ele>591.0001493888</ele>
        <time>2012-04-10T10:38:07Z</time>
      </trkpt>
      <trkpt lat="43.978" lon="7.15194">
        <ele>595.00017852468</ele>
        <time>2012-04-10T10:38:12Z</time>
      </trkpt>
      <trkpt lat="43.97805" lon="7.15193">
        <ele>597.00031742526</ele>
        <time>2012-04-10T10:38:17Z</time>
      </trkpt>
      <trkpt lat="43.97809" lon="7.15192">
        <ele>594.00040127029</ele>
        <time>2012-04-10T10:38:22Z</time>
      </trkpt>
      <trkpt lat="43.97812" lon="7.15192">
        <ele>595.0004425474</ele>
        <time>2012-04-10T10:38:27Z</time>
      </trkpt>
      <trkpt lat="43.97816" lon="7.15192">
        <ele>595.00082174247</ele>
        <time>2012-04-10T10:38:32Z</time>
      </trkpt>
      <trkpt lat="43.97818" lon="7.1519">
        <ele>598.00055177579</ele>
        <time>2012-04-10T10:38:37Z</time>
      </trkpt>
      <trkpt lat="43.97821" lon="7.15191">
        <ele>598.00034083486</ele>
        <time>2012-04-10T10:38:42Z</time>
      </trkpt>
      <trkpt lat="43.97826" lon="7.15192">
        <ele>599.00023416468</ele>
        <time>2012-04-10T10:38:47Z</time>
      </trkpt>
      <trkpt lat="43.97831" lon="7.15192">
        <ele>595.00031311566</ele>
        <time>2012-04-10T10:38:52Z</time>
      </trkpt>
      <trkpt lat="43.97835" lon="7.15194">
        <ele>599.00025563326</ele>
        <time>2012-04-10T10:38:57Z</time>
      </trkpt>
      <trkpt lat="43.97839" lon="7.15192">
        <ele>601.00020502674</ele>
        <time>2012-04-10T10:39:02Z</time>
      </trkpt>
      <trkpt lat="43.97843" lon="7.15193">
        <ele>593.00057989472</ele>
        <time>2012-04-10T10:39:07Z</time>
      </trkpt>
      <trkpt lat="43.97847" lon="7.15194">
        <ele>594.00016996605</ele>
        <time>2012-04-10T10:39:12Z</time>
      </trkpt>
      <trkpt lat="43.97851" lon="7.15196">
        <ele>590.00026963831</ele>
        <time>2012-04-10T10:39:17Z</time>
      </trkpt>
      <trkpt lat="43.97855" lon="7.15198">
        <ele>586.00025495453</ele>
        <time>2012-04-10T10:39:22Z</time>
      </trkpt>
      <trkpt lat="43.97859" lon="7.15198">
        <ele>588.00084283753</ele>
        <time>2012-04-10T10:39:27Z</time>
      </trkpt>
      <trkpt lat="43.9786" lon="7.15203">
        <ele>584.00073612721</ele>
        <time>2012-04-10T10:39:32Z</time>
      </trkpt>
      <trkpt lat="43.97862" lon="7.15208">
        <ele>576.00072742336</ele>
        <time>2012-04-10T10:39:37Z</time>
      </trkpt>
      <trkpt lat="43.97864" lon="7.15211">
        <ele>579.00044053213</ele>
        <time>2012-04-10T10:39:42Z</time>
      </trkpt>
      <trkpt lat="43.97868" lon="7.15215">
        <ele>579.00086756191</ele>
        <time>2012-04-10T10:39:47Z</time>
      </trkpt>
      <trkpt lat="43.9787" lon="7.15219">
        <ele>581.00111509129</ele>
        <time>2012-04-10T10:39:52Z</time>
      </trkpt>
      <trkpt lat="43.97873" lon="7.15224">
        <ele>577.00126941237</ele>
        <time>2012-04-10T10:39:57Z</time>
      </trkpt>
      <trkpt lat="43.97875" lon="7.15228">
        <ele>575.00105572106</ele>
        <time>2012-04-10T10:40:02Z</time>
      </trkpt>
      <trkpt lat="43.97876" lon="7.15234">
        <ele>573.00045106109</ele>
        <time>2012-04-10T10:40:07Z</time>
      </trkpt>
      <trkpt lat="43.97879" lon="7.1524">
        <ele>571.00063881919</ele>
        <time>2012-04-10T10:40:12Z</time>
      </trkpt>
      <trkpt lat="43.97882" lon="7.15245">
        <ele>570.00041592839</ele>
        <time>2012-04-10T10:40:17Z</time>
      </trkpt>
      <trkpt lat="43.97887" lon="7.15251">
        <ele>586.9994133357</ele>
        <time>2012-04-10T10:40:22Z</time>
      </trkpt>
      <trkpt lat="43.97893" lon="7.15255">
        <ele>590.99934428318</ele>
        <time>2012-04-10T10:40:27Z</time>
      </trkpt>
      <trkpt lat="43.97902" lon="7.15257">
        <ele>583.999255707</ele>
        <time>2012-04-10T10:40:32Z</time>
      </trkpt>
      <trkpt lat="43.97907" lon="7.15259">
        <ele>587.00017063327</ele>
        <time>2012-04-10T10:40:37Z</time>
      </trkpt>
      <trkpt lat="43.97912" lon="7.15261">
        <ele>587.00008530504</ele>
        <time>2012-04-10T10:40:42Z</time>
      </trkpt>
      <trkpt lat="43.97916" lon="7.15264">
        <ele>580.00018916149</ele>
        <time>2012-04-10T10:40:47Z</time>
      </trkpt>
      <trkpt lat="43.97921" lon="7.15265">
        <ele>577.00095668795</ele>
        <time>2012-04-10T10:40:52Z</time>
      </trkpt>
      <trkpt lat="43.97924" lon="7.15264">
        <ele>584.0009904552</ele>
        <time>2012-04-10T10:40:57Z</time>
      </trkpt>
      <trkpt lat="43.97928" lon="7.15263">
        <ele>580.00065591196</ele>
        <time>2012-04-10T10:41:02Z</time>
      </trkpt>
      <trkpt lat="43.97934" lon="7.15265">
        <ele>581.99951720419</ele>
        <time>2012-04-10T10:41:07Z</time>
      </trkpt>
      <trkpt lat="43.97941" lon="7.15266">
        <ele>584.99964851624</ele>
        <time>2012-04-10T10:41:12Z</time>
      </trkpt>
      <trkpt lat="43.97946" lon="7.15267">
        <ele>588.00077697775</ele>
        <time>2012-04-10T10:41:17Z</time>
      </trkpt>
      <trkpt lat="43.9795" lon="7.15267">
        <ele>591.00033603735</ele>
        <time>2012-04-10T10:41:22Z</time>
      </trkpt>
      <trkpt lat="43.97956" lon="7.15268">
        <ele>591.99987113392</ele>
        <time>2012-04-10T10:41:27Z</time>
      </trkpt>
      <trkpt lat="43.97961" lon="7.1527">
        <ele>581.99997379006</ele>
        <time>2012-04-10T10:41:32Z</time>
      </trkpt>
      <trkpt lat="43.97965" lon="7.15272">
        <ele>583.00052981558</ele>
        <time>2012-04-10T10:41:37Z</time>
      </trkpt>
      <trkpt lat="43.97969" lon="7.15275">
        <ele>571.00103742835</ele>
        <time>2012-04-10T10:41:42Z</time>
      </trkpt>
      <trkpt lat="43.97971" lon="7.15277">
        <ele>572.00061959837</ele>
        <time>2012-04-10T10:41:47Z</time>
      </trkpt>
      <trkpt lat="43.97976" lon="7.15279">
        <ele>569.00078348525</ele>
        <time>2012-04-10T10:41:52Z</time>
      </trkpt>
      <trkpt lat="43.9798" lon="7.15281">
        <ele>574.00017223053</ele>
        <time>2012-04-10T10:41:57Z</time>
      </trkpt>
      <trkpt lat="43.97984" lon="7.15282">
        <ele>580.00029736474</ele>
        <time>2012-04-10T10:42:02Z</time>
      </trkpt>
      <trkpt lat="43.97988" lon="7.15281">
        <ele>576.00078982278</ele>
        <time>2012-04-10T10:42:07Z</time>
      </trkpt>
      <trkpt lat="43.97992" lon="7.15281">
        <ele>577.00074664726</ele>
        <time>2012-04-10T10:42:12Z</time>
      </trkpt>
      <trkpt lat="43.97994" lon="7.15281">
        <ele>579.00107578085</ele>
        <time>2012-04-10T10:42:17Z</time>
      </trkpt>
      <trkpt lat="43.97996" lon="7.15282">
        <ele>576.00104930785</ele>
        <time>2012-04-10T10:42:22Z</time>
      </trkpt>
      <trkpt lat="43.97998" lon="7.15282">
        <ele>575.00121029093</ele>
        <time>2012-04-10T10:42:27Z</time>
      </trkpt>
      <trkpt lat="43.98005" lon="7.15286">
        <ele>569.99902804364</ele>
        <time>2012-04-10T10:42:32Z</time>
      </trkpt>
      <trkpt lat="43.98012" lon="7.15291">
        <ele>574.00009342905</ele>
        <time>2012-04-10T10:42:37Z</time>
      </trkpt>
      <trkpt lat="43.98017" lon="7.15296">
        <ele>572.00009600013</ele>
        <time>2012-04-10T10:42:42Z</time>
      </trkpt>
      <trkpt lat="43.98021" lon="7.153">
        <ele>571.00046747947</ele>
        <time>2012-04-10T10:42:47Z</time>
      </trkpt>
      <trkpt lat="43.98023" lon="7.15305">
        <ele>576.00072061437</ele>
        <time>2012-04-10T10:42:52Z</time>
      </trkpt>
      <trkpt lat="43.98024" lon="7.1531">
        <ele>572.00053730749</ele>
        <time>2012-04-10T10:42:57Z</time>
      </trkpt>
      <trkpt lat="43.98025" lon="7.15316">
        <ele>571.00075544042</ele>
        <time>2012-04-10T10:43:02Z</time>
      </trkpt>
      <trkpt lat="43.98023" lon="7.15323">
        <ele>573.00046718685</ele>
        <time>2012-04-10T10:43:07Z</time>
      </trkpt>
      <trkpt lat="43.98021" lon="7.15326">
        <ele>575.9994226138</ele>
        <time>2012-04-10T10:43:12Z</time>
      </trkpt>
      <trkpt lat="43.98021" lon="7.15322">
        <ele>576.99966252172</ele>
        <time>2012-04-10T10:43:17Z</time>
      </trkpt>
      <trkpt lat="43.98021" lon="7.15322">
        <ele>579.99976717899</ele>
        <time>2012-04-10T10:43:22Z</time>
      </trkpt>
      <trkpt lat="43.98023" lon="7.15322">
        <ele>572.99885924244</ele>
        <time>2012-04-10T10:43:42Z</time>
      </trkpt>
      <trkpt lat="43.98029" lon="7.15322">
        <ele>582.00028273947</ele>
        <time>2012-04-10T10:43:47Z</time>
      </trkpt>
      <trkpt lat="43.98029" lon="7.15323">
        <ele>578.00020845969</ele>
        <time>2012-04-10T10:43:52Z</time>
      </trkpt>
      <trkpt lat="43.98028" lon="7.15328">
        <ele>570.99986162868</ele>
        <time>2012-04-10T10:43:57Z</time>
      </trkpt>
      <trkpt lat="43.9803" lon="7.15328">
        <ele>571.00000419964</ele>
        <time>2012-04-10T10:44:02Z</time>
      </trkpt>
      <trkpt lat="43.98031" lon="7.1533">
        <ele>556.99966843466</ele>
        <time>2012-04-10T10:44:22Z</time>
      </trkpt>
      <trkpt lat="43.98034" lon="7.15333">
        <ele>567.99976831115</ele>
        <time>2012-04-10T10:44:27Z</time>
      </trkpt>
      <trkpt lat="43.98035" lon="7.15332">
        <ele>574.00009421533</ele>
        <time>2012-04-10T10:44:32Z</time>
      </trkpt>
      <trkpt lat="43.98034" lon="7.15331">
        <ele>570.00040857373</ele>
        <time>2012-04-10T10:44:47Z</time>
      </trkpt>
      <trkpt lat="43.98033" lon="7.15337">
        <ele>577.00147554822</ele>
        <time>2012-04-10T10:44:52Z</time>
      </trkpt>
      <trkpt lat="43.98028" lon="7.1535">
        <ele>579.00076400007</ele>
        <time>2012-04-10T10:44:57Z</time>
      </trkpt>
      <trkpt lat="43.98024" lon="7.15357">
        <ele>572.00020087034</ele>
        <time>2012-04-10T10:45:02Z</time>
      </trkpt>
      <trkpt lat="43.98022" lon="7.15363">
        <ele>575.00000397638</ele>
        <time>2012-04-10T10:45:07Z</time>
      </trkpt>
      <trkpt lat="43.98021" lon="7.15368">
        <ele>571.99951174344</ele>
        <time>2012-04-10T10:45:12Z</time>
      </trkpt>
      <trkpt lat="43.9802" lon="7.15374">
        <ele>577.99986105089</ele>
        <time>2012-04-10T10:45:17Z</time>
      </trkpt>
      <trkpt lat="43.9802" lon="7.15379">
        <ele>576.99990336342</ele>
        <time>2012-04-10T10:45:22Z</time>
      </trkpt>
      <trkpt lat="43.98019" lon="7.15385">
        <ele>576.99958624411</ele>
        <time>2012-04-10T10:45:27Z</time>
      </trkpt>
      <trkpt lat="43.98017" lon="7.1539">
        <ele>580.99899486216</ele>
        <time>2012-04-10T10:45:32Z</time>
      </trkpt>
      <trkpt lat="43.98018" lon="7.15396">
        <ele>580.99913101943</ele>
        <time>2012-04-10T10:45:37Z</time>
      </trkpt>
      <trkpt lat="43.98016" lon="7.15401">
        <ele>576.9989254676</ele>
        <time>2012-04-10T10:45:42Z</time>
      </trkpt>
      <trkpt lat="43.98014" lon="7.15408">
        <ele>572.99887157981</ele>
        <time>2012-04-10T10:45:47Z</time>
      </trkpt>
      <trkpt lat="43.98013" lon="7.15415">
        <ele>558.99848864142</ele>
        <time>2012-04-10T10:45:52Z</time>
      </trkpt>
      <trkpt lat="43.98012" lon="7.1542">
        <ele>564.99852695584</ele>
        <time>2012-04-10T10:45:57Z</time>
      </trkpt>
      <trkpt lat="43.9801" lon="7.15424">
        <ele>564.99857838793</ele>
        <time>2012-04-10T10:46:02Z</time>
      </trkpt>
      <trkpt lat="43.98009" lon="7.15427">
        <ele>561.99844077255</ele>
        <time>2012-04-10T10:46:07Z</time>
      </trkpt>
      <trkpt lat="43.98007" lon="7.15429">
        <ele>568.9982639478</ele>
        <time>2012-04-10T10:46:12Z</time>
      </trkpt>
      <trkpt lat="43.98006" lon="7.15431">
        <ele>563.9980055852</ele>
        <time>2012-04-10T10:46:17Z</time>
      </trkpt>
      <trkpt lat="43.98007" lon="7.15431">
        <ele>560.99833795012</ele>
        <time>2012-04-10T10:46:22Z</time>
      </trkpt>
      <trkpt lat="43.98005" lon="7.15434">
        <ele>561.9993709936</ele>
        <time>2012-04-10T10:46:27Z</time>
      </trkpt>
      <trkpt lat="43.97999" lon="7.15444">
        <ele>578.00111876283</ele>
        <time>2012-04-10T10:46:32Z</time>
      </trkpt>
      <trkpt lat="43.97995" lon="7.15456">
        <ele>573.00019529169</ele>
        <time>2012-04-10T10:46:37Z</time>
      </trkpt>
      <trkpt lat="43.97992" lon="7.15465">
        <ele>574.99948188577</ele>
        <time>2012-04-10T10:46:42Z</time>
      </trkpt>
      <trkpt lat="43.97991" lon="7.15471">
        <ele>566.99907093087</ele>
        <time>2012-04-10T10:46:47Z</time>
      </trkpt>
      <trkpt lat="43.9799" lon="7.15477">
        <ele>567.99940009782</ele>
        <time>2012-04-10T10:46:52Z</time>
      </trkpt>
      <trkpt lat="43.97987" lon="7.15482">
        <ele>566.99961566373</ele>
        <time>2012-04-10T10:46:57Z</time>
      </trkpt>
      <trkpt lat="43.97983" lon="7.15486">
        <ele>572.99919266921</ele>
        <time>2012-04-10T10:47:02Z</time>
      </trkpt>
      <trkpt lat="43.97981" lon="7.15493">
        <ele>577.99976260914</ele>
        <time>2012-04-10T10:47:07Z</time>
      </trkpt>
      <trkpt lat="43.97979" lon="7.155">
        <ele>567.99959798093</ele>
        <time>2012-04-10T10:47:12Z</time>
      </trkpt>
      <trkpt lat="43.97978" lon="7.15508">
        <ele>573.9997165103</ele>
        <time>2012-04-10T10:47:17Z</time>
      </trkpt>
      <trkpt lat="43.97978" lon="7.15515">
        <ele>569.99981238732</ele>
        <time>2012-04-10T10:47:22Z</time>
      </trkpt>
      <trkpt lat="43.97978" lon="7.1552">
        <ele>569.99976084123</ele>
        <time>2012-04-10T10:47:27Z</time>
      </trkpt>
      <trkpt lat="43.97978" lon="7.15526">
        <ele>568.99991392285</ele>
        <time>2012-04-10T10:47:32Z</time>
      </trkpt>
      <trkpt lat="43.97977" lon="7.15532">
        <ele>568.99991669093</ele>
        <time>2012-04-10T10:47:37Z</time>
      </trkpt>
      <trkpt lat="43.97979" lon="7.15538">
        <ele>571.99985476652</ele>
        <time>2012-04-10T10:47:42Z</time>
      </trkpt>
      <trkpt lat="43.97981" lon="7.15544">
        <ele>570.99992878126</ele>
        <time>2012-04-10T10:47:47Z</time>
      </trkpt>
      <trkpt lat="43.97984" lon="7.15549">
        <ele>565.9999418349</ele>
        <time>2012-04-10T10:47:52Z</time>
      </trkpt>
      <trkpt lat="43.97988" lon="7.15554">
        <ele>559.00024876302</ele>
        <time>2012-04-10T10:47:57Z</time>
      </trkpt>
      <trkpt lat="43.97992" lon="7.15559">
        <ele>552.00014971223</ele>
        <time>2012-04-10T10:48:02Z</time>
      </trkpt>
      <trkpt lat="43.97996" lon="7.1556">
        <ele>545.00046742572</ele>
        <time>2012-04-10T10:48:07Z</time>
      </trkpt>
      <trkpt lat="43.98001" lon="7.15558">
        <ele>546.99973392058</ele>
        <time>2012-04-10T10:48:12Z</time>
      </trkpt>
      <trkpt lat="43.98007" lon="7.15556">
        <ele>552.99957471452</ele>
        <time>2012-04-10T10:48:17Z</time>
      </trkpt>
      <trkpt lat="43.98014" lon="7.15552">
        <ele>560.99933211713</ele>
        <time>2012-04-10T10:48:22Z</time>
      </trkpt>
      <trkpt lat="43.98019" lon="7.15547">
        <ele>561.99912995815</ele>
        <time>2012-04-10T10:48:27Z</time>
      </trkpt>
      <trkpt lat="43.98024" lon="7.15542">
        <ele>559.99944823433</ele>
        <time>2012-04-10T10:48:32Z</time>
      </trkpt>
      <trkpt lat="43.98027" lon="7.15536">
        <ele>567.99982319777</ele>
        <time>2012-04-10T10:48:37Z</time>
      </trkpt>
      <trkpt lat="43.98029" lon="7.15531">
        <ele>569.99998049602</ele>
        <time>2012-04-10T10:48:42Z</time>
      </trkpt>
      <trkpt lat="43.98031" lon="7.15525">
        <ele>568.00005089862</ele>
        <time>2012-04-10T10:48:47Z</time>
      </trkpt>
      <trkpt lat="43.98033" lon="7.15521">
        <ele>568.00063440401</ele>
        <time>2012-04-10T10:48:52Z</time>
      </trkpt>
      <trkpt lat="43.98034" lon="7.15518">
        <ele>563.00027332563</ele>
        <time>2012-04-10T10:48:57Z</time>
      </trkpt>
      <trkpt lat="43.98037" lon="7.15516">
        <ele>559.99987147954</ele>
        <time>2012-04-10T10:49:02Z</time>
      </trkpt>
      <trkpt lat="43.98041" lon="7.15512">
        <ele>561.99951993747</ele>
        <time>2012-04-10T10:49:07Z</time>
      </trkpt>
      <trkpt lat="43.98044" lon="7.15508">
        <ele>560.99971339309</ele>
        <time>2012-04-10T10:49:12Z</time>
      </trkpt>
      <trkpt lat="43.98048" lon="7.15506">
        <ele>562.00004761214</ele>
        <time>2012-04-10T10:49:17Z</time>
      </trkpt>
      <trkpt lat="43.98051" lon="7.15504">
        <ele>561.00004715061</ele>
        <time>2012-04-10T10:49:22Z</time>
      </trkpt>
      <trkpt lat="43.98055" lon="7.15501">
        <ele>569.99983075603</ele>
        <time>2012-04-10T10:49:27Z</time>
      </trkpt>
      <trkpt lat="43.9806" lon="7.15499">
        <ele>569.99995456299</ele>
        <time>2012-04-10T10:49:32Z</time>
      </trkpt>
      <trkpt lat="43.98063" lon="7.15498">
        <ele>569.00006711663</ele>
        <time>2012-04-10T10:49:37Z</time>
      </trkpt>
      <trkpt lat="43.98067" lon="7.15498">
        <ele>566.00003574145</ele>
        <time>2012-04-10T10:49:42Z</time>
      </trkpt>
      <trkpt lat="43.98071" lon="7.15497">
        <ele>560.99951928483</ele>
        <time>2012-04-10T10:49:47Z</time>
      </trkpt>
      <trkpt lat="43.98078" lon="7.15497">
        <ele>563.99973787791</ele>
        <time>2012-04-10T10:49:52Z</time>
      </trkpt>
      <trkpt lat="43.98083" lon="7.15498">
        <ele>568.00003319978</ele>
        <time>2012-04-10T10:49:57Z</time>
      </trkpt>
      <trkpt lat="43.98087" lon="7.15497">
        <ele>568.00018508747</ele>
        <time>2012-04-10T10:50:02Z</time>
      </trkpt>
      <trkpt lat="43.98091" lon="7.15497">
        <ele>569.00012695136</ele>
        <time>2012-04-10T10:50:07Z</time>
      </trkpt>
      <trkpt lat="43.98095" lon="7.15497">
        <ele>570.00024004308</ele>
        <time>2012-04-10T10:50:12Z</time>
      </trkpt>
      <trkpt lat="43.981" lon="7.15497">
        <ele>568.9999761334</ele>
        <time>2012-04-10T10:50:17Z</time>
      </trkpt>
      <trkpt lat="43.98103" lon="7.15496">
        <ele>571.0001885198</ele>
        <time>2012-04-10T10:50:22Z</time>
      </trkpt>
      <trkpt lat="43.98108" lon="7.15496">
        <ele>571.00005077966</ele>
        <time>2012-04-10T10:50:27Z</time>
      </trkpt>
      <trkpt lat="43.98111" lon="7.15496">
        <ele>572.00015604919</ele>
        <time>2012-04-10T10:50:32Z</time>
      </trkpt>
      <trkpt lat="43.98115" lon="7.15495">
        <ele>573.00044233805</ele>
        <time>2012-04-10T10:50:37Z</time>
      </trkpt>
      <trkpt lat="43.9812" lon="7.15494">
        <ele>565.99967598306</ele>
        <time>2012-04-10T10:50:42Z</time>
      </trkpt>
      <trkpt lat="43.98124" lon="7.15494">
        <ele>573.00013078877</ele>
        <time>2012-04-10T10:50:47Z</time>
      </trkpt>
      <trkpt lat="43.98128" lon="7.15493">
        <ele>572.99981148444</ele>
        <time>2012-04-10T10:50:52Z</time>
      </trkpt>
      <trkpt lat="43.98133" lon="7.15491">
        <ele>577.9999944265</ele>
        <time>2012-04-10T10:50:57Z</time>
      </trkpt>
      <trkpt lat="43.98136" lon="7.15489">
        <ele>574.00032526987</ele>
        <time>2012-04-10T10:51:02Z</time>
      </trkpt>
      <trkpt lat="43.98139" lon="7.15485">
        <ele>576.00038061508</ele>
        <time>2012-04-10T10:51:07Z</time>
      </trkpt>
      <trkpt lat="43.98141" lon="7.15483">
        <ele>575.00039767605</ele>
        <time>2012-04-10T10:51:12Z</time>
      </trkpt>
      <trkpt lat="43.98143" lon="7.1548">
        <ele>576.00044282888</ele>
        <time>2012-04-10T10:51:17Z</time>
      </trkpt>
      <trkpt lat="43.98145" lon="7.15477">
        <ele>573.00039540429</ele>
        <time>2012-04-10T10:51:22Z</time>
      </trkpt>
      <trkpt lat="43.98147" lon="7.15474">
        <ele>579.00051986535</ele>
        <time>2012-04-10T10:51:27Z</time>
      </trkpt>
      <trkpt lat="43.98148" lon="7.15472">
        <ele>578.00040247182</ele>
        <time>2012-04-10T10:51:32Z</time>
      </trkpt>
      <trkpt lat="43.9815" lon="7.15469">
        <ele>580.00050935706</ele>
        <time>2012-04-10T10:51:37Z</time>
      </trkpt>
      <trkpt lat="43.98152" lon="7.15465">
        <ele>587.00036383741</ele>
        <time>2012-04-10T10:51:42Z</time>
      </trkpt>
      <trkpt lat="43.98156" lon="7.15462">
        <ele>580.00019541438</ele>
        <time>2012-04-10T10:51:47Z</time>
      </trkpt>
      <trkpt lat="43.98159" lon="7.15459">
        <ele>586.00005202099</ele>
        <time>2012-04-10T10:51:52Z</time>
      </trkpt>
      <trkpt lat="43.98163" lon="7.15458">
        <ele>584.99993685882</ele>
        <time>2012-04-10T10:51:57Z</time>
      </trkpt>
      <trkpt lat="43.98167" lon="7.15457">
        <ele>585.0001891461</ele>
        <time>2012-04-10T10:52:02Z</time>
      </trkpt>
      <trkpt lat="43.9817" lon="7.15456">
        <ele>590.00015707138</ele>
        <time>2012-04-10T10:52:07Z</time>
      </trkpt>
      <trkpt lat="43.98175" lon="7.15454">
        <ele>592.0000311318</ele>
        <time>2012-04-10T10:52:12Z</time>
      </trkpt>
      <trkpt lat="43.98178" lon="7.15452">
        <ele>591.00045471578</ele>
        <time>2012-04-10T10:52:17Z</time>
      </trkpt>
      <trkpt lat="43.9818" lon="7.15451">
        <ele>592.00034855468</ele>
        <time>2012-04-10T10:52:22Z</time>
      </trkpt>
      <trkpt lat="43.98184" lon="7.15449">
        <ele>584.99942195991</ele>
        <time>2012-04-10T10:52:27Z</time>
      </trkpt>
      <trkpt lat="43.9819" lon="7.15448">
        <ele>588.99962740722</ele>
        <time>2012-04-10T10:52:32Z</time>
      </trkpt>
      <trkpt lat="43.98194" lon="7.15445">
        <ele>584.99983468201</ele>
        <time>2012-04-10T10:52:37Z</time>
      </trkpt>
      <trkpt lat="43.98198" lon="7.15442">
        <ele>587.9998490984</ele>
        <time>2012-04-10T10:52:42Z</time>
      </trkpt>
      <trkpt lat="43.98201" lon="7.15443">
        <ele>590.00026413958</ele>
        <time>2012-04-10T10:52:47Z</time>
      </trkpt>
      <trkpt lat="43.98201" lon="7.15447">
        <ele>589.00006121565</ele>
        <time>2012-04-10T10:52:52Z</time>
      </trkpt>
      <trkpt lat="43.98201" lon="7.1545">
        <ele>588.00021820897</ele>
        <time>2012-04-10T10:52:57Z</time>
      </trkpt>
      <trkpt lat="43.98198" lon="7.15456">
        <ele>593.00077494344</ele>
        <time>2012-04-10T10:53:02Z</time>
      </trkpt>
      <trkpt lat="43.98194" lon="7.1546">
        <ele>590.99996303423</ele>
        <time>2012-04-10T10:53:07Z</time>
      </trkpt>
      <trkpt lat="43.9819" lon="7.15463">
        <ele>592.00045965848</ele>
        <time>2012-04-10T10:53:12Z</time>
      </trkpt>
      <trkpt lat="43.98186" lon="7.15466">
        <ele>591.00049002012</ele>
        <time>2012-04-10T10:53:17Z</time>
      </trkpt>
      <trkpt lat="43.98182" lon="7.15469">
        <ele>594.00013234418</ele>
        <time>2012-04-10T10:53:22Z</time>
      </trkpt>
      <trkpt lat="43.98178" lon="7.15472">
        <ele>594.00003118817</ele>
        <time>2012-04-10T10:53:27Z</time>
      </trkpt>
      <trkpt lat="43.98174" lon="7.15474">
        <ele>593.9998777256</ele>
        <time>2012-04-10T10:53:32Z</time>
      </trkpt>
      <trkpt lat="43.98171" lon="7.15475">
        <ele>593.99986556438</ele>
        <time>2012-04-10T10:53:37Z</time>
      </trkpt>
      <trkpt lat="43.98168" lon="7.15477">
        <ele>595.99996740619</ele>
        <time>2012-04-10T10:53:42Z</time>
      </trkpt>
      <trkpt lat="43.98165" lon="7.1548">
        <ele>599.00001614055</ele>
        <time>2012-04-10T10:53:47Z</time>
      </trkpt>
      <trkpt lat="43.98163" lon="7.15485">
        <ele>597.99987838638</ele>
        <time>2012-04-10T10:53:52Z</time>
      </trkpt>
      <trkpt lat="43.9816" lon="7.15489">
        <ele>604.00003642262</ele>
        <time>2012-04-10T10:53:57Z</time>
      </trkpt>
      <trkpt lat="43.98158" lon="7.15492">
        <ele>605.00015585643</ele>
        <time>2012-04-10T10:54:02Z</time>
      </trkpt>
      <trkpt lat="43.98156" lon="7.15497">
        <ele>601.00025686416</ele>
        <time>2012-04-10T10:54:07Z</time>
      </trkpt>
      <trkpt lat="43.98154" lon="7.15502">
        <ele>609.00028477461</ele>
        <time>2012-04-10T10:54:12Z</time>
      </trkpt>
      <trkpt lat="43.98151" lon="7.15508">
        <ele>617.00006528758</ele>
        <time>2012-04-10T10:54:17Z</time>
      </trkpt>
      <trkpt lat="43.98149" lon="7.15511">
        <ele>613.00004889045</ele>
        <time>2012-04-10T10:54:22Z</time>
      </trkpt>
      <trkpt lat="43.98148" lon="7.15515">
        <ele>610.9999006438</ele>
        <time>2012-04-10T10:54:27Z</time>
      </trkpt>
      <trkpt lat="43.98147" lon="7.15521">
        <ele>602.99991497537</ele>
        <time>2012-04-10T10:54:32Z</time>
      </trkpt>
      <trkpt lat="43.98143" lon="7.15525">
        <ele>604.00011467963</ele>
        <time>2012-04-10T10:54:37Z</time>
      </trkpt>
      <trkpt lat="43.98141" lon="7.1553">
        <ele>600.00005296877</ele>
        <time>2012-04-10T10:54:42Z</time>
      </trkpt>
      <trkpt lat="43.98138" lon="7.15534">
        <ele>598.99991508206</ele>
        <time>2012-04-10T10:54:47Z</time>
      </trkpt>
      <trkpt lat="43.98135" lon="7.15536">
        <ele>599.00002241428</ele>
        <time>2012-04-10T10:54:52Z</time>
      </trkpt>
      <trkpt lat="43.98131" lon="7.15538">
        <ele>606.00019839056</ele>
        <time>2012-04-10T10:54:57Z</time>
      </trkpt>
      <trkpt lat="43.98127" lon="7.1554">
        <ele>603.00012742273</ele>
        <time>2012-04-10T10:55:02Z</time>
      </trkpt>
      <trkpt lat="43.98124" lon="7.15541">
        <ele>606.99978640925</ele>
        <time>2012-04-10T10:55:07Z</time>
      </trkpt>
      <trkpt lat="43.98121" lon="7.15544">
        <ele>605.99980234995</ele>
        <time>2012-04-10T10:55:12Z</time>
      </trkpt>
      <trkpt lat="43.98118" lon="7.15548">
        <ele>602.99997999801</ele>
        <time>2012-04-10T10:55:17Z</time>
      </trkpt>
      <trkpt lat="43.98114" lon="7.15552">
        <ele>606.99954663648</ele>
        <time>2012-04-10T10:55:22Z</time>
      </trkpt>
      <trkpt lat="43.98111" lon="7.15554">
        <ele>604.99919576591</ele>
        <time>2012-04-10T10:55:27Z</time>
      </trkpt>
      <trkpt lat="43.98108" lon="7.15556">
        <ele>609.99840533724</ele>
        <time>2012-04-10T10:55:32Z</time>
      </trkpt>
      <trkpt lat="43.98104" lon="7.15558">
        <ele>609.99989903126</ele>
        <time>2012-04-10T10:55:37Z</time>
      </trkpt>
      <trkpt lat="43.98102" lon="7.15561">
        <ele>612.99912696167</ele>
        <time>2012-04-10T10:55:42Z</time>
      </trkpt>
      <trkpt lat="43.981" lon="7.15564">
        <ele>612.99906949697</ele>
        <time>2012-04-10T10:55:47Z</time>
      </trkpt>
      <trkpt lat="43.98098" lon="7.15568">
        <ele>610.00004654185</ele>
        <time>2012-04-10T10:55:52Z</time>
      </trkpt>
      <trkpt lat="43.98094" lon="7.15574">
        <ele>610.00088828871</ele>
        <time>2012-04-10T10:55:57Z</time>
      </trkpt>
      <trkpt lat="43.98089" lon="7.15581">
        <ele>610.00043093078</ele>
        <time>2012-04-10T10:56:02Z</time>
      </trkpt>
      <trkpt lat="43.98086" lon="7.15588">
        <ele>614.00073667159</ele>
        <time>2012-04-10T10:56:07Z</time>
      </trkpt>
      <trkpt lat="43.98084" lon="7.15596">
        <ele>613.00069917554</ele>
        <time>2012-04-10T10:56:12Z</time>
      </trkpt>
      <trkpt lat="43.98084" lon="7.15605">
        <ele>613.00086591101</ele>
        <time>2012-04-10T10:56:17Z</time>
      </trkpt>
      <trkpt lat="43.98083" lon="7.15613">
        <ele>619.00070383824</ele>
        <time>2012-04-10T10:56:22Z</time>
      </trkpt>
      <trkpt lat="43.98082" lon="7.15619">
        <ele>624.00003346802</ele>
        <time>2012-04-10T10:56:27Z</time>
      </trkpt>
      <trkpt lat="43.98082" lon="7.15619">
        <ele>617.00003500776</ele>
        <time>2012-04-10T10:56:32Z</time>
      </trkpt>
      <trkpt lat="43.98085" lon="7.1561">
        <ele>616.99859794622</ele>
        <time>2012-04-10T10:56:37Z</time>
      </trkpt>
      <trkpt lat="43.98089" lon="7.15598">
        <ele>619.99950322071</ele>
        <time>2012-04-10T10:56:42Z</time>
      </trkpt>
      <trkpt lat="43.9809" lon="7.15593">
        <ele>615.99895490332</ele>
        <time>2012-04-10T10:56:47Z</time>
      </trkpt>
      <trkpt lat="43.98094" lon="7.15587">
        <ele>615.99977185572</ele>
        <time>2012-04-10T10:56:52Z</time>
      </trkpt>
      <trkpt lat="43.98097" lon="7.1558">
        <ele>617.99991132294</ele>
        <time>2012-04-10T10:56:57Z</time>
      </trkpt>
      <trkpt lat="43.981" lon="7.15575">
        <ele>618.000380602</ele>
        <time>2012-04-10T10:57:02Z</time>
      </trkpt>
      <trkpt lat="43.98103" lon="7.15573">
        <ele>621.00038775335</ele>
        <time>2012-04-10T10:57:07Z</time>
      </trkpt>
      <trkpt lat="43.98106" lon="7.15572">
        <ele>622.00029462047</ele>
        <time>2012-04-10T10:57:12Z</time>
      </trkpt>
      <trkpt lat="43.98109" lon="7.15569">
        <ele>625.00031471971</ele>
        <time>2012-04-10T10:57:17Z</time>
      </trkpt>
      <trkpt lat="43.98113" lon="7.15565">
        <ele>626.99991031986</ele>
        <time>2012-04-10T10:57:22Z</time>
      </trkpt>
      <trkpt lat="43.98117" lon="7.15562">
        <ele>622.99984683184</ele>
        <time>2012-04-10T10:57:27Z</time>
      </trkpt>
      <trkpt lat="43.98121" lon="7.15559">
        <ele>620.99967001098</ele>
        <time>2012-04-10T10:57:32Z</time>
      </trkpt>
      <trkpt lat="43.98126" lon="7.15559">
        <ele>622.00007653024</ele>
        <time>2012-04-10T10:57:37Z</time>
      </trkpt>
      <trkpt lat="43.9813" lon="7.15558">
        <ele>622.00004496425</ele>
        <time>2012-04-10T10:57:42Z</time>
      </trkpt>
      <trkpt lat="43.98133" lon="7.15556">
        <ele>625.00008025492</ele>
        <time>2012-04-10T10:57:47Z</time>
      </trkpt>
      <trkpt lat="43.98137" lon="7.15557">
        <ele>625.99990164734</ele>
        <time>2012-04-10T10:57:52Z</time>
      </trkpt>
      <trkpt lat="43.98142" lon="7.15556">
        <ele>622.99978694642</ele>
        <time>2012-04-10T10:57:57Z</time>
      </trkpt>
      <trkpt lat="43.98147" lon="7.15555">
        <ele>622.99995756188</ele>
        <time>2012-04-10T10:58:02Z</time>
      </trkpt>
      <trkpt lat="43.98151" lon="7.15554">
        <ele>623.00017313247</ele>
        <time>2012-04-10T10:58:07Z</time>
      </trkpt>
      <trkpt lat="43.98154" lon="7.15553">
        <ele>622.00002908471</ele>
        <time>2012-04-10T10:58:12Z</time>
      </trkpt>
      <trkpt lat="43.98158" lon="7.15552">
        <ele>626.99996874798</ele>
        <time>2012-04-10T10:58:17Z</time>
      </trkpt>
      <trkpt lat="43.98162" lon="7.1555">
        <ele>631.00001366158</ele>
        <time>2012-04-10T10:58:22Z</time>
      </trkpt>
      <trkpt lat="43.98165" lon="7.15548">
        <ele>634.00004598257</ele>
        <time>2012-04-10T10:58:27Z</time>
      </trkpt>
      <trkpt lat="43.98169" lon="7.15544">
        <ele>633.99990430416</ele>
        <time>2012-04-10T10:58:32Z</time>
      </trkpt>
      <trkpt lat="43.98173" lon="7.1554">
        <ele>627.999923161</ele>
        <time>2012-04-10T10:58:37Z</time>
      </trkpt>
      <trkpt lat="43.98176" lon="7.15536">
        <ele>629.00004788812</ele>
        <time>2012-04-10T10:58:42Z</time>
      </trkpt>
      <trkpt lat="43.9818" lon="7.15532">
        <ele>626.00007431572</ele>
        <time>2012-04-10T10:58:47Z</time>
      </trkpt>
      <trkpt lat="43.98183" lon="7.1553">
        <ele>625.0000699628</ele>
        <time>2012-04-10T10:58:52Z</time>
      </trkpt>
      <trkpt lat="43.98186" lon="7.15527">
        <ele>625.00022405165</ele>
        <time>2012-04-10T10:58:57Z</time>
      </trkpt>
      <trkpt lat="43.98188" lon="7.15523">
        <ele>627.99998251206</ele>
        <time>2012-04-10T10:59:02Z</time>
      </trkpt>
      <trkpt lat="43.98191" lon="7.15521">
        <ele>628.00009257781</ele>
        <time>2012-04-10T10:59:07Z</time>
      </trkpt>
      <trkpt lat="43.98195" lon="7.15519">
        <ele>630.00031425216</ele>
        <time>2012-04-10T10:59:12Z</time>
      </trkpt>
      <trkpt lat="43.98198" lon="7.15518">
        <ele>627.00005269079</ele>
        <time>2012-04-10T10:59:17Z</time>
      </trkpt>
      <trkpt lat="43.98201" lon="7.15518">
        <ele>628.99996364906</ele>
        <time>2012-04-10T10:59:22Z</time>
      </trkpt>
      <trkpt lat="43.98206" lon="7.15517">
        <ele>635.00024303456</ele>
        <time>2012-04-10T10:59:27Z</time>
      </trkpt>
      <trkpt lat="43.98209" lon="7.15516">
        <ele>636.0002075084</ele>
        <time>2012-04-10T10:59:32Z</time>
      </trkpt>
      <trkpt lat="43.98212" lon="7.15515">
        <ele>636.00031846428</ele>
        <time>2012-04-10T10:59:37Z</time>
      </trkpt>
      <trkpt lat="43.98214" lon="7.15514">
        <ele>635.00020753927</ele>
        <time>2012-04-10T10:59:42Z</time>
      </trkpt>
      <trkpt lat="43.98218" lon="7.15512">
        <ele>635.00002834413</ele>
        <time>2012-04-10T10:59:47Z</time>
      </trkpt>
      <trkpt lat="43.98221" lon="7.15511">
        <ele>636.00050675463</ele>
        <time>2012-04-10T10:59:52Z</time>
      </trkpt>
      <trkpt lat="43.98223" lon="7.15511">
        <ele>634.00025483106</ele>
        <time>2012-04-10T10:59:57Z</time>
      </trkpt>
      <trkpt lat="43.98226" lon="7.15509">
        <ele>633.00004212462</ele>
        <time>2012-04-10T11:00:02Z</time>
      </trkpt>
      <trkpt lat="43.9823" lon="7.15507">
        <ele>633.99991647732</ele>
        <time>2012-04-10T11:00:07Z</time>
      </trkpt>
      <trkpt lat="43.98234" lon="7.15504">
        <ele>626.00002738909</ele>
        <time>2012-04-10T11:00:12Z</time>
      </trkpt>
      <trkpt lat="43.98235" lon="7.15501">
        <ele>638.0002530255</ele>
        <time>2012-04-10T11:00:17Z</time>
      </trkpt>
      <trkpt lat="43.98236" lon="7.15501">
        <ele>637.99949767483</ele>
        <time>2012-04-10T11:00:22Z</time>
      </trkpt>
      <trkpt lat="43.98239" lon="7.15498">
        <ele>636.99975113793</ele>
        <time>2012-04-10T11:00:27Z</time>
      </trkpt>
      <trkpt lat="43.98241" lon="7.15492">
        <ele>634.00005913588</ele>
        <time>2012-04-10T11:00:32Z</time>
      </trkpt>
      <trkpt lat="43.98243" lon="7.15486">
        <ele>637.00017221514</ele>
        <time>2012-04-10T11:00:37Z</time>
      </trkpt>
      <trkpt lat="43.98244" lon="7.15479">
        <ele>632.99993031842</ele>
        <time>2012-04-10T11:00:42Z</time>
      </trkpt>
      <trkpt lat="43.98245" lon="7.15473">
        <ele>633.00004062813</ele>
        <time>2012-04-10T11:00:47Z</time>
      </trkpt>
      <trkpt lat="43.98245" lon="7.15468">
        <ele>635.00024511281</ele>
        <time>2012-04-10T11:00:52Z</time>
      </trkpt>
      <trkpt lat="43.98245" lon="7.15463">
        <ele>639.00031225102</ele>
        <time>2012-04-10T11:00:57Z</time>
      </trkpt>
      <trkpt lat="43.98244" lon="7.15458">
        <ele>639.00031057251</ele>
        <time>2012-04-10T11:01:02Z</time>
      </trkpt>
      <trkpt lat="43.98244" lon="7.15452">
        <ele>640.99996942634</ele>
        <time>2012-04-10T11:01:07Z</time>
      </trkpt>
      <trkpt lat="43.98246" lon="7.15446">
        <ele>641.00003746949</ele>
        <time>2012-04-10T11:01:12Z</time>
      </trkpt>
      <trkpt lat="43.98246" lon="7.15441">
        <ele>646.00019922959</ele>
        <time>2012-04-10T11:01:17Z</time>
      </trkpt>
      <trkpt lat="43.98244" lon="7.15435">
        <ele>648.00033322438</ele>
        <time>2012-04-10T11:01:22Z</time>
      </trkpt>
      <trkpt lat="43.98243" lon="7.15432">
        <ele>651.00036434114</ele>
        <time>2012-04-10T11:01:27Z</time>
      </trkpt>
      <trkpt lat="43.98244" lon="7.15433">
        <ele>641.0002293056</ele>
        <time>2012-04-10T11:01:57Z</time>
      </trkpt>
      <trkpt lat="43.98246" lon="7.15437">
        <ele>645.99971789525</ele>
        <time>2012-04-10T11:02:02Z</time>
      </trkpt>
      <trkpt lat="43.98248" lon="7.1544">
        <ele>638.00017594926</ele>
        <time>2012-04-10T11:02:07Z</time>
      </trkpt>
      <trkpt lat="43.98248" lon="7.1544">
        <ele>639.00010091469</ele>
        <time>2012-04-10T11:02:12Z</time>
      </trkpt>
      <trkpt lat="43.9825" lon="7.15442">
        <ele>641.00040766665</ele>
        <time>2012-04-10T11:02:17Z</time>
      </trkpt>
      <trkpt lat="43.98251" lon="7.15443">
        <ele>636.00062259288</ele>
        <time>2012-04-10T11:02:22Z</time>
      </trkpt>
      <trkpt lat="43.98249" lon="7.15444">
        <ele>641.00026972099</ele>
        <time>2012-04-10T11:02:27Z</time>
      </trkpt>
      <trkpt lat="43.98251" lon="7.1544">
        <ele>642.00029164444</ele>
        <time>2012-04-10T11:02:42Z</time>
      </trkpt>
      <trkpt lat="43.98253" lon="7.15437">
        <ele>646.00027053544</ele>
        <time>2012-04-10T11:02:47Z</time>
      </trkpt>
      <trkpt lat="43.98255" lon="7.15436">
        <ele>650.00011130482</ele>
        <time>2012-04-10T11:02:52Z</time>
      </trkpt>
      <trkpt lat="43.98259" lon="7.15431">
        <ele>644.99997002212</ele>
        <time>2012-04-10T11:02:57Z</time>
      </trkpt>
      <trkpt lat="43.98263" lon="7.15427">
        <ele>641.00013740647</ele>
        <time>2012-04-10T11:03:02Z</time>
      </trkpt>
      <trkpt lat="43.98268" lon="7.15424">
        <ele>640.99999284294</ele>
        <time>2012-04-10T11:03:07Z</time>
      </trkpt>
      <trkpt lat="43.98272" lon="7.15421">
        <ele>646.99987486897</ele>
        <time>2012-04-10T11:03:12Z</time>
      </trkpt>
      <trkpt lat="43.98275" lon="7.15417">
        <ele>645.00019163343</ele>
        <time>2012-04-10T11:03:17Z</time>
      </trkpt>
      <trkpt lat="43.98278" lon="7.15413">
        <ele>644.0007234518</ele>
        <time>2012-04-10T11:03:22Z</time>
      </trkpt>
      <trkpt lat="43.98277" lon="7.15413">
        <ele>643.00017388352</ele>
        <time>2012-04-10T11:03:27Z</time>
      </trkpt>
      <trkpt lat="43.98279" lon="7.15411">
        <ele>640.00047337526</ele>
        <time>2012-04-10T11:03:32Z</time>
      </trkpt>
      <trkpt lat="43.98279" lon="7.15411">
        <ele>642.99972161739</ele>
        <time>2012-04-10T11:03:37Z</time>
      </trkpt>
      <trkpt lat="43.98283" lon="7.15405">
        <ele>644.99996657233</ele>
        <time>2012-04-10T11:03:42Z</time>
      </trkpt>
      <trkpt lat="43.98284" lon="7.15399">
        <ele>647.00016957442</ele>
        <time>2012-04-10T11:03:47Z</time>
      </trkpt>
      <trkpt lat="43.98284" lon="7.15393">
        <ele>648.0003591583</ele>
        <time>2012-04-10T11:03:52Z</time>
      </trkpt>
      <trkpt lat="43.98284" lon="7.15388">
        <ele>647.00018252931</ele>
        <time>2012-04-10T11:03:57Z</time>
      </trkpt>
      <trkpt lat="43.98285" lon="7.15384">
        <ele>644.99991072022</ele>
        <time>2012-04-10T11:04:02Z</time>
      </trkpt>
      <trkpt lat="43.98286" lon="7.1538">
        <ele>644.00014472698</ele>
        <time>2012-04-10T11:04:07Z</time>
      </trkpt>
      <trkpt lat="43.98286" lon="7.15377">
        <ele>641.00020818677</ele>
        <time>2012-04-10T11:04:12Z</time>
      </trkpt>
      <trkpt lat="43.98286" lon="7.15378">
        <ele>644.00002229656</ele>
        <time>2012-04-10T11:04:17Z</time>
      </trkpt>
      <trkpt lat="43.98286" lon="7.15374">
        <ele>641.99996970976</ele>
        <time>2012-04-10T11:04:22Z</time>
      </trkpt>
      <trkpt lat="43.98287" lon="7.15368">
        <ele>640.99989612094</ele>
        <time>2012-04-10T11:04:27Z</time>
      </trkpt>
      <trkpt lat="43.98288" lon="7.15361">
        <ele>640.99994332717</ele>
        <time>2012-04-10T11:04:32Z</time>
      </trkpt>
      <trkpt lat="43.98289" lon="7.15354">
        <ele>639.99992496112</ele>
        <time>2012-04-10T11:04:37Z</time>
      </trkpt>
      <trkpt lat="43.98291" lon="7.15344">
        <ele>639.99995523043</ele>
        <time>2012-04-10T11:04:42Z</time>
      </trkpt>
      <trkpt lat="43.98292" lon="7.15337">
        <ele>640.000247869</ele>
        <time>2012-04-10T11:04:47Z</time>
      </trkpt>
      <trkpt lat="43.98293" lon="7.15329">
        <ele>643.00027867265</ele>
        <time>2012-04-10T11:04:52Z</time>
      </trkpt>
      <trkpt lat="43.98295" lon="7.15322">
        <ele>645.00011313605</ele>
        <time>2012-04-10T11:04:57Z</time>
      </trkpt>
      <trkpt lat="43.98296" lon="7.15315">
        <ele>643.00013119598</ele>
        <time>2012-04-10T11:05:02Z</time>
      </trkpt>
      <trkpt lat="43.98298" lon="7.15307">
        <ele>640.00009168542</ele>
        <time>2012-04-10T11:05:07Z</time>
      </trkpt>
      <trkpt lat="43.983" lon="7.15299">
        <ele>637.99999586052</ele>
        <time>2012-04-10T11:05:12Z</time>
      </trkpt>
      <trkpt lat="43.98302" lon="7.15292">
        <ele>640.00001153973</ele>
        <time>2012-04-10T11:05:17Z</time>
      </trkpt>
      <trkpt lat="43.98305" lon="7.15286">
        <ele>637.9999201481</ele>
        <time>2012-04-10T11:05:22Z</time>
      </trkpt>
      <trkpt lat="43.98306" lon="7.15281">
        <ele>639.00009808871</ele>
        <time>2012-04-10T11:05:27Z</time>
      </trkpt>
      <trkpt lat="43.98305" lon="7.15277">
        <ele>641.99992770877</ele>
        <time>2012-04-10T11:05:32Z</time>
      </trkpt>
      <trkpt lat="43.98305" lon="7.15276">
        <ele>648.00043251731</ele>
        <time>2012-04-10T11:05:42Z</time>
      </trkpt>
      <trkpt lat="43.98306" lon="7.15268">
        <ele>640.00023818522</ele>
        <time>2012-04-10T11:05:47Z</time>
      </trkpt>
      <trkpt lat="43.98307" lon="7.15261">
        <ele>638.99997363623</ele>
        <time>2012-04-10T11:05:52Z</time>
      </trkpt>
      <trkpt lat="43.98309" lon="7.15253">
        <ele>637.99960498334</ele>
        <time>2012-04-10T11:05:57Z</time>
      </trkpt>
      <trkpt lat="43.98311" lon="7.15246">
        <ele>634.99987785689</ele>
        <time>2012-04-10T11:06:02Z</time>
      </trkpt>
      <trkpt lat="43.98313" lon="7.15237">
        <ele>636.99987155519</ele>
        <time>2012-04-10T11:06:07Z</time>
      </trkpt>
      <trkpt lat="43.98314" lon="7.15229">
        <ele>636.00002449794</ele>
        <time>2012-04-10T11:06:12Z</time>
      </trkpt>
      <trkpt lat="43.98315" lon="7.1522">
        <ele>638.00025877558</ele>
        <time>2012-04-10T11:06:17Z</time>
      </trkpt>
      <trkpt lat="43.98315" lon="7.15213">
        <ele>633.00015275952</ele>
        <time>2012-04-10T11:06:22Z</time>
      </trkpt>
      <trkpt lat="43.98315" lon="7.15205">
        <ele>631.00000410478</ele>
        <time>2012-04-10T11:06:27Z</time>
      </trkpt>
      <trkpt lat="43.98316" lon="7.15199">
        <ele>630.00023690426</ele>
        <time>2012-04-10T11:06:32Z</time>
      </trkpt>
      <trkpt lat="43.98315" lon="7.15191">
        <ele>635.00035584153</ele>
        <time>2012-04-10T11:06:37Z</time>
      </trkpt>
      <trkpt lat="43.98313" lon="7.15183">
        <ele>638.00018048514</ele>
        <time>2012-04-10T11:06:42Z</time>
      </trkpt>
      <trkpt lat="43.98314" lon="7.15173">
        <ele>634.99999570702</ele>
        <time>2012-04-10T11:06:47Z</time>
      </trkpt>
      <trkpt lat="43.98316" lon="7.15165">
        <ele>632.99983080066</ele>
        <time>2012-04-10T11:06:52Z</time>
      </trkpt>
      <trkpt lat="43.98317" lon="7.15158">
        <ele>630.99988104046</ele>
        <time>2012-04-10T11:06:57Z</time>
      </trkpt>
      <trkpt lat="43.98317" lon="7.15151">
        <ele>633.00004334886</ele>
        <time>2012-04-10T11:07:02Z</time>
      </trkpt>
      <trkpt lat="43.98317" lon="7.15143">
        <ele>635.0000692665</ele>
        <time>2012-04-10T11:07:07Z</time>
      </trkpt>
      <trkpt lat="43.98316" lon="7.15135">
        <ele>637.00053128317</ele>
        <time>2012-04-10T11:07:12Z</time>
      </trkpt>
      <trkpt lat="43.98316" lon="7.15133">
        <ele>642.00064736919</ele>
        <time>2012-04-10T11:07:17Z</time>
      </trkpt>
      <trkpt lat="43.98316" lon="7.15134">
        <ele>646.0004017819</ele>
        <time>2012-04-10T11:07:22Z</time>
      </trkpt>
      <trkpt lat="43.98316" lon="7.15134">
        <ele>643.00026310725</ele>
        <time>2012-04-10T11:07:27Z</time>
      </trkpt>
      <trkpt lat="43.98316" lon="7.15134">
        <ele>640.00034387204</ele>
        <time>2012-04-10T11:07:37Z</time>
      </trkpt>
      <trkpt lat="43.98316" lon="7.15134">
        <ele>643.00026702637</ele>
        <time>2012-04-10T11:07:42Z</time>
      </trkpt>
      <trkpt lat="43.98315" lon="7.15135">
        <ele>639.00048800613</ele>
        <time>2012-04-10T11:07:47Z</time>
      </trkpt>
      <trkpt lat="43.98315" lon="7.15135">
        <ele>634.00013363518</ele>
        <time>2012-04-10T11:07:52Z</time>
      </trkpt>
      <trkpt lat="43.98314" lon="7.1513">
        <ele>636.00022142881</ele>
        <time>2012-04-10T11:07:57Z</time>
      </trkpt>
      <trkpt lat="43.98315" lon="7.15122">
        <ele>640.0000216764</ele>
        <time>2012-04-10T11:08:02Z</time>
      </trkpt>
      <trkpt lat="43.98314" lon="7.15113">
        <ele>634.99994313511</ele>
        <time>2012-04-10T11:08:07Z</time>
      </trkpt>
      <trkpt lat="43.98316" lon="7.15105">
        <ele>636.99995536087</ele>
        <time>2012-04-10T11:08:12Z</time>
      </trkpt>
      <trkpt lat="43.98318" lon="7.151">
        <ele>638.00045010305</ele>
        <time>2012-04-10T11:08:17Z</time>
      </trkpt>
      <trkpt lat="43.98319" lon="7.15097">
        <ele>640.00019217428</ele>
        <time>2012-04-10T11:08:22Z</time>
      </trkpt>
      <trkpt lat="43.98319" lon="7.15096">
        <ele>640.00026459441</ele>
        <time>2012-04-10T11:08:27Z</time>
      </trkpt>
      <trkpt lat="43.98321" lon="7.15091">
        <ele>639.00047927447</ele>
        <time>2012-04-10T11:08:32Z</time>
      </trkpt>
      <trkpt lat="43.98324" lon="7.15091">
        <ele>636.00016908613</ele>
        <time>2012-04-10T11:08:37Z</time>
      </trkpt>
      <trkpt lat="43.98329" lon="7.15089">
        <ele>640.0002189383</ele>
        <time>2012-04-10T11:08:42Z</time>
      </trkpt>
      <trkpt lat="43.98333" lon="7.15086">
        <ele>636.00059042473</ele>
        <time>2012-04-10T11:08:47Z</time>
      </trkpt>
      <trkpt lat="43.98335" lon="7.15085">
        <ele>637.0007607278</ele>
        <time>2012-04-10T11:08:52Z</time>
      </trkpt>
      <trkpt lat="43.98335" lon="7.15083">
        <ele>643.00106784221</ele>
        <time>2012-04-10T11:08:57Z</time>
      </trkpt>
      <trkpt lat="43.9834" lon="7.15086">
        <ele>633.9994461343</ele>
        <time>2012-04-10T11:09:07Z</time>
      </trkpt>
      <trkpt lat="43.98348" lon="7.15088">
        <ele>633.99981072722</ele>
        <time>2012-04-10T11:09:12Z</time>
      </trkpt>
      <trkpt lat="43.98356" lon="7.15088">
        <ele>636.99969771199</ele>
        <time>2012-04-10T11:09:17Z</time>
      </trkpt>
      <trkpt lat="43.98362" lon="7.15089">
        <ele>642.00016772778</ele>
        <time>2012-04-10T11:09:22Z</time>
      </trkpt>
      <trkpt lat="43.98368" lon="7.15087">
        <ele>638.0002481613</ele>
        <time>2012-04-10T11:09:27Z</time>
      </trkpt>
      <trkpt lat="43.98372" lon="7.15084">
        <ele>638.00018002099</ele>
        <time>2012-04-10T11:09:32Z</time>
      </trkpt>
      <trkpt lat="43.98378" lon="7.15083">
        <ele>635.00007311715</ele>
        <time>2012-04-10T11:09:37Z</time>
      </trkpt>
      <trkpt lat="43.98385" lon="7.15082">
        <ele>636.99993011488</ele>
        <time>2012-04-10T11:09:42Z</time>
      </trkpt>
      <trkpt lat="43.98393" lon="7.15082">
        <ele>635.99954324586</ele>
        <time>2012-04-10T11:09:47Z</time>
      </trkpt>
      <trkpt lat="43.98399" lon="7.15086">
        <ele>631.00001804348</ele>
        <time>2012-04-10T11:09:52Z</time>
      </trkpt>
      <trkpt lat="43.98404" lon="7.15091">
        <ele>634.00010057953</ele>
        <time>2012-04-10T11:09:57Z</time>
      </trkpt>
      <trkpt lat="43.98407" lon="7.15095">
        <ele>634.00036562422</ele>
        <time>2012-04-10T11:10:02Z</time>
      </trkpt>
      <trkpt lat="43.9841" lon="7.15101">
        <ele>636.99994888707</ele>
        <time>2012-04-10T11:10:07Z</time>
      </trkpt>
      <trkpt lat="43.98414" lon="7.15107">
        <ele>635.99989417436</ele>
        <time>2012-04-10T11:10:12Z</time>
      </trkpt>
      <trkpt lat="43.98419" lon="7.15111">
        <ele>639.00014519835</ele>
        <time>2012-04-10T11:10:17Z</time>
      </trkpt>
      <trkpt lat="43.98424" lon="7.15115">
        <ele>640.00009644875</ele>
        <time>2012-04-10T11:10:22Z</time>
      </trkpt>
      <trkpt lat="43.98428" lon="7.15119">
        <ele>638.00012932419</ele>
        <time>2012-04-10T11:10:27Z</time>
      </trkpt>
      <trkpt lat="43.98433" lon="7.15123">
        <ele>640.00012891419</ele>
        <time>2012-04-10T11:10:32Z</time>
      </trkpt>
      <trkpt lat="43.98436" lon="7.15128">
        <ele>635.00021741928</ele>
        <time>2012-04-10T11:10:37Z</time>
      </trkpt>
      <trkpt lat="43.9844" lon="7.15133">
        <ele>634.0003523845</ele>
        <time>2012-04-10T11:10:42Z</time>
      </trkpt>
      <trkpt lat="43.98444" lon="7.15139">
        <ele>634.00036751996</ele>
        <time>2012-04-10T11:10:47Z</time>
      </trkpt>
      <trkpt lat="43.98448" lon="7.15144">
        <ele>634.00027378696</ele>
        <time>2012-04-10T11:10:52Z</time>
      </trkpt>
      <trkpt lat="43.98453" lon="7.15149">
        <ele>630.99989485759</ele>
        <time>2012-04-10T11:10:57Z</time>
      </trkpt>
      <trkpt lat="43.98458" lon="7.15153">
        <ele>635.99990422943</ele>
        <time>2012-04-10T11:11:02Z</time>
      </trkpt>
      <trkpt lat="43.98463" lon="7.15158">
        <ele>634.00006036133</ele>
        <time>2012-04-10T11:11:07Z</time>
      </trkpt>
      <trkpt lat="43.98468" lon="7.1516">
        <ele>634.00016238183</ele>
        <time>2012-04-10T11:11:12Z</time>
      </trkpt>
      <trkpt lat="43.98473" lon="7.15165">
        <ele>638.00005108678</ele>
        <time>2012-04-10T11:11:17Z</time>
      </trkpt>
      <trkpt lat="43.98478" lon="7.1517">
        <ele>639.999902723</ele>
        <time>2012-04-10T11:11:22Z</time>
      </trkpt>
      <trkpt lat="43.98484" lon="7.15173">
        <ele>642.00012619147</ele>
        <time>2012-04-10T11:11:27Z</time>
      </trkpt>
      <trkpt lat="43.98488" lon="7.15178">
        <ele>639.00038571028</ele>
        <time>2012-04-10T11:11:32Z</time>
      </trkpt>
      <trkpt lat="43.98493" lon="7.15183">
        <ele>640.00011971741</ele>
        <time>2012-04-10T11:11:37Z</time>
      </trkpt>
      <trkpt lat="43.98498" lon="7.15189">
        <ele>640.00005213214</ele>
        <time>2012-04-10T11:11:42Z</time>
      </trkpt>
      <trkpt lat="43.98503" lon="7.15193">
        <ele>637.99991497612</ele>
        <time>2012-04-10T11:11:47Z</time>
      </trkpt>
      <trkpt lat="43.98508" lon="7.15195">
        <ele>639.00043537339</ele>
        <time>2012-04-10T11:11:52Z</time>
      </trkpt>
      <trkpt lat="43.98513" lon="7.15197">
        <ele>639.00051059925</ele>
        <time>2012-04-10T11:11:57Z</time>
      </trkpt>
      <trkpt lat="43.98518" lon="7.15198">
        <ele>638.00070186028</ele>
        <time>2012-04-10T11:12:02Z</time>
      </trkpt>
      <trkpt lat="43.98521" lon="7.15201">
        <ele>637.99975471386</ele>
        <time>2012-04-10T11:12:07Z</time>
      </trkpt>
      <trkpt lat="43.98528" lon="7.15205">
        <ele>634.00001120177</ele>
        <time>2012-04-10T11:12:12Z</time>
      </trkpt>
      <trkpt lat="43.98534" lon="7.15209">
        <ele>636.00056124441</ele>
        <time>2012-04-10T11:12:17Z</time>
      </trkpt>
      <trkpt lat="43.98538" lon="7.15213">
        <ele>631.0009893744</ele>
        <time>2012-04-10T11:12:22Z</time>
      </trkpt>
      <trkpt lat="43.98542" lon="7.15216">
        <ele>635.0011114473</ele>
        <time>2012-04-10T11:12:27Z</time>
      </trkpt>
      <trkpt lat="43.98546" lon="7.15219">
        <ele>631.00133142448</ele>
        <time>2012-04-10T11:12:32Z</time>
      </trkpt>
      <trkpt lat="43.98549" lon="7.15222">
        <ele>630.00154106111</ele>
        <time>2012-04-10T11:12:37Z</time>
      </trkpt>
      <trkpt lat="43.98551" lon="7.15226">
        <ele>634.00151325002</ele>
        <time>2012-04-10T11:12:42Z</time>
      </trkpt>
      <trkpt lat="43.98551" lon="7.15228">
        <ele>634.00079169982</ele>
        <time>2012-04-10T11:12:47Z</time>
      </trkpt>
      <trkpt lat="43.9855" lon="7.15224">
        <ele>631.00045711628</ele>
        <time>2012-04-10T11:12:52Z</time>
      </trkpt>
      <trkpt lat="43.9855" lon="7.15225">
        <ele>617.00063735611</ele>
        <time>2012-04-10T11:12:57Z</time>
      </trkpt>
      <trkpt lat="43.98548" lon="7.1523">
        <ele>611.00026072119</ele>
        <time>2012-04-10T11:13:02Z</time>
      </trkpt>
      <trkpt lat="43.98544" lon="7.15237">
        <ele>614.99880394106</ele>
        <time>2012-04-10T11:13:07Z</time>
      </trkpt>
      <trkpt lat="43.98546" lon="7.15238">
        <ele>619.99760208556</ele>
        <time>2012-04-10T11:13:22Z</time>
      </trkpt>
      <trkpt lat="43.98553" lon="7.15238">
        <ele>622.99852146553</ele>
        <time>2012-04-10T11:13:27Z</time>
      </trkpt>
      <trkpt lat="43.9856" lon="7.15239">
        <ele>620.99931490238</ele>
        <time>2012-04-10T11:13:32Z</time>
      </trkpt>
      <trkpt lat="43.98567" lon="7.15239">
        <ele>621.99972305727</ele>
        <time>2012-04-10T11:13:37Z</time>
      </trkpt>
      <trkpt lat="43.98572" lon="7.15241">
        <ele>623.00033040926</ele>
        <time>2012-04-10T11:13:42Z</time>
      </trkpt>
      <trkpt lat="43.98577" lon="7.15243">
        <ele>626.00066054622</ele>
        <time>2012-04-10T11:13:47Z</time>
      </trkpt>
      <trkpt lat="43.98582" lon="7.15245">
        <ele>629.99973065635</ele>
        <time>2012-04-10T11:13:52Z</time>
      </trkpt>
      <trkpt lat="43.98587" lon="7.15246">
        <ele>623.00037313232</ele>
        <time>2012-04-10T11:13:57Z</time>
      </trkpt>
      <trkpt lat="43.98593" lon="7.15242">
        <ele>621.99991601167</ele>
        <time>2012-04-10T11:14:02Z</time>
      </trkpt>
      <trkpt lat="43.98599" lon="7.15236">
        <ele>622.99970363069</ele>
        <time>2012-04-10T11:14:07Z</time>
      </trkpt>
      <trkpt lat="43.98604" lon="7.15232">
        <ele>621.00064565318</ele>
        <time>2012-04-10T11:14:12Z</time>
      </trkpt>
      <trkpt lat="43.98607" lon="7.15228">
        <ele>626.00070494514</ele>
        <time>2012-04-10T11:14:17Z</time>
      </trkpt>
      <trkpt lat="43.98612" lon="7.15224">
        <ele>623.00086195296</ele>
        <time>2012-04-10T11:14:22Z</time>
      </trkpt>
      <trkpt lat="43.98617" lon="7.15222">
        <ele>625.00034985708</ele>
        <time>2012-04-10T11:14:27Z</time>
      </trkpt>
      <trkpt lat="43.98622" lon="7.15221">
        <ele>621.0004288056</ele>
        <time>2012-04-10T11:14:32Z</time>
      </trkpt>
      <trkpt lat="43.98627" lon="7.15222">
        <ele>621.00058926276</ele>
        <time>2012-04-10T11:14:37Z</time>
      </trkpt>
      <trkpt lat="43.98631" lon="7.15224">
        <ele>615.00044633461</ele>
        <time>2012-04-10T11:14:42Z</time>
      </trkpt>
      <trkpt lat="43.98635" lon="7.15228">
        <ele>614.00030277545</ele>
        <time>2012-04-10T11:14:47Z</time>
      </trkpt>
      <trkpt lat="43.98641" lon="7.15232">
        <ele>618.00026992626</ele>
        <time>2012-04-10T11:14:52Z</time>
      </trkpt>
      <trkpt lat="43.98645" lon="7.15234">
        <ele>616.00077045709</ele>
        <time>2012-04-10T11:14:57Z</time>
      </trkpt>
      <trkpt lat="43.98649" lon="7.15239">
        <ele>615.00113388143</ele>
        <time>2012-04-10T11:15:02Z</time>
      </trkpt>
      <trkpt lat="43.98652" lon="7.15242">
        <ele>621.00158818451</ele>
        <time>2012-04-10T11:15:07Z</time>
      </trkpt>
      <trkpt lat="43.98656" lon="7.15246">
        <ele>609.00160804752</ele>
        <time>2012-04-10T11:15:12Z</time>
      </trkpt>
      <trkpt lat="43.98659" lon="7.1525">
        <ele>611.00187997856</ele>
        <time>2012-04-10T11:15:17Z</time>
      </trkpt>
      <trkpt lat="43.98661" lon="7.15249">
        <ele>613.00298413226</ele>
        <time>2012-04-10T11:15:22Z</time>
      </trkpt>
      <trkpt lat="43.98661" lon="7.1525">
        <ele>612.00091785868</ele>
        <time>2012-04-10T11:15:27Z</time>
      </trkpt>
      <trkpt lat="43.98671" lon="7.15253">
        <ele>618.99580309791</ele>
        <time>2012-04-10T11:15:32Z</time>
      </trkpt>
      <trkpt lat="43.98682" lon="7.15254">
        <ele>619.99784722188</ele>
        <time>2012-04-10T11:15:37Z</time>
      </trkpt>
      <trkpt lat="43.98691" lon="7.15256">
        <ele>624.99990588001</ele>
        <time>2012-04-10T11:15:42Z</time>
      </trkpt>
      <trkpt lat="43.98696" lon="7.15256">
        <ele>626.00069580079</ele>
        <time>2012-04-10T11:15:47Z</time>
      </trkpt>
      <trkpt lat="43.98699" lon="7.15255">
        <ele>627.00092205269</ele>
        <time>2012-04-10T11:15:52Z</time>
      </trkpt>
      <trkpt lat="43.98705" lon="7.15255">
        <ele>621.99941487562</ele>
        <time>2012-04-10T11:15:57Z</time>
      </trkpt>
      <trkpt lat="43.98712" lon="7.15254">
        <ele>617.99993380916</ele>
        <time>2012-04-10T11:16:02Z</time>
      </trkpt>
      <trkpt lat="43.98717" lon="7.15251">
        <ele>615.00029090307</ele>
        <time>2012-04-10T11:16:07Z</time>
      </trkpt>
      <trkpt lat="43.98722" lon="7.15251">
        <ele>611.00079587849</ele>
        <time>2012-04-10T11:16:12Z</time>
      </trkpt>
      <trkpt lat="43.98727" lon="7.15252">
        <ele>610.00000182748</ele>
        <time>2012-04-10T11:16:17Z</time>
      </trkpt>
      <trkpt lat="43.98733" lon="7.15256">
        <ele>607.0003265989</ele>
        <time>2012-04-10T11:16:22Z</time>
      </trkpt>
      <trkpt lat="43.98738" lon="7.15258">
        <ele>606.00050832125</ele>
        <time>2012-04-10T11:16:27Z</time>
      </trkpt>
      <trkpt lat="43.98742" lon="7.15259">
        <ele>602.00027838735</ele>
        <time>2012-04-10T11:16:32Z</time>
      </trkpt>
      <trkpt lat="43.98747" lon="7.15259">
        <ele>601.00127792039</ele>
        <time>2012-04-10T11:16:37Z</time>
      </trkpt>
      <trkpt lat="43.98751" lon="7.15259">
        <ele>600.00155538229</ele>
        <time>2012-04-10T11:16:42Z</time>
      </trkpt>
      <trkpt lat="43.98751" lon="7.15259">
        <ele>601.00058608736</ele>
        <time>2012-04-10T11:16:47Z</time>
      </trkpt>
      <trkpt lat="43.98755" lon="7.15259">
        <ele>601.00044362867</ele>
        <time>2012-04-10T11:16:52Z</time>
      </trkpt>
      <trkpt lat="43.9876" lon="7.15258">
        <ele>601.00040875935</ele>
        <time>2012-04-10T11:16:57Z</time>
      </trkpt>
      <trkpt lat="43.98765" lon="7.15258">
        <ele>601.00019415702</ele>
        <time>2012-04-10T11:17:02Z</time>
      </trkpt>
      <trkpt lat="43.9877" lon="7.15257">
        <ele>599.00065895682</ele>
        <time>2012-04-10T11:17:07Z</time>
      </trkpt>
      <trkpt lat="43.98774" lon="7.15256">
        <ele>597.00015227125</ele>
        <time>2012-04-10T11:17:12Z</time>
      </trkpt>
      <trkpt lat="43.9878" lon="7.15256">
        <ele>599.00003518512</ele>
        <time>2012-04-10T11:17:17Z</time>
      </trkpt>
      <trkpt lat="43.98785" lon="7.15256">
        <ele>600.00043631468</ele>
        <time>2012-04-10T11:17:22Z</time>
      </trkpt>
      <trkpt lat="43.9879" lon="7.15255">
        <ele>598.00022982261</ele>
        <time>2012-04-10T11:17:27Z</time>
      </trkpt>
      <trkpt lat="43.98795" lon="7.15254">
        <ele>595.00047094645</ele>
        <time>2012-04-10T11:17:32Z</time>
      </trkpt>
      <trkpt lat="43.988" lon="7.15253">
        <ele>601.00006870829</ele>
        <time>2012-04-10T11:17:37Z</time>
      </trkpt>
      <trkpt lat="43.98806" lon="7.15253">
        <ele>598.00006496552</ele>
        <time>2012-04-10T11:17:42Z</time>
      </trkpt>
      <trkpt lat="43.9881" lon="7.15254">
        <ele>594.00108523341</ele>
        <time>2012-04-10T11:17:47Z</time>
      </trkpt>
      <trkpt lat="43.98812" lon="7.15252">
        <ele>594.00064265827</ele>
        <time>2012-04-10T11:17:52Z</time>
      </trkpt>
      <trkpt lat="43.98815" lon="7.1525">
        <ele>587.00058315808</ele>
        <time>2012-04-10T11:17:57Z</time>
      </trkpt>
      <trkpt lat="43.98819" lon="7.15249">
        <ele>590.0004790469</ele>
        <time>2012-04-10T11:18:02Z</time>
      </trkpt>
      <trkpt lat="43.98823" lon="7.15247">
        <ele>596.00084243676</ele>
        <time>2012-04-10T11:18:07Z</time>
      </trkpt>
      <trkpt lat="43.98825" lon="7.15245">
        <ele>590.00068070614</ele>
        <time>2012-04-10T11:18:12Z</time>
      </trkpt>
      <trkpt lat="43.98828" lon="7.15242">
        <ele>593.00009078974</ele>
        <time>2012-04-10T11:18:17Z</time>
      </trkpt>
      <trkpt lat="43.98832" lon="7.1524">
        <ele>593.0008920386</ele>
        <time>2012-04-10T11:18:22Z</time>
      </trkpt>
      <trkpt lat="43.98831" lon="7.15239">
        <ele>591.00053527626</ele>
        <time>2012-04-10T11:18:27Z</time>
      </trkpt>
      <trkpt lat="43.98831" lon="7.1524">
        <ele>586.00022511044</ele>
        <time>2012-04-10T11:18:52Z</time>
      </trkpt>
      <trkpt lat="43.98835" lon="7.1524">
        <ele>582.00048524862</ele>
        <time>2012-04-10T11:18:57Z</time>
      </trkpt>
      <trkpt lat="43.98839" lon="7.15243">
        <ele>586.00068557087</ele>
        <time>2012-04-10T11:19:02Z</time>
      </trkpt>
      <trkpt lat="43.98843" lon="7.15246">
        <ele>586.00047764618</ele>
        <time>2012-04-10T11:19:07Z</time>
      </trkpt>
      <trkpt lat="43.98846" lon="7.15249">
        <ele>595.00083228978</ele>
        <time>2012-04-10T11:19:12Z</time>
      </trkpt>
      <trkpt lat="43.98849" lon="7.15254">
        <ele>595.00107992645</ele>
        <time>2012-04-10T11:19:17Z</time>
      </trkpt>
      <trkpt lat="43.98851" lon="7.15257">
        <ele>587.00047464251</ele>
        <time>2012-04-10T11:19:22Z</time>
      </trkpt>
      <trkpt lat="43.98856" lon="7.15256">
        <ele>589.00033523171</ele>
        <time>2012-04-10T11:19:27Z</time>
      </trkpt>
      <trkpt lat="43.98862" lon="7.15251">
        <ele>585.99970714073</ele>
        <time>2012-04-10T11:19:32Z</time>
      </trkpt>
      <trkpt lat="43.98867" lon="7.15245">
        <ele>590.99956314428</ele>
        <time>2012-04-10T11:19:37Z</time>
      </trkpt>
      <trkpt lat="43.98872" lon="7.15241">
        <ele>590.99994032633</ele>
        <time>2012-04-10T11:19:42Z</time>
      </trkpt>
      <trkpt lat="43.98875" lon="7.15238">
        <ele>584.00059534933</ele>
        <time>2012-04-10T11:19:47Z</time>
      </trkpt>
      <trkpt lat="43.98879" lon="7.15235">
        <ele>584.00032208566</ele>
        <time>2012-04-10T11:19:52Z</time>
      </trkpt>
      <trkpt lat="43.98884" lon="7.15231">
        <ele>584.99988850679</ele>
        <time>2012-04-10T11:19:57Z</time>
      </trkpt>
      <trkpt lat="43.9889" lon="7.15228">
        <ele>585.00001268992</ele>
        <time>2012-04-10T11:20:02Z</time>
      </trkpt>
      <trkpt lat="43.98895" lon="7.15223">
        <ele>589.00019824808</ele>
        <time>2012-04-10T11:20:07Z</time>
      </trkpt>
      <trkpt lat="43.989" lon="7.15222">
        <ele>582.00028076737</ele>
        <time>2012-04-10T11:20:12Z</time>
      </trkpt>
      <trkpt lat="43.98905" lon="7.15221">
        <ele>585.00020991156</ele>
        <time>2012-04-10T11:20:17Z</time>
      </trkpt>
      <trkpt lat="43.9891" lon="7.15219">
        <ele>583.99997103411</ele>
        <time>2012-04-10T11:20:22Z</time>
      </trkpt>
      <trkpt lat="43.98915" lon="7.1522">
        <ele>581.00018408672</ele>
        <time>2012-04-10T11:20:27Z</time>
      </trkpt>
      <trkpt lat="43.9892" lon="7.15219">
        <ele>582.0003572305</ele>
        <time>2012-04-10T11:20:32Z</time>
      </trkpt>
      <trkpt lat="43.98924" lon="7.1522">
        <ele>582.0001344893</ele>
        <time>2012-04-10T11:20:37Z</time>
      </trkpt>
      <trkpt lat="43.9893" lon="7.1522">
        <ele>583.00013208726</ele>
        <time>2012-04-10T11:20:42Z</time>
      </trkpt>
      <trkpt lat="43.98935" lon="7.1522">
        <ele>584.00037915539</ele>
        <time>2012-04-10T11:20:47Z</time>
      </trkpt>
      <trkpt lat="43.98941" lon="7.15223">
        <ele>582.99967743615</ele>
        <time>2012-04-10T11:20:52Z</time>
      </trkpt>
      <trkpt lat="43.98947" lon="7.15225">
        <ele>585.99992909395</ele>
        <time>2012-04-10T11:20:57Z</time>
      </trkpt>
      <trkpt lat="43.98953" lon="7.15228">
        <ele>579.99984330657</ele>
        <time>2012-04-10T11:21:02Z</time>
      </trkpt>
      <trkpt lat="43.98957" lon="7.15232">
        <ele>582.00012825663</ele>
        <time>2012-04-10T11:21:07Z</time>
      </trkpt>
      <trkpt lat="43.98962" lon="7.15232">
        <ele>585.00031158599</ele>
        <time>2012-04-10T11:21:12Z</time>
      </trkpt>
      <trkpt lat="43.98968" lon="7.15233">
        <ele>579.99989748654</ele>
        <time>2012-04-10T11:21:17Z</time>
      </trkpt>
      <trkpt lat="43.98973" lon="7.15234">
        <ele>585.00013096808</ele>
        <time>2012-04-10T11:21:22Z</time>
      </trkpt>
      <trkpt lat="43.98979" lon="7.15233">
        <ele>582.00011864089</ele>
        <time>2012-04-10T11:21:27Z</time>
      </trkpt>
      <trkpt lat="43.98985" lon="7.15231">
        <ele>582.99979780579</ele>
        <time>2012-04-10T11:21:32Z</time>
      </trkpt>
      <trkpt lat="43.98992" lon="7.1523">
        <ele>582.99967460197</ele>
        <time>2012-04-10T11:21:37Z</time>
      </trkpt>
      <trkpt lat="43.98996" lon="7.15227">
        <ele>581.00040483161</ele>
        <time>2012-04-10T11:21:42Z</time>
      </trkpt>
      <trkpt lat="43.99001" lon="7.15225">
        <ele>584.00042820662</ele>
        <time>2012-04-10T11:21:47Z</time>
      </trkpt>
      <trkpt lat="43.99007" lon="7.15224">
        <ele>586.99986371134</ele>
        <time>2012-04-10T11:21:52Z</time>
      </trkpt>
      <trkpt lat="43.99011" lon="7.15223">
        <ele>586.00039796463</ele>
        <time>2012-04-10T11:21:57Z</time>
      </trkpt>
      <trkpt lat="43.99015" lon="7.15222">
        <ele>583.00041601126</ele>
        <time>2012-04-10T11:22:02Z</time>
      </trkpt>
      <trkpt lat="43.9902" lon="7.15223">
        <ele>587.0002858959</ele>
        <time>2012-04-10T11:22:07Z</time>
      </trkpt>
      <trkpt lat="43.99023" lon="7.15223">
        <ele>587.00045767801</ele>
        <time>2012-04-10T11:22:12Z</time>
      </trkpt>
      <trkpt lat="43.99025" lon="7.1522">
        <ele>587.99998352388</ele>
        <time>2012-04-10T11:22:17Z</time>
      </trkpt>
      <trkpt lat="43.99026" lon="7.15218">
        <ele>592.0001932003</ele>
        <time>2012-04-10T11:22:22Z</time>
      </trkpt>
      <trkpt lat="43.99026" lon="7.15219">
        <ele>598.00017353818</ele>
        <time>2012-04-10T11:22:37Z</time>
      </trkpt>
      <trkpt lat="43.99026" lon="7.15219">
        <ele>592.99991563441</ele>
        <time>2012-04-10T11:22:42Z</time>
      </trkpt>
      <trkpt lat="43.9903" lon="7.15219">
        <ele>591.99979504476</ele>
        <time>2012-04-10T11:22:47Z</time>
      </trkpt>
      <trkpt lat="43.99036" lon="7.15218">
        <ele>594.99973572407</ele>
        <time>2012-04-10T11:22:52Z</time>
      </trkpt>
      <trkpt lat="43.9904" lon="7.15215">
        <ele>593.00022319177</ele>
        <time>2012-04-10T11:22:57Z</time>
      </trkpt>
      <trkpt lat="43.99044" lon="7.15213">
        <ele>591.00035754929</ele>
        <time>2012-04-10T11:23:02Z</time>
      </trkpt>
      <trkpt lat="43.99048" lon="7.15208">
        <ele>588.0000618773</ele>
        <time>2012-04-10T11:23:07Z</time>
      </trkpt>
      <trkpt lat="43.99052" lon="7.15204">
        <ele>590.00011365866</ele>
        <time>2012-04-10T11:23:12Z</time>
      </trkpt>
      <trkpt lat="43.99056" lon="7.15198">
        <ele>588.00006946611</ele>
        <time>2012-04-10T11:23:17Z</time>
      </trkpt>
      <trkpt lat="43.99061" lon="7.15194">
        <ele>590.00022909158</ele>
        <time>2012-04-10T11:23:22Z</time>
      </trkpt>
      <trkpt lat="43.99064" lon="7.15192">
        <ele>589.00022180527</ele>
        <time>2012-04-10T11:23:27Z</time>
      </trkpt>
      <trkpt lat="43.99069" lon="7.15189">
        <ele>590.00012745937</ele>
        <time>2012-04-10T11:23:32Z</time>
      </trkpt>
      <trkpt lat="43.99073" lon="7.15186">
        <ele>589.00011099172</ele>
        <time>2012-04-10T11:23:37Z</time>
      </trkpt>
      <trkpt lat="43.99078" lon="7.15184">
        <ele>588.00008580179</ele>
        <time>2012-04-10T11:23:42Z</time>
      </trkpt>
      <trkpt lat="43.99083" lon="7.15182">
        <ele>587.99997461835</ele>
        <time>2012-04-10T11:23:47Z</time>
      </trkpt>
      <trkpt lat="43.99088" lon="7.15179">
        <ele>589.00008195525</ele>
        <time>2012-04-10T11:23:52Z</time>
      </trkpt>
      <trkpt lat="43.99091" lon="7.15177">
        <ele>588.00033703259</ele>
        <time>2012-04-10T11:23:57Z</time>
      </trkpt>
      <trkpt lat="43.99095" lon="7.15176">
        <ele>589.00033348329</ele>
        <time>2012-04-10T11:24:02Z</time>
      </trkpt>
      <trkpt lat="43.99099" lon="7.15173">
        <ele>587.00041939813</ele>
        <time>2012-04-10T11:24:07Z</time>
      </trkpt>
      <trkpt lat="43.99103" lon="7.15172">
        <ele>587.00042284562</ele>
        <time>2012-04-10T11:24:12Z</time>
      </trkpt>
      <trkpt lat="43.99106" lon="7.15167">
        <ele>582.00031917093</ele>
        <time>2012-04-10T11:24:17Z</time>
      </trkpt>
      <trkpt lat="43.9911" lon="7.15164">
        <ele>583.00043417792</ele>
        <time>2012-04-10T11:24:22Z</time>
      </trkpt>
      <trkpt lat="43.99113" lon="7.1516">
        <ele>581.0003412579</ele>
        <time>2012-04-10T11:24:27Z</time>
      </trkpt>
      <trkpt lat="43.99117" lon="7.15157">
        <ele>585.00068766332</ele>
        <time>2012-04-10T11:24:32Z</time>
      </trkpt>
      <trkpt lat="43.9912" lon="7.15154">
        <ele>583.00045250811</ele>
        <time>2012-04-10T11:24:37Z</time>
      </trkpt>
      <trkpt lat="43.99124" lon="7.15152">
        <ele>585.00032491767</ele>
        <time>2012-04-10T11:24:42Z</time>
      </trkpt>
      <trkpt lat="43.99128" lon="7.1515">
        <ele>584.00041998232</ele>
        <time>2012-04-10T11:24:47Z</time>
      </trkpt>
      <trkpt lat="43.99129" lon="7.1515">
        <ele>585.00105684585</ele>
        <time>2012-04-10T11:24:52Z</time>
      </trkpt>
      <trkpt lat="43.99129" lon="7.15149">
        <ele>583.00216298799</ele>
        <time>2012-04-10T11:25:17Z</time>
      </trkpt>
      <trkpt lat="43.99128" lon="7.15149">
        <ele>581.00158877952</ele>
        <time>2012-04-10T11:25:22Z</time>
      </trkpt>
      <trkpt lat="43.99127" lon="7.1515">
        <ele>582.00081816771</ele>
        <time>2012-04-10T11:25:47Z</time>
      </trkpt>
      <trkpt lat="43.9913" lon="7.15149">
        <ele>580.99923183619</ele>
        <time>2012-04-10T11:25:52Z</time>
      </trkpt>
      <trkpt lat="43.99134" lon="7.15145">
        <ele>578.00013037855</ele>
        <time>2012-04-10T11:25:57Z</time>
      </trkpt>
      <trkpt lat="43.99137" lon="7.15143">
        <ele>576.00077065019</ele>
        <time>2012-04-10T11:26:02Z</time>
      </trkpt>
      <trkpt lat="43.99141" lon="7.15143">
        <ele>576.00132670341</ele>
        <time>2012-04-10T11:26:07Z</time>
      </trkpt>
      <trkpt lat="43.99141" lon="7.15141">
        <ele>581.00083259402</ele>
        <time>2012-04-10T11:26:12Z</time>
      </trkpt>
      <trkpt lat="43.99141" lon="7.15139">
        <ele>576.00064576259</ele>
        <time>2012-04-10T11:26:17Z</time>
      </trkpt>
      <trkpt lat="43.99143" lon="7.15139">
        <ele>577.99978454224</ele>
        <time>2012-04-10T11:26:27Z</time>
      </trkpt>
      <trkpt lat="43.99144" lon="7.15138">
        <ele>579.99968652593</ele>
        <time>2012-04-10T11:26:32Z</time>
      </trkpt>
      <trkpt lat="43.99146" lon="7.15133">
        <ele>579.00025160572</ele>
        <time>2012-04-10T11:26:37Z</time>
      </trkpt>
      <trkpt lat="43.99145" lon="7.15132">
        <ele>584.99992414477</ele>
        <time>2012-04-10T11:26:42Z</time>
      </trkpt>
      <trkpt lat="43.99145" lon="7.15131">
        <ele>583.99989880435</ele>
        <time>2012-04-10T11:26:47Z</time>
      </trkpt>
      <trkpt lat="43.99145" lon="7.15131">
        <ele>580.00018440277</ele>
        <time>2012-04-10T11:26:52Z</time>
      </trkpt>
      <trkpt lat="43.99144" lon="7.15132">
        <ele>576.99981640528</ele>
        <time>2012-04-10T11:26:57Z</time>
      </trkpt>
      <trkpt lat="43.99144" lon="7.15132">
        <ele>573.99990663391</ele>
        <time>2012-04-10T11:27:02Z</time>
      </trkpt>
      <trkpt lat="43.99146" lon="7.15135">
        <ele>576.00051838896</ele>
        <time>2012-04-10T11:27:07Z</time>
      </trkpt>
      <trkpt lat="43.99146" lon="7.15136">
        <ele>572.00052599759</ele>
        <time>2012-04-10T11:27:12Z</time>
      </trkpt>
      <trkpt lat="43.99146" lon="7.15135">
        <ele>569.0006300954</ele>
        <time>2012-04-10T11:27:17Z</time>
      </trkpt>
      <trkpt lat="43.99146" lon="7.15135">
        <ele>562.00048832345</ele>
        <time>2012-04-10T11:27:27Z</time>
      </trkpt>
      <trkpt lat="43.99145" lon="7.15135">
        <ele>583.00015778059</ele>
        <time>2012-04-10T11:27:47Z</time>
      </trkpt>
      <trkpt lat="43.99144" lon="7.15131">
        <ele>575.00009530436</ele>
        <time>2012-04-10T11:27:52Z</time>
      </trkpt>
      <trkpt lat="43.99144" lon="7.15131">
        <ele>576.00004998309</ele>
        <time>2012-04-10T11:27:57Z</time>
      </trkpt>
      <trkpt lat="43.99144" lon="7.15131">
        <ele>570.99989015679</ele>
        <time>2012-04-10T11:28:02Z</time>
      </trkpt>
      <trkpt lat="43.99141" lon="7.15133">
        <ele>570.99985277046</ele>
        <time>2012-04-10T11:28:12Z</time>
      </trkpt>
      <trkpt lat="43.99138" lon="7.15131">
        <ele>565.99946319189</ele>
        <time>2012-04-10T11:28:17Z</time>
      </trkpt>
      <trkpt lat="43.99135" lon="7.15127">
        <ele>568.99975445718</ele>
        <time>2012-04-10T11:28:22Z</time>
      </trkpt>
      <trkpt lat="43.99132" lon="7.15123">
        <ele>569.99996298566</ele>
        <time>2012-04-10T11:28:27Z</time>
      </trkpt>
      <trkpt lat="43.99132" lon="7.15119">
        <ele>574.00039429122</ele>
        <time>2012-04-10T11:28:32Z</time>
      </trkpt>
      <trkpt lat="43.9913" lon="7.1512">
        <ele>575.99968397004</ele>
        <time>2012-04-10T11:28:37Z</time>
      </trkpt>
      <trkpt lat="43.99126" lon="7.15117">
        <ele>566.99943973508</ele>
        <time>2012-04-10T11:28:42Z</time>
      </trkpt>
      <trkpt lat="43.99122" lon="7.15117">
        <ele>563.99955754464</ele>
        <time>2012-04-10T11:28:47Z</time>
      </trkpt>
      <trkpt lat="43.99117" lon="7.15116">
        <ele>561.99973986471</ele>
        <time>2012-04-10T11:28:52Z</time>
      </trkpt>
      <trkpt lat="43.99114" lon="7.15114">
        <ele>563.99946646142</ele>
        <time>2012-04-10T11:28:57Z</time>
      </trkpt>
      <trkpt lat="43.99112" lon="7.15109">
        <ele>568.99963664175</ele>
        <time>2012-04-10T11:29:02Z</time>
      </trkpt>
      <trkpt lat="43.99112" lon="7.15105">
        <ele>571.99968473277</ele>
        <time>2012-04-10T11:29:07Z</time>
      </trkpt>
      <trkpt lat="43.99114" lon="7.15099">
        <ele>575.99990248136</ele>
        <time>2012-04-10T11:29:12Z</time>
      </trkpt>
      <trkpt lat="43.99116" lon="7.15094">
        <ele>577.00036458109</ele>
        <time>2012-04-10T11:29:17Z</time>
      </trkpt>
      <trkpt lat="43.99118" lon="7.15097">
        <ele>577.00089049899</ele>
        <time>2012-04-10T11:29:22Z</time>
      </trkpt>
      <trkpt lat="43.99121" lon="7.15098">
        <ele>568.00047868157</ele>
        <time>2012-04-10T11:29:27Z</time>
      </trkpt>
      <trkpt lat="43.99125" lon="7.15098">
        <ele>564.00079875309</ele>
        <time>2012-04-10T11:29:32Z</time>
      </trkpt>
      <trkpt lat="43.99129" lon="7.15101">
        <ele>563.00057152879</ele>
        <time>2012-04-10T11:29:37Z</time>
      </trkpt>
      <trkpt lat="43.99133" lon="7.15102">
        <ele>562.00191113196</ele>
        <time>2012-04-10T11:29:42Z</time>
      </trkpt>
      <trkpt lat="43.99136" lon="7.15103">
        <ele>558.00253051231</ele>
        <time>2012-04-10T11:29:47Z</time>
      </trkpt>
      <trkpt lat="43.99138" lon="7.15105">
        <ele>557.00249930985</ele>
        <time>2012-04-10T11:29:52Z</time>
      </trkpt>
      <trkpt lat="43.99139" lon="7.15109">
        <ele>553.00175422399</ele>
        <time>2012-04-10T11:29:57Z</time>
      </trkpt>
      <trkpt lat="43.9914" lon="7.1511">
        <ele>548.00089594913</ele>
        <time>2012-04-10T11:30:02Z</time>
      </trkpt>
      <trkpt lat="43.99145" lon="7.15111">
        <ele>546.00109114371</ele>
        <time>2012-04-10T11:30:07Z</time>
      </trkpt>
      <trkpt lat="43.9915" lon="7.15111">
        <ele>549.0014093244</ele>
        <time>2012-04-10T11:30:12Z</time>
      </trkpt>
      <trkpt lat="43.99153" lon="7.15112">
        <ele>547.00151162172</ele>
        <time>2012-04-10T11:30:17Z</time>
      </trkpt>
      <trkpt lat="43.99156" lon="7.15112">
        <ele>551.00264367593</ele>
        <time>2012-04-10T11:30:22Z</time>
      </trkpt>
      <trkpt lat="43.99158" lon="7.15113">
        <ele>549.00172744715</ele>
        <time>2012-04-10T11:30:27Z</time>
      </trkpt>
      <trkpt lat="43.99161" lon="7.15115">
        <ele>551.00180664086</ele>
        <time>2012-04-10T11:30:32Z</time>
      </trkpt>
      <trkpt lat="43.9916" lon="7.15114">
        <ele>544.00086941591</ele>
        <time>2012-04-10T11:30:37Z</time>
      </trkpt>
      <trkpt lat="43.99162" lon="7.15111">
        <ele>581.99823839548</ele>
        <time>2012-04-10T11:30:57Z</time>
      </trkpt>
      <trkpt lat="43.99162" lon="7.15111">
        <ele>580.99818611328</ele>
        <time>2012-04-10T11:31:02Z</time>
      </trkpt>
      <trkpt lat="43.99163" lon="7.1511">
        <ele>582.99814264115</ele>
        <time>2012-04-10T11:31:07Z</time>
      </trkpt>
      <trkpt lat="43.99168" lon="7.15109">
        <ele>563.99997788077</ele>
        <time>2012-04-10T11:31:12Z</time>
      </trkpt>
      <trkpt lat="43.99173" lon="7.1511">
        <ele>553.00133954388</ele>
        <time>2012-04-10T11:31:17Z</time>
      </trkpt>
      <trkpt lat="43.99177" lon="7.15112">
        <ele>547.00226222375</ele>
        <time>2012-04-10T11:31:22Z</time>
      </trkpt>
      <trkpt lat="43.9918" lon="7.15115">
        <ele>554.00234899259</ele>
        <time>2012-04-10T11:31:27Z</time>
      </trkpt>
      <trkpt lat="43.99183" lon="7.15119">
        <ele>558.00084405658</ele>
        <time>2012-04-10T11:31:32Z</time>
      </trkpt>
      <trkpt lat="43.99186" lon="7.15124">
        <ele>559.00123698398</ele>
        <time>2012-04-10T11:31:37Z</time>
      </trkpt>
      <trkpt lat="43.99191" lon="7.15132">
        <ele>559.99794065234</ele>
        <time>2012-04-10T11:31:42Z</time>
      </trkpt>
      <trkpt lat="43.99198" lon="7.1514">
        <ele>563.99743592767</ele>
        <time>2012-04-10T11:31:47Z</time>
      </trkpt>
      <trkpt lat="43.99206" lon="7.15146">
        <ele>560.99792748892</ele>
        <time>2012-04-10T11:31:52Z</time>
      </trkpt>
      <trkpt lat="43.99206" lon="7.1515">
        <ele>563.997339165</ele>
        <time>2012-04-10T11:31:57Z</time>
      </trkpt>
      <trkpt lat="43.99205" lon="7.15153">
        <ele>558.99686391342</ele>
        <time>2012-04-10T11:32:02Z</time>
      </trkpt>
      <trkpt lat="43.99206" lon="7.15154">
        <ele>550.99680683915</ele>
        <time>2012-04-10T11:32:07Z</time>
      </trkpt>
      <trkpt lat="43.99213" lon="7.15155">
        <ele>556.00015011507</ele>
        <time>2012-04-10T11:32:12Z</time>
      </trkpt>
      <trkpt lat="43.99216" lon="7.1516">
        <ele>546.00038892074</ele>
        <time>2012-04-10T11:32:17Z</time>
      </trkpt>
      <trkpt lat="43.99221" lon="7.15168">
        <ele>555.99802544967</ele>
        <time>2012-04-10T11:32:22Z</time>
      </trkpt>
      <trkpt lat="43.99226" lon="7.15174">
        <ele>565.99843031849</ele>
        <time>2012-04-10T11:32:27Z</time>
      </trkpt>
      <trkpt lat="43.99233" lon="7.15179">
        <ele>567.99913292844</ele>
        <time>2012-04-10T11:32:32Z</time>
      </trkpt>
      <trkpt lat="43.99236" lon="7.15183">
        <ele>576.99937527434</ele>
        <time>2012-04-10T11:32:37Z</time>
      </trkpt>
      <trkpt lat="43.99239" lon="7.15186">
        <ele>578.99968703147</ele>
        <time>2012-04-10T11:32:42Z</time>
      </trkpt>
      <trkpt lat="43.99239" lon="7.15189">
        <ele>579.99775746844</ele>
        <time>2012-04-10T11:32:47Z</time>
      </trkpt>
      <trkpt lat="43.9924" lon="7.15194">
        <ele>570.99734791331</ele>
        <time>2012-04-10T11:32:52Z</time>
      </trkpt>
      <trkpt lat="43.99242" lon="7.15194">
        <ele>582.99813399125</ele>
        <time>2012-04-10T11:32:57Z</time>
      </trkpt>
      <trkpt lat="43.99245" lon="7.15195">
        <ele>577.99655559345</ele>
        <time>2012-04-10T11:33:17Z</time>
      </trkpt>
      <trkpt lat="43.99252" lon="7.15201">
        <ele>568.99926306</ele>
        <time>2012-04-10T11:33:22Z</time>
      </trkpt>
      <trkpt lat="43.99256" lon="7.15207">
        <ele>566.00135766013</ele>
        <time>2012-04-10T11:33:27Z</time>
      </trkpt>
      <trkpt lat="43.99259" lon="7.15212">
        <ele>561.00134899023</ele>
        <time>2012-04-10T11:33:32Z</time>
      </trkpt>
      <trkpt lat="43.9926" lon="7.15211">
        <ele>555.0021619685</ele>
        <time>2012-04-10T11:33:37Z</time>
      </trkpt>
      <trkpt lat="43.99258" lon="7.15213">
        <ele>585.0037151993</ele>
        <time>2012-04-10T11:33:52Z</time>
      </trkpt>
      <trkpt lat="43.99259" lon="7.15217">
        <ele>579.00279157791</ele>
        <time>2012-04-10T11:33:57Z</time>
      </trkpt>
      <trkpt lat="43.99261" lon="7.15219">
        <ele>575.00311899566</ele>
        <time>2012-04-10T11:34:02Z</time>
      </trkpt>
      <trkpt lat="43.99261" lon="7.1522">
        <ele>573.00175157513</ele>
        <time>2012-04-10T11:34:12Z</time>
      </trkpt>
      <trkpt lat="43.99263" lon="7.15223">
        <ele>565.00232903403</ele>
        <time>2012-04-10T11:34:27Z</time>
      </trkpt>
      <trkpt lat="43.99266" lon="7.15227">
        <ele>564.00260933538</ele>
        <time>2012-04-10T11:34:32Z</time>
      </trkpt>
      <trkpt lat="43.99266" lon="7.15232">
        <ele>570.00218582578</ele>
        <time>2012-04-10T11:34:37Z</time>
      </trkpt>
      <trkpt lat="43.99267" lon="7.15235">
        <ele>570.00187757734</ele>
        <time>2012-04-10T11:34:42Z</time>
      </trkpt>
      <trkpt lat="43.99268" lon="7.15238">
        <ele>584.00198664641</ele>
        <time>2012-04-10T11:34:47Z</time>
      </trkpt>
      <trkpt lat="43.9927" lon="7.15242">
        <ele>581.00230878375</ele>
        <time>2012-04-10T11:34:52Z</time>
      </trkpt>
      <trkpt lat="43.99273" lon="7.15245">
        <ele>587.9962834963</ele>
        <time>2012-04-10T11:34:57Z</time>
      </trkpt>
      <trkpt lat="43.9928" lon="7.15245">
        <ele>594.00029799979</ele>
        <time>2012-04-10T11:35:02Z</time>
      </trkpt>
      <trkpt lat="43.99284" lon="7.15247">
        <ele>595.00222735</ele>
        <time>2012-04-10T11:35:07Z</time>
      </trkpt>
      <trkpt lat="43.99286" lon="7.15248">
        <ele>591.00345074062</ele>
        <time>2012-04-10T11:35:12Z</time>
      </trkpt>
      <trkpt lat="43.99286" lon="7.1525">
        <ele>581.00289579459</ele>
        <time>2012-04-10T11:35:17Z</time>
      </trkpt>
      <trkpt lat="43.99285" lon="7.15247">
        <ele>564.00209573556</ele>
        <time>2012-04-10T11:35:22Z</time>
      </trkpt>
      <trkpt lat="43.99286" lon="7.15246">
        <ele>546.00077142988</ele>
        <time>2012-04-10T11:36:02Z</time>
      </trkpt>
      <trkpt lat="43.99288" lon="7.15246">
        <ele>558.001236252</ele>
        <time>2012-04-10T11:36:07Z</time>
      </trkpt>
      <trkpt lat="43.99288" lon="7.15246">
        <ele>558.0004968689</ele>
        <time>2012-04-10T11:36:12Z</time>
      </trkpt>
      <trkpt lat="43.99292" lon="7.1525">
        <ele>564.00146424688</ele>
        <time>2012-04-10T11:36:17Z</time>
      </trkpt>
      <trkpt lat="43.99289" lon="7.15252">
        <ele>565.99642687704</ele>
        <time>2012-04-10T11:36:22Z</time>
      </trkpt>
      <trkpt lat="43.99288" lon="7.15252">
        <ele>564.99593228692</ele>
        <time>2012-04-10T11:36:27Z</time>
      </trkpt>
      <trkpt lat="43.9929" lon="7.15259">
        <ele>560.99553336463</ele>
        <time>2012-04-10T11:36:52Z</time>
      </trkpt>
      <trkpt lat="43.993" lon="7.15266">
        <ele>573.99985308079</ele>
        <time>2012-04-10T11:36:57Z</time>
      </trkpt>
      <trkpt lat="43.99305" lon="7.15272">
        <ele>577.00142997015</ele>
        <time>2012-04-10T11:37:02Z</time>
      </trkpt>
      <trkpt lat="43.99308" lon="7.15281">
        <ele>582.003112518</ele>
        <time>2012-04-10T11:37:07Z</time>
      </trkpt>
      <trkpt lat="43.9931" lon="7.15291">
        <ele>579.00209823312</ele>
        <time>2012-04-10T11:37:12Z</time>
      </trkpt>
      <trkpt lat="43.99313" lon="7.153">
        <ele>580.00204307496</ele>
        <time>2012-04-10T11:37:17Z</time>
      </trkpt>
      <trkpt lat="43.99315" lon="7.15305">
        <ele>583.00176312652</ele>
        <time>2012-04-10T11:37:22Z</time>
      </trkpt>
      <trkpt lat="43.99316" lon="7.15305">
        <ele>574.00252661323</ele>
        <time>2012-04-10T11:37:27Z</time>
      </trkpt>
      <trkpt lat="43.99317" lon="7.15306">
        <ele>567.00284963039</ele>
        <time>2012-04-10T11:37:32Z</time>
      </trkpt>
      <trkpt lat="43.99317" lon="7.15307">
        <ele>564.0027547499</ele>
        <time>2012-04-10T11:37:37Z</time>
      </trkpt>
      <trkpt lat="43.99317" lon="7.15307">
        <ele>561.00270299653</ele>
        <time>2012-04-10T11:37:42Z</time>
      </trkpt>
      <trkpt lat="43.99318" lon="7.15308">
        <ele>541.00426828073</ele>
        <time>2012-04-10T11:38:12Z</time>
      </trkpt>
      <trkpt lat="43.99313" lon="7.1531">
        <ele>535.00174068711</ele>
        <time>2012-04-10T11:38:27Z</time>
      </trkpt>
      <trkpt lat="43.99311" lon="7.15311">
        <ele>532.00102726771</ele>
        <time>2012-04-10T11:38:32Z</time>
      </trkpt>
      <trkpt lat="43.99311" lon="7.15311">
        <ele>537.00049312088</ele>
        <time>2012-04-10T11:38:37Z</time>
      </trkpt>
      <trkpt lat="43.99312" lon="7.15312">
        <ele>538.99930718175</ele>
        <time>2012-04-10T11:38:42Z</time>
      </trkpt>
      <trkpt lat="43.99312" lon="7.15314">
        <ele>546.99856955185</ele>
        <time>2012-04-10T11:38:47Z</time>
      </trkpt>
      <trkpt lat="43.99312" lon="7.15314">
        <ele>554.99860663309</ele>
        <time>2012-04-10T11:38:52Z</time>
      </trkpt>
      <trkpt lat="43.99314" lon="7.15316">
        <ele>566.9988762556</ele>
        <time>2012-04-10T11:38:57Z</time>
      </trkpt>
      <trkpt lat="43.99314" lon="7.15317">
        <ele>539.000967479</ele>
        <time>2012-04-10T11:39:17Z</time>
      </trkpt>
      <trkpt lat="43.99314" lon="7.15317">
        <ele>533.00215497113</ele>
        <time>2012-04-10T11:39:27Z</time>
      </trkpt>
      <trkpt lat="43.99312" lon="7.15319">
        <ele>536.00500333713</ele>
        <time>2012-04-10T11:40:27Z</time>
      </trkpt>
      <trkpt lat="43.99311" lon="7.15319">
        <ele>544.00509251346</ele>
        <time>2012-04-10T11:40:32Z</time>
      </trkpt>
      <trkpt lat="43.99305" lon="7.15316">
        <ele>536.00144337897</ele>
        <time>2012-04-10T11:40:37Z</time>
      </trkpt>
      <trkpt lat="43.99302" lon="7.15316">
        <ele>544.99734676227</ele>
        <time>2012-04-10T11:40:42Z</time>
      </trkpt>
      <trkpt lat="43.99307" lon="7.15305">
        <ele>550.99895655685</ele>
        <time>2012-04-10T11:40:47Z</time>
      </trkpt>
      <trkpt lat="43.99308" lon="7.15294">
        <ele>554.00014476974</ele>
        <time>2012-04-10T11:40:52Z</time>
      </trkpt>
      <trkpt lat="43.99308" lon="7.15285">
        <ele>556.00060734341</ele>
        <time>2012-04-10T11:40:57Z</time>
      </trkpt>
      <trkpt lat="43.99306" lon="7.15279">
        <ele>558.99965425112</ele>
        <time>2012-04-10T11:41:02Z</time>
      </trkpt>
      <trkpt lat="43.99307" lon="7.15271">
        <ele>556.99801369839</ele>
        <time>2012-04-10T11:41:07Z</time>
      </trkpt>
      <trkpt lat="43.99306" lon="7.15268">
        <ele>545.99742603831</ele>
        <time>2012-04-10T11:41:12Z</time>
      </trkpt>
      <trkpt lat="43.99305" lon="7.15266">
        <ele>536.99590181097</ele>
        <time>2012-04-10T11:41:17Z</time>
      </trkpt>
      <trkpt lat="43.99312" lon="7.15266">
        <ele>515.99966138044</ele>
        <time>2012-04-10T11:41:22Z</time>
      </trkpt>
      <trkpt lat="43.99316" lon="7.15265">
        <ele>513.00194851846</ele>
        <time>2012-04-10T11:41:27Z</time>
      </trkpt>
      <trkpt lat="43.99314" lon="7.15261">
        <ele>527.0011107784</ele>
        <time>2012-04-10T11:41:32Z</time>
      </trkpt>
      <trkpt lat="43.99311" lon="7.15256">
        <ele>517.99997090271</ele>
        <time>2012-04-10T11:41:37Z</time>
      </trkpt>
      <trkpt lat="43.99309" lon="7.15251">
        <ele>515.9998067745</ele>
        <time>2012-04-10T11:41:42Z</time>
      </trkpt>
      <trkpt lat="43.99308" lon="7.15247">
        <ele>520.00020985516</ele>
        <time>2012-04-10T11:41:47Z</time>
      </trkpt>
      <trkpt lat="43.99305" lon="7.1524">
        <ele>510.00176437591</ele>
        <time>2012-04-10T11:41:52Z</time>
      </trkpt>
      <trkpt lat="43.99301" lon="7.15235">
        <ele>510.00050241891</ele>
        <time>2012-04-10T11:41:57Z</time>
      </trkpt>
      <trkpt lat="43.99299" lon="7.15229">
        <ele>510.00079962419</ele>
        <time>2012-04-10T11:42:02Z</time>
      </trkpt>
      <trkpt lat="43.99296" lon="7.15224">
        <ele>521.00170384276</ele>
        <time>2012-04-10T11:42:07Z</time>
      </trkpt>
      <trkpt lat="43.99292" lon="7.15221">
        <ele>525.0000854338</ele>
        <time>2012-04-10T11:42:12Z</time>
      </trkpt>
      <trkpt lat="43.9929" lon="7.1522">
        <ele>528.99935152013</ele>
        <time>2012-04-10T11:42:17Z</time>
      </trkpt>
      <trkpt lat="43.99289" lon="7.15217">
        <ele>537.99852428609</ele>
        <time>2012-04-10T11:42:22Z</time>
      </trkpt>
      <trkpt lat="43.99289" lon="7.15213">
        <ele>550.99946010366</ele>
        <time>2012-04-10T11:42:27Z</time>
      </trkpt>
      <trkpt lat="43.9929" lon="7.15212">
        <ele>560.00019468908</ele>
        <time>2012-04-10T11:42:32Z</time>
      </trkpt>
      <trkpt lat="43.9929" lon="7.15211">
        <ele>542.00066448657</ele>
        <time>2012-04-10T11:43:07Z</time>
      </trkpt>
      <trkpt lat="43.99286" lon="7.152">
        <ele>548.00084281949</ele>
        <time>2012-04-10T11:43:12Z</time>
      </trkpt>
      <trkpt lat="43.99283" lon="7.15193">
        <ele>544.00198413514</ele>
        <time>2012-04-10T11:43:17Z</time>
      </trkpt>
      <trkpt lat="43.99279" lon="7.15188">
        <ele>549.00241199849</ele>
        <time>2012-04-10T11:43:22Z</time>
      </trkpt>
      <trkpt lat="43.99274" lon="7.15185">
        <ele>554.00079574689</ele>
        <time>2012-04-10T11:43:27Z</time>
      </trkpt>
      <trkpt lat="43.99271" lon="7.15185">
        <ele>564.99949842734</ele>
        <time>2012-04-10T11:43:32Z</time>
      </trkpt>
      <trkpt lat="43.99271" lon="7.15185">
        <ele>582.00553305852</ele>
        <time>2012-04-10T11:43:37Z</time>
      </trkpt>
      <trkpt lat="43.99264" lon="7.15181">
        <ele>575.00551115223</ele>
        <time>2012-04-10T11:43:42Z</time>
      </trkpt>
      <trkpt lat="43.99257" lon="7.15179">
        <ele>563.00167378043</ele>
        <time>2012-04-10T11:43:47Z</time>
      </trkpt>
      <trkpt lat="43.99255" lon="7.1518">
        <ele>566.00066434566</ele>
        <time>2012-04-10T11:43:52Z</time>
      </trkpt>
      <trkpt lat="43.99254" lon="7.15179">
        <ele>559.00000393961</ele>
        <time>2012-04-10T11:43:57Z</time>
      </trkpt>
      <trkpt lat="43.99252" lon="7.15176">
        <ele>556.99890003765</ele>
        <time>2012-04-10T11:44:02Z</time>
      </trkpt>
      <trkpt lat="43.99251" lon="7.15175">
        <ele>555.99805023013</ele>
        <time>2012-04-10T11:44:07Z</time>
      </trkpt>
      <trkpt lat="43.99249" lon="7.15174">
        <ele>553.99735683372</ele>
        <time>2012-04-10T11:44:12Z</time>
      </trkpt>
      <trkpt lat="43.99249" lon="7.15173">
        <ele>561.99703989383</ele>
        <time>2012-04-10T11:44:17Z</time>
      </trkpt>
      <trkpt lat="43.99249" lon="7.15172">
        <ele>567.99713635129</ele>
        <time>2012-04-10T11:44:22Z</time>
      </trkpt>
      <trkpt lat="43.99249" lon="7.15174">
        <ele>561.99794674339</ele>
        <time>2012-04-10T11:44:27Z</time>
      </trkpt>
      <trkpt lat="43.99249" lon="7.15175">
        <ele>561.9977290775</ele>
        <time>2012-04-10T11:44:32Z</time>
      </trkpt>
      <trkpt lat="43.99247" lon="7.15175">
        <ele>582.99779721409</ele>
        <time>2012-04-10T11:44:47Z</time>
      </trkpt>
      <trkpt lat="43.99246" lon="7.15176">
        <ele>569.99695147098</ele>
        <time>2012-04-10T11:44:52Z</time>
      </trkpt>
      <trkpt lat="43.99245" lon="7.15178">
        <ele>562.99826717102</ele>
        <time>2012-04-10T11:44:57Z</time>
      </trkpt>
      <trkpt lat="43.9924" lon="7.1518">
        <ele>554.99964030912</ele>
        <time>2012-04-10T11:45:02Z</time>
      </trkpt>
      <trkpt lat="43.99242" lon="7.15179">
        <ele>555.00110965817</ele>
        <time>2012-04-10T11:45:07Z</time>
      </trkpt>
      <trkpt lat="43.99242" lon="7.15179">
        <ele>546.00071019208</ele>
        <time>2012-04-10T11:45:12Z</time>
      </trkpt>
      <trkpt lat="43.99238" lon="7.15177">
        <ele>549.9986954017</ele>
        <time>2012-04-10T11:45:17Z</time>
      </trkpt>
      <trkpt lat="43.99238" lon="7.15177">
        <ele>549.99852142443</ele>
        <time>2012-04-10T11:45:22Z</time>
      </trkpt>
      <trkpt lat="43.99237" lon="7.15176">
        <ele>553.99824919131</ele>
        <time>2012-04-10T11:45:27Z</time>
      </trkpt>
      <trkpt lat="43.99236" lon="7.15174">
        <ele>549.99829559405</ele>
        <time>2012-04-10T11:45:32Z</time>
      </trkpt>
      <trkpt lat="43.99236" lon="7.15174">
        <ele>548.99806534983</ele>
        <time>2012-04-10T11:45:37Z</time>
      </trkpt>
      <trkpt lat="43.99236" lon="7.15174">
        <ele>550.99799605111</ele>
        <time>2012-04-10T11:45:47Z</time>
      </trkpt>
      <trkpt lat="43.99235" lon="7.15174">
        <ele>561.99805322917</ele>
        <time>2012-04-10T11:45:52Z</time>
      </trkpt>
      <trkpt lat="43.99234" lon="7.15173">
        <ele>558.99821864758</ele>
        <time>2012-04-10T11:45:57Z</time>
      </trkpt>
      <trkpt lat="43.99234" lon="7.15172">
        <ele>560.99804083521</ele>
        <time>2012-04-10T11:46:02Z</time>
      </trkpt>
      <trkpt lat="43.99233" lon="7.15173">
        <ele>564.99769406925</ele>
        <time>2012-04-10T11:46:07Z</time>
      </trkpt>
      <trkpt lat="43.99233" lon="7.15172">
        <ele>560.99897168569</ele>
        <time>2012-04-10T11:46:22Z</time>
      </trkpt>
      <trkpt lat="43.99232" lon="7.15172">
        <ele>546.99941445221</ele>
        <time>2012-04-10T11:46:32Z</time>
      </trkpt>
      <trkpt lat="43.99231" lon="7.15172">
        <ele>554.99898295507</ele>
        <time>2012-04-10T11:46:37Z</time>
      </trkpt>
      <trkpt lat="43.9923" lon="7.15172">
        <ele>555.99846521954</ele>
        <time>2012-04-10T11:46:42Z</time>
      </trkpt>
      <trkpt lat="43.9923" lon="7.15172">
        <ele>561.99870526829</ele>
        <time>2012-04-10T11:46:47Z</time>
      </trkpt>
      <trkpt lat="43.99229" lon="7.15172">
        <ele>565.99832826041</ele>
        <time>2012-04-10T11:46:52Z</time>
      </trkpt>
      <trkpt lat="43.99229" lon="7.15171">
        <ele>562.99873605024</ele>
        <time>2012-04-10T11:46:57Z</time>
      </trkpt>
      <trkpt lat="43.99229" lon="7.15171">
        <ele>561.99836929116</ele>
        <time>2012-04-10T11:47:02Z</time>
      </trkpt>
      <trkpt lat="43.99229" lon="7.15171">
        <ele>559.99816907515</ele>
        <time>2012-04-10T11:47:07Z</time>
      </trkpt>
      <trkpt lat="43.99222" lon="7.15166">
        <ele>561.00346680033</ele>
        <time>2012-04-10T11:47:12Z</time>
      </trkpt>
      <trkpt lat="43.99214" lon="7.15158">
        <ele>566.00127042455</ele>
        <time>2012-04-10T11:47:17Z</time>
      </trkpt>
      <trkpt lat="43.99209" lon="7.15152">
        <ele>565.00053080728</ele>
        <time>2012-04-10T11:47:22Z</time>
      </trkpt>
      <trkpt lat="43.99203" lon="7.15145">
        <ele>568.00021099282</ele>
        <time>2012-04-10T11:47:27Z</time>
      </trkpt>
      <trkpt lat="43.99199" lon="7.15141">
        <ele>561.99967812849</ele>
        <time>2012-04-10T11:47:32Z</time>
      </trkpt>
      <trkpt lat="43.99195" lon="7.15137">
        <ele>567.99867779794</ele>
        <time>2012-04-10T11:47:37Z</time>
      </trkpt>
      <trkpt lat="43.99193" lon="7.15131">
        <ele>561.99835523969</ele>
        <time>2012-04-10T11:47:42Z</time>
      </trkpt>
      <trkpt lat="43.99191" lon="7.15125">
        <ele>562.9989429857</ele>
        <time>2012-04-10T11:47:47Z</time>
      </trkpt>
      <trkpt lat="43.99188" lon="7.1512">
        <ele>562.99891730722</ele>
        <time>2012-04-10T11:47:52Z</time>
      </trkpt>
      <trkpt lat="43.99186" lon="7.15116">
        <ele>564.99936577011</ele>
        <time>2012-04-10T11:47:57Z</time>
      </trkpt>
      <trkpt lat="43.99182" lon="7.15114">
        <ele>562.99954106073</ele>
        <time>2012-04-10T11:48:02Z</time>
      </trkpt>
      <trkpt lat="43.99177" lon="7.15113">
        <ele>558.0004405353</ele>
        <time>2012-04-10T11:48:07Z</time>
      </trkpt>
      <trkpt lat="43.99174" lon="7.15112">
        <ele>553.99922220475</ele>
        <time>2012-04-10T11:48:12Z</time>
      </trkpt>
      <trkpt lat="43.9917" lon="7.15111">
        <ele>559.00036412972</ele>
        <time>2012-04-10T11:48:17Z</time>
      </trkpt>
      <trkpt lat="43.99167" lon="7.15111">
        <ele>553.99890361395</ele>
        <time>2012-04-10T11:48:22Z</time>
      </trkpt>
      <trkpt lat="43.99164" lon="7.15111">
        <ele>549.99970316896</ele>
        <time>2012-04-10T11:48:27Z</time>
      </trkpt>
      <trkpt lat="43.99161" lon="7.1511">
        <ele>561.99935141055</ele>
        <time>2012-04-10T11:48:32Z</time>
      </trkpt>
      <trkpt lat="43.99157" lon="7.15109">
        <ele>560.00032966794</ele>
        <time>2012-04-10T11:48:37Z</time>
      </trkpt>
      <trkpt lat="43.99152" lon="7.15109">
        <ele>563.00007884841</ele>
        <time>2012-04-10T11:48:42Z</time>
      </trkpt>
      <trkpt lat="43.99149" lon="7.15109">
        <ele>567.99992254124</ele>
        <time>2012-04-10T11:48:47Z</time>
      </trkpt>
      <trkpt lat="43.99145" lon="7.15109">
        <ele>570.99998857281</ele>
        <time>2012-04-10T11:48:52Z</time>
      </trkpt>
      <trkpt lat="43.99141" lon="7.15109">
        <ele>565.99990032081</ele>
        <time>2012-04-10T11:48:57Z</time>
      </trkpt>
      <trkpt lat="43.99137" lon="7.15108">
        <ele>563.99951886303</ele>
        <time>2012-04-10T11:49:02Z</time>
      </trkpt>
      <trkpt lat="43.99135" lon="7.15107">
        <ele>565.99974335926</ele>
        <time>2012-04-10T11:49:07Z</time>
      </trkpt>
      <trkpt lat="43.99132" lon="7.15107">
        <ele>561.99982790566</ele>
        <time>2012-04-10T11:49:12Z</time>
      </trkpt>
      <trkpt lat="43.9913" lon="7.15105">
        <ele>563.9995951234</ele>
        <time>2012-04-10T11:49:17Z</time>
      </trkpt>
      <trkpt lat="43.99127" lon="7.15103">
        <ele>562.99905104857</ele>
        <time>2012-04-10T11:49:22Z</time>
      </trkpt>
      <trkpt lat="43.99125" lon="7.15102">
        <ele>573.99959129146</ele>
        <time>2012-04-10T11:49:27Z</time>
      </trkpt>
      <trkpt lat="43.99122" lon="7.15103">
        <ele>571.9997243965</ele>
        <time>2012-04-10T11:49:32Z</time>
      </trkpt>
      <trkpt lat="43.99118" lon="7.15104">
        <ele>573.99999902823</ele>
        <time>2012-04-10T11:49:37Z</time>
      </trkpt>
      <trkpt lat="43.99115" lon="7.15105">
        <ele>575.99993669188</ele>
        <time>2012-04-10T11:49:42Z</time>
      </trkpt>
      <trkpt lat="43.99113" lon="7.15108">
        <ele>570.99978965525</ele>
        <time>2012-04-10T11:49:47Z</time>
      </trkpt>
      <trkpt lat="43.99112" lon="7.15109">
        <ele>574.99960771928</ele>
        <time>2012-04-10T11:49:52Z</time>
      </trkpt>
      <trkpt lat="43.99113" lon="7.1511">
        <ele>573.00016967909</ele>
        <time>2012-04-10T11:50:02Z</time>
      </trkpt>
      <trkpt lat="43.99114" lon="7.15112">
        <ele>568.00019307224</ele>
        <time>2012-04-10T11:50:07Z</time>
      </trkpt>
      <trkpt lat="43.99117" lon="7.15112">
        <ele>567.0000955389</ele>
        <time>2012-04-10T11:50:12Z</time>
      </trkpt>
      <trkpt lat="43.99121" lon="7.15115">
        <ele>565.99996938576</ele>
        <time>2012-04-10T11:50:17Z</time>
      </trkpt>
      <trkpt lat="43.99126" lon="7.15118">
        <ele>569.9997843621</ele>
        <time>2012-04-10T11:50:22Z</time>
      </trkpt>
      <trkpt lat="43.99129" lon="7.15118">
        <ele>577.99990677011</ele>
        <time>2012-04-10T11:50:27Z</time>
      </trkpt>
      <trkpt lat="43.99132" lon="7.15121">
        <ele>571.99997953036</ele>
        <time>2012-04-10T11:50:32Z</time>
      </trkpt>
      <trkpt lat="43.99136" lon="7.15125">
        <ele>575.99981366812</ele>
        <time>2012-04-10T11:50:37Z</time>
      </trkpt>
      <trkpt lat="43.99138" lon="7.1513">
        <ele>579.00020056135</ele>
        <time>2012-04-10T11:50:42Z</time>
      </trkpt>
      <trkpt lat="43.99139" lon="7.15133">
        <ele>582.00015460753</ele>
        <time>2012-04-10T11:50:47Z</time>
      </trkpt>
      <trkpt lat="43.9914" lon="7.15136">
        <ele>586.00029279055</ele>
        <time>2012-04-10T11:50:52Z</time>
      </trkpt>
      <trkpt lat="43.99139" lon="7.15139">
        <ele>577.9998857445</ele>
        <time>2012-04-10T11:50:57Z</time>
      </trkpt>
      <trkpt lat="43.99139" lon="7.15138">
        <ele>577.00008551042</ele>
        <time>2012-04-10T11:51:02Z</time>
      </trkpt>
      <trkpt lat="43.99136" lon="7.15141">
        <ele>574.99994326167</ele>
        <time>2012-04-10T11:51:07Z</time>
      </trkpt>
      <trkpt lat="43.99134" lon="7.15145">
        <ele>574.00010307538</ele>
        <time>2012-04-10T11:51:12Z</time>
      </trkpt>
      <trkpt lat="43.99131" lon="7.1515">
        <ele>574.99988212923</ele>
        <time>2012-04-10T11:51:17Z</time>
      </trkpt>
      <trkpt lat="43.99128" lon="7.15153">
        <ele>573.00011137829</ele>
        <time>2012-04-10T11:51:22Z</time>
      </trkpt>
      <trkpt lat="43.99124" lon="7.15156">
        <ele>575.00004765662</ele>
        <time>2012-04-10T11:51:27Z</time>
      </trkpt>
      <trkpt lat="43.99121" lon="7.15158">
        <ele>581.99980440642</ele>
        <time>2012-04-10T11:51:32Z</time>
      </trkpt>
      <trkpt lat="43.99118" lon="7.15159">
        <ele>576.9998404331</ele>
        <time>2012-04-10T11:51:37Z</time>
      </trkpt>
      <trkpt lat="43.99115" lon="7.15161">
        <ele>580.99991884872</ele>
        <time>2012-04-10T11:51:42Z</time>
      </trkpt>
      <trkpt lat="43.99112" lon="7.15165">
        <ele>575.99999299376</ele>
        <time>2012-04-10T11:51:47Z</time>
      </trkpt>
      <trkpt lat="43.99108" lon="7.15167">
        <ele>573.99978317348</ele>
        <time>2012-04-10T11:51:52Z</time>
      </trkpt>
      <trkpt lat="43.99105" lon="7.15169">
        <ele>581.99989880765</ele>
        <time>2012-04-10T11:51:57Z</time>
      </trkpt>
      <trkpt lat="43.99102" lon="7.15171">
        <ele>585.99995558058</ele>
        <time>2012-04-10T11:52:02Z</time>
      </trkpt>
      <trkpt lat="43.99099" lon="7.15172">
        <ele>586.00003080881</ele>
        <time>2012-04-10T11:52:07Z</time>
      </trkpt>
      <trkpt lat="43.99095" lon="7.15172">
        <ele>585.99993453387</ele>
        <time>2012-04-10T11:52:12Z</time>
      </trkpt>
      <trkpt lat="43.99091" lon="7.15172">
        <ele>579.99999205419</ele>
        <time>2012-04-10T11:52:17Z</time>
      </trkpt>
      <trkpt lat="43.99088" lon="7.15175">
        <ele>580.00004748361</ele>
        <time>2012-04-10T11:52:22Z</time>
      </trkpt>
      <trkpt lat="43.99084" lon="7.15179">
        <ele>574.00015517046</ele>
        <time>2012-04-10T11:52:27Z</time>
      </trkpt>
      <trkpt lat="43.99079" lon="7.15181">
        <ele>577.99999378308</ele>
        <time>2012-04-10T11:52:32Z</time>
      </trkpt>
      <trkpt lat="43.99076" lon="7.15184">
        <ele>580.99991361356</ele>
        <time>2012-04-10T11:52:37Z</time>
      </trkpt>
      <trkpt lat="43.99073" lon="7.15187">
        <ele>579.99994339552</ele>
        <time>2012-04-10T11:52:42Z</time>
      </trkpt>
      <trkpt lat="43.99069" lon="7.15191">
        <ele>583.00010059098</ele>
        <time>2012-04-10T11:52:47Z</time>
      </trkpt>
      <trkpt lat="43.99065" lon="7.15193">
        <ele>584.99993549959</ele>
        <time>2012-04-10T11:52:52Z</time>
      </trkpt>
      <trkpt lat="43.99061" lon="7.15195">
        <ele>585.99984917368</ele>
        <time>2012-04-10T11:52:57Z</time>
      </trkpt>
      <trkpt lat="43.99058" lon="7.15198">
        <ele>582.99920429597</ele>
        <time>2012-04-10T11:53:02Z</time>
      </trkpt>
      <trkpt lat="43.99056" lon="7.152">
        <ele>578.99984394507</ele>
        <time>2012-04-10T11:53:07Z</time>
      </trkpt>
      <trkpt lat="43.99052" lon="7.15206">
        <ele>583.9999199786</ele>
        <time>2012-04-10T11:53:12Z</time>
      </trkpt>
      <trkpt lat="43.99049" lon="7.15209">
        <ele>583.9999242708</ele>
        <time>2012-04-10T11:53:17Z</time>
      </trkpt>
      <trkpt lat="43.99045" lon="7.15212">
        <ele>585.99974894357</ele>
        <time>2012-04-10T11:53:22Z</time>
      </trkpt>
      <trkpt lat="43.99042" lon="7.15215">
        <ele>581.99953957119</ele>
        <time>2012-04-10T11:53:27Z</time>
      </trkpt>
      <trkpt lat="43.99038" lon="7.15218">
        <ele>575.00009598831</ele>
        <time>2012-04-10T11:53:32Z</time>
      </trkpt>
      <trkpt lat="43.99034" lon="7.15221">
        <ele>576.99986977293</ele>
        <time>2012-04-10T11:53:37Z</time>
      </trkpt>
      <trkpt lat="43.9903" lon="7.15224">
        <ele>576.99985824811</ele>
        <time>2012-04-10T11:53:42Z</time>
      </trkpt>
      <trkpt lat="43.99026" lon="7.15228">
        <ele>577.00003220922</ele>
        <time>2012-04-10T11:53:47Z</time>
      </trkpt>
      <trkpt lat="43.99019" lon="7.15228">
        <ele>579.00088333369</ele>
        <time>2012-04-10T11:53:52Z</time>
      </trkpt>
      <trkpt lat="43.99012" lon="7.15227">
        <ele>582.00024703802</ele>
        <time>2012-04-10T11:53:57Z</time>
      </trkpt>
      <trkpt lat="43.99006" lon="7.15227">
        <ele>583.00005478302</ele>
        <time>2012-04-10T11:54:02Z</time>
      </trkpt>
      <trkpt lat="43.99001" lon="7.15229">
        <ele>591.00014134762</ele>
        <time>2012-04-10T11:54:07Z</time>
      </trkpt>
      <trkpt lat="43.98996" lon="7.15228">
        <ele>597.99987167309</ele>
        <time>2012-04-10T11:54:12Z</time>
      </trkpt>
      <trkpt lat="43.98991" lon="7.15228">
        <ele>596.00020921857</ele>
        <time>2012-04-10T11:54:17Z</time>
      </trkpt>
      <trkpt lat="43.98985" lon="7.15228">
        <ele>599.99993923182</ele>
        <time>2012-04-10T11:54:22Z</time>
      </trkpt>
      <trkpt lat="43.98979" lon="7.15227">
        <ele>602.99996620162</ele>
        <time>2012-04-10T11:54:27Z</time>
      </trkpt>
      <trkpt lat="43.98974" lon="7.15228">
        <ele>590.99988172786</ele>
        <time>2012-04-10T11:54:32Z</time>
      </trkpt>
      <trkpt lat="43.98968" lon="7.15229">
        <ele>585.99997793909</ele>
        <time>2012-04-10T11:54:37Z</time>
      </trkpt>
      <trkpt lat="43.98962" lon="7.15228">
        <ele>579.00009655192</ele>
        <time>2012-04-10T11:54:42Z</time>
      </trkpt>
      <trkpt lat="43.98957" lon="7.15226">
        <ele>585.99988423501</ele>
        <time>2012-04-10T11:54:47Z</time>
      </trkpt>
      <trkpt lat="43.98952" lon="7.15225">
        <ele>581.99984791546</ele>
        <time>2012-04-10T11:54:52Z</time>
      </trkpt>
      <trkpt lat="43.98947" lon="7.15224">
        <ele>582.99989838288</ele>
        <time>2012-04-10T11:54:57Z</time>
      </trkpt>
      <trkpt lat="43.98941" lon="7.15221">
        <ele>579.99999346959</ele>
        <time>2012-04-10T11:55:02Z</time>
      </trkpt>
      <trkpt lat="43.98936" lon="7.15219">
        <ele>581.0002084355</ele>
        <time>2012-04-10T11:55:07Z</time>
      </trkpt>
      <trkpt lat="43.9893" lon="7.15217">
        <ele>582.00006889222</ele>
        <time>2012-04-10T11:55:12Z</time>
      </trkpt>
      <trkpt lat="43.98925" lon="7.15217">
        <ele>587.99960260844</ele>
        <time>2012-04-10T11:55:17Z</time>
      </trkpt>
      <trkpt lat="43.98921" lon="7.15219">
        <ele>583.00019503813</ele>
        <time>2012-04-10T11:55:23Z</time>
      </trkpt>
      <trkpt lat="43.98918" lon="7.1522">
        <ele>584.0000797087</ele>
        <time>2012-04-10T11:55:27Z</time>
      </trkpt>
      <trkpt lat="43.98912" lon="7.15221">
        <ele>584.99984860535</ele>
        <time>2012-04-10T11:55:32Z</time>
      </trkpt>
      <trkpt lat="43.98907" lon="7.15222">
        <ele>585.9998430763</ele>
        <time>2012-04-10T11:55:37Z</time>
      </trkpt>
      <trkpt lat="43.98902" lon="7.15222">
        <ele>586.9999015396</ele>
        <time>2012-04-10T11:55:42Z</time>
      </trkpt>
      <trkpt lat="43.98897" lon="7.15223">
        <ele>587.99987780214</ele>
        <time>2012-04-10T11:55:47Z</time>
      </trkpt>
      <trkpt lat="43.98893" lon="7.15223">
        <ele>590.99986692244</ele>
        <time>2012-04-10T11:55:52Z</time>
      </trkpt>
      <trkpt lat="43.98887" lon="7.15223">
        <ele>586.00037774707</ele>
        <time>2012-04-10T11:55:57Z</time>
      </trkpt>
      <trkpt lat="43.98881" lon="7.15222">
        <ele>582.00009404557</ele>
        <time>2012-04-10T11:56:02Z</time>
      </trkpt>
      <trkpt lat="43.98875" lon="7.15222">
        <ele>582.00013950624</ele>
        <time>2012-04-10T11:56:07Z</time>
      </trkpt>
      <trkpt lat="43.98871" lon="7.15225">
        <ele>584.99998317649</ele>
        <time>2012-04-10T11:56:12Z</time>
      </trkpt>
      <trkpt lat="43.98867" lon="7.15229">
        <ele>586.99936349695</ele>
        <time>2012-04-10T11:56:17Z</time>
      </trkpt>
      <trkpt lat="43.98866" lon="7.15237">
        <ele>583.99946934323</ele>
        <time>2012-04-10T11:56:22Z</time>
      </trkpt>
      <trkpt lat="43.98867" lon="7.15244">
        <ele>582.99929788915</ele>
        <time>2012-04-10T11:56:27Z</time>
      </trkpt>
      <trkpt lat="43.98866" lon="7.15249">
        <ele>579.999572708</ele>
        <time>2012-04-10T11:56:32Z</time>
      </trkpt>
      <trkpt lat="43.98863" lon="7.15254">
        <ele>580.99995118029</ele>
        <time>2012-04-10T11:56:37Z</time>
      </trkpt>
      <trkpt lat="43.98857" lon="7.15256">
        <ele>583.00021723748</ele>
        <time>2012-04-10T11:56:42Z</time>
      </trkpt>
      <trkpt lat="43.98852" lon="7.15257">
        <ele>588.00007541546</ele>
        <time>2012-04-10T11:56:47Z</time>
      </trkpt>
      <trkpt lat="43.98848" lon="7.15254">
        <ele>590.00000123458</ele>
        <time>2012-04-10T11:56:52Z</time>
      </trkpt>
      <trkpt lat="43.98844" lon="7.15251">
        <ele>587.99987128806</ele>
        <time>2012-04-10T11:56:57Z</time>
      </trkpt>
      <trkpt lat="43.98841" lon="7.1525">
        <ele>587.99987270523</ele>
        <time>2012-04-10T11:57:02Z</time>
      </trkpt>
      <trkpt lat="43.98837" lon="7.1525">
        <ele>585.99972404636</ele>
        <time>2012-04-10T11:57:07Z</time>
      </trkpt>
      <trkpt lat="43.98833" lon="7.1525">
        <ele>586.9983494077</ele>
        <time>2012-04-10T11:57:12Z</time>
      </trkpt>
      <trkpt lat="43.98832" lon="7.1525">
        <ele>585.99970478452</ele>
        <time>2012-04-10T11:57:17Z</time>
      </trkpt>
      <trkpt lat="43.98827" lon="7.15251">
        <ele>584.9998253776</ele>
        <time>2012-04-10T11:57:22Z</time>
      </trkpt>
      <trkpt lat="43.98825" lon="7.15251">
        <ele>589.99936313731</ele>
        <time>2012-04-10T11:57:27Z</time>
      </trkpt>
      <trkpt lat="43.98824" lon="7.15251">
        <ele>592.99953630038</ele>
        <time>2012-04-10T11:57:32Z</time>
      </trkpt>
      <trkpt lat="43.9882" lon="7.1525">
        <ele>587.00036226806</ele>
        <time>2012-04-10T11:57:37Z</time>
      </trkpt>
      <trkpt lat="43.98815" lon="7.15251">
        <ele>588.99986356036</ele>
        <time>2012-04-10T11:57:42Z</time>
      </trkpt>
      <trkpt lat="43.98811" lon="7.15253">
        <ele>589.99993052436</ele>
        <time>2012-04-10T11:57:47Z</time>
      </trkpt>
      <trkpt lat="43.98808" lon="7.15255">
        <ele>586.99981192759</ele>
        <time>2012-04-10T11:57:52Z</time>
      </trkpt>
      <trkpt lat="43.98805" lon="7.15256">
        <ele>586.99998927768</ele>
        <time>2012-04-10T11:57:57Z</time>
      </trkpt>
      <trkpt lat="43.98801" lon="7.15258">
        <ele>585.00005884395</ele>
        <time>2012-04-10T11:58:02Z</time>
      </trkpt>
      <trkpt lat="43.98797" lon="7.15259">
        <ele>592.0002340212</ele>
        <time>2012-04-10T11:58:07Z</time>
      </trkpt>
      <trkpt lat="43.98792" lon="7.15259">
        <ele>599.0000112351</ele>
        <time>2012-04-10T11:58:12Z</time>
      </trkpt>
      <trkpt lat="43.98788" lon="7.1526">
        <ele>594.99992641846</ele>
        <time>2012-04-10T11:58:17Z</time>
      </trkpt>
      <trkpt lat="43.98785" lon="7.15259">
        <ele>594.99993615696</ele>
        <time>2012-04-10T11:58:22Z</time>
      </trkpt>
      <trkpt lat="43.98781" lon="7.15258">
        <ele>594.99981726038</ele>
        <time>2012-04-10T11:58:27Z</time>
      </trkpt>
      <trkpt lat="43.98777" lon="7.15256">
        <ele>596.000188958</ele>
        <time>2012-04-10T11:58:32Z</time>
      </trkpt>
      <trkpt lat="43.98774" lon="7.15258">
        <ele>589.99982130198</ele>
        <time>2012-04-10T11:58:37Z</time>
      </trkpt>
      <trkpt lat="43.98771" lon="7.15259">
        <ele>590.99965732325</ele>
        <time>2012-04-10T11:58:42Z</time>
      </trkpt>
      <trkpt lat="43.98767" lon="7.15259">
        <ele>596.99967013983</ele>
        <time>2012-04-10T11:58:47Z</time>
      </trkpt>
      <trkpt lat="43.98765" lon="7.1526">
        <ele>592.9997714642</ele>
        <time>2012-04-10T11:58:52Z</time>
      </trkpt>
      <trkpt lat="43.98761" lon="7.15261">
        <ele>592.99977615809</ele>
        <time>2012-04-10T11:58:57Z</time>
      </trkpt>
      <trkpt lat="43.98758" lon="7.15263">
        <ele>596.99995632307</ele>
        <time>2012-04-10T11:59:02Z</time>
      </trkpt>
      <trkpt lat="43.98754" lon="7.15263">
        <ele>595.99981377812</ele>
        <time>2012-04-10T11:59:07Z</time>
      </trkpt>
      <trkpt lat="43.9875" lon="7.15262">
        <ele>595.99985821674</ele>
        <time>2012-04-10T11:59:12Z</time>
      </trkpt>
      <trkpt lat="43.98746" lon="7.15263">
        <ele>594.99969442588</ele>
        <time>2012-04-10T11:59:17Z</time>
      </trkpt>
      <trkpt lat="43.98742" lon="7.15263">
        <ele>600.00009055413</ele>
        <time>2012-04-10T11:59:22Z</time>
      </trkpt>
      <trkpt lat="43.98739" lon="7.15264">
        <ele>598.99988987782</ele>
        <time>2012-04-10T11:59:27Z</time>
      </trkpt>
      <trkpt lat="43.98735" lon="7.15264">
        <ele>600.9998256895</ele>
        <time>2012-04-10T11:59:32Z</time>
      </trkpt>
      <trkpt lat="43.98733" lon="7.15264">
        <ele>599.99975854424</ele>
        <time>2012-04-10T11:59:37Z</time>
      </trkpt>
      <trkpt lat="43.9873" lon="7.15264">
        <ele>598.99985348217</ele>
        <time>2012-04-10T11:59:42Z</time>
      </trkpt>
      <trkpt lat="43.98726" lon="7.15264">
        <ele>599.99980375529</ele>
        <time>2012-04-10T11:59:47Z</time>
      </trkpt>
      <trkpt lat="43.98723" lon="7.15262">
        <ele>600.99974054016</ele>
        <time>2012-04-10T11:59:52Z</time>
      </trkpt>
      <trkpt lat="43.98719" lon="7.1526">
        <ele>600.99999058486</ele>
        <time>2012-04-10T11:59:57Z</time>
      </trkpt>
      <trkpt lat="43.98714" lon="7.15259">
        <ele>603.00014285789</ele>
        <time>2012-04-10T12:00:02Z</time>
      </trkpt>
      <trkpt lat="43.9871" lon="7.15258">
        <ele>605.00028996768</ele>
        <time>2012-04-10T12:00:07Z</time>
      </trkpt>
      <trkpt lat="43.98705" lon="7.15257">
        <ele>610.00043386309</ele>
        <time>2012-04-10T12:00:12Z</time>
      </trkpt>
      <trkpt lat="43.987" lon="7.15256">
        <ele>601.0000033341</ele>
        <time>2012-04-10T12:00:17Z</time>
      </trkpt>
      <trkpt lat="43.98696" lon="7.15253">
        <ele>608.00006697718</ele>
        <time>2012-04-10T12:00:22Z</time>
      </trkpt>
      <trkpt lat="43.98691" lon="7.15251">
        <ele>611.00039670824</ele>
        <time>2012-04-10T12:00:27Z</time>
      </trkpt>
      <trkpt lat="43.98687" lon="7.1525">
        <ele>606.9999805003</ele>
        <time>2012-04-10T12:00:32Z</time>
      </trkpt>
      <trkpt lat="43.98682" lon="7.15249">
        <ele>617.00051141519</ele>
        <time>2012-04-10T12:00:37Z</time>
      </trkpt>
      <trkpt lat="43.98678" lon="7.15247">
        <ele>612.99983685731</ele>
        <time>2012-04-10T12:00:42Z</time>
      </trkpt>
      <trkpt lat="43.98675" lon="7.15247">
        <ele>609.99855268729</ele>
        <time>2012-04-10T12:00:47Z</time>
      </trkpt>
      <trkpt lat="43.98672" lon="7.15246">
        <ele>609.99865086755</ele>
        <time>2012-04-10T12:00:52Z</time>
      </trkpt>
      <trkpt lat="43.9867" lon="7.15246">
        <ele>613.99950859196</ele>
        <time>2012-04-10T12:00:57Z</time>
      </trkpt>
      <trkpt lat="43.98666" lon="7.15246">
        <ele>608.00005901675</ele>
        <time>2012-04-10T12:01:02Z</time>
      </trkpt>
      <trkpt lat="43.98661" lon="7.15247">
        <ele>606.99982710038</ele>
        <time>2012-04-10T12:01:07Z</time>
      </trkpt>
      <trkpt lat="43.98659" lon="7.15247">
        <ele>608.99953241764</ele>
        <time>2012-04-10T12:01:12Z</time>
      </trkpt>
      <trkpt lat="43.98656" lon="7.15247">
        <ele>607.9994465936</ele>
        <time>2012-04-10T12:01:17Z</time>
      </trkpt>
      <trkpt lat="43.98653" lon="7.15245">
        <ele>614.99907908779</ele>
        <time>2012-04-10T12:01:22Z</time>
      </trkpt>
      <trkpt lat="43.9865" lon="7.15244">
        <ele>606.99937552862</ele>
        <time>2012-04-10T12:01:27Z</time>
      </trkpt>
      <trkpt lat="43.98647" lon="7.15242">
        <ele>606.99911599904</ele>
        <time>2012-04-10T12:01:32Z</time>
      </trkpt>
      <trkpt lat="43.98643" lon="7.1524">
        <ele>616.0000453428</ele>
        <time>2012-04-10T12:01:37Z</time>
      </trkpt>
      <trkpt lat="43.98638" lon="7.15237">
        <ele>616.00017939816</ele>
        <time>2012-04-10T12:01:42Z</time>
      </trkpt>
      <trkpt lat="43.98634" lon="7.15235">
        <ele>611.99951269181</ele>
        <time>2012-04-10T12:01:47Z</time>
      </trkpt>
      <trkpt lat="43.9863" lon="7.15233">
        <ele>613.00000016166</ele>
        <time>2012-04-10T12:01:52Z</time>
      </trkpt>
      <trkpt lat="43.98626" lon="7.15232">
        <ele>612.00011460705</ele>
        <time>2012-04-10T12:01:57Z</time>
      </trkpt>
      <trkpt lat="43.98621" lon="7.15231">
        <ele>613.00000034505</ele>
        <time>2012-04-10T12:02:02Z</time>
      </trkpt>
      <trkpt lat="43.98617" lon="7.15232">
        <ele>615.99971858141</ele>
        <time>2012-04-10T12:02:07Z</time>
      </trkpt>
      <trkpt lat="43.98614" lon="7.15233">
        <ele>614.999657914</ele>
        <time>2012-04-10T12:02:12Z</time>
      </trkpt>
      <trkpt lat="43.98611" lon="7.15233">
        <ele>610.99969941018</ele>
        <time>2012-04-10T12:02:17Z</time>
      </trkpt>
      <trkpt lat="43.98608" lon="7.15234">
        <ele>607.99989661208</ele>
        <time>2012-04-10T12:02:22Z</time>
      </trkpt>
      <trkpt lat="43.98604" lon="7.15236">
        <ele>609.99972534572</ele>
        <time>2012-04-10T12:02:27Z</time>
      </trkpt>
      <trkpt lat="43.986" lon="7.15236">
        <ele>618.99961856984</ele>
        <time>2012-04-10T12:02:32Z</time>
      </trkpt>
      <trkpt lat="43.98597" lon="7.15237">
        <ele>618.99978021004</ele>
        <time>2012-04-10T12:02:37Z</time>
      </trkpt>
      <trkpt lat="43.98594" lon="7.15239">
        <ele>616.99977679352</ele>
        <time>2012-04-10T12:02:42Z</time>
      </trkpt>
      <trkpt lat="43.98591" lon="7.15242">
        <ele>622.99986860872</ele>
        <time>2012-04-10T12:02:47Z</time>
      </trkpt>
      <trkpt lat="43.98588" lon="7.15243">
        <ele>622.99961263627</ele>
        <time>2012-04-10T12:02:52Z</time>
      </trkpt>
      <trkpt lat="43.98584" lon="7.15243">
        <ele>619.99989686856</ele>
        <time>2012-04-10T12:02:57Z</time>
      </trkpt>
      <trkpt lat="43.98581" lon="7.15244">
        <ele>618.99975473569</ele>
        <time>2012-04-10T12:03:02Z</time>
      </trkpt>
      <trkpt lat="43.98577" lon="7.15242">
        <ele>620.99890531192</ele>
        <time>2012-04-10T12:03:07Z</time>
      </trkpt>
      <trkpt lat="43.98577" lon="7.15243">
        <ele>620.99875100207</ele>
        <time>2012-04-10T12:03:12Z</time>
      </trkpt>
      <trkpt lat="43.98577" lon="7.15241">
        <ele>630.99862600821</ele>
        <time>2012-04-10T12:03:17Z</time>
      </trkpt>
      <trkpt lat="43.98574" lon="7.15239">
        <ele>631.99933162071</ele>
        <time>2012-04-10T12:03:22Z</time>
      </trkpt>
      <trkpt lat="43.9857" lon="7.15238">
        <ele>631.99981423012</ele>
        <time>2012-04-10T12:03:27Z</time>
      </trkpt>
      <trkpt lat="43.98566" lon="7.15234">
        <ele>631.99955919591</ele>
        <time>2012-04-10T12:03:32Z</time>
      </trkpt>
      <trkpt lat="43.98563" lon="7.1523">
        <ele>625.99990533332</ele>
        <time>2012-04-10T12:03:37Z</time>
      </trkpt>
      <trkpt lat="43.98558" lon="7.15227">
        <ele>623.00097324596</ele>
        <time>2012-04-10T12:03:42Z</time>
      </trkpt>
      <trkpt lat="43.98552" lon="7.15224">
        <ele>628.00042416974</ele>
        <time>2012-04-10T12:03:47Z</time>
      </trkpt>
      <trkpt lat="43.98548" lon="7.15222">
        <ele>621.99986546961</ele>
        <time>2012-04-10T12:03:52Z</time>
      </trkpt>
      <trkpt lat="43.98544" lon="7.1522">
        <ele>625.99987812049</ele>
        <time>2012-04-10T12:03:57Z</time>
      </trkpt>
      <trkpt lat="43.9854" lon="7.15217">
        <ele>622.99989394711</ele>
        <time>2012-04-10T12:04:02Z</time>
      </trkpt>
      <trkpt lat="43.98537" lon="7.15215">
        <ele>625.99901524021</ele>
        <time>2012-04-10T12:04:07Z</time>
      </trkpt>
      <trkpt lat="43.98534" lon="7.15213">
        <ele>636.99924475935</ele>
        <time>2012-04-10T12:04:12Z</time>
      </trkpt>
      <trkpt lat="43.98531" lon="7.15211">
        <ele>630.99929462423</ele>
        <time>2012-04-10T12:04:17Z</time>
      </trkpt>
      <trkpt lat="43.98529" lon="7.1521">
        <ele>632.99917077796</ele>
        <time>2012-04-10T12:04:22Z</time>
      </trkpt>
      <trkpt lat="43.98526" lon="7.15208">
        <ele>633.00026838087</ele>
        <time>2012-04-10T12:04:27Z</time>
      </trkpt>
      <trkpt lat="43.98522" lon="7.15207">
        <ele>628.00000290979</ele>
        <time>2012-04-10T12:04:32Z</time>
      </trkpt>
      <trkpt lat="43.98518" lon="7.15205">
        <ele>627.00053042227</ele>
        <time>2012-04-10T12:04:37Z</time>
      </trkpt>
      <trkpt lat="43.98512" lon="7.15202">
        <ele>626.00268165321</ele>
        <time>2012-04-10T12:04:42Z</time>
      </trkpt>
      <trkpt lat="43.98504" lon="7.15198">
        <ele>625.00060587043</ele>
        <time>2012-04-10T12:04:47Z</time>
      </trkpt>
      <trkpt lat="43.985" lon="7.15196">
        <ele>631.99973397957</ele>
        <time>2012-04-10T12:04:52Z</time>
      </trkpt>
      <trkpt lat="43.98495" lon="7.15193">
        <ele>634.99968297528</ele>
        <time>2012-04-10T12:04:57Z</time>
      </trkpt>
      <trkpt lat="43.98492" lon="7.15191">
        <ele>636.99956321581</ele>
        <time>2012-04-10T12:05:02Z</time>
      </trkpt>
      <trkpt lat="43.98488" lon="7.15185">
        <ele>639.9996912864</ele>
        <time>2012-04-10T12:05:07Z</time>
      </trkpt>
      <trkpt lat="43.98485" lon="7.15181">
        <ele>635.9995481997</ele>
        <time>2012-04-10T12:05:12Z</time>
      </trkpt>
      <trkpt lat="43.98483" lon="7.15176">
        <ele>638.99954046585</ele>
        <time>2012-04-10T12:05:17Z</time>
      </trkpt>
      <trkpt lat="43.9848" lon="7.15174">
        <ele>634.99909360257</ele>
        <time>2012-04-10T12:05:22Z</time>
      </trkpt>
      <trkpt lat="43.98478" lon="7.1517">
        <ele>638.99942793428</ele>
        <time>2012-04-10T12:05:27Z</time>
      </trkpt>
      <trkpt lat="43.98474" lon="7.15167">
        <ele>632.9999518104</ele>
        <time>2012-04-10T12:05:32Z</time>
      </trkpt>
      <trkpt lat="43.98469" lon="7.15164">
        <ele>636.00055174962</ele>
        <time>2012-04-10T12:05:37Z</time>
      </trkpt>
      <trkpt lat="43.98464" lon="7.15159">
        <ele>634.99988360193</ele>
        <time>2012-04-10T12:05:42Z</time>
      </trkpt>
      <trkpt lat="43.98459" lon="7.15152">
        <ele>632.99983623163</ele>
        <time>2012-04-10T12:05:47Z</time>
      </trkpt>
      <trkpt lat="43.98456" lon="7.15148">
        <ele>639.99970493372</ele>
        <time>2012-04-10T12:05:52Z</time>
      </trkpt>
      <trkpt lat="43.98451" lon="7.15143">
        <ele>642.00021743894</ele>
        <time>2012-04-10T12:05:57Z</time>
      </trkpt>
      <trkpt lat="43.98447" lon="7.15138">
        <ele>638.00009671156</ele>
        <time>2012-04-10T12:06:02Z</time>
      </trkpt>
      <trkpt lat="43.98443" lon="7.15136">
        <ele>639.99942485201</ele>
        <time>2012-04-10T12:06:07Z</time>
      </trkpt>
      <trkpt lat="43.9844" lon="7.15133">
        <ele>643.99977801805</ele>
        <time>2012-04-10T12:06:12Z</time>
      </trkpt>
      <trkpt lat="43.98436" lon="7.1513">
        <ele>641.99992226735</ele>
        <time>2012-04-10T12:06:17Z</time>
      </trkpt>
      <trkpt lat="43.98431" lon="7.15126">
        <ele>644.00000973082</ele>
        <time>2012-04-10T12:06:22Z</time>
      </trkpt>
      <trkpt lat="43.98426" lon="7.15119">
        <ele>640.9996911738</ele>
        <time>2012-04-10T12:06:27Z</time>
      </trkpt>
      <trkpt lat="43.98422" lon="7.15112">
        <ele>638.99958446945</ele>
        <time>2012-04-10T12:06:32Z</time>
      </trkpt>
      <trkpt lat="43.98419" lon="7.15108">
        <ele>642.99959928662</ele>
        <time>2012-04-10T12:06:37Z</time>
      </trkpt>
      <trkpt lat="43.98415" lon="7.15105">
        <ele>639.99950736097</ele>
        <time>2012-04-10T12:06:42Z</time>
      </trkpt>
      <trkpt lat="43.98412" lon="7.15103">
        <ele>635.99957247217</ele>
        <time>2012-04-10T12:06:47Z</time>
      </trkpt>
      <trkpt lat="43.98409" lon="7.151">
        <ele>633.99993504124</ele>
        <time>2012-04-10T12:06:52Z</time>
      </trkpt>
      <trkpt lat="43.98405" lon="7.15097">
        <ele>633.99960870362</ele>
        <time>2012-04-10T12:06:57Z</time>
      </trkpt>
      <trkpt lat="43.98401" lon="7.15093">
        <ele>634.99950177447</ele>
        <time>2012-04-10T12:07:02Z</time>
      </trkpt>
      <trkpt lat="43.98396" lon="7.15091">
        <ele>634.99934206265</ele>
        <time>2012-04-10T12:07:07Z</time>
      </trkpt>
      <trkpt lat="43.98393" lon="7.1509">
        <ele>634.99924229845</ele>
        <time>2012-04-10T12:07:12Z</time>
      </trkpt>
      <trkpt lat="43.98387" lon="7.15087">
        <ele>639.00034607106</ele>
        <time>2012-04-10T12:07:17Z</time>
      </trkpt>
      <trkpt lat="43.9838" lon="7.15086">
        <ele>641.99999076911</ele>
        <time>2012-04-10T12:07:22Z</time>
      </trkpt>
      <trkpt lat="43.98376" lon="7.15088">
        <ele>638.99890376186</ele>
        <time>2012-04-10T12:07:27Z</time>
      </trkpt>
      <trkpt lat="43.98377" lon="7.15088">
        <ele>640.9991031626</ele>
        <time>2012-04-10T12:07:32Z</time>
      </trkpt>
      <trkpt lat="43.98376" lon="7.15088">
        <ele>641.99961943845</ele>
        <time>2012-04-10T12:07:37Z</time>
      </trkpt>
      <trkpt lat="43.98372" lon="7.15089">
        <ele>644.00004081631</ele>
        <time>2012-04-10T12:07:42Z</time>
      </trkpt>
      <trkpt lat="43.98366" lon="7.15091">
        <ele>640.00003623641</ele>
        <time>2012-04-10T12:07:47Z</time>
      </trkpt>
      <trkpt lat="43.98361" lon="7.15091">
        <ele>641.00000378592</ele>
        <time>2012-04-10T12:07:52Z</time>
      </trkpt>
      <trkpt lat="43.98356" lon="7.1509">
        <ele>637.99986424895</ele>
        <time>2012-04-10T12:07:57Z</time>
      </trkpt>
      <trkpt lat="43.98351" lon="7.1509">
        <ele>637.99978801216</ele>
        <time>2012-04-10T12:08:02Z</time>
      </trkpt>
      <trkpt lat="43.98347" lon="7.15091">
        <ele>638.99985172643</ele>
        <time>2012-04-10T12:08:07Z</time>
      </trkpt>
      <trkpt lat="43.98343" lon="7.15091">
        <ele>638.9997629342</ele>
        <time>2012-04-10T12:08:12Z</time>
      </trkpt>
      <trkpt lat="43.98339" lon="7.15089">
        <ele>640.99975361719</ele>
        <time>2012-04-10T12:08:17Z</time>
      </trkpt>
      <trkpt lat="43.98335" lon="7.15087">
        <ele>638.99978101259</ele>
        <time>2012-04-10T12:08:22Z</time>
      </trkpt>
      <trkpt lat="43.9833" lon="7.15087">
        <ele>640.00002818002</ele>
        <time>2012-04-10T12:08:27Z</time>
      </trkpt>
      <trkpt lat="43.98325" lon="7.15087">
        <ele>643.0000250456</ele>
        <time>2012-04-10T12:08:32Z</time>
      </trkpt>
      <trkpt lat="43.98323" lon="7.1509">
        <ele>638.99962357181</ele>
        <time>2012-04-10T12:08:37Z</time>
      </trkpt>
      <trkpt lat="43.98323" lon="7.1509">
        <ele>629.99965195151</ele>
        <time>2012-04-10T12:08:42Z</time>
      </trkpt>
      <trkpt lat="43.98321" lon="7.15092">
        <ele>630.99999805992</ele>
        <time>2012-04-10T12:08:47Z</time>
      </trkpt>
      <trkpt lat="43.98317" lon="7.15094">
        <ele>631.99987670578</ele>
        <time>2012-04-10T12:08:52Z</time>
      </trkpt>
      <trkpt lat="43.98315" lon="7.15094">
        <ele>632.99981384604</ele>
        <time>2012-04-10T12:08:57Z</time>
      </trkpt>
      <trkpt lat="43.98314" lon="7.15094">
        <ele>634.99943461696</ele>
        <time>2012-04-10T12:09:02Z</time>
      </trkpt>
      <trkpt lat="43.98314" lon="7.15094">
        <ele>636.99976401235</ele>
        <time>2012-04-10T12:09:12Z</time>
      </trkpt>
      <trkpt lat="43.9831" lon="7.15092">
        <ele>640.99983899382</ele>
        <time>2012-04-10T12:09:17Z</time>
      </trkpt>
      <trkpt lat="43.98307" lon="7.15089">
        <ele>639.99982121398</ele>
        <time>2012-04-10T12:09:22Z</time>
      </trkpt>
      <trkpt lat="43.98305" lon="7.15086">
        <ele>639.9997849733</ele>
        <time>2012-04-10T12:09:27Z</time>
      </trkpt>
      <trkpt lat="43.98302" lon="7.15082">
        <ele>637.99974771354</ele>
        <time>2012-04-10T12:09:32Z</time>
      </trkpt>
      <trkpt lat="43.98301" lon="7.15079">
        <ele>642.99975845365</ele>
        <time>2012-04-10T12:09:37Z</time>
      </trkpt>
      <trkpt lat="43.98301" lon="7.15079">
        <ele>637.00000045014</ele>
        <time>2012-04-10T12:09:47Z</time>
      </trkpt>
      <trkpt lat="43.98301" lon="7.1508">
        <ele>631.00001546806</ele>
        <time>2012-04-10T12:09:52Z</time>
      </trkpt>
      <trkpt lat="43.98301" lon="7.15081">
        <ele>630.99974967372</ele>
        <time>2012-04-10T12:09:57Z</time>
      </trkpt>
      <trkpt lat="43.98302" lon="7.15081">
        <ele>629.99968082549</ele>
        <time>2012-04-10T12:10:02Z</time>
      </trkpt>
      <trkpt lat="43.98302" lon="7.15081">
        <ele>632.99949966224</ele>
        <time>2012-04-10T12:10:07Z</time>
      </trkpt>
      <trkpt lat="43.98302" lon="7.1508">
        <ele>629.99989940254</ele>
        <time>2012-04-10T12:10:12Z</time>
      </trkpt>
      <trkpt lat="43.98302" lon="7.1508">
        <ele>624.00004880145</ele>
        <time>2012-04-10T12:10:17Z</time>
      </trkpt>
      <trkpt lat="43.98302" lon="7.1508">
        <ele>627.99992977173</ele>
        <time>2012-04-10T12:10:22Z</time>
      </trkpt>
      <trkpt lat="43.98304" lon="7.15077">
        <ele>620.00039618969</ele>
        <time>2012-04-10T12:10:27Z</time>
      </trkpt>
      <trkpt lat="43.98305" lon="7.15077">
        <ele>626.00084503767</ele>
        <time>2012-04-10T12:10:32Z</time>
      </trkpt>
      <trkpt lat="43.98305" lon="7.15075">
        <ele>630.00085439829</ele>
        <time>2012-04-10T12:10:37Z</time>
      </trkpt>
      <trkpt lat="43.98305" lon="7.15076">
        <ele>634.00009090455</ele>
        <time>2012-04-10T12:10:52Z</time>
      </trkpt>
      <trkpt lat="43.98306" lon="7.15076">
        <ele>635.99991825472</ele>
        <time>2012-04-10T12:10:57Z</time>
      </trkpt>
      <trkpt lat="43.98306" lon="7.15076">
        <ele>633.99966910556</ele>
        <time>2012-04-10T12:11:02Z</time>
      </trkpt>
      <trkpt lat="43.98307" lon="7.15076">
        <ele>633.99951152518</ele>
        <time>2012-04-10T12:11:07Z</time>
      </trkpt>
      <trkpt lat="43.98309" lon="7.15071">
        <ele>639.99960910083</ele>
        <time>2012-04-10T12:11:12Z</time>
      </trkpt>
      <trkpt lat="43.98309" lon="7.15067">
        <ele>641.99975916371</ele>
        <time>2012-04-10T12:11:17Z</time>
      </trkpt>
      <trkpt lat="43.98309" lon="7.15066">
        <ele>641.00034406877</ele>
        <time>2012-04-10T12:11:22Z</time>
      </trkpt>
      <trkpt lat="43.98308" lon="7.15066">
        <ele>640.00059119687</ele>
        <time>2012-04-10T12:11:27Z</time>
      </trkpt>
      <trkpt lat="43.98305" lon="7.15066">
        <ele>627.99992730552</ele>
        <time>2012-04-10T12:11:42Z</time>
      </trkpt>
      <trkpt lat="43.98305" lon="7.15069">
        <ele>626.99996008224</ele>
        <time>2012-04-10T12:11:47Z</time>
      </trkpt>
      <trkpt lat="43.98303" lon="7.1507">
        <ele>626.99936264201</ele>
        <time>2012-04-10T12:11:52Z</time>
      </trkpt>
      <trkpt lat="43.98304" lon="7.15069">
        <ele>637.99953238456</ele>
        <time>2012-04-10T12:12:12Z</time>
      </trkpt>
      <trkpt lat="43.98304" lon="7.15069">
        <ele>632.9998384595</ele>
        <time>2012-04-10T12:12:22Z</time>
      </trkpt>
      <trkpt lat="43.98304" lon="7.15069">
        <ele>638.99997777452</ele>
        <time>2012-04-10T12:12:27Z</time>
      </trkpt>
      <trkpt lat="43.98304" lon="7.15069">
        <ele>630.99997710456</ele>
        <time>2012-04-10T12:12:57Z</time>
      </trkpt>
      <trkpt lat="43.98304" lon="7.15069">
        <ele>632.99983755815</ele>
        <time>2012-04-10T12:13:02Z</time>
      </trkpt>
      <trkpt lat="43.98304" lon="7.1507">
        <ele>633.9998625625</ele>
        <time>2012-04-10T12:13:07Z</time>
      </trkpt>
      <trkpt lat="43.98306" lon="7.15069">
        <ele>638.00066213719</ele>
        <time>2012-04-10T12:13:12Z</time>
      </trkpt>
      <trkpt lat="43.98306" lon="7.15069">
        <ele>644.00049152748</ele>
        <time>2012-04-10T12:13:22Z</time>
      </trkpt>
      <trkpt lat="43.98305" lon="7.15069">
        <ele>639.00040633644</ele>
        <time>2012-04-10T12:13:37Z</time>
      </trkpt>
      <trkpt lat="43.98305" lon="7.1507">
        <ele>641.00036583579</ele>
        <time>2012-04-10T12:13:47Z</time>
      </trkpt>
      <trkpt lat="43.98305" lon="7.15069">
        <ele>636.00043589541</ele>
        <time>2012-04-10T12:13:57Z</time>
      </trkpt>
      <trkpt lat="43.98304" lon="7.15069">
        <ele>635.000391467</ele>
        <time>2012-04-10T12:14:02Z</time>
      </trkpt>
      <trkpt lat="43.98303" lon="7.15067">
        <ele>634.00019963002</ele>
        <time>2012-04-10T12:14:07Z</time>
      </trkpt>
      <trkpt lat="43.98303" lon="7.15066">
        <ele>627.99959668336</ele>
        <time>2012-04-10T12:14:12Z</time>
      </trkpt>
      <trkpt lat="43.98304" lon="7.15064">
        <ele>637.99953201403</ele>
        <time>2012-04-10T12:14:17Z</time>
      </trkpt>
      <trkpt lat="43.98304" lon="7.15064">
        <ele>640.99966341263</ele>
        <time>2012-04-10T12:14:22Z</time>
      </trkpt>
      <trkpt lat="43.98304" lon="7.15063">
        <ele>639.9993203292</ele>
        <time>2012-04-10T12:14:27Z</time>
      </trkpt>
      <trkpt lat="43.98305" lon="7.15062">
        <ele>639.9995016154</ele>
        <time>2012-04-10T12:14:32Z</time>
      </trkpt>
      <trkpt lat="43.98305" lon="7.15062">
        <ele>645.99884404483</ele>
        <time>2012-04-10T12:14:42Z</time>
      </trkpt>
      <trkpt lat="43.98305" lon="7.15062">
        <ele>651.9989265485</ele>
        <time>2012-04-10T12:14:57Z</time>
      </trkpt>
      <trkpt lat="43.98305" lon="7.15062">
        <ele>651.99913298798</ele>
        <time>2012-04-10T12:15:02Z</time>
      </trkpt>
      <trkpt lat="43.98306" lon="7.15061">
        <ele>648.99965533155</ele>
        <time>2012-04-10T12:15:07Z</time>
      </trkpt>
      <trkpt lat="43.98306" lon="7.1506">
        <ele>632.99968711359</ele>
        <time>2012-04-10T12:15:12Z</time>
      </trkpt>
      <trkpt lat="43.98306" lon="7.15059">
        <ele>646.99974124254</ele>
        <time>2012-04-10T12:21:02Z</time>
      </trkpt>
      <trkpt lat="43.98306" lon="7.15059">
        <ele>646.99970923567</ele>
        <time>2012-04-10T12:21:12Z</time>
      </trkpt>
      <trkpt lat="43.98306" lon="7.15059">
        <ele>650.99970300155</ele>
        <time>2012-04-10T12:21:17Z</time>
      </trkpt>
      <trkpt lat="43.98305" lon="7.15059">
        <ele>643.99987297542</ele>
        <time>2012-04-10T12:21:27Z</time>
      </trkpt>
      <trkpt lat="43.98305" lon="7.15059">
        <ele>644.99994615821</ele>
        <time>2012-04-10T12:21:32Z</time>
      </trkpt>
      <trkpt lat="43.98306" lon="7.15059">
        <ele>645.99975836173</ele>
        <time>2012-04-10T12:21:47Z</time>
      </trkpt>
      <trkpt lat="43.98306" lon="7.1506">
        <ele>642.99939310183</ele>
        <time>2012-04-10T12:23:47Z</time>
      </trkpt>
      <trkpt lat="43.98306" lon="7.1506">
        <ele>637.99922654827</ele>
        <time>2012-04-10T12:23:52Z</time>
      </trkpt>
      <trkpt lat="43.98306" lon="7.1506">
        <ele>648.99950033211</ele>
        <time>2012-04-10T12:24:07Z</time>
      </trkpt>
      <trkpt lat="43.98307" lon="7.15061">
        <ele>629.99967262727</ele>
        <time>2012-04-10T12:27:17Z</time>
      </trkpt>
      <trkpt lat="43.98306" lon="7.15064">
        <ele>626.0006371577</ele>
        <time>2012-04-10T12:27:22Z</time>
      </trkpt>
      <trkpt lat="43.98306" lon="7.15065">
        <ele>636.00069090994</ele>
        <time>2012-04-10T12:27:42Z</time>
      </trkpt>
      <trkpt lat="43.98304" lon="7.15065">
        <ele>636.00043885557</ele>
        <time>2012-04-10T12:28:22Z</time>
      </trkpt>
      <trkpt lat="43.98304" lon="7.15065">
        <ele>639.0001157391</ele>
        <time>2012-04-10T12:29:12Z</time>
      </trkpt>
      <trkpt lat="43.98304" lon="7.15065">
        <ele>632.99993523087</ele>
        <time>2012-04-10T12:29:27Z</time>
      </trkpt>
      <trkpt lat="43.98304" lon="7.15065">
        <ele>632.99985815708</ele>
        <time>2012-04-10T12:29:32Z</time>
      </trkpt>
      <trkpt lat="43.98304" lon="7.15065">
        <ele>633.00024730293</ele>
        <time>2012-04-10T12:31:02Z</time>
      </trkpt>
      <trkpt lat="43.98304" lon="7.15065">
        <ele>624.00008406784</ele>
        <time>2012-04-10T12:31:27Z</time>
      </trkpt>
      <trkpt lat="43.98304" lon="7.15065">
        <ele>632.00003524823</ele>
        <time>2012-04-10T12:31:32Z</time>
      </trkpt>
      <trkpt lat="43.98303" lon="7.15065">
        <ele>632.00009910919</ele>
        <time>2012-04-10T12:31:37Z</time>
      </trkpt>
      <trkpt lat="43.98305" lon="7.15061">
        <ele>628.00088850291</ele>
        <time>2012-04-10T12:31:42Z</time>
      </trkpt>
      <trkpt lat="43.98305" lon="7.15061">
        <ele>630.0003374495</ele>
        <time>2012-04-10T12:31:47Z</time>
      </trkpt>
      <trkpt lat="43.98308" lon="7.15062">
        <ele>635.00115287006</ele>
        <time>2012-04-10T12:31:52Z</time>
      </trkpt>
      <trkpt lat="43.98309" lon="7.15064">
        <ele>631.00149817946</ele>
        <time>2012-04-10T12:31:57Z</time>
      </trkpt>
      <trkpt lat="43.98309" lon="7.15064">
        <ele>625.00112508573</ele>
        <time>2012-04-10T12:32:07Z</time>
      </trkpt>
      <trkpt lat="43.98309" lon="7.15064">
        <ele>629.00115267922</ele>
        <time>2012-04-10T12:32:12Z</time>
      </trkpt>
      <trkpt lat="43.98308" lon="7.15066">
        <ele>644.00025093834</ele>
        <time>2012-04-10T12:32:22Z</time>
      </trkpt>
      <trkpt lat="43.98309" lon="7.1507">
        <ele>632.00007243808</ele>
        <time>2012-04-10T12:32:27Z</time>
      </trkpt>
      <trkpt lat="43.98311" lon="7.15072">
        <ele>622.99980917011</ele>
        <time>2012-04-10T12:32:32Z</time>
      </trkpt>
      <trkpt lat="43.98312" lon="7.1507">
        <ele>625.9999835809</ele>
        <time>2012-04-10T12:32:37Z</time>
      </trkpt>
      <trkpt lat="43.98312" lon="7.15069">
        <ele>626.00019353776</ele>
        <time>2012-04-10T12:32:42Z</time>
      </trkpt>
      <trkpt lat="43.98312" lon="7.15068">
        <ele>625.99973927919</ele>
        <time>2012-04-10T12:32:57Z</time>
      </trkpt>
      <trkpt lat="43.98312" lon="7.15065">
        <ele>628.99970070422</ele>
        <time>2012-04-10T12:33:02Z</time>
      </trkpt>
      <trkpt lat="43.98311" lon="7.15059">
        <ele>627.99923385797</ele>
        <time>2012-04-10T12:33:07Z</time>
      </trkpt>
      <trkpt lat="43.98311" lon="7.15056">
        <ele>626.99922984726</ele>
        <time>2012-04-10T12:33:12Z</time>
      </trkpt>
      <trkpt lat="43.98312" lon="7.15056">
        <ele>631.99959765886</ele>
        <time>2012-04-10T12:33:17Z</time>
      </trkpt>
      <trkpt lat="43.98311" lon="7.15054">
        <ele>630.99978750563</ele>
        <time>2012-04-10T12:33:22Z</time>
      </trkpt>
      <trkpt lat="43.98309" lon="7.15056">
        <ele>635.99978838056</ele>
        <time>2012-04-10T12:33:27Z</time>
      </trkpt>
      <trkpt lat="43.98304" lon="7.15058">
        <ele>638.99989080527</ele>
        <time>2012-04-10T12:33:32Z</time>
      </trkpt>
      <trkpt lat="43.98301" lon="7.1506">
        <ele>638.99947168524</ele>
        <time>2012-04-10T12:33:37Z</time>
      </trkpt>
      <trkpt lat="43.98301" lon="7.15062">
        <ele>633.99925125568</ele>
        <time>2012-04-10T12:33:42Z</time>
      </trkpt>
      <trkpt lat="43.98301" lon="7.15062">
        <ele>639.99939311546</ele>
        <time>2012-04-10T12:33:57Z</time>
      </trkpt>
      <trkpt lat="43.98302" lon="7.15061">
        <ele>644.99957687321</ele>
        <time>2012-04-10T12:34:07Z</time>
      </trkpt>
      <trkpt lat="43.98302" lon="7.15061">
        <ele>632.99962901969</ele>
        <time>2012-04-10T12:34:17Z</time>
      </trkpt>
      <trkpt lat="43.98304" lon="7.15064">
        <ele>635.99991282214</ele>
        <time>2012-04-10T12:34:22Z</time>
      </trkpt>
      <trkpt lat="43.98305" lon="7.15064">
        <ele>634.00006895906</ele>
        <time>2012-04-10T12:34:27Z</time>
      </trkpt>
      <trkpt lat="43.98305" lon="7.15065">
        <ele>625.99997460388</ele>
        <time>2012-04-10T12:34:32Z</time>
      </trkpt>
      <trkpt lat="43.98305" lon="7.15065">
        <ele>625.99995819401</ele>
        <time>2012-04-10T12:34:37Z</time>
      </trkpt>
      <trkpt lat="43.98305" lon="7.15065">
        <ele>633.00007932919</ele>
        <time>2012-04-10T12:34:57Z</time>
      </trkpt>
      <trkpt lat="43.98305" lon="7.15067">
        <ele>639.00007358287</ele>
        <time>2012-04-10T12:35:02Z</time>
      </trkpt>
      <trkpt lat="43.98306" lon="7.15068">
        <ele>639.00011038975</ele>
        <time>2012-04-10T12:35:07Z</time>
      </trkpt>
      <trkpt lat="43.98305" lon="7.15068">
        <ele>643.00021795656</ele>
        <time>2012-04-10T12:35:32Z</time>
      </trkpt>
      <trkpt lat="43.98305" lon="7.15067">
        <ele>636.00014866767</ele>
        <time>2012-04-10T12:35:42Z</time>
      </trkpt>
      <trkpt lat="43.98305" lon="7.15067">
        <ele>634.00002076478</ele>
        <time>2012-04-10T12:37:02Z</time>
      </trkpt>
      <trkpt lat="43.98305" lon="7.15067">
        <ele>614.99985060328</ele>
        <time>2012-04-10T12:37:27Z</time>
      </trkpt>
      <trkpt lat="43.98305" lon="7.15067">
        <ele>622.99958560178</ele>
        <time>2012-04-10T12:37:32Z</time>
      </trkpt>
      <trkpt lat="43.98306" lon="7.15067">
        <ele>631.99880134607</ele>
        <time>2012-04-10T12:37:37Z</time>
      </trkpt>
      <trkpt lat="43.98308" lon="7.15067">
        <ele>635.99941190565</ele>
        <time>2012-04-10T12:39:02Z</time>
      </trkpt>
      <trkpt lat="43.98307" lon="7.15067">
        <ele>627.00009361561</ele>
        <time>2012-04-10T12:52:12Z</time>
      </trkpt>
      <trkpt lat="43.98307" lon="7.15067">
        <ele>638.00009262987</ele>
        <time>2012-04-10T12:52:37Z</time>
      </trkpt>
      <trkpt lat="43.98308" lon="7.15068">
        <ele>636.99883997901</ele>
        <time>2012-04-10T12:52:42Z</time>
      </trkpt>
      <trkpt lat="43.98308" lon="7.15068">
        <ele>636.99929161622</ele>
        <time>2012-04-10T12:52:47Z</time>
      </trkpt>
      <trkpt lat="43.98308" lon="7.15068">
        <ele>637.99946675465</ele>
        <time>2012-04-10T12:52:52Z</time>
      </trkpt>
      <trkpt lat="43.98307" lon="7.15067">
        <ele>627.9994801917</ele>
        <time>2012-04-10T12:54:37Z</time>
      </trkpt>
      <trkpt lat="43.98306" lon="7.15067">
        <ele>628.99928333199</ele>
        <time>2012-04-10T12:54:42Z</time>
      </trkpt>
      <trkpt lat="43.98306" lon="7.15066">
        <ele>627.9995419106</ele>
        <time>2012-04-10T12:54:57Z</time>
      </trkpt>
      <trkpt lat="43.98307" lon="7.15064">
        <ele>630.00015344313</ele>
        <time>2012-04-10T12:55:12Z</time>
      </trkpt>
      <trkpt lat="43.98307" lon="7.15061">
        <ele>625.00039197904</ele>
        <time>2012-04-10T12:55:47Z</time>
      </trkpt>
      <trkpt lat="43.98307" lon="7.1506">
        <ele>631.0004838345</ele>
        <time>2012-04-10T12:55:52Z</time>
      </trkpt>
      <trkpt lat="43.98307" lon="7.15059">
        <ele>632.00052038734</ele>
        <time>2012-04-10T12:56:02Z</time>
      </trkpt>
      <trkpt lat="43.98307" lon="7.15057">
        <ele>632.00055650637</ele>
        <time>2012-04-10T12:56:07Z</time>
      </trkpt>
      <trkpt lat="43.98307" lon="7.15056">
        <ele>630.00073094253</ele>
        <time>2012-04-10T12:56:12Z</time>
      </trkpt>
      <trkpt lat="43.98306" lon="7.15049">
        <ele>630.00095759532</ele>
        <time>2012-04-10T12:56:17Z</time>
      </trkpt>
      <trkpt lat="43.98304" lon="7.1504">
        <ele>633.00078396764</ele>
        <time>2012-04-10T12:56:22Z</time>
      </trkpt>
      <trkpt lat="43.98303" lon="7.15033">
        <ele>632.00051397718</ele>
        <time>2012-04-10T12:56:27Z</time>
      </trkpt>
      <trkpt lat="43.98301" lon="7.15028">
        <ele>633.0002712315</ele>
        <time>2012-04-10T12:56:32Z</time>
      </trkpt>
      <trkpt lat="43.98299" lon="7.1502">
        <ele>632.99998020193</ele>
        <time>2012-04-10T12:56:37Z</time>
      </trkpt>
      <trkpt lat="43.98298" lon="7.15011">
        <ele>631.99999434229</ele>
        <time>2012-04-10T12:56:42Z</time>
      </trkpt>
      <trkpt lat="43.98297" lon="7.1501">
        <ele>633.00002522926</ele>
        <time>2012-04-10T12:56:47Z</time>
      </trkpt>
      <trkpt lat="43.98297" lon="7.15009">
        <ele>635.00002894097</ele>
        <time>2012-04-10T12:56:52Z</time>
      </trkpt>
      <trkpt lat="43.98294" lon="7.15012">
        <ele>637.00022012873</ele>
        <time>2012-04-10T12:56:57Z</time>
      </trkpt>
      <trkpt lat="43.9829" lon="7.15016">
        <ele>627.9994704714</ele>
        <time>2012-04-10T12:57:02Z</time>
      </trkpt>
      <trkpt lat="43.98287" lon="7.15016">
        <ele>633.99809285828</ele>
        <time>2012-04-10T12:57:07Z</time>
      </trkpt>
      <trkpt lat="43.98287" lon="7.15016">
        <ele>609.9979659335</ele>
        <time>2012-04-10T12:58:02Z</time>
      </trkpt>
      <trkpt lat="43.9829" lon="7.1502">
        <ele>619.99881836668</ele>
        <time>2012-04-10T12:58:07Z</time>
      </trkpt>
      <trkpt lat="43.98296" lon="7.15027">
        <ele>621.99986224446</ele>
        <time>2012-04-10T12:58:12Z</time>
      </trkpt>
      <trkpt lat="43.98297" lon="7.15029">
        <ele>621.00009470035</ele>
        <time>2012-04-10T12:58:17Z</time>
      </trkpt>
      <trkpt lat="43.98297" lon="7.15028">
        <ele>619.00004786203</ele>
        <time>2012-04-10T12:58:22Z</time>
      </trkpt>
      <trkpt lat="43.98297" lon="7.15028">
        <ele>620.00000848726</ele>
        <time>2012-04-10T12:58:27Z</time>
      </trkpt>
      <trkpt lat="43.98298" lon="7.15029">
        <ele>621.99972119613</ele>
        <time>2012-04-10T12:58:32Z</time>
      </trkpt>
      <trkpt lat="43.98298" lon="7.15034">
        <ele>625.99941828845</ele>
        <time>2012-04-10T12:58:37Z</time>
      </trkpt>
      <trkpt lat="43.983" lon="7.15038">
        <ele>628.99965732267</ele>
        <time>2012-04-10T12:58:42Z</time>
      </trkpt>
      <trkpt lat="43.98301" lon="7.15042">
        <ele>628.99981628284</ele>
        <time>2012-04-10T12:58:47Z</time>
      </trkpt>
      <trkpt lat="43.983" lon="7.15046">
        <ele>622.99985482484</ele>
        <time>2012-04-10T12:58:52Z</time>
      </trkpt>
      <trkpt lat="43.983" lon="7.15051">
        <ele>617.99991532933</ele>
        <time>2012-04-10T12:58:57Z</time>
      </trkpt>
      <trkpt lat="43.98299" lon="7.15056">
        <ele>620.9997955448</ele>
        <time>2012-04-10T12:59:02Z</time>
      </trkpt>
      <trkpt lat="43.98299" lon="7.15061">
        <ele>626.99982050612</ele>
        <time>2012-04-10T12:59:07Z</time>
      </trkpt>
      <trkpt lat="43.98297" lon="7.15061">
        <ele>614.99896529246</ele>
        <time>2012-04-10T12:59:12Z</time>
      </trkpt>
      <trkpt lat="43.98298" lon="7.1506">
        <ele>618.99916845684</ele>
        <time>2012-04-10T12:59:17Z</time>
      </trkpt>
      <trkpt lat="43.983" lon="7.1506">
        <ele>625.00013402157</ele>
        <time>2012-04-10T12:59:22Z</time>
      </trkpt>
      <trkpt lat="43.98302" lon="7.1506">
        <ele>630.0002550343</ele>
        <time>2012-04-10T12:59:27Z</time>
      </trkpt>
      <trkpt lat="43.98303" lon="7.15064">
        <ele>629.00017829223</ele>
        <time>2012-04-10T12:59:32Z</time>
      </trkpt>
      <trkpt lat="43.98304" lon="7.15068">
        <ele>625.00018663352</ele>
        <time>2012-04-10T12:59:37Z</time>
      </trkpt>
      <trkpt lat="43.98305" lon="7.1507">
        <ele>622.00035692469</ele>
        <time>2012-04-10T12:59:42Z</time>
      </trkpt>
      <trkpt lat="43.98304" lon="7.1507">
        <ele>637.00010824234</ele>
        <time>2012-04-10T13:00:27Z</time>
      </trkpt>
      <trkpt lat="43.98305" lon="7.15069">
        <ele>649.99851955036</ele>
        <time>2012-04-10T13:00:52Z</time>
      </trkpt>
      <trkpt lat="43.98307" lon="7.15067">
        <ele>643.99926963904</ele>
        <time>2012-04-10T13:01:02Z</time>
      </trkpt>
      <trkpt lat="43.98307" lon="7.15067">
        <ele>643.99950199293</ele>
        <time>2012-04-10T13:01:07Z</time>
      </trkpt>
      <trkpt lat="43.98307" lon="7.15066">
        <ele>640.99941258203</ele>
        <time>2012-04-10T13:01:12Z</time>
      </trkpt>
      <trkpt lat="43.98307" lon="7.15065">
        <ele>644.99977892433</ele>
        <time>2012-04-10T13:01:32Z</time>
      </trkpt>
      <trkpt lat="43.98307" lon="7.15065">
        <ele>644.99978278606</ele>
        <time>2012-04-10T13:01:37Z</time>
      </trkpt>
      <trkpt lat="43.98307" lon="7.15065">
        <ele>645.99972040235</ele>
        <time>2012-04-10T13:01:42Z</time>
      </trkpt>
      <trkpt lat="43.98304" lon="7.15065">
        <ele>639.99864035832</ele>
        <time>2012-04-10T13:01:47Z</time>
      </trkpt>
      <trkpt lat="43.98305" lon="7.15066">
        <ele>635.99932294637</ele>
        <time>2012-04-10T13:01:52Z</time>
      </trkpt>
      <trkpt lat="43.98305" lon="7.15066">
        <ele>624.99950144263</ele>
        <time>2012-04-10T13:02:47Z</time>
      </trkpt>
      <trkpt lat="43.98305" lon="7.15068">
        <ele>613.99997333638</ele>
        <time>2012-04-10T13:03:27Z</time>
      </trkpt>
      <trkpt lat="43.98304" lon="7.15068">
        <ele>624.99987272116</ele>
        <time>2012-04-10T13:03:32Z</time>
      </trkpt>
      <trkpt lat="43.98304" lon="7.15066">
        <ele>633.99972593761</ele>
        <time>2012-04-10T13:03:37Z</time>
      </trkpt>
      <trkpt lat="43.98304" lon="7.15066">
        <ele>630.99951985773</ele>
        <time>2012-04-10T13:04:22Z</time>
      </trkpt>
      <trkpt lat="43.98307" lon="7.15068">
        <ele>631.00064890893</ele>
        <time>2012-04-10T13:04:47Z</time>
      </trkpt>
      <trkpt lat="43.98308" lon="7.15069">
        <ele>626.00110880432</ele>
        <time>2012-04-10T13:04:52Z</time>
      </trkpt>
      <trkpt lat="43.98308" lon="7.15069">
        <ele>622.0008010847</ele>
        <time>2012-04-10T13:06:02Z</time>
      </trkpt>
      <trkpt lat="43.98309" lon="7.1507">
        <ele>626.99901903738</ele>
        <time>2012-04-10T13:08:27Z</time>
      </trkpt>
      <trkpt lat="43.98313" lon="7.15071">
        <ele>640.99918525929</ele>
        <time>2012-04-10T13:08:32Z</time>
      </trkpt>
      <trkpt lat="43.98316" lon="7.15071">
        <ele>643.99980855521</ele>
        <time>2012-04-10T13:08:37Z</time>
      </trkpt>
      <trkpt lat="43.98318" lon="7.15073">
        <ele>645.00009430145</ele>
        <time>2012-04-10T13:08:42Z</time>
      </trkpt>
      <trkpt lat="43.9832" lon="7.15077">
        <ele>641.99999601528</ele>
        <time>2012-04-10T13:08:47Z</time>
      </trkpt>
      <trkpt lat="43.98323" lon="7.15081">
        <ele>638.99996625289</ele>
        <time>2012-04-10T13:08:52Z</time>
      </trkpt>
      <trkpt lat="43.98324" lon="7.15082">
        <ele>633.00064392718</ele>
        <time>2012-04-10T13:08:57Z</time>
      </trkpt>
      <trkpt lat="43.98324" lon="7.15082">
        <ele>637.00034711636</ele>
        <time>2012-04-10T13:09:02Z</time>
      </trkpt>
      <trkpt lat="43.98323" lon="7.15084">
        <ele>631.00010876873</ele>
        <time>2012-04-10T13:09:07Z</time>
      </trkpt>
      <trkpt lat="43.98323" lon="7.15088">
        <ele>629.00016678651</ele>
        <time>2012-04-10T13:09:12Z</time>
      </trkpt>
      <trkpt lat="43.98321" lon="7.15093">
        <ele>629.99999857416</ele>
        <time>2012-04-10T13:09:17Z</time>
      </trkpt>
      <trkpt lat="43.98321" lon="7.15095">
        <ele>633.9997658378</ele>
        <time>2012-04-10T13:09:22Z</time>
      </trkpt>
      <trkpt lat="43.98319" lon="7.15098">
        <ele>632.0001473538</ele>
        <time>2012-04-10T13:09:27Z</time>
      </trkpt>
      <trkpt lat="43.98318" lon="7.15102">
        <ele>631.99978838823</ele>
        <time>2012-04-10T13:09:32Z</time>
      </trkpt>
      <trkpt lat="43.98316" lon="7.15104">
        <ele>639.99970648362</ele>
        <time>2012-04-10T13:09:37Z</time>
      </trkpt>
      <trkpt lat="43.98315" lon="7.15104">
        <ele>634.99978896234</ele>
        <time>2012-04-10T13:09:42Z</time>
      </trkpt>
      <trkpt lat="43.98314" lon="7.15103">
        <ele>630.99962562094</ele>
        <time>2012-04-10T13:09:47Z</time>
      </trkpt>
      <trkpt lat="43.98314" lon="7.15103">
        <ele>632.99993148041</ele>
        <time>2012-04-10T13:09:57Z</time>
      </trkpt>
      <trkpt lat="43.98313" lon="7.15106">
        <ele>625.99967091398</ele>
        <time>2012-04-10T13:10:17Z</time>
      </trkpt>
      <trkpt lat="43.98313" lon="7.15108">
        <ele>625.00028193725</ele>
        <time>2012-04-10T13:10:22Z</time>
      </trkpt>
      <trkpt lat="43.98314" lon="7.15108">
        <ele>624.00090192679</ele>
        <time>2012-04-10T13:10:27Z</time>
      </trkpt>
      <trkpt lat="43.98314" lon="7.15112">
        <ele>622.00088144063</ele>
        <time>2012-04-10T13:10:32Z</time>
      </trkpt>
      <trkpt lat="43.98313" lon="7.1512">
        <ele>631.00046002002</ele>
        <time>2012-04-10T13:10:37Z</time>
      </trkpt>
      <trkpt lat="43.98312" lon="7.15128">
        <ele>634.00022525062</ele>
        <time>2012-04-10T13:10:42Z</time>
      </trkpt>
      <trkpt lat="43.98316" lon="7.15129">
        <ele>639.99998689661</ele>
        <time>2012-04-10T13:10:47Z</time>
      </trkpt>
      <trkpt lat="43.98317" lon="7.15136">
        <ele>645.00019354034</ele>
        <time>2012-04-10T13:10:52Z</time>
      </trkpt>
      <trkpt lat="43.98317" lon="7.15142">
        <ele>643.00049394574</ele>
        <time>2012-04-10T13:10:57Z</time>
      </trkpt>
      <trkpt lat="43.98317" lon="7.15149">
        <ele>643.00070859428</ele>
        <time>2012-04-10T13:11:02Z</time>
      </trkpt>
      <trkpt lat="43.98315" lon="7.15157">
        <ele>638.00018113659</ele>
        <time>2012-04-10T13:11:07Z</time>
      </trkpt>
      <trkpt lat="43.98315" lon="7.1516">
        <ele>639.99996026272</ele>
        <time>2012-04-10T13:11:12Z</time>
      </trkpt>
      <trkpt lat="43.98313" lon="7.15165">
        <ele>640.99983714191</ele>
        <time>2012-04-10T13:11:17Z</time>
      </trkpt>
      <trkpt lat="43.98314" lon="7.15172">
        <ele>636.00074654796</ele>
        <time>2012-04-10T13:11:22Z</time>
      </trkpt>
      <trkpt lat="43.98311" lon="7.15184">
        <ele>628.00093124696</ele>
        <time>2012-04-10T13:11:27Z</time>
      </trkpt>
      <trkpt lat="43.98309" lon="7.15196">
        <ele>634.00102306064</ele>
        <time>2012-04-10T13:11:32Z</time>
      </trkpt>
      <trkpt lat="43.98306" lon="7.15207">
        <ele>635.0007348148</ele>
        <time>2012-04-10T13:11:37Z</time>
      </trkpt>
      <trkpt lat="43.98302" lon="7.15219">
        <ele>636.99936778591</ele>
        <time>2012-04-10T13:11:42Z</time>
      </trkpt>
      <trkpt lat="43.98303" lon="7.15225">
        <ele>638.99906191117</ele>
        <time>2012-04-10T13:11:47Z</time>
      </trkpt>
      <trkpt lat="43.98303" lon="7.15229">
        <ele>638.99895058253</ele>
        <time>2012-04-10T13:11:52Z</time>
      </trkpt>
      <trkpt lat="43.98301" lon="7.15235">
        <ele>638.99941733093</ele>
        <time>2012-04-10T13:11:57Z</time>
      </trkpt>
      <trkpt lat="43.98301" lon="7.1524">
        <ele>640.9992445208</ele>
        <time>2012-04-10T13:12:02Z</time>
      </trkpt>
      <trkpt lat="43.98301" lon="7.15244">
        <ele>634.99911290289</ele>
        <time>2012-04-10T13:12:07Z</time>
      </trkpt>
      <trkpt lat="43.98299" lon="7.15252">
        <ele>632.99958815732</ele>
        <time>2012-04-10T13:12:12Z</time>
      </trkpt>
      <trkpt lat="43.98299" lon="7.15258">
        <ele>634.99881429018</ele>
        <time>2012-04-10T13:12:17Z</time>
      </trkpt>
      <trkpt lat="43.98302" lon="7.15262">
        <ele>631.99900107617</ele>
        <time>2012-04-10T13:12:22Z</time>
      </trkpt>
      <trkpt lat="43.98305" lon="7.15266">
        <ele>631.99969498391</ele>
        <time>2012-04-10T13:12:27Z</time>
      </trkpt>
      <trkpt lat="43.98307" lon="7.1527">
        <ele>634.0000991418</ele>
        <time>2012-04-10T13:12:32Z</time>
      </trkpt>
      <trkpt lat="43.98306" lon="7.15275">
        <ele>639.00015653201</ele>
        <time>2012-04-10T13:12:37Z</time>
      </trkpt>
      <trkpt lat="43.98305" lon="7.15279">
        <ele>633.00016861288</ele>
        <time>2012-04-10T13:12:42Z</time>
      </trkpt>
      <trkpt lat="43.98304" lon="7.15286">
        <ele>630.9998725641</ele>
        <time>2012-04-10T13:12:47Z</time>
      </trkpt>
      <trkpt lat="43.98303" lon="7.15289">
        <ele>631.99945493339</ele>
        <time>2012-04-10T13:12:52Z</time>
      </trkpt>
      <trkpt lat="43.98303" lon="7.15293">
        <ele>628.99920318959</ele>
        <time>2012-04-10T13:12:57Z</time>
      </trkpt>
      <trkpt lat="43.98302" lon="7.15296">
        <ele>631.99940529544</ele>
        <time>2012-04-10T13:13:02Z</time>
      </trkpt>
      <trkpt lat="43.98301" lon="7.153">
        <ele>634.99990908273</ele>
        <time>2012-04-10T13:13:07Z</time>
      </trkpt>
      <trkpt lat="43.98298" lon="7.15309">
        <ele>635.00081631834</ele>
        <time>2012-04-10T13:13:12Z</time>
      </trkpt>
      <trkpt lat="43.98294" lon="7.15317">
        <ele>642.00017796246</ele>
        <time>2012-04-10T13:13:17Z</time>
      </trkpt>
      <trkpt lat="43.98291" lon="7.15323">
        <ele>641.00022504844</ele>
        <time>2012-04-10T13:13:22Z</time>
      </trkpt>
      <trkpt lat="43.98288" lon="7.1533">
        <ele>633.99986138109</ele>
        <time>2012-04-10T13:13:27Z</time>
      </trkpt>
      <trkpt lat="43.98286" lon="7.15337">
        <ele>646.9993278304</ele>
        <time>2012-04-10T13:13:32Z</time>
      </trkpt>
      <trkpt lat="43.98286" lon="7.15344">
        <ele>633.99964529538</ele>
        <time>2012-04-10T13:13:37Z</time>
      </trkpt>
      <trkpt lat="43.98285" lon="7.15353">
        <ele>634.00012150546</ele>
        <time>2012-04-10T13:13:42Z</time>
      </trkpt>
      <trkpt lat="43.98283" lon="7.15362">
        <ele>639.00013421081</ele>
        <time>2012-04-10T13:13:47Z</time>
      </trkpt>
      <trkpt lat="43.98283" lon="7.1537">
        <ele>645.99982840908</ele>
        <time>2012-04-10T13:13:52Z</time>
      </trkpt>
      <trkpt lat="43.98283" lon="7.15378">
        <ele>641.00010344456</ele>
        <time>2012-04-10T13:13:57Z</time>
      </trkpt>
      <trkpt lat="43.98283" lon="7.15387">
        <ele>640.99961575867</ele>
        <time>2012-04-10T13:14:02Z</time>
      </trkpt>
      <trkpt lat="43.98285" lon="7.15394">
        <ele>639.99969708234</ele>
        <time>2012-04-10T13:14:07Z</time>
      </trkpt>
      <trkpt lat="43.98287" lon="7.15399">
        <ele>642.99989014379</ele>
        <time>2012-04-10T13:14:12Z</time>
      </trkpt>
      <trkpt lat="43.98289" lon="7.15403">
        <ele>641.00040510251</ele>
        <time>2012-04-10T13:14:17Z</time>
      </trkpt>
      <trkpt lat="43.98288" lon="7.15406">
        <ele>641.00084246796</ele>
        <time>2012-04-10T13:14:22Z</time>
      </trkpt>
      <trkpt lat="43.98283" lon="7.15412">
        <ele>646.00016549374</ele>
        <time>2012-04-10T13:14:27Z</time>
      </trkpt>
      <trkpt lat="43.98277" lon="7.1542">
        <ele>637.00103141579</ele>
        <time>2012-04-10T13:14:32Z</time>
      </trkpt>
      <trkpt lat="43.98271" lon="7.15424">
        <ele>640.99992949338</ele>
        <time>2012-04-10T13:14:37Z</time>
      </trkpt>
      <trkpt lat="43.98265" lon="7.15426">
        <ele>646.999969493</ele>
        <time>2012-04-10T13:14:42Z</time>
      </trkpt>
      <trkpt lat="43.98261" lon="7.15429">
        <ele>639.99944236222</ele>
        <time>2012-04-10T13:14:47Z</time>
      </trkpt>
      <trkpt lat="43.98258" lon="7.15434">
        <ele>627.99947179848</ele>
        <time>2012-04-10T13:14:52Z</time>
      </trkpt>
      <trkpt lat="43.98254" lon="7.15438">
        <ele>625.99981371929</ele>
        <time>2012-04-10T13:14:57Z</time>
      </trkpt>
      <trkpt lat="43.98249" lon="7.15444">
        <ele>624.00032940195</ele>
        <time>2012-04-10T13:15:02Z</time>
      </trkpt>
      <trkpt lat="43.98245" lon="7.15451">
        <ele>623.00010979961</ele>
        <time>2012-04-10T13:15:07Z</time>
      </trkpt>
      <trkpt lat="43.98243" lon="7.15459">
        <ele>617.99974900453</ele>
        <time>2012-04-10T13:15:12Z</time>
      </trkpt>
      <trkpt lat="43.98241" lon="7.15468">
        <ele>618.99962143018</ele>
        <time>2012-04-10T13:15:17Z</time>
      </trkpt>
      <trkpt lat="43.98242" lon="7.15474">
        <ele>625.9992662585</ele>
        <time>2012-04-10T13:15:22Z</time>
      </trkpt>
      <trkpt lat="43.98243" lon="7.1548">
        <ele>635.99918138067</ele>
        <time>2012-04-10T13:15:27Z</time>
      </trkpt>
      <trkpt lat="43.98243" lon="7.15485">
        <ele>645.99941561523</ele>
        <time>2012-04-10T13:15:32Z</time>
      </trkpt>
      <trkpt lat="43.98242" lon="7.15489">
        <ele>646.00012137081</ele>
        <time>2012-04-10T13:15:37Z</time>
      </trkpt>
      <trkpt lat="43.98238" lon="7.15496">
        <ele>644.00073241758</ele>
        <time>2012-04-10T13:15:42Z</time>
      </trkpt>
      <trkpt lat="43.98233" lon="7.15501">
        <ele>641.00048335274</ele>
        <time>2012-04-10T13:15:47Z</time>
      </trkpt>
      <trkpt lat="43.98227" lon="7.15505">
        <ele>644.00025840443</ele>
        <time>2012-04-10T13:15:52Z</time>
      </trkpt>
      <trkpt lat="43.98221" lon="7.15506">
        <ele>642.99997187126</ele>
        <time>2012-04-10T13:15:57Z</time>
      </trkpt>
      <trkpt lat="43.98215" lon="7.15507">
        <ele>639.99988584765</ele>
        <time>2012-04-10T13:16:02Z</time>
      </trkpt>
      <trkpt lat="43.9821" lon="7.15508">
        <ele>636.99983036028</ele>
        <time>2012-04-10T13:16:07Z</time>
      </trkpt>
      <trkpt lat="43.98204" lon="7.15508">
        <ele>634.99932846453</ele>
        <time>2012-04-10T13:16:12Z</time>
      </trkpt>
      <trkpt lat="43.98199" lon="7.15508">
        <ele>632.99951954338</ele>
        <time>2012-04-10T13:16:17Z</time>
      </trkpt>
      <trkpt lat="43.98193" lon="7.15509">
        <ele>635.99959095486</ele>
        <time>2012-04-10T13:16:22Z</time>
      </trkpt>
      <trkpt lat="43.98188" lon="7.15511">
        <ele>634.999208987</ele>
        <time>2012-04-10T13:16:27Z</time>
      </trkpt>
      <trkpt lat="43.98184" lon="7.15512">
        <ele>632.99952539647</ele>
        <time>2012-04-10T13:16:32Z</time>
      </trkpt>
      <trkpt lat="43.98181" lon="7.15515">
        <ele>635.99934587128</ele>
        <time>2012-04-10T13:16:37Z</time>
      </trkpt>
      <trkpt lat="43.98177" lon="7.15521">
        <ele>632.99999956953</ele>
        <time>2012-04-10T13:16:42Z</time>
      </trkpt>
      <trkpt lat="43.98173" lon="7.15528">
        <ele>634.99975985993</ele>
        <time>2012-04-10T13:16:47Z</time>
      </trkpt>
      <trkpt lat="43.98169" lon="7.15534">
        <ele>635.0000050447</ele>
        <time>2012-04-10T13:16:52Z</time>
      </trkpt>
      <trkpt lat="43.98164" lon="7.15539">
        <ele>633.99969698182</ele>
        <time>2012-04-10T13:16:57Z</time>
      </trkpt>
      <trkpt lat="43.9816" lon="7.15544">
        <ele>629.99995397891</ele>
        <time>2012-04-10T13:17:02Z</time>
      </trkpt>
      <trkpt lat="43.98155" lon="7.15546">
        <ele>633.99967251245</ele>
        <time>2012-04-10T13:17:07Z</time>
      </trkpt>
      <trkpt lat="43.9815" lon="7.15548">
        <ele>627.99957494743</ele>
        <time>2012-04-10T13:17:12Z</time>
      </trkpt>
      <trkpt lat="43.98146" lon="7.15551">
        <ele>621.99928502337</ele>
        <time>2012-04-10T13:17:17Z</time>
      </trkpt>
      <trkpt lat="43.98141" lon="7.15553">
        <ele>620.99975333326</ele>
        <time>2012-04-10T13:17:22Z</time>
      </trkpt>
      <trkpt lat="43.98136" lon="7.15555">
        <ele>619.99948657777</ele>
        <time>2012-04-10T13:17:27Z</time>
      </trkpt>
      <trkpt lat="43.98131" lon="7.15556">
        <ele>619.99987049912</ele>
        <time>2012-04-10T13:17:32Z</time>
      </trkpt>
      <trkpt lat="43.98126" lon="7.15558">
        <ele>612.99977405054</ele>
        <time>2012-04-10T13:17:37Z</time>
      </trkpt>
      <trkpt lat="43.9812" lon="7.1556">
        <ele>606.99938228802</ele>
        <time>2012-04-10T13:17:42Z</time>
      </trkpt>
      <trkpt lat="43.98116" lon="7.15561">
        <ele>610.99892199724</ele>
        <time>2012-04-10T13:17:47Z</time>
      </trkpt>
      <trkpt lat="43.98112" lon="7.15564">
        <ele>608.99945099957</ele>
        <time>2012-04-10T13:17:52Z</time>
      </trkpt>
      <trkpt lat="43.98108" lon="7.15569">
        <ele>607.99966489014</ele>
        <time>2012-04-10T13:17:57Z</time>
      </trkpt>
      <trkpt lat="43.98103" lon="7.15572">
        <ele>604.99962403948</ele>
        <time>2012-04-10T13:18:02Z</time>
      </trkpt>
      <trkpt lat="43.98098" lon="7.15574">
        <ele>602.99937084385</ele>
        <time>2012-04-10T13:18:07Z</time>
      </trkpt>
      <trkpt lat="43.98093" lon="7.15577">
        <ele>591.99967396105</ele>
        <time>2012-04-10T13:18:12Z</time>
      </trkpt>
      <trkpt lat="43.9809" lon="7.15582">
        <ele>593.99999170314</ele>
        <time>2012-04-10T13:18:17Z</time>
      </trkpt>
      <trkpt lat="43.98087" lon="7.15589">
        <ele>583.99942562793</ele>
        <time>2012-04-10T13:18:22Z</time>
      </trkpt>
      <trkpt lat="43.98086" lon="7.15595">
        <ele>584.99885579999</ele>
        <time>2012-04-10T13:18:27Z</time>
      </trkpt>
      <trkpt lat="43.98089" lon="7.15611">
        <ele>597.99907061292</ele>
        <time>2012-04-10T13:18:32Z</time>
      </trkpt>
      <trkpt lat="43.98091" lon="7.1562">
        <ele>596.99960242349</ele>
        <time>2012-04-10T13:18:37Z</time>
      </trkpt>
      <trkpt lat="43.98088" lon="7.15624">
        <ele>590.99976029492</ele>
        <time>2012-04-10T13:18:42Z</time>
      </trkpt>
      <trkpt lat="43.98084" lon="7.15619">
        <ele>590.99934922237</ele>
        <time>2012-04-10T13:18:47Z</time>
      </trkpt>
      <trkpt lat="43.98083" lon="7.15608">
        <ele>597.99949938433</ele>
        <time>2012-04-10T13:18:52Z</time>
      </trkpt>
      <trkpt lat="43.98083" lon="7.15596">
        <ele>601.9998601587</ele>
        <time>2012-04-10T13:18:57Z</time>
      </trkpt>
      <trkpt lat="43.98083" lon="7.15588">
        <ele>601.99967552992</ele>
        <time>2012-04-10T13:19:02Z</time>
      </trkpt>
      <trkpt lat="43.98086" lon="7.1558">
        <ele>611.99948511333</ele>
        <time>2012-04-10T13:19:07Z</time>
      </trkpt>
      <trkpt lat="43.9809" lon="7.15573">
        <ele>615.99973799764</ele>
        <time>2012-04-10T13:19:12Z</time>
      </trkpt>
      <trkpt lat="43.98094" lon="7.15566">
        <ele>612.99966411519</ele>
        <time>2012-04-10T13:19:17Z</time>
      </trkpt>
      <trkpt lat="43.98098" lon="7.15561">
        <ele>610.99966565331</ele>
        <time>2012-04-10T13:19:22Z</time>
      </trkpt>
      <trkpt lat="43.98104" lon="7.15558">
        <ele>606.99975635502</ele>
        <time>2012-04-10T13:19:27Z</time>
      </trkpt>
      <trkpt lat="43.98108" lon="7.15554">
        <ele>606.00022922369</ele>
        <time>2012-04-10T13:19:32Z</time>
      </trkpt>
      <trkpt lat="43.98111" lon="7.15549">
        <ele>615.00018682891</ele>
        <time>2012-04-10T13:19:37Z</time>
      </trkpt>
      <trkpt lat="43.98115" lon="7.15543">
        <ele>614.99956703099</ele>
        <time>2012-04-10T13:19:42Z</time>
      </trkpt>
      <trkpt lat="43.98121" lon="7.15539">
        <ele>603.99997360184</ele>
        <time>2012-04-10T13:19:47Z</time>
      </trkpt>
      <trkpt lat="43.98126" lon="7.15534">
        <ele>609.00046395282</ele>
        <time>2012-04-10T13:19:52Z</time>
      </trkpt>
      <trkpt lat="43.98129" lon="7.15529">
        <ele>612.00023430174</ele>
        <time>2012-04-10T13:19:57Z</time>
      </trkpt>
      <trkpt lat="43.98134" lon="7.15525">
        <ele>608.00013685227</ele>
        <time>2012-04-10T13:20:02Z</time>
      </trkpt>
      <trkpt lat="43.98138" lon="7.15519">
        <ele>611.00021115605</ele>
        <time>2012-04-10T13:20:07Z</time>
      </trkpt>
      <trkpt lat="43.98143" lon="7.15514">
        <ele>608.99983203506</ele>
        <time>2012-04-10T13:20:12Z</time>
      </trkpt>
      <trkpt lat="43.98149" lon="7.15509">
        <ele>613.00006577029</ele>
        <time>2012-04-10T13:20:17Z</time>
      </trkpt>
      <trkpt lat="43.98153" lon="7.15505">
        <ele>604.00026279575</ele>
        <time>2012-04-10T13:20:22Z</time>
      </trkpt>
      <trkpt lat="43.98156" lon="7.15499">
        <ele>605.00080820225</ele>
        <time>2012-04-10T13:20:27Z</time>
      </trkpt>
      <trkpt lat="43.98156" lon="7.15494">
        <ele>613.00016147185</ele>
        <time>2012-04-10T13:20:32Z</time>
      </trkpt>
      <trkpt lat="43.98158" lon="7.15486">
        <ele>604.00027411564</ele>
        <time>2012-04-10T13:20:37Z</time>
      </trkpt>
      <trkpt lat="43.9816" lon="7.15479">
        <ele>612.00048261256</ele>
        <time>2012-04-10T13:20:42Z</time>
      </trkpt>
      <trkpt lat="43.98164" lon="7.15471">
        <ele>607.0000068299</ele>
        <time>2012-04-10T13:20:47Z</time>
      </trkpt>
      <trkpt lat="43.98169" lon="7.15465">
        <ele>599.99990709029</ele>
        <time>2012-04-10T13:20:52Z</time>
      </trkpt>
      <trkpt lat="43.98174" lon="7.15462">
        <ele>598.00024249566</ele>
        <time>2012-04-10T13:20:57Z</time>
      </trkpt>
      <trkpt lat="43.98178" lon="7.1546">
        <ele>599.00037431045</ele>
        <time>2012-04-10T13:21:02Z</time>
      </trkpt>
      <trkpt lat="43.98181" lon="7.15457">
        <ele>590.00047721705</ele>
        <time>2012-04-10T13:21:07Z</time>
      </trkpt>
      <trkpt lat="43.98185" lon="7.15456">
        <ele>594.00047165288</ele>
        <time>2012-04-10T13:21:12Z</time>
      </trkpt>
      <trkpt lat="43.98189" lon="7.15454">
        <ele>585.00026661977</ele>
        <time>2012-04-10T13:21:17Z</time>
      </trkpt>
      <trkpt lat="43.98193" lon="7.15454">
        <ele>585.00018050336</ele>
        <time>2012-04-10T13:21:22Z</time>
      </trkpt>
      <trkpt lat="43.98197" lon="7.1545">
        <ele>586.00018802469</ele>
        <time>2012-04-10T13:21:27Z</time>
      </trkpt>
      <trkpt lat="43.98198" lon="7.15443">
        <ele>588.00011984955</ele>
        <time>2012-04-10T13:21:32Z</time>
      </trkpt>
      <trkpt lat="43.98193" lon="7.15439">
        <ele>588.99994746951</ele>
        <time>2012-04-10T13:21:37Z</time>
      </trkpt>
      <trkpt lat="43.98188" lon="7.15443">
        <ele>589.99986393834</ele>
        <time>2012-04-10T13:21:42Z</time>
      </trkpt>
      <trkpt lat="43.98182" lon="7.15448">
        <ele>595.00043697245</ele>
        <time>2012-04-10T13:21:47Z</time>
      </trkpt>
      <trkpt lat="43.98176" lon="7.1545">
        <ele>594.99989353823</ele>
        <time>2012-04-10T13:21:52Z</time>
      </trkpt>
      <trkpt lat="43.98171" lon="7.1545">
        <ele>592.99965091785</ele>
        <time>2012-04-10T13:21:57Z</time>
      </trkpt>
      <trkpt lat="43.98165" lon="7.1545">
        <ele>588.00007752964</ele>
        <time>2012-04-10T13:22:02Z</time>
      </trkpt>
      <trkpt lat="43.9816" lon="7.15451">
        <ele>574.99967724886</ele>
        <time>2012-04-10T13:22:07Z</time>
      </trkpt>
      <trkpt lat="43.98154" lon="7.15452">
        <ele>572.99941622937</ele>
        <time>2012-04-10T13:22:12Z</time>
      </trkpt>
      <trkpt lat="43.98151" lon="7.15454">
        <ele>587.99926909858</ele>
        <time>2012-04-10T13:22:17Z</time>
      </trkpt>
      <trkpt lat="43.98146" lon="7.15455">
        <ele>582.99912935262</ele>
        <time>2012-04-10T13:22:22Z</time>
      </trkpt>
      <trkpt lat="43.98142" lon="7.15458">
        <ele>587.99927165241</ele>
        <time>2012-04-10T13:22:27Z</time>
      </trkpt>
      <trkpt lat="43.98138" lon="7.15461">
        <ele>589.99959604107</ele>
        <time>2012-04-10T13:22:32Z</time>
      </trkpt>
      <trkpt lat="43.98135" lon="7.15465">
        <ele>587.99926953005</ele>
        <time>2012-04-10T13:22:37Z</time>
      </trkpt>
      <trkpt lat="43.98131" lon="7.15471">
        <ele>595.00009535308</ele>
        <time>2012-04-10T13:22:42Z</time>
      </trkpt>
      <trkpt lat="43.98126" lon="7.15477">
        <ele>592.00058427559</ele>
        <time>2012-04-10T13:22:47Z</time>
      </trkpt>
      <trkpt lat="43.98121" lon="7.15481">
        <ele>587.99998665298</ele>
        <time>2012-04-10T13:22:52Z</time>
      </trkpt>
      <trkpt lat="43.98119" lon="7.15483">
        <ele>585.99920790261</ele>
        <time>2012-04-10T13:22:57Z</time>
      </trkpt>
      <trkpt lat="43.98115" lon="7.15486">
        <ele>577.99989655493</ele>
        <time>2012-04-10T13:23:02Z</time>
      </trkpt>
      <trkpt lat="43.9811" lon="7.15488">
        <ele>573.9995902234</ele>
        <time>2012-04-10T13:23:07Z</time>
      </trkpt>
      <trkpt lat="43.98105" lon="7.15489">
        <ele>570.998790027</ele>
        <time>2012-04-10T13:23:12Z</time>
      </trkpt>
      <trkpt lat="43.98101" lon="7.15489">
        <ele>565.99909861263</ele>
        <time>2012-04-10T13:23:17Z</time>
      </trkpt>
      <trkpt lat="43.98097" lon="7.1549">
        <ele>559.9992517358</ele>
        <time>2012-04-10T13:23:22Z</time>
      </trkpt>
      <trkpt lat="43.98093" lon="7.15489">
        <ele>552.99939388326</ele>
        <time>2012-04-10T13:23:27Z</time>
      </trkpt>
      <trkpt lat="43.98087" lon="7.15489">
        <ele>561.99995773616</ele>
        <time>2012-04-10T13:23:32Z</time>
      </trkpt>
      <trkpt lat="43.9808" lon="7.1549">
        <ele>564.99988450261</ele>
        <time>2012-04-10T13:23:37Z</time>
      </trkpt>
      <trkpt lat="43.98074" lon="7.15489">
        <ele>567.99990517331</ele>
        <time>2012-04-10T13:23:42Z</time>
      </trkpt>
      <trkpt lat="43.98068" lon="7.15489">
        <ele>568.99978678028</ele>
        <time>2012-04-10T13:23:47Z</time>
      </trkpt>
      <trkpt lat="43.98063" lon="7.15489">
        <ele>564.99939300468</ele>
        <time>2012-04-10T13:23:52Z</time>
      </trkpt>
      <trkpt lat="43.98058" lon="7.15489">
        <ele>563.99932913531</ele>
        <time>2012-04-10T13:23:57Z</time>
      </trkpt>
      <trkpt lat="43.98053" lon="7.15489">
        <ele>561.99914958218</ele>
        <time>2012-04-10T13:24:02Z</time>
      </trkpt>
      <trkpt lat="43.98047" lon="7.15491">
        <ele>559.00013126865</ele>
        <time>2012-04-10T13:24:07Z</time>
      </trkpt>
      <trkpt lat="43.98042" lon="7.15495">
        <ele>555.99934780889</ele>
        <time>2012-04-10T13:24:12Z</time>
      </trkpt>
      <trkpt lat="43.98039" lon="7.15498">
        <ele>553.99919906463</ele>
        <time>2012-04-10T13:24:17Z</time>
      </trkpt>
      <trkpt lat="43.98038" lon="7.15503">
        <ele>560.9998200301</ele>
        <time>2012-04-10T13:24:22Z</time>
      </trkpt>
      <trkpt lat="43.98032" lon="7.15508">
        <ele>565.00075780886</ele>
        <time>2012-04-10T13:24:27Z</time>
      </trkpt>
      <trkpt lat="43.98027" lon="7.15514">
        <ele>572.00057117163</ele>
        <time>2012-04-10T13:24:32Z</time>
      </trkpt>
      <trkpt lat="43.98024" lon="7.15519">
        <ele>568.99970950392</ele>
        <time>2012-04-10T13:24:37Z</time>
      </trkpt>
      <trkpt lat="43.98022" lon="7.15521">
        <ele>571.99929017345</ele>
        <time>2012-04-10T13:24:42Z</time>
      </trkpt>
      <trkpt lat="43.98021" lon="7.15522">
        <ele>569.99978705866</ele>
        <time>2012-04-10T13:24:47Z</time>
      </trkpt>
      <trkpt lat="43.98019" lon="7.15524">
        <ele>552.99932633058</ele>
        <time>2012-04-10T13:24:52Z</time>
      </trkpt>
      <trkpt lat="43.98017" lon="7.15527">
        <ele>549.99873181831</ele>
        <time>2012-04-10T13:24:57Z</time>
      </trkpt>
      <trkpt lat="43.98017" lon="7.15529">
        <ele>553.99867965766</ele>
        <time>2012-04-10T13:25:02Z</time>
      </trkpt>
      <trkpt lat="43.98015" lon="7.15535">
        <ele>556.9996063365</ele>
        <time>2012-04-10T13:25:07Z</time>
      </trkpt>
      <trkpt lat="43.98013" lon="7.15543">
        <ele>558.99908343582</ele>
        <time>2012-04-10T13:25:12Z</time>
      </trkpt>
      <trkpt lat="43.98007" lon="7.15546">
        <ele>564.0009616884</ele>
        <time>2012-04-10T13:25:17Z</time>
      </trkpt>
      <trkpt lat="43.97999" lon="7.15549">
        <ele>564.00119666506</ele>
        <time>2012-04-10T13:25:22Z</time>
      </trkpt>
      <trkpt lat="43.9799" lon="7.15549">
        <ele>570.00100613076</ele>
        <time>2012-04-10T13:25:27Z</time>
      </trkpt>
      <trkpt lat="43.97986" lon="7.15542">
        <ele>563.99989915669</ele>
        <time>2012-04-10T13:25:32Z</time>
      </trkpt>
      <trkpt lat="43.97984" lon="7.15534">
        <ele>561.99933981179</ele>
        <time>2012-04-10T13:25:37Z</time>
      </trkpt>
      <trkpt lat="43.97982" lon="7.15528">
        <ele>558.99904446527</ele>
        <time>2012-04-10T13:25:42Z</time>
      </trkpt>
      <trkpt lat="43.97981" lon="7.15521">
        <ele>558.99957947017</ele>
        <time>2012-04-10T13:25:47Z</time>
      </trkpt>
      <trkpt lat="43.9798" lon="7.15513">
        <ele>560.99972199176</ele>
        <time>2012-04-10T13:25:52Z</time>
      </trkpt>
      <trkpt lat="43.97979" lon="7.15506">
        <ele>564.9993554683</ele>
        <time>2012-04-10T13:25:57Z</time>
      </trkpt>
      <trkpt lat="43.97978" lon="7.15501">
        <ele>557.99915000847</ele>
        <time>2012-04-10T13:26:02Z</time>
      </trkpt>
      <trkpt lat="43.97978" lon="7.15493">
        <ele>554.99952929056</ele>
        <time>2012-04-10T13:26:07Z</time>
      </trkpt>
      <trkpt lat="43.97979" lon="7.15486">
        <ele>562.99954295427</ele>
        <time>2012-04-10T13:26:12Z</time>
      </trkpt>
      <trkpt lat="43.97982" lon="7.15479">
        <ele>569.99960713716</ele>
        <time>2012-04-10T13:26:17Z</time>
      </trkpt>
      <trkpt lat="43.97985" lon="7.15472">
        <ele>562.99962404181</ele>
        <time>2012-04-10T13:26:22Z</time>
      </trkpt>
      <trkpt lat="43.97988" lon="7.15465">
        <ele>562.99933275678</ele>
        <time>2012-04-10T13:26:27Z</time>
      </trkpt>
      <trkpt lat="43.97992" lon="7.15456">
        <ele>568.99933478337</ele>
        <time>2012-04-10T13:26:32Z</time>
      </trkpt>
      <trkpt lat="43.97996" lon="7.15448">
        <ele>576.99915469999</ele>
        <time>2012-04-10T13:26:37Z</time>
      </trkpt>
      <trkpt lat="43.97999" lon="7.15442">
        <ele>570.99939744439</ele>
        <time>2012-04-10T13:26:42Z</time>
      </trkpt>
      <trkpt lat="43.98002" lon="7.15439">
        <ele>563.00029261359</ele>
        <time>2012-04-10T13:26:47Z</time>
      </trkpt>
      <trkpt lat="43.98003" lon="7.15442">
        <ele>558.00024986999</ele>
        <time>2012-04-10T13:27:17Z</time>
      </trkpt>
      <trkpt lat="43.98003" lon="7.15445">
        <ele>565.00013838108</ele>
        <time>2012-04-10T13:27:27Z</time>
      </trkpt>
      <trkpt lat="43.98004" lon="7.15447">
        <ele>567.99932655975</ele>
        <time>2012-04-10T13:27:32Z</time>
      </trkpt>
      <trkpt lat="43.98004" lon="7.15447">
        <ele>554.99972337099</ele>
        <time>2012-04-10T13:27:37Z</time>
      </trkpt>
      <trkpt lat="43.98004" lon="7.15447">
        <ele>550.00012845331</ele>
        <time>2012-04-10T13:27:42Z</time>
      </trkpt>
      <trkpt lat="43.98001" lon="7.15446">
        <ele>524.00112507783</ele>
        <time>2012-04-10T13:28:12Z</time>
      </trkpt>
      <trkpt lat="43.98003" lon="7.15441">
        <ele>525.00011085024</ele>
        <time>2012-04-10T13:28:17Z</time>
      </trkpt>
      <trkpt lat="43.98004" lon="7.15435">
        <ele>544.00007596364</ele>
        <time>2012-04-10T13:28:22Z</time>
      </trkpt>
      <trkpt lat="43.98007" lon="7.1543">
        <ele>547.99948148039</ele>
        <time>2012-04-10T13:28:27Z</time>
      </trkpt>
      <trkpt lat="43.98012" lon="7.15427">
        <ele>550.99944511557</ele>
        <time>2012-04-10T13:28:32Z</time>
      </trkpt>
      <trkpt lat="43.98016" lon="7.15422">
        <ele>558.99959409788</ele>
        <time>2012-04-10T13:28:37Z</time>
      </trkpt>
      <trkpt lat="43.98022" lon="7.15416">
        <ele>557.99962908978</ele>
        <time>2012-04-10T13:28:42Z</time>
      </trkpt>
      <trkpt lat="43.98025" lon="7.15408">
        <ele>567.99952342295</ele>
        <time>2012-04-10T13:28:47Z</time>
      </trkpt>
      <trkpt lat="43.98029" lon="7.154">
        <ele>568.00022694408</ele>
        <time>2012-04-10T13:28:52Z</time>
      </trkpt>
      <trkpt lat="43.98029" lon="7.15392">
        <ele>565.0005035662</ele>
        <time>2012-04-10T13:28:57Z</time>
      </trkpt>
      <trkpt lat="43.98029" lon="7.15383">
        <ele>575.99989863366</ele>
        <time>2012-04-10T13:29:02Z</time>
      </trkpt>
      <trkpt lat="43.98029" lon="7.15372">
        <ele>568.00051537617</ele>
        <time>2012-04-10T13:29:07Z</time>
      </trkpt>
      <trkpt lat="43.98027" lon="7.15363">
        <ele>575.00012021266</ele>
        <time>2012-04-10T13:29:12Z</time>
      </trkpt>
      <trkpt lat="43.98027" lon="7.15355">
        <ele>575.00006582042</ele>
        <time>2012-04-10T13:29:17Z</time>
      </trkpt>
      <trkpt lat="43.98028" lon="7.15346">
        <ele>568.99992947526</ele>
        <time>2012-04-10T13:29:22Z</time>
      </trkpt>
      <trkpt lat="43.98028" lon="7.15338">
        <ele>566.99964519056</ele>
        <time>2012-04-10T13:29:27Z</time>
      </trkpt>
      <trkpt lat="43.98029" lon="7.1533">
        <ele>562.99975092508</ele>
        <time>2012-04-10T13:29:32Z</time>
      </trkpt>
      <trkpt lat="43.9803" lon="7.15323">
        <ele>571.99995367292</ele>
        <time>2012-04-10T13:29:37Z</time>
      </trkpt>
      <trkpt lat="43.98029" lon="7.15316">
        <ele>568.00007168231</ele>
        <time>2012-04-10T13:29:42Z</time>
      </trkpt>
      <trkpt lat="43.98029" lon="7.1531">
        <ele>567.00018883942</ele>
        <time>2012-04-10T13:29:47Z</time>
      </trkpt>
      <trkpt lat="43.98027" lon="7.15305">
        <ele>564.00000659848</ele>
        <time>2012-04-10T13:29:52Z</time>
      </trkpt>
      <trkpt lat="43.98025" lon="7.153">
        <ele>568.99999094674</ele>
        <time>2012-04-10T13:29:57Z</time>
      </trkpt>
      <trkpt lat="43.98022" lon="7.15296">
        <ele>568.99998505006</ele>
        <time>2012-04-10T13:30:02Z</time>
      </trkpt>
      <trkpt lat="43.98018" lon="7.15293">
        <ele>573.00006993182</ele>
        <time>2012-04-10T13:30:07Z</time>
      </trkpt>
      <trkpt lat="43.98014" lon="7.1529">
        <ele>573.99998269464</ele>
        <time>2012-04-10T13:30:12Z</time>
      </trkpt>
      <trkpt lat="43.98009" lon="7.15288">
        <ele>576.00021649643</ele>
        <time>2012-04-10T13:30:17Z</time>
      </trkpt>
      <trkpt lat="43.98004" lon="7.15287">
        <ele>576.00006456923</ele>
        <time>2012-04-10T13:30:22Z</time>
      </trkpt>
      <trkpt lat="43.97998" lon="7.15285">
        <ele>576.00007926009</ele>
        <time>2012-04-10T13:30:27Z</time>
      </trkpt>
      <trkpt lat="43.97992" lon="7.15283">
        <ele>584.00019611476</ele>
        <time>2012-04-10T13:30:32Z</time>
      </trkpt>
      <trkpt lat="43.97987" lon="7.1528">
        <ele>584.00010899998</ele>
        <time>2012-04-10T13:30:37Z</time>
      </trkpt>
      <trkpt lat="43.97981" lon="7.15279">
        <ele>589.00019956149</ele>
        <time>2012-04-10T13:30:42Z</time>
      </trkpt>
      <trkpt lat="43.97976" lon="7.15277">
        <ele>584.99987305156</ele>
        <time>2012-04-10T13:30:47Z</time>
      </trkpt>
      <trkpt lat="43.97971" lon="7.15274">
        <ele>583.99990560191</ele>
        <time>2012-04-10T13:30:52Z</time>
      </trkpt>
      <trkpt lat="43.97966" lon="7.15273">
        <ele>580.99997856572</ele>
        <time>2012-04-10T13:30:57Z</time>
      </trkpt>
      <trkpt lat="43.97961" lon="7.15272">
        <ele>580.99994072499</ele>
        <time>2012-04-10T13:31:02Z</time>
      </trkpt>
      <trkpt lat="43.97956" lon="7.1527">
        <ele>582.99985428779</ele>
        <time>2012-04-10T13:31:07Z</time>
      </trkpt>
      <trkpt lat="43.97952" lon="7.15268">
        <ele>582.99980327287</ele>
        <time>2012-04-10T13:31:12Z</time>
      </trkpt>
      <trkpt lat="43.97947" lon="7.15267">
        <ele>581.99964109351</ele>
        <time>2012-04-10T13:31:17Z</time>
      </trkpt>
      <trkpt lat="43.97942" lon="7.15265">
        <ele>581.99993872651</ele>
        <time>2012-04-10T13:31:22Z</time>
      </trkpt>
      <trkpt lat="43.97937" lon="7.15265">
        <ele>583.99994643821</ele>
        <time>2012-04-10T13:31:27Z</time>
      </trkpt>
      <trkpt lat="43.97931" lon="7.15264">
        <ele>582.99998970794</ele>
        <time>2012-04-10T13:31:32Z</time>
      </trkpt>
      <trkpt lat="43.97926" lon="7.15264">
        <ele>579.99989614997</ele>
        <time>2012-04-10T13:31:37Z</time>
      </trkpt>
      <trkpt lat="43.97921" lon="7.15263">
        <ele>579.00010047993</ele>
        <time>2012-04-10T13:31:42Z</time>
      </trkpt>
      <trkpt lat="43.97916" lon="7.15262">
        <ele>578.00003712832</ele>
        <time>2012-04-10T13:31:47Z</time>
      </trkpt>
      <trkpt lat="43.97911" lon="7.1526">
        <ele>576.99984028817</ele>
        <time>2012-04-10T13:31:52Z</time>
      </trkpt>
      <trkpt lat="43.97907" lon="7.15257">
        <ele>579.99984549022</ele>
        <time>2012-04-10T13:31:57Z</time>
      </trkpt>
      <trkpt lat="43.97902" lon="7.15253">
        <ele>578.99993194424</ele>
        <time>2012-04-10T13:32:02Z</time>
      </trkpt>
      <trkpt lat="43.97898" lon="7.15247">
        <ele>582.00003351315</ele>
        <time>2012-04-10T13:32:07Z</time>
      </trkpt>
      <trkpt lat="43.97893" lon="7.15241">
        <ele>584.00004044819</ele>
        <time>2012-04-10T13:32:12Z</time>
      </trkpt>
      <trkpt lat="43.97889" lon="7.15235">
        <ele>580.99978806235</ele>
        <time>2012-04-10T13:32:17Z</time>
      </trkpt>
      <trkpt lat="43.97884" lon="7.15231">
        <ele>578.99996052429</ele>
        <time>2012-04-10T13:32:22Z</time>
      </trkpt>
      <trkpt lat="43.9788" lon="7.15227">
        <ele>576.99978800015</ele>
        <time>2012-04-10T13:32:27Z</time>
      </trkpt>
      <trkpt lat="43.97876" lon="7.15222">
        <ele>581.99995022666</ele>
        <time>2012-04-10T13:32:32Z</time>
      </trkpt>
      <trkpt lat="43.97872" lon="7.15217">
        <ele>577.99995944495</ele>
        <time>2012-04-10T13:32:37Z</time>
      </trkpt>
      <trkpt lat="43.97868" lon="7.15214">
        <ele>575.9998485729</ele>
        <time>2012-04-10T13:32:42Z</time>
      </trkpt>
      <trkpt lat="43.97862" lon="7.1521">
        <ele>582.00014440035</ele>
        <time>2012-04-10T13:32:47Z</time>
      </trkpt>
      <trkpt lat="43.97858" lon="7.15206">
        <ele>581.99982994791</ele>
        <time>2012-04-10T13:32:52Z</time>
      </trkpt>
      <trkpt lat="43.97854" lon="7.15201">
        <ele>586.99964431472</ele>
        <time>2012-04-10T13:32:57Z</time>
      </trkpt>
      <trkpt lat="43.9785" lon="7.15197">
        <ele>593.99996748991</ele>
        <time>2012-04-10T13:33:02Z</time>
      </trkpt>
      <trkpt lat="43.97845" lon="7.15193">
        <ele>593.00030046476</ele>
        <time>2012-04-10T13:33:07Z</time>
      </trkpt>
      <trkpt lat="43.97839" lon="7.15193">
        <ele>592.99993875834</ele>
        <time>2012-04-10T13:33:12Z</time>
      </trkpt>
      <trkpt lat="43.97835" lon="7.15192">
        <ele>592.99994404325</ele>
        <time>2012-04-10T13:33:17Z</time>
      </trkpt>
      <trkpt lat="43.97831" lon="7.1519">
        <ele>590.99979271997</ele>
        <time>2012-04-10T13:33:22Z</time>
      </trkpt>
      <trkpt lat="43.97827" lon="7.1519">
        <ele>587.99992787849</ele>
        <time>2012-04-10T13:33:27Z</time>
      </trkpt>
      <trkpt lat="43.97823" lon="7.1519">
        <ele>585.9998889532</ele>
        <time>2012-04-10T13:33:32Z</time>
      </trkpt>
      <trkpt lat="43.97819" lon="7.15192">
        <ele>582.99970139383</ele>
        <time>2012-04-10T13:33:37Z</time>
      </trkpt>
      <trkpt lat="43.97816" lon="7.15193">
        <ele>583.99981728082</ele>
        <time>2012-04-10T13:33:42Z</time>
      </trkpt>
      <trkpt lat="43.97811" lon="7.15194">
        <ele>587.00008286351</ele>
        <time>2012-04-10T13:33:47Z</time>
      </trkpt>
      <trkpt lat="43.97807" lon="7.15196">
        <ele>588.99985685879</ele>
        <time>2012-04-10T13:33:52Z</time>
      </trkpt>
      <trkpt lat="43.97804" lon="7.15197">
        <ele>590.99990024213</ele>
        <time>2012-04-10T13:33:57Z</time>
      </trkpt>
      <trkpt lat="43.978" lon="7.15197">
        <ele>588.99994142712</ele>
        <time>2012-04-10T13:34:02Z</time>
      </trkpt>
      <trkpt lat="43.97795" lon="7.15197">
        <ele>585.00017090856</ele>
        <time>2012-04-10T13:34:07Z</time>
      </trkpt>
      <trkpt lat="43.97792" lon="7.15195">
        <ele>590.99960764767</ele>
        <time>2012-04-10T13:34:12Z</time>
      </trkpt>
      <trkpt lat="43.97792" lon="7.15195">
        <ele>592.99921149829</ele>
        <time>2012-04-10T13:35:07Z</time>
      </trkpt>
      <trkpt lat="43.97793" lon="7.15195">
        <ele>589.99958964177</ele>
        <time>2012-04-10T13:35:37Z</time>
      </trkpt>
      <trkpt lat="43.97793" lon="7.15196">
        <ele>583.99965242368</ele>
        <time>2012-04-10T13:36:07Z</time>
      </trkpt>
      <trkpt lat="43.97793" lon="7.15197">
        <ele>586.00018501888</ele>
        <time>2012-04-10T13:36:12Z</time>
      </trkpt>
      <trkpt lat="43.97789" lon="7.15199">
        <ele>586.00014510443</ele>
        <time>2012-04-10T13:36:17Z</time>
      </trkpt>
      <trkpt lat="43.97784" lon="7.15201">
        <ele>582.00001147554</ele>
        <time>2012-04-10T13:36:22Z</time>
      </trkpt>
      <trkpt lat="43.97779" lon="7.15201">
        <ele>587.99990630167</ele>
        <time>2012-04-10T13:36:27Z</time>
      </trkpt>
      <trkpt lat="43.97773" lon="7.15199">
        <ele>584.99989375281</ele>
        <time>2012-04-10T13:36:32Z</time>
      </trkpt>
      <trkpt lat="43.97768" lon="7.15198">
        <ele>590.00012575092</ele>
        <time>2012-04-10T13:36:37Z</time>
      </trkpt>
      <trkpt lat="43.97761" lon="7.15196">
        <ele>590.00015351374</ele>
        <time>2012-04-10T13:36:42Z</time>
      </trkpt>
      <trkpt lat="43.97756" lon="7.15195">
        <ele>588.99968557293</ele>
        <time>2012-04-10T13:36:47Z</time>
      </trkpt>
      <trkpt lat="43.97751" lon="7.15194">
        <ele>590.99977910915</ele>
        <time>2012-04-10T13:36:52Z</time>
      </trkpt>
      <trkpt lat="43.97746" lon="7.15193">
        <ele>587.99975294756</ele>
        <time>2012-04-10T13:36:57Z</time>
      </trkpt>
      <trkpt lat="43.97741" lon="7.15192">
        <ele>590.99979708068</ele>
        <time>2012-04-10T13:37:02Z</time>
      </trkpt>
      <trkpt lat="43.97736" lon="7.15191">
        <ele>589.99982757505</ele>
        <time>2012-04-10T13:37:07Z</time>
      </trkpt>
      <trkpt lat="43.9773" lon="7.15188">
        <ele>593.00000111172</ele>
        <time>2012-04-10T13:37:12Z</time>
      </trkpt>
      <trkpt lat="43.97724" lon="7.15187">
        <ele>592.9999260153</ele>
        <time>2012-04-10T13:37:17Z</time>
      </trkpt>
      <trkpt lat="43.97719" lon="7.15186">
        <ele>589.99976452655</ele>
        <time>2012-04-10T13:37:22Z</time>
      </trkpt>
      <trkpt lat="43.97714" lon="7.15184">
        <ele>591.99988612536</ele>
        <time>2012-04-10T13:37:27Z</time>
      </trkpt>
      <trkpt lat="43.97708" lon="7.15184">
        <ele>588.99976752105</ele>
        <time>2012-04-10T13:37:32Z</time>
      </trkpt>
      <trkpt lat="43.97704" lon="7.15184">
        <ele>588.99975494322</ele>
        <time>2012-04-10T13:37:37Z</time>
      </trkpt>
      <trkpt lat="43.97699" lon="7.15184">
        <ele>584.99947064787</ele>
        <time>2012-04-10T13:37:42Z</time>
      </trkpt>
      <trkpt lat="43.97694" lon="7.15183">
        <ele>590.99960426645</ele>
        <time>2012-04-10T13:37:47Z</time>
      </trkpt>
      <trkpt lat="43.9769" lon="7.15184">
        <ele>587.99978467139</ele>
        <time>2012-04-10T13:37:52Z</time>
      </trkpt>
      <trkpt lat="43.97685" lon="7.15182">
        <ele>588.99968422261</ele>
        <time>2012-04-10T13:37:57Z</time>
      </trkpt>
      <trkpt lat="43.97683" lon="7.15181">
        <ele>584.99920580394</ele>
        <time>2012-04-10T13:38:02Z</time>
      </trkpt>
      <trkpt lat="43.97684" lon="7.15182">
        <ele>577.99958241413</ele>
        <time>2012-04-10T13:38:07Z</time>
      </trkpt>
      <trkpt lat="43.97681" lon="7.15184">
        <ele>582.9998417048</ele>
        <time>2012-04-10T13:38:12Z</time>
      </trkpt>
      <trkpt lat="43.97676" lon="7.15187">
        <ele>582.99986519339</ele>
        <time>2012-04-10T13:38:17Z</time>
      </trkpt>
      <trkpt lat="43.97671" lon="7.15189">
        <ele>589.99986747666</ele>
        <time>2012-04-10T13:38:22Z</time>
      </trkpt>
      <trkpt lat="43.97668" lon="7.15191">
        <ele>580.99971367299</ele>
        <time>2012-04-10T13:38:27Z</time>
      </trkpt>
      <trkpt lat="43.97661" lon="7.15191">
        <ele>587.00008379382</ele>
        <time>2012-04-10T13:38:32Z</time>
      </trkpt>
      <trkpt lat="43.97655" lon="7.15192">
        <ele>581.99976829457</ele>
        <time>2012-04-10T13:38:37Z</time>
      </trkpt>
      <trkpt lat="43.97651" lon="7.15191">
        <ele>580.99975159791</ele>
        <time>2012-04-10T13:38:42Z</time>
      </trkpt>
      <trkpt lat="43.97645" lon="7.15191">
        <ele>581.99974396967</ele>
        <time>2012-04-10T13:38:47Z</time>
      </trkpt>
      <trkpt lat="43.97641" lon="7.1519">
        <ele>580.99978406442</ele>
        <time>2012-04-10T13:38:52Z</time>
      </trkpt>
      <trkpt lat="43.97635" lon="7.15189">
        <ele>586.99969103753</ele>
        <time>2012-04-10T13:38:57Z</time>
      </trkpt>
      <trkpt lat="43.97631" lon="7.15187">
        <ele>586.9995355247</ele>
        <time>2012-04-10T13:39:02Z</time>
      </trkpt>
      <trkpt lat="43.97627" lon="7.15186">
        <ele>583.99965779883</ele>
        <time>2012-04-10T13:39:07Z</time>
      </trkpt>
      <trkpt lat="43.97622" lon="7.15186">
        <ele>585.99966782431</ele>
        <time>2012-04-10T13:39:12Z</time>
      </trkpt>
      <trkpt lat="43.97615" lon="7.15185">
        <ele>587.00002703935</ele>
        <time>2012-04-10T13:39:17Z</time>
      </trkpt>
      <trkpt lat="43.97609" lon="7.15185">
        <ele>586.00004840213</ele>
        <time>2012-04-10T13:39:22Z</time>
      </trkpt>
      <trkpt lat="43.97602" lon="7.15186">
        <ele>589.0000481921</ele>
        <time>2012-04-10T13:39:27Z</time>
      </trkpt>
      <trkpt lat="43.97596" lon="7.15188">
        <ele>583.999985826</ele>
        <time>2012-04-10T13:39:32Z</time>
      </trkpt>
      <trkpt lat="43.97591" lon="7.15188">
        <ele>585.99986467653</ele>
        <time>2012-04-10T13:39:37Z</time>
      </trkpt>
      <trkpt lat="43.97585" lon="7.1519">
        <ele>582.9998047024</ele>
        <time>2012-04-10T13:39:42Z</time>
      </trkpt>
      <trkpt lat="43.9758" lon="7.15192">
        <ele>584.99983463368</ele>
        <time>2012-04-10T13:39:47Z</time>
      </trkpt>
      <trkpt lat="43.97576" lon="7.15194">
        <ele>583.99961359154</ele>
        <time>2012-04-10T13:39:52Z</time>
      </trkpt>
      <trkpt lat="43.97573" lon="7.15195">
        <ele>581.99972938595</ele>
        <time>2012-04-10T13:39:57Z</time>
      </trkpt>
      <trkpt lat="43.97569" lon="7.15198">
        <ele>584.99977342549</ele>
        <time>2012-04-10T13:40:02Z</time>
      </trkpt>
      <trkpt lat="43.97564" lon="7.152">
        <ele>585.9998312076</ele>
        <time>2012-04-10T13:40:07Z</time>
      </trkpt>
      <trkpt lat="43.97559" lon="7.15205">
        <ele>581.99981788962</ele>
        <time>2012-04-10T13:40:12Z</time>
      </trkpt>
      <trkpt lat="43.97556" lon="7.15208">
        <ele>582.99977575852</ele>
        <time>2012-04-10T13:40:17Z</time>
      </trkpt>
      <trkpt lat="43.97551" lon="7.15214">
        <ele>582.9999654098</ele>
        <time>2012-04-10T13:40:22Z</time>
      </trkpt>
      <trkpt lat="43.97548" lon="7.1522">
        <ele>580.99995126326</ele>
        <time>2012-04-10T13:40:27Z</time>
      </trkpt>
      <trkpt lat="43.97543" lon="7.15225">
        <ele>578.99984217239</ele>
        <time>2012-04-10T13:40:32Z</time>
      </trkpt>
      <trkpt lat="43.97539" lon="7.1523">
        <ele>579.99967974956</ele>
        <time>2012-04-10T13:40:37Z</time>
      </trkpt>
      <trkpt lat="43.97535" lon="7.15234">
        <ele>577.00011528956</ele>
        <time>2012-04-10T13:40:42Z</time>
      </trkpt>
      <trkpt lat="43.97529" lon="7.1524">
        <ele>578.00005402306</ele>
        <time>2012-04-10T13:40:47Z</time>
      </trkpt>
      <trkpt lat="43.97524" lon="7.15243">
        <ele>580.99999977623</ele>
        <time>2012-04-10T13:40:52Z</time>
      </trkpt>
      <trkpt lat="43.97518" lon="7.15249">
        <ele>572.00027091134</ele>
        <time>2012-04-10T13:40:57Z</time>
      </trkpt>
      <trkpt lat="43.97513" lon="7.15255">
        <ele>573.00000896645</ele>
        <time>2012-04-10T13:41:02Z</time>
      </trkpt>
      <trkpt lat="43.97507" lon="7.15258">
        <ele>575.99998241562</ele>
        <time>2012-04-10T13:41:07Z</time>
      </trkpt>
      <trkpt lat="43.97502" lon="7.1526">
        <ele>576.99981677399</ele>
        <time>2012-04-10T13:41:12Z</time>
      </trkpt>
      <trkpt lat="43.97498" lon="7.15263">
        <ele>573.99990449898</ele>
        <time>2012-04-10T13:41:17Z</time>
      </trkpt>
      <trkpt lat="43.97494" lon="7.15268">
        <ele>576.99977652236</ele>
        <time>2012-04-10T13:41:22Z</time>
      </trkpt>
      <trkpt lat="43.9749" lon="7.15271">
        <ele>577.99982956223</ele>
        <time>2012-04-10T13:41:27Z</time>
      </trkpt>
      <trkpt lat="43.97486" lon="7.15276">
        <ele>576.9998019505</ele>
        <time>2012-04-10T13:41:32Z</time>
      </trkpt>
      <trkpt lat="43.97484" lon="7.15279">
        <ele>575.9996853377</ele>
        <time>2012-04-10T13:41:37Z</time>
      </trkpt>
      <trkpt lat="43.97483" lon="7.15281">
        <ele>573.9998693293</ele>
        <time>2012-04-10T13:41:42Z</time>
      </trkpt>
      <trkpt lat="43.97478" lon="7.15283">
        <ele>569.99991760176</ele>
        <time>2012-04-10T13:41:47Z</time>
      </trkpt>
      <trkpt lat="43.97473" lon="7.15287">
        <ele>575.9999861096</ele>
        <time>2012-04-10T13:41:52Z</time>
      </trkpt>
      <trkpt lat="43.97469" lon="7.15291">
        <ele>577.99991050972</ele>
        <time>2012-04-10T13:41:57Z</time>
      </trkpt>
      <trkpt lat="43.97465" lon="7.15295">
        <ele>572.99983812276</ele>
        <time>2012-04-10T13:42:02Z</time>
      </trkpt>
      <trkpt lat="43.97461" lon="7.15299">
        <ele>572.99977378505</ele>
        <time>2012-04-10T13:42:07Z</time>
      </trkpt>
      <trkpt lat="43.97457" lon="7.15304">
        <ele>568.99986375078</ele>
        <time>2012-04-10T13:42:12Z</time>
      </trkpt>
      <trkpt lat="43.97453" lon="7.1531">
        <ele>569.99996663799</ele>
        <time>2012-04-10T13:42:17Z</time>
      </trkpt>
      <trkpt lat="43.97449" lon="7.15315">
        <ele>572.9998553016</ele>
        <time>2012-04-10T13:42:22Z</time>
      </trkpt>
      <trkpt lat="43.97445" lon="7.1532">
        <ele>570.99989702177</ele>
        <time>2012-04-10T13:42:27Z</time>
      </trkpt>
      <trkpt lat="43.97442" lon="7.15326">
        <ele>568.99986493447</ele>
        <time>2012-04-10T13:42:32Z</time>
      </trkpt>
      <trkpt lat="43.9744" lon="7.15332">
        <ele>569.99969702953</ele>
        <time>2012-04-10T13:42:37Z</time>
      </trkpt>
      <trkpt lat="43.9744" lon="7.15338">
        <ele>567.99983517569</ele>
        <time>2012-04-10T13:42:42Z</time>
      </trkpt>
      <trkpt lat="43.97437" lon="7.15344">
        <ele>565.99978144665</ele>
        <time>2012-04-10T13:42:47Z</time>
      </trkpt>
      <trkpt lat="43.97437" lon="7.15351">
        <ele>568.99987297455</ele>
        <time>2012-04-10T13:42:52Z</time>
      </trkpt>
      <trkpt lat="43.97435" lon="7.15358">
        <ele>569.99986807741</ele>
        <time>2012-04-10T13:42:57Z</time>
      </trkpt>
      <trkpt lat="43.97433" lon="7.15363">
        <ele>565.99963099769</ele>
        <time>2012-04-10T13:43:02Z</time>
      </trkpt>
      <trkpt lat="43.97432" lon="7.15369">
        <ele>556.99966500396</ele>
        <time>2012-04-10T13:43:07Z</time>
      </trkpt>
      <trkpt lat="43.97432" lon="7.15375">
        <ele>563.99972251844</ele>
        <time>2012-04-10T13:43:12Z</time>
      </trkpt>
      <trkpt lat="43.97432" lon="7.15381">
        <ele>565.99978258632</ele>
        <time>2012-04-10T13:43:17Z</time>
      </trkpt>
      <trkpt lat="43.97429" lon="7.15387">
        <ele>562.99942313166</ele>
        <time>2012-04-10T13:43:22Z</time>
      </trkpt>
      <trkpt lat="43.97427" lon="7.15389">
        <ele>555.99937598057</ele>
        <time>2012-04-10T13:43:27Z</time>
      </trkpt>
      <trkpt lat="43.97422" lon="7.15392">
        <ele>560.99991744194</ele>
        <time>2012-04-10T13:43:32Z</time>
      </trkpt>
      <trkpt lat="43.97415" lon="7.15394">
        <ele>557.00006598179</ele>
        <time>2012-04-10T13:43:37Z</time>
      </trkpt>
      <trkpt lat="43.97409" lon="7.15395">
        <ele>559.99982482678</ele>
        <time>2012-04-10T13:43:42Z</time>
      </trkpt>
      <trkpt lat="43.97404" lon="7.15395">
        <ele>562.99952780958</ele>
        <time>2012-04-10T13:43:47Z</time>
      </trkpt>
      <trkpt lat="43.974" lon="7.15392">
        <ele>558.99957301754</ele>
        <time>2012-04-10T13:43:52Z</time>
      </trkpt>
      <trkpt lat="43.97396" lon="7.1539">
        <ele>556.99968420327</ele>
        <time>2012-04-10T13:43:57Z</time>
      </trkpt>
      <trkpt lat="43.97392" lon="7.1539">
        <ele>557.99974509861</ele>
        <time>2012-04-10T13:44:02Z</time>
      </trkpt>
      <trkpt lat="43.97387" lon="7.15391">
        <ele>555.99951379794</ele>
        <time>2012-04-10T13:44:07Z</time>
      </trkpt>
      <trkpt lat="43.97382" lon="7.15392">
        <ele>547.99949630557</ele>
        <time>2012-04-10T13:44:12Z</time>
      </trkpt>
      <trkpt lat="43.97378" lon="7.15392">
        <ele>548.99979909993</ele>
        <time>2012-04-10T13:44:17Z</time>
      </trkpt>
      <trkpt lat="43.97372" lon="7.15393">
        <ele>546.99982206343</ele>
        <time>2012-04-10T13:44:22Z</time>
      </trkpt>
      <trkpt lat="43.97367" lon="7.15391">
        <ele>552.99968910492</ele>
        <time>2012-04-10T13:44:27Z</time>
      </trkpt>
      <trkpt lat="43.97362" lon="7.1539">
        <ele>551.99966593572</ele>
        <time>2012-04-10T13:44:32Z</time>
      </trkpt>
      <trkpt lat="43.97357" lon="7.15391">
        <ele>549.99963658199</ele>
        <time>2012-04-10T13:44:37Z</time>
      </trkpt>
      <trkpt lat="43.97353" lon="7.15392">
        <ele>547.99950727325</ele>
        <time>2012-04-10T13:44:42Z</time>
      </trkpt>
      <trkpt lat="43.97349" lon="7.15393">
        <ele>550.99945440658</ele>
        <time>2012-04-10T13:44:47Z</time>
      </trkpt>
      <trkpt lat="43.97346" lon="7.15396">
        <ele>553.99982164625</ele>
        <time>2012-04-10T13:44:52Z</time>
      </trkpt>
      <trkpt lat="43.97343" lon="7.15402">
        <ele>549.99982695051</ele>
        <time>2012-04-10T13:44:57Z</time>
      </trkpt>
      <trkpt lat="43.97341" lon="7.15405">
        <ele>543.00009454</ele>
        <time>2012-04-10T13:45:02Z</time>
      </trkpt>
      <trkpt lat="43.97337" lon="7.15411">
        <ele>544.99981021584</ele>
        <time>2012-04-10T13:45:07Z</time>
      </trkpt>
      <trkpt lat="43.97334" lon="7.15415">
        <ele>554.9998105501</ele>
        <time>2012-04-10T13:45:12Z</time>
      </trkpt>
      <trkpt lat="43.97331" lon="7.15418">
        <ele>546.99988658025</ele>
        <time>2012-04-10T13:45:17Z</time>
      </trkpt>
      <trkpt lat="43.97326" lon="7.15422">
        <ele>550.99998388348</ele>
        <time>2012-04-10T13:45:22Z</time>
      </trkpt>
      <trkpt lat="43.97321" lon="7.15424">
        <ele>555.99985117759</ele>
        <time>2012-04-10T13:45:27Z</time>
      </trkpt>
      <trkpt lat="43.97318" lon="7.15426">
        <ele>551.99983516266</ele>
        <time>2012-04-10T13:45:32Z</time>
      </trkpt>
      <trkpt lat="43.97314" lon="7.15432">
        <ele>545.99991823168</ele>
        <time>2012-04-10T13:45:37Z</time>
      </trkpt>
      <trkpt lat="43.97309" lon="7.15437">
        <ele>547.99990642783</ele>
        <time>2012-04-10T13:45:42Z</time>
      </trkpt>
      <trkpt lat="43.97304" lon="7.1544">
        <ele>550.99985363531</ele>
        <time>2012-04-10T13:45:47Z</time>
      </trkpt>
      <trkpt lat="43.973" lon="7.15443">
        <ele>547.99967768032</ele>
        <time>2012-04-10T13:45:52Z</time>
      </trkpt>
      <trkpt lat="43.97296" lon="7.15447">
        <ele>542.99987704992</ele>
        <time>2012-04-10T13:45:57Z</time>
      </trkpt>
      <trkpt lat="43.97292" lon="7.15448">
        <ele>547.99975915336</ele>
        <time>2012-04-10T13:46:02Z</time>
      </trkpt>
      <trkpt lat="43.97287" lon="7.15454">
        <ele>545.9997022456</ele>
        <time>2012-04-10T13:46:07Z</time>
      </trkpt>
      <trkpt lat="43.97282" lon="7.15456">
        <ele>542.99972709815</ele>
        <time>2012-04-10T13:46:12Z</time>
      </trkpt>
      <trkpt lat="43.97278" lon="7.1546">
        <ele>544.99996641373</ele>
        <time>2012-04-10T13:46:17Z</time>
      </trkpt>
      <trkpt lat="43.97271" lon="7.15465">
        <ele>544.0001524777</ele>
        <time>2012-04-10T13:46:22Z</time>
      </trkpt>
      <trkpt lat="43.97266" lon="7.15468">
        <ele>540.99990812506</ele>
        <time>2012-04-10T13:46:27Z</time>
      </trkpt>
      <trkpt lat="43.97261" lon="7.15468">
        <ele>539.99979676</ele>
        <time>2012-04-10T13:46:32Z</time>
      </trkpt>
      <trkpt lat="43.97257" lon="7.15469">
        <ele>541.99970134684</ele>
        <time>2012-04-10T13:46:37Z</time>
      </trkpt>
      <trkpt lat="43.97252" lon="7.15469">
        <ele>536.9995803187</ele>
        <time>2012-04-10T13:46:42Z</time>
      </trkpt>
      <trkpt lat="43.97249" lon="7.15469">
        <ele>542.99972033123</ele>
        <time>2012-04-10T13:46:47Z</time>
      </trkpt>
      <trkpt lat="43.97245" lon="7.15469">
        <ele>536.99973521043</ele>
        <time>2012-04-10T13:46:52Z</time>
      </trkpt>
      <trkpt lat="43.97241" lon="7.1547">
        <ele>538.99975452361</ele>
        <time>2012-04-10T13:46:57Z</time>
      </trkpt>
      <trkpt lat="43.97236" lon="7.1547">
        <ele>534.9998098653</ele>
        <time>2012-04-10T13:47:02Z</time>
      </trkpt>
      <trkpt lat="43.97232" lon="7.15471">
        <ele>541.99980364892</ele>
        <time>2012-04-10T13:47:07Z</time>
      </trkpt>
      <trkpt lat="43.97226" lon="7.15472">
        <ele>539.9998212682</ele>
        <time>2012-04-10T13:47:12Z</time>
      </trkpt>
      <trkpt lat="43.97223" lon="7.15473">
        <ele>537.99970960392</ele>
        <time>2012-04-10T13:47:17Z</time>
      </trkpt>
      <trkpt lat="43.97219" lon="7.15475">
        <ele>535.9997600923</ele>
        <time>2012-04-10T13:47:22Z</time>
      </trkpt>
      <trkpt lat="43.97214" lon="7.15479">
        <ele>532.99985360163</ele>
        <time>2012-04-10T13:47:27Z</time>
      </trkpt>
      <trkpt lat="43.97209" lon="7.15483">
        <ele>529.99989279086</ele>
        <time>2012-04-10T13:47:32Z</time>
      </trkpt>
      <trkpt lat="43.97206" lon="7.15486">
        <ele>532.99978963209</ele>
        <time>2012-04-10T13:47:37Z</time>
      </trkpt>
      <trkpt lat="43.97202" lon="7.15489">
        <ele>530.99984220069</ele>
        <time>2012-04-10T13:47:42Z</time>
      </trkpt>
      <trkpt lat="43.97199" lon="7.15489">
        <ele>532.99972464259</ele>
        <time>2012-04-10T13:47:47Z</time>
      </trkpt>
      <trkpt lat="43.97194" lon="7.15488">
        <ele>533.99989504919</ele>
        <time>2012-04-10T13:47:52Z</time>
      </trkpt>
      <trkpt lat="43.97187" lon="7.15489">
        <ele>535.00003145978</ele>
        <time>2012-04-10T13:47:57Z</time>
      </trkpt>
      <trkpt lat="43.97181" lon="7.15489">
        <ele>535.99989260708</ele>
        <time>2012-04-10T13:48:02Z</time>
      </trkpt>
      <trkpt lat="43.97176" lon="7.15489">
        <ele>536.99985881059</ele>
        <time>2012-04-10T13:48:07Z</time>
      </trkpt>
      <trkpt lat="43.97169" lon="7.1549">
        <ele>538.00011902259</ele>
        <time>2012-04-10T13:48:12Z</time>
      </trkpt>
      <trkpt lat="43.97164" lon="7.15492">
        <ele>537.99998933413</ele>
        <time>2012-04-10T13:48:17Z</time>
      </trkpt>
      <trkpt lat="43.97159" lon="7.15494">
        <ele>532.99990037634</ele>
        <time>2012-04-10T13:48:22Z</time>
      </trkpt>
      <trkpt lat="43.97153" lon="7.15495">
        <ele>534.99998393584</ele>
        <time>2012-04-10T13:48:27Z</time>
      </trkpt>
      <trkpt lat="43.97147" lon="7.15498">
        <ele>533.99989122567</ele>
        <time>2012-04-10T13:48:32Z</time>
      </trkpt>
      <trkpt lat="43.97143" lon="7.155">
        <ele>533.999892728</ele>
        <time>2012-04-10T13:48:37Z</time>
      </trkpt>
      <trkpt lat="43.97138" lon="7.15502">
        <ele>530.99988272787</ele>
        <time>2012-04-10T13:48:42Z</time>
      </trkpt>
      <trkpt lat="43.97133" lon="7.15503">
        <ele>530.99995664613</ele>
        <time>2012-04-10T13:48:47Z</time>
      </trkpt>
      <trkpt lat="43.97128" lon="7.15503">
        <ele>534.99996791186</ele>
        <time>2012-04-10T13:48:52Z</time>
      </trkpt>
      <trkpt lat="43.97123" lon="7.15507">
        <ele>533.00000862483</ele>
        <time>2012-04-10T13:48:57Z</time>
      </trkpt>
      <trkpt lat="43.97118" lon="7.15509">
        <ele>530.99983513941</ele>
        <time>2012-04-10T13:49:02Z</time>
      </trkpt>
      <trkpt lat="43.97115" lon="7.15511">
        <ele>530.99985348542</ele>
        <time>2012-04-10T13:49:07Z</time>
      </trkpt>
      <trkpt lat="43.9711" lon="7.15515">
        <ele>532.00004163394</ele>
        <time>2012-04-10T13:49:12Z</time>
      </trkpt>
      <trkpt lat="43.97104" lon="7.15518">
        <ele>529.99996381938</ele>
        <time>2012-04-10T13:49:17Z</time>
      </trkpt>
      <trkpt lat="43.971" lon="7.15521">
        <ele>530.99985740827</ele>
        <time>2012-04-10T13:49:22Z</time>
      </trkpt>
      <trkpt lat="43.97096" lon="7.15523">
        <ele>531.999813864</ele>
        <time>2012-04-10T13:49:27Z</time>
      </trkpt>
      <trkpt lat="43.97092" lon="7.15524">
        <ele>529.99978973447</ele>
        <time>2012-04-10T13:49:32Z</time>
      </trkpt>
      <trkpt lat="43.97088" lon="7.15526">
        <ele>526.99983008462</ele>
        <time>2012-04-10T13:49:37Z</time>
      </trkpt>
      <trkpt lat="43.97084" lon="7.15527">
        <ele>527.99989861134</ele>
        <time>2012-04-10T13:49:42Z</time>
      </trkpt>
      <trkpt lat="43.97079" lon="7.15529">
        <ele>525.99986760418</ele>
        <time>2012-04-10T13:49:47Z</time>
      </trkpt>
      <trkpt lat="43.97074" lon="7.1553">
        <ele>522.99982894548</ele>
        <time>2012-04-10T13:49:52Z</time>
      </trkpt>
      <trkpt lat="43.97069" lon="7.15531">
        <ele>525.99991304226</ele>
        <time>2012-04-10T13:49:57Z</time>
      </trkpt>
      <trkpt lat="43.97064" lon="7.15532">
        <ele>523.99986357067</ele>
        <time>2012-04-10T13:50:02Z</time>
      </trkpt>
      <trkpt lat="43.9706" lon="7.15534">
        <ele>523.99993542652</ele>
        <time>2012-04-10T13:50:07Z</time>
      </trkpt>
      <trkpt lat="43.97054" lon="7.15536">
        <ele>522.99999650842</ele>
        <time>2012-04-10T13:50:12Z</time>
      </trkpt>
      <trkpt lat="43.97049" lon="7.15538">
        <ele>522.99988317681</ele>
        <time>2012-04-10T13:50:17Z</time>
      </trkpt>
      <trkpt lat="43.97044" lon="7.15539">
        <ele>519.99984238111</ele>
        <time>2012-04-10T13:50:22Z</time>
      </trkpt>
      <trkpt lat="43.97039" lon="7.15539">
        <ele>523.99995917247</ele>
        <time>2012-04-10T13:50:27Z</time>
      </trkpt>
      <trkpt lat="43.97033" lon="7.15539">
        <ele>523.99990657168</ele>
        <time>2012-04-10T13:50:32Z</time>
      </trkpt>
      <trkpt lat="43.97028" lon="7.1554">
        <ele>520.99982406947</ele>
        <time>2012-04-10T13:50:37Z</time>
      </trkpt>
      <trkpt lat="43.97026" lon="7.15542">
        <ele>518.99972112583</ele>
        <time>2012-04-10T13:50:42Z</time>
      </trkpt>
      <trkpt lat="43.97023" lon="7.15543">
        <ele>517.99970196917</ele>
        <time>2012-04-10T13:50:47Z</time>
      </trkpt>
      <trkpt lat="43.97021" lon="7.15543">
        <ele>517.9997175132</ele>
        <time>2012-04-10T13:50:52Z</time>
      </trkpt>
      <trkpt lat="43.97018" lon="7.15543">
        <ele>507.99927878723</ele>
        <time>2012-04-10T13:50:57Z</time>
      </trkpt>
      <trkpt lat="43.97019" lon="7.15543">
        <ele>513.99954615074</ele>
        <time>2012-04-10T13:51:02Z</time>
      </trkpt>
      <trkpt lat="43.97019" lon="7.15542">
        <ele>514.99993687426</ele>
        <time>2012-04-10T13:51:07Z</time>
      </trkpt>
      <trkpt lat="43.97016" lon="7.15543">
        <ele>520.99978868699</ele>
        <time>2012-04-10T13:51:12Z</time>
      </trkpt>
      <trkpt lat="43.97014" lon="7.15539">
        <ele>517.99968079946</ele>
        <time>2012-04-10T13:51:17Z</time>
      </trkpt>
      <trkpt lat="43.97015" lon="7.1554">
        <ele>523.99981674323</ele>
        <time>2012-04-10T13:51:27Z</time>
      </trkpt>
      <trkpt lat="43.97015" lon="7.1554">
        <ele>523.9998102241</ele>
        <time>2012-04-10T13:51:47Z</time>
      </trkpt>
      <trkpt lat="43.97015" lon="7.15539">
        <ele>525.99992815748</ele>
        <time>2012-04-10T13:51:52Z</time>
      </trkpt>
      <trkpt lat="43.97015" lon="7.15534">
        <ele>523.9998871853</ele>
        <time>2012-04-10T13:51:57Z</time>
      </trkpt>
      <trkpt lat="43.97014" lon="7.15531">
        <ele>528.99976222023</ele>
        <time>2012-04-10T13:52:02Z</time>
      </trkpt>
      <trkpt lat="43.97016" lon="7.15531">
        <ele>508.99984880615</ele>
        <time>2012-04-10T13:52:12Z</time>
      </trkpt>
      <trkpt lat="43.97018" lon="7.15526">
        <ele>514.99978850624</ele>
        <time>2012-04-10T13:52:17Z</time>
      </trkpt>
      <trkpt lat="43.97022" lon="7.15519">
        <ele>520.99987094436</ele>
        <time>2012-04-10T13:52:22Z</time>
      </trkpt>
      <trkpt lat="43.97022" lon="7.15515">
        <ele>525.99987499265</ele>
        <time>2012-04-10T13:52:27Z</time>
      </trkpt>
      <trkpt lat="43.97027" lon="7.15512">
        <ele>522.00008899865</ele>
        <time>2012-04-10T13:52:32Z</time>
      </trkpt>
      <trkpt lat="43.9703" lon="7.1551">
        <ele>515.00043177246</ele>
        <time>2012-04-10T13:52:37Z</time>
      </trkpt>
      <trkpt lat="43.97028" lon="7.1551">
        <ele>517.00002431294</ele>
        <time>2012-04-10T13:52:42Z</time>
      </trkpt>
      <trkpt lat="43.97028" lon="7.15512">
        <ele>510.99996300523</ele>
        <time>2012-04-10T13:52:47Z</time>
      </trkpt>
      <trkpt lat="43.97026" lon="7.15515">
        <ele>509.99980983034</ele>
        <time>2012-04-10T13:52:52Z</time>
      </trkpt>
      <trkpt lat="43.97024" lon="7.15516">
        <ele>502.99971824339</ele>
        <time>2012-04-10T13:52:57Z</time>
      </trkpt>
      <trkpt lat="43.9702" lon="7.15517">
        <ele>509.99984084535</ele>
        <time>2012-04-10T13:53:02Z</time>
      </trkpt>
      <trkpt lat="43.97018" lon="7.15518">
        <ele>505.99959590002</ele>
        <time>2012-04-10T13:53:07Z</time>
      </trkpt>
      <trkpt lat="43.97018" lon="7.15518">
        <ele>503.9997211268</ele>
        <time>2012-04-10T13:53:12Z</time>
      </trkpt>
      <trkpt lat="43.97017" lon="7.1552">
        <ele>514.99991086794</ele>
        <time>2012-04-10T13:53:17Z</time>
      </trkpt>
      <trkpt lat="43.97017" lon="7.15521">
        <ele>509.99976632471</ele>
        <time>2012-04-10T13:53:22Z</time>
      </trkpt>
      <trkpt lat="43.97016" lon="7.1552">
        <ele>515.00000761568</ele>
        <time>2012-04-10T13:53:27Z</time>
      </trkpt>
      <trkpt lat="43.97015" lon="7.15516">
        <ele>507.00030813857</ele>
        <time>2012-04-10T13:53:32Z</time>
      </trkpt>
      <trkpt lat="43.97012" lon="7.15517">
        <ele>499.99983980719</ele>
        <time>2012-04-10T13:53:37Z</time>
      </trkpt>
      <trkpt lat="43.9701" lon="7.15516">
        <ele>501.00000936932</ele>
        <time>2012-04-10T13:53:42Z</time>
      </trkpt>
      <trkpt lat="43.97007" lon="7.15516">
        <ele>500.99964954212</ele>
        <time>2012-04-10T13:53:47Z</time>
      </trkpt>
      <trkpt lat="43.97007" lon="7.15519">
        <ele>500.99990164914</ele>
        <time>2012-04-10T13:53:52Z</time>
      </trkpt>
      <trkpt lat="43.97007" lon="7.1552">
        <ele>503.99990747414</ele>
        <time>2012-04-10T13:53:57Z</time>
      </trkpt>
      <trkpt lat="43.97007" lon="7.15521">
        <ele>508.99986709735</ele>
        <time>2012-04-10T13:54:02Z</time>
      </trkpt>
      <trkpt lat="43.97006" lon="7.15524">
        <ele>516.99973207984</ele>
        <time>2012-04-10T13:54:07Z</time>
      </trkpt>
      <trkpt lat="43.97007" lon="7.1552">
        <ele>519.00006378669</ele>
        <time>2012-04-10T13:54:12Z</time>
      </trkpt>
      <trkpt lat="43.97007" lon="7.15519">
        <ele>510.00019704233</ele>
        <time>2012-04-10T13:54:17Z</time>
      </trkpt>
      <trkpt lat="43.97009" lon="7.15522">
        <ele>511.00031651895</ele>
        <time>2012-04-10T13:54:22Z</time>
      </trkpt>
      <trkpt lat="43.97012" lon="7.1552">
        <ele>510.0008437854</ele>
        <time>2012-04-10T13:54:27Z</time>
      </trkpt>
      <trkpt lat="43.97011" lon="7.15523">
        <ele>502.00074036196</ele>
        <time>2012-04-10T13:54:32Z</time>
      </trkpt>
      <trkpt lat="43.97004" lon="7.15526">
        <ele>505.0001256028</ele>
        <time>2012-04-10T13:54:37Z</time>
      </trkpt>
      <trkpt lat="43.96998" lon="7.15525">
        <ele>505.00002813886</ele>
        <time>2012-04-10T13:54:42Z</time>
      </trkpt>
      <trkpt lat="43.96994" lon="7.15524">
        <ele>496.99977555681</ele>
        <time>2012-04-10T13:54:47Z</time>
      </trkpt>
      <trkpt lat="43.96991" lon="7.15522">
        <ele>491.99968784631</ele>
        <time>2012-04-10T13:54:52Z</time>
      </trkpt>
      <trkpt lat="43.96988" lon="7.1552">
        <ele>497.99947322693</ele>
        <time>2012-04-10T13:54:57Z</time>
      </trkpt>
      <trkpt lat="43.96985" lon="7.15517">
        <ele>493.99944410294</ele>
        <time>2012-04-10T13:55:02Z</time>
      </trkpt>
      <trkpt lat="43.96982" lon="7.15516">
        <ele>489.99911644492</ele>
        <time>2012-04-10T13:55:07Z</time>
      </trkpt>
      <trkpt lat="43.96982" lon="7.15513">
        <ele>487.99949669818</ele>
        <time>2012-04-10T13:55:12Z</time>
      </trkpt>
      <trkpt lat="43.96979" lon="7.15512">
        <ele>491.99977340417</ele>
        <time>2012-04-10T13:55:17Z</time>
      </trkpt>
      <trkpt lat="43.96976" lon="7.15513">
        <ele>492.99969181691</ele>
        <time>2012-04-10T13:55:22Z</time>
      </trkpt>
      <trkpt lat="43.96972" lon="7.15514">
        <ele>490.9997673705</ele>
        <time>2012-04-10T13:55:27Z</time>
      </trkpt>
      <trkpt lat="43.96972" lon="7.15513">
        <ele>494.99970304165</ele>
        <time>2012-04-10T13:55:32Z</time>
      </trkpt>
      <trkpt lat="43.9697" lon="7.15514">
        <ele>497.99937124105</ele>
        <time>2012-04-10T13:55:37Z</time>
      </trkpt>
      <trkpt lat="43.96971" lon="7.15513">
        <ele>498.99974333187</ele>
        <time>2012-04-10T13:55:42Z</time>
      </trkpt>
      <trkpt lat="43.96969" lon="7.15511">
        <ele>490.99966812813</ele>
        <time>2012-04-10T13:55:47Z</time>
      </trkpt>
      <trkpt lat="43.96962" lon="7.15511">
        <ele>493.0003398277</ele>
        <time>2012-04-10T13:55:52Z</time>
      </trkpt>
      <trkpt lat="43.96955" lon="7.1551">
        <ele>495.0000451007</ele>
        <time>2012-04-10T13:55:57Z</time>
      </trkpt>
      <trkpt lat="43.96949" lon="7.1551">
        <ele>492.9999550988</ele>
        <time>2012-04-10T13:56:02Z</time>
      </trkpt>
      <trkpt lat="43.96943" lon="7.15512">
        <ele>494.99990782128</ele>
        <time>2012-04-10T13:56:07Z</time>
      </trkpt>
      <trkpt lat="43.96939" lon="7.15513">
        <ele>495.99968211646</ele>
        <time>2012-04-10T13:56:12Z</time>
      </trkpt>
      <trkpt lat="43.96936" lon="7.15509">
        <ele>487.999472365</ele>
        <time>2012-04-10T13:56:17Z</time>
      </trkpt>
      <trkpt lat="43.96934" lon="7.15507">
        <ele>485.99971503357</ele>
        <time>2012-04-10T13:56:22Z</time>
      </trkpt>
      <trkpt lat="43.9693" lon="7.15505">
        <ele>483.99954522154</ele>
        <time>2012-04-10T13:56:27Z</time>
      </trkpt>
      <trkpt lat="43.96928" lon="7.15502">
        <ele>484.99941521749</ele>
        <time>2012-04-10T13:56:32Z</time>
      </trkpt>
      <trkpt lat="43.96926" lon="7.155">
        <ele>477.99920736177</ele>
        <time>2012-04-10T13:56:37Z</time>
      </trkpt>
      <trkpt lat="43.96926" lon="7.15499">
        <ele>484.99920530923</ele>
        <time>2012-04-10T13:56:42Z</time>
      </trkpt>
      <trkpt lat="43.96925" lon="7.15498">
        <ele>484.99912939193</ele>
        <time>2012-04-10T13:56:47Z</time>
      </trkpt>
      <trkpt lat="43.96924" lon="7.15502">
        <ele>486.999984128</ele>
        <time>2012-04-10T13:56:52Z</time>
      </trkpt>
      <trkpt lat="43.96916" lon="7.15502">
        <ele>490.00023425409</ele>
        <time>2012-04-10T13:56:57Z</time>
      </trkpt>
      <trkpt lat="43.96907" lon="7.15503">
        <ele>493.00021892716</ele>
        <time>2012-04-10T13:57:02Z</time>
      </trkpt>
      <trkpt lat="43.96901" lon="7.15504">
        <ele>493.99996760285</ele>
        <time>2012-04-10T13:57:07Z</time>
      </trkpt>
      <trkpt lat="43.96896" lon="7.15506">
        <ele>494.99985146812</ele>
        <time>2012-04-10T13:57:12Z</time>
      </trkpt>
      <trkpt lat="43.96892" lon="7.15509">
        <ele>491.99992360252</ele>
        <time>2012-04-10T13:57:17Z</time>
      </trkpt>
      <trkpt lat="43.96887" lon="7.1551">
        <ele>489.99979526696</ele>
        <time>2012-04-10T13:57:22Z</time>
      </trkpt>
      <trkpt lat="43.96886" lon="7.1551">
        <ele>488.99966352734</ele>
        <time>2012-04-10T13:57:27Z</time>
      </trkpt>
      <trkpt lat="43.96884" lon="7.15512">
        <ele>485.99949035759</ele>
        <time>2012-04-10T13:57:32Z</time>
      </trkpt>
      <trkpt lat="43.96883" lon="7.15512">
        <ele>489.99939811266</ele>
        <time>2012-04-10T13:57:37Z</time>
      </trkpt>
      <trkpt lat="43.96885" lon="7.15514">
        <ele>496.99992448077</ele>
        <time>2012-04-10T13:57:47Z</time>
      </trkpt>
      <trkpt lat="43.96881" lon="7.15514">
        <ele>492.99967243569</ele>
        <time>2012-04-10T13:57:52Z</time>
      </trkpt>
      <trkpt lat="43.96879" lon="7.15516">
        <ele>485.99949475818</ele>
        <time>2012-04-10T13:57:57Z</time>
      </trkpt>
      <trkpt lat="43.96877" lon="7.15519">
        <ele>486.99991052192</ele>
        <time>2012-04-10T13:58:02Z</time>
      </trkpt>
      <trkpt lat="43.96874" lon="7.15522">
        <ele>485.99990056088</ele>
        <time>2012-04-10T13:58:07Z</time>
      </trkpt>
      <trkpt lat="43.96871" lon="7.15525">
        <ele>489.99988060375</ele>
        <time>2012-04-10T13:58:12Z</time>
      </trkpt>
      <trkpt lat="43.96868" lon="7.15525">
        <ele>490.9996875503</ele>
        <time>2012-04-10T13:58:17Z</time>
      </trkpt>
      <trkpt lat="43.96868" lon="7.15525">
        <ele>491.00006521309</ele>
        <time>2012-04-10T13:58:22Z</time>
      </trkpt>
      <trkpt lat="43.96868" lon="7.15528">
        <ele>495.00023579486</ele>
        <time>2012-04-10T13:58:27Z</time>
      </trkpt>
      <trkpt lat="43.96861" lon="7.15531">
        <ele>482.0001905621</ele>
        <time>2012-04-10T13:58:32Z</time>
      </trkpt>
      <trkpt lat="43.96855" lon="7.15534">
        <ele>485.00001934562</ele>
        <time>2012-04-10T13:58:37Z</time>
      </trkpt>
      <trkpt lat="43.96851" lon="7.15536">
        <ele>487.99977932603</ele>
        <time>2012-04-10T13:58:42Z</time>
      </trkpt>
      <trkpt lat="43.96847" lon="7.15539">
        <ele>482.99983573496</ele>
        <time>2012-04-10T13:58:47Z</time>
      </trkpt>
      <trkpt lat="43.96842" lon="7.15543">
        <ele>487.00001889105</ele>
        <time>2012-04-10T13:58:52Z</time>
      </trkpt>
      <trkpt lat="43.96837" lon="7.15546">
        <ele>482.99998509928</ele>
        <time>2012-04-10T13:58:57Z</time>
      </trkpt>
      <trkpt lat="43.96832" lon="7.1555">
        <ele>483.99998227602</ele>
        <time>2012-04-10T13:59:02Z</time>
      </trkpt>
      <trkpt lat="43.96826" lon="7.15553">
        <ele>480.0000369862</ele>
        <time>2012-04-10T13:59:07Z</time>
      </trkpt>
      <trkpt lat="43.9682" lon="7.15555">
        <ele>477.00000575613</ele>
        <time>2012-04-10T13:59:12Z</time>
      </trkpt>
      <trkpt lat="43.96815" lon="7.15555">
        <ele>480.9999730192</ele>
        <time>2012-04-10T13:59:17Z</time>
      </trkpt>
      <trkpt lat="43.9681" lon="7.15557">
        <ele>475.99998404509</ele>
        <time>2012-04-10T13:59:22Z</time>
      </trkpt>
      <trkpt lat="43.96805" lon="7.1556">
        <ele>477.99993448629</ele>
        <time>2012-04-10T13:59:27Z</time>
      </trkpt>
      <trkpt lat="43.968" lon="7.15561">
        <ele>475.99990682302</ele>
        <time>2012-04-10T13:59:32Z</time>
      </trkpt>
      <trkpt lat="43.96796" lon="7.15563">
        <ele>480.9999167345</ele>
        <time>2012-04-10T13:59:37Z</time>
      </trkpt>
      <trkpt lat="43.96791" lon="7.15563">
        <ele>483.99994934872</ele>
        <time>2012-04-10T13:59:42Z</time>
      </trkpt>
      <trkpt lat="43.96787" lon="7.15563">
        <ele>483.99995830394</ele>
        <time>2012-04-10T13:59:47Z</time>
      </trkpt>
      <trkpt lat="43.96782" lon="7.15563">
        <ele>484.99991452853</ele>
        <time>2012-04-10T13:59:52Z</time>
      </trkpt>
      <trkpt lat="43.96777" lon="7.15563">
        <ele>482.9999517304</ele>
        <time>2012-04-10T13:59:57Z</time>
      </trkpt>
      <trkpt lat="43.96772" lon="7.15564">
        <ele>480.99994216206</ele>
        <time>2012-04-10T14:00:02Z</time>
      </trkpt>
      <trkpt lat="43.96767" lon="7.15565">
        <ele>486.99987593605</ele>
        <time>2012-04-10T14:00:07Z</time>
      </trkpt>
      <trkpt lat="43.96762" lon="7.15565">
        <ele>486.99997959398</ele>
        <time>2012-04-10T14:00:12Z</time>
      </trkpt>
      <trkpt lat="43.96757" lon="7.15566">
        <ele>488.00002217998</ele>
        <time>2012-04-10T14:00:17Z</time>
      </trkpt>
      <trkpt lat="43.96752" lon="7.15568">
        <ele>487.99997241767</ele>
        <time>2012-04-10T14:00:22Z</time>
      </trkpt>
      <trkpt lat="43.96746" lon="7.15568">
        <ele>484.99998954182</ele>
        <time>2012-04-10T14:00:27Z</time>
      </trkpt>
      <trkpt lat="43.96742" lon="7.1557">
        <ele>488.99995521148</ele>
        <time>2012-04-10T14:00:32Z</time>
      </trkpt>
      <trkpt lat="43.96739" lon="7.15573">
        <ele>490.99990896591</ele>
        <time>2012-04-10T14:00:37Z</time>
      </trkpt>
      <trkpt lat="43.96737" lon="7.15575">
        <ele>490.99998182103</ele>
        <time>2012-04-10T14:00:42Z</time>
      </trkpt>
      <trkpt lat="43.96733" lon="7.15578">
        <ele>491.00002122891</ele>
        <time>2012-04-10T14:00:47Z</time>
      </trkpt>
      <trkpt lat="43.96729" lon="7.15579">
        <ele>483.99997199149</ele>
        <time>2012-04-10T14:00:52Z</time>
      </trkpt>
      <trkpt lat="43.96727" lon="7.15578">
        <ele>486.99987465459</ele>
        <time>2012-04-10T14:00:57Z</time>
      </trkpt>
      <trkpt lat="43.96723" lon="7.15578">
        <ele>486.99985964258</ele>
        <time>2012-04-10T14:01:02Z</time>
      </trkpt>
      <trkpt lat="43.9672" lon="7.15578">
        <ele>485.99978723848</ele>
        <time>2012-04-10T14:01:07Z</time>
      </trkpt>
      <trkpt lat="43.96718" lon="7.15576">
        <ele>487.99986522232</ele>
        <time>2012-04-10T14:01:12Z</time>
      </trkpt>
      <trkpt lat="43.96714" lon="7.15575">
        <ele>486.99985951864</ele>
        <time>2012-04-10T14:01:17Z</time>
      </trkpt>
      <trkpt lat="43.96711" lon="7.15575">
        <ele>487.99975248318</ele>
        <time>2012-04-10T14:01:22Z</time>
      </trkpt>
      <trkpt lat="43.96708" lon="7.15575">
        <ele>486.99983839375</ele>
        <time>2012-04-10T14:01:27Z</time>
      </trkpt>
      <trkpt lat="43.96705" lon="7.15577">
        <ele>489.99989157497</ele>
        <time>2012-04-10T14:01:32Z</time>
      </trkpt>
      <trkpt lat="43.96703" lon="7.15581">
        <ele>488.9998963438</ele>
        <time>2012-04-10T14:01:37Z</time>
      </trkpt>
      <trkpt lat="43.96702" lon="7.15585">
        <ele>480.99975374832</ele>
        <time>2012-04-10T14:01:42Z</time>
      </trkpt>
      <trkpt lat="43.96702" lon="7.15584">
        <ele>485.99983992844</ele>
        <time>2012-04-10T14:01:47Z</time>
      </trkpt>
      <trkpt lat="43.96702" lon="7.15584">
        <ele>476.99984725707</ele>
        <time>2012-04-10T14:01:52Z</time>
      </trkpt>
      <trkpt lat="43.96705" lon="7.15586">
        <ele>475.99990818546</ele>
        <time>2012-04-10T14:01:57Z</time>
      </trkpt>
      <trkpt lat="43.96707" lon="7.15586">
        <ele>482.00005007131</ele>
        <time>2012-04-10T14:02:02Z</time>
      </trkpt>
      <trkpt lat="43.96707" lon="7.15586">
        <ele>479.99993423204</ele>
        <time>2012-04-10T14:02:17Z</time>
      </trkpt>
      <trkpt lat="43.96708" lon="7.15586">
        <ele>470.99984311074</ele>
        <time>2012-04-10T14:02:22Z</time>
      </trkpt>
      <trkpt lat="43.96709" lon="7.15587">
        <ele>466.99977260031</ele>
        <time>2012-04-10T14:02:27Z</time>
      </trkpt>
      <trkpt lat="43.96712" lon="7.15589">
        <ele>468.99972364876</ele>
        <time>2012-04-10T14:02:32Z</time>
      </trkpt>
      <trkpt lat="43.96714" lon="7.15593">
        <ele>467.99988354497</ele>
        <time>2012-04-10T14:02:37Z</time>
      </trkpt>
      <trkpt lat="43.96715" lon="7.15595">
        <ele>467.99994484433</ele>
        <time>2012-04-10T14:02:42Z</time>
      </trkpt>
      <trkpt lat="43.96717" lon="7.15598">
        <ele>470.9999892482</ele>
        <time>2012-04-10T14:02:47Z</time>
      </trkpt>
      <trkpt lat="43.96719" lon="7.156">
        <ele>467.00016911067</ele>
        <time>2012-04-10T14:02:52Z</time>
      </trkpt>
      <trkpt lat="43.9672" lon="7.15601">
        <ele>472.00027179997</ele>
        <time>2012-04-10T14:02:57Z</time>
      </trkpt>
      <trkpt lat="43.96721" lon="7.15603">
        <ele>470.00038950609</ele>
        <time>2012-04-10T14:03:02Z</time>
      </trkpt>
      <trkpt lat="43.96721" lon="7.15606">
        <ele>474.00053669157</ele>
        <time>2012-04-10T14:03:07Z</time>
      </trkpt>
      <trkpt lat="43.96719" lon="7.1561">
        <ele>479.00039846663</ele>
        <time>2012-04-10T14:03:12Z</time>
      </trkpt>
      <trkpt lat="43.9672" lon="7.15618">
        <ele>479.00054836878</ele>
        <time>2012-04-10T14:03:17Z</time>
      </trkpt>
      <trkpt lat="43.96719" lon="7.15625">
        <ele>476.00045635254</ele>
        <time>2012-04-10T14:03:22Z</time>
      </trkpt>
      <trkpt lat="43.96716" lon="7.15633">
        <ele>481.00063675504</ele>
        <time>2012-04-10T14:03:27Z</time>
      </trkpt>
      <trkpt lat="43.96712" lon="7.15641">
        <ele>479.00048514144</ele>
        <time>2012-04-10T14:03:32Z</time>
      </trkpt>
      <trkpt lat="43.96707" lon="7.15647">
        <ele>473.00013210801</ele>
        <time>2012-04-10T14:03:37Z</time>
      </trkpt>
      <trkpt lat="43.96703" lon="7.15653">
        <ele>476.00000721404</ele>
        <time>2012-04-10T14:03:42Z</time>
      </trkpt>
      <trkpt lat="43.96699" lon="7.15659">
        <ele>478.00007288445</ele>
        <time>2012-04-10T14:03:47Z</time>
      </trkpt>
      <trkpt lat="43.96695" lon="7.15665">
        <ele>480.00018930088</ele>
        <time>2012-04-10T14:03:52Z</time>
      </trkpt>
      <trkpt lat="43.96693" lon="7.15672">
        <ele>475.99999626866</ele>
        <time>2012-04-10T14:03:57Z</time>
      </trkpt>
      <trkpt lat="43.96693" lon="7.15676">
        <ele>479.99992075718</ele>
        <time>2012-04-10T14:04:02Z</time>
      </trkpt>
      <trkpt lat="43.96693" lon="7.15682">
        <ele>467.99974731125</ele>
        <time>2012-04-10T14:04:07Z</time>
      </trkpt>
      <trkpt lat="43.96695" lon="7.15687">
        <ele>468.99975680368</ele>
        <time>2012-04-10T14:04:12Z</time>
      </trkpt>
      <trkpt lat="43.96699" lon="7.15689">
        <ele>460.99993174755</ele>
        <time>2012-04-10T14:04:17Z</time>
      </trkpt>
      <trkpt lat="43.96702" lon="7.15692">
        <ele>465.99995338892</ele>
        <time>2012-04-10T14:04:22Z</time>
      </trkpt>
      <trkpt lat="43.96704" lon="7.15698">
        <ele>466.99996527879</ele>
        <time>2012-04-10T14:04:27Z</time>
      </trkpt>
      <trkpt lat="43.96705" lon="7.15698">
        <ele>466.00011762723</ele>
        <time>2012-04-10T14:04:32Z</time>
      </trkpt>
      <trkpt lat="43.96705" lon="7.15698">
        <ele>468.00008004511</ele>
        <time>2012-04-10T14:04:37Z</time>
      </trkpt>
      <trkpt lat="43.96707" lon="7.15706">
        <ele>462.99998129599</ele>
        <time>2012-04-10T14:04:42Z</time>
      </trkpt>
      <trkpt lat="43.96709" lon="7.15714">
        <ele>478.00012298113</ele>
        <time>2012-04-10T14:04:47Z</time>
      </trkpt>
      <trkpt lat="43.96707" lon="7.15724">
        <ele>474.00038005806</ele>
        <time>2012-04-10T14:04:52Z</time>
      </trkpt>
      <trkpt lat="43.96705" lon="7.15731">
        <ele>473.00027346075</ele>
        <time>2012-04-10T14:04:57Z</time>
      </trkpt>
      <trkpt lat="43.96704" lon="7.15737">
        <ele>477.00021359105</ele>
        <time>2012-04-10T14:05:02Z</time>
      </trkpt>
      <trkpt lat="43.96703" lon="7.15741">
        <ele>473.00005846727</ele>
        <time>2012-04-10T14:05:07Z</time>
      </trkpt>
      <trkpt lat="43.96703" lon="7.15746">
        <ele>475.00001928111</ele>
        <time>2012-04-10T14:05:12Z</time>
      </trkpt>
      <trkpt lat="43.96703" lon="7.15757">
        <ele>472.00001826746</ele>
        <time>2012-04-10T14:05:17Z</time>
      </trkpt>
      <trkpt lat="43.96702" lon="7.15767">
        <ele>471.00009663417</ele>
        <time>2012-04-10T14:05:22Z</time>
      </trkpt>
      <trkpt lat="43.967" lon="7.15774">
        <ele>472.00014740244</ele>
        <time>2012-04-10T14:05:27Z</time>
      </trkpt>
      <trkpt lat="43.96697" lon="7.15779">
        <ele>474.00007496492</ele>
        <time>2012-04-10T14:05:32Z</time>
      </trkpt>
      <trkpt lat="43.96696" lon="7.15784">
        <ele>479.00010030177</ele>
        <time>2012-04-10T14:05:37Z</time>
      </trkpt>
      <trkpt lat="43.96694" lon="7.15791">
        <ele>475.00005171387</ele>
        <time>2012-04-10T14:05:42Z</time>
      </trkpt>
      <trkpt lat="43.96692" lon="7.15795">
        <ele>476.00000182129</ele>
        <time>2012-04-10T14:05:47Z</time>
      </trkpt>
      <trkpt lat="43.96692" lon="7.15801">
        <ele>472.99988042348</ele>
        <time>2012-04-10T14:05:52Z</time>
      </trkpt>
      <trkpt lat="43.96693" lon="7.15807">
        <ele>467.99979394574</ele>
        <time>2012-04-10T14:05:57Z</time>
      </trkpt>
      <trkpt lat="43.96693" lon="7.15811">
        <ele>467.99994660911</ele>
        <time>2012-04-10T14:06:02Z</time>
      </trkpt>
      <trkpt lat="43.96693" lon="7.15813">
        <ele>468.00001927674</ele>
        <time>2012-04-10T14:06:07Z</time>
      </trkpt>
      <trkpt lat="43.9669" lon="7.15819">
        <ele>470.00001566196</ele>
        <time>2012-04-10T14:06:12Z</time>
      </trkpt>
      <trkpt lat="43.96688" lon="7.15822">
        <ele>470.99997623538</ele>
        <time>2012-04-10T14:06:17Z</time>
      </trkpt>
      <trkpt lat="43.96684" lon="7.15825">
        <ele>469.99982704372</ele>
        <time>2012-04-10T14:06:22Z</time>
      </trkpt>
      <trkpt lat="43.96683" lon="7.15826">
        <ele>468.99978280808</ele>
        <time>2012-04-10T14:06:27Z</time>
      </trkpt>
      <trkpt lat="43.96684" lon="7.15827">
        <ele>467.99984942975</ele>
        <time>2012-04-10T14:06:32Z</time>
      </trkpt>
      <trkpt lat="43.96685" lon="7.15831">
        <ele>464.99980459831</ele>
        <time>2012-04-10T14:06:37Z</time>
      </trkpt>
      <trkpt lat="43.96687" lon="7.15835">
        <ele>463.99973469265</ele>
        <time>2012-04-10T14:06:42Z</time>
      </trkpt>
      <trkpt lat="43.96687" lon="7.15839">
        <ele>464.99974510579</ele>
        <time>2012-04-10T14:06:47Z</time>
      </trkpt>
      <trkpt lat="43.96687" lon="7.15842">
        <ele>458.99979536061</ele>
        <time>2012-04-10T14:06:57Z</time>
      </trkpt>
      <trkpt lat="43.96688" lon="7.15844">
        <ele>448.99980842693</ele>
        <time>2012-04-10T14:07:02Z</time>
      </trkpt>
      <trkpt lat="43.96689" lon="7.15845">
        <ele>449.99982850274</ele>
        <time>2012-04-10T14:07:07Z</time>
      </trkpt>
      <trkpt lat="43.96689" lon="7.15847">
        <ele>455.99987409639</ele>
        <time>2012-04-10T14:07:12Z</time>
      </trkpt>
      <trkpt lat="43.9669" lon="7.15849">
        <ele>449.99986697885</ele>
        <time>2012-04-10T14:07:17Z</time>
      </trkpt>
      <trkpt lat="43.9669" lon="7.1585">
        <ele>461.99991472292</ele>
        <time>2012-04-10T14:07:22Z</time>
      </trkpt>
      <trkpt lat="43.9669" lon="7.15852">
        <ele>456.9998660649</ele>
        <time>2012-04-10T14:07:27Z</time>
      </trkpt>
      <trkpt lat="43.96692" lon="7.1585">
        <ele>456.99990391551</ele>
        <time>2012-04-10T14:07:32Z</time>
      </trkpt>
      <trkpt lat="43.96698" lon="7.15848">
        <ele>458.99980097757</ele>
        <time>2012-04-10T14:07:37Z</time>
      </trkpt>
      <trkpt lat="43.96703" lon="7.15846">
        <ele>449.00040138445</ele>
        <time>2012-04-10T14:07:42Z</time>
      </trkpt>
      <trkpt lat="43.96704" lon="7.15845">
        <ele>465.00053124655</ele>
        <time>2012-04-10T14:07:47Z</time>
      </trkpt>
      <trkpt lat="43.96706" lon="7.15847">
        <ele>465.00045413318</ele>
        <time>2012-04-10T14:07:52Z</time>
      </trkpt>
      <trkpt lat="43.96707" lon="7.1585">
        <ele>444.00029444231</ele>
        <time>2012-04-10T14:07:57Z</time>
      </trkpt>
      <trkpt lat="43.9671" lon="7.15852">
        <ele>453.00045020468</ele>
        <time>2012-04-10T14:08:02Z</time>
      </trkpt>
      <trkpt lat="43.96709" lon="7.15855">
        <ele>450.00031600167</ele>
        <time>2012-04-10T14:08:07Z</time>
      </trkpt>
      <trkpt lat="43.96711" lon="7.15863">
        <ele>454.00044999346</ele>
        <time>2012-04-10T14:08:12Z</time>
      </trkpt>
      <trkpt lat="43.96711" lon="7.15868">
        <ele>448.00063031599</ele>
        <time>2012-04-10T14:08:17Z</time>
      </trkpt>
      <trkpt lat="43.96712" lon="7.15873">
        <ele>447.0005530751</ele>
        <time>2012-04-10T14:08:22Z</time>
      </trkpt>
      <trkpt lat="43.96711" lon="7.15875">
        <ele>442.00047051541</ele>
        <time>2012-04-10T14:08:27Z</time>
      </trkpt>
      <trkpt lat="43.96713" lon="7.15879">
        <ele>459.00070424399</ele>
        <time>2012-04-10T14:08:32Z</time>
      </trkpt>
      <trkpt lat="43.96713" lon="7.15885">
        <ele>450.00063556916</ele>
        <time>2012-04-10T14:08:37Z</time>
      </trkpt>
      <trkpt lat="43.96711" lon="7.15896">
        <ele>460.00042910935</ele>
        <time>2012-04-10T14:08:42Z</time>
      </trkpt>
      <trkpt lat="43.9671" lon="7.15903">
        <ele>469.00043121243</ele>
        <time>2012-04-10T14:08:47Z</time>
      </trkpt>
      <trkpt lat="43.96709" lon="7.15905">
        <ele>466.00038822213</ele>
        <time>2012-04-10T14:08:52Z</time>
      </trkpt>
      <trkpt lat="43.96708" lon="7.1591">
        <ele>462.00045130652</ele>
        <time>2012-04-10T14:08:57Z</time>
      </trkpt>
      <trkpt lat="43.96707" lon="7.15916">
        <ele>458.00035351731</ele>
        <time>2012-04-10T14:09:02Z</time>
      </trkpt>
      <trkpt lat="43.96706" lon="7.15922">
        <ele>450.00036719519</ele>
        <time>2012-04-10T14:09:07Z</time>
      </trkpt>
      <trkpt lat="43.96706" lon="7.15924">
        <ele>451.00038735656</ele>
        <time>2012-04-10T14:09:12Z</time>
      </trkpt>
      <trkpt lat="43.96706" lon="7.15925">
        <ele>454.00036926665</ele>
        <time>2012-04-10T14:09:17Z</time>
      </trkpt>
      <trkpt lat="43.96705" lon="7.15924">
        <ele>450.00028758825</ele>
        <time>2012-04-10T14:09:27Z</time>
      </trkpt>
      <trkpt lat="43.96705" lon="7.15925">
        <ele>450.00036357378</ele>
        <time>2012-04-10T14:09:32Z</time>
      </trkpt>
      <trkpt lat="43.96705" lon="7.15927">
        <ele>456.00044029437</ele>
        <time>2012-04-10T14:09:37Z</time>
      </trkpt>
      <trkpt lat="43.96705" lon="7.15923">
        <ele>453.00029002196</ele>
        <time>2012-04-10T14:09:42Z</time>
      </trkpt>
      <trkpt lat="43.96705" lon="7.15923">
        <ele>445.00030389965</ele>
        <time>2012-04-10T14:09:47Z</time>
      </trkpt>
      <trkpt lat="43.96705" lon="7.15924">
        <ele>444.0003682623</ele>
        <time>2012-04-10T14:09:52Z</time>
      </trkpt>
      <trkpt lat="43.96705" lon="7.15926">
        <ele>449.00044321317</ele>
        <time>2012-04-10T14:09:57Z</time>
      </trkpt>
      <trkpt lat="43.96705" lon="7.15927">
        <ele>462.00057441185</ele>
        <time>2012-04-10T14:10:02Z</time>
      </trkpt>
      <trkpt lat="43.96705" lon="7.15927">
        <ele>454.00048843897</ele>
        <time>2012-04-10T14:10:07Z</time>
      </trkpt>
      <trkpt lat="43.96704" lon="7.15927">
        <ele>444.00053194935</ele>
        <time>2012-04-10T14:10:12Z</time>
      </trkpt>
      <trkpt lat="43.96704" lon="7.15927">
        <ele>453.0005121522</ele>
        <time>2012-04-10T14:10:17Z</time>
      </trkpt>
      <trkpt lat="43.96703" lon="7.15927">
        <ele>450.00037734854</ele>
        <time>2012-04-10T14:10:22Z</time>
      </trkpt>
      <trkpt lat="43.96703" lon="7.1593">
        <ele>452.00044065372</ele>
        <time>2012-04-10T14:10:27Z</time>
      </trkpt>
      <trkpt lat="43.96702" lon="7.15932">
        <ele>452.00041850453</ele>
        <time>2012-04-10T14:10:32Z</time>
      </trkpt>
      <trkpt lat="43.96701" lon="7.15937">
        <ele>445.00086853302</ele>
        <time>2012-04-10T14:10:37Z</time>
      </trkpt>
      <trkpt lat="43.96697" lon="7.1594">
        <ele>453.00065559479</ele>
        <time>2012-04-10T14:10:42Z</time>
      </trkpt>
      <trkpt lat="43.96696" lon="7.15941">
        <ele>449.00052556717</ele>
        <time>2012-04-10T14:10:47Z</time>
      </trkpt>
      <trkpt lat="43.96695" lon="7.15943">
        <ele>455.00054041503</ele>
        <time>2012-04-10T14:10:52Z</time>
      </trkpt>
      <trkpt lat="43.96694" lon="7.15943">
        <ele>460.00043878872</ele>
        <time>2012-04-10T14:10:57Z</time>
      </trkpt>
      <trkpt lat="43.96694" lon="7.15944">
        <ele>465.00042913032</ele>
        <time>2012-04-10T14:11:02Z</time>
      </trkpt>
      <trkpt lat="43.96694" lon="7.15945">
        <ele>461.00048294571</ele>
        <time>2012-04-10T14:11:07Z</time>
      </trkpt>
      <trkpt lat="43.96695" lon="7.15948">
        <ele>453.00061791308</ele>
        <time>2012-04-10T14:11:12Z</time>
      </trkpt>
      <trkpt lat="43.96694" lon="7.15944">
        <ele>452.00044964605</ele>
        <time>2012-04-10T14:11:17Z</time>
      </trkpt>
      <trkpt lat="43.96695" lon="7.15947">
        <ele>449.00055789912</ele>
        <time>2012-04-10T14:11:22Z</time>
      </trkpt>
      <trkpt lat="43.96694" lon="7.15945">
        <ele>462.00047380342</ele>
        <time>2012-04-10T14:11:27Z</time>
      </trkpt>
      <trkpt lat="43.96694" lon="7.15944">
        <ele>464.00043773549</ele>
        <time>2012-04-10T14:11:32Z</time>
      </trkpt>
      <trkpt lat="43.96693" lon="7.15944">
        <ele>463.0003663729</ele>
        <time>2012-04-10T14:11:37Z</time>
      </trkpt>
      <trkpt lat="43.96692" lon="7.15949">
        <ele>461.00044626434</ele>
        <time>2012-04-10T14:11:42Z</time>
      </trkpt>
      <trkpt lat="43.9669" lon="7.15948">
        <ele>457.0002824949</ele>
        <time>2012-04-10T14:11:47Z</time>
      </trkpt>
      <trkpt lat="43.96691" lon="7.15951">
        <ele>462.00040724993</ele>
        <time>2012-04-10T14:11:52Z</time>
      </trkpt>
      <trkpt lat="43.96691" lon="7.15953">
        <ele>451.00050436959</ele>
        <time>2012-04-10T14:11:57Z</time>
      </trkpt>
      <trkpt lat="43.9669" lon="7.15955">
        <ele>460.00043921527</ele>
        <time>2012-04-10T14:12:02Z</time>
      </trkpt>
      <trkpt lat="43.96688" lon="7.15955">
        <ele>466.00027496324</ele>
        <time>2012-04-10T14:12:07Z</time>
      </trkpt>
      <trkpt lat="43.96689" lon="7.15959">
        <ele>441.00043639272</ele>
        <time>2012-04-10T14:12:12Z</time>
      </trkpt>
      <trkpt lat="43.96689" lon="7.15961">
        <ele>456.00046884182</ele>
        <time>2012-04-10T14:12:17Z</time>
      </trkpt>
      <trkpt lat="43.96688" lon="7.15968">
        <ele>449.00027658151</ele>
        <time>2012-04-10T14:12:22Z</time>
      </trkpt>
      <trkpt lat="43.96687" lon="7.15973">
        <ele>448.00042553841</ele>
        <time>2012-04-10T14:12:27Z</time>
      </trkpt>
      <trkpt lat="43.96688" lon="7.15977">
        <ele>441.00054538586</ele>
        <time>2012-04-10T14:12:32Z</time>
      </trkpt>
      <trkpt lat="43.96686" lon="7.1598">
        <ele>450.00054931129</ele>
        <time>2012-04-10T14:12:37Z</time>
      </trkpt>
      <trkpt lat="43.96685" lon="7.15982">
        <ele>453.00050749325</ele>
        <time>2012-04-10T14:12:42Z</time>
      </trkpt>
      <trkpt lat="43.96684" lon="7.15982">
        <ele>453.00046147736</ele>
        <time>2012-04-10T14:12:47Z</time>
      </trkpt>
      <trkpt lat="43.96681" lon="7.15988">
        <ele>454.00056461043</ele>
        <time>2012-04-10T14:12:52Z</time>
      </trkpt>
      <trkpt lat="43.96677" lon="7.16002">
        <ele>453.00053435466</ele>
        <time>2012-04-10T14:12:57Z</time>
      </trkpt>
      <trkpt lat="43.96674" lon="7.16007">
        <ele>451.00042922499</ele>
        <time>2012-04-10T14:13:02Z</time>
      </trkpt>
      <trkpt lat="43.96674" lon="7.16011">
        <ele>449.00051502712</ele>
        <time>2012-04-10T14:13:07Z</time>
      </trkpt>
      <trkpt lat="43.96673" lon="7.16009">
        <ele>444.00024403083</ele>
        <time>2012-04-10T14:13:12Z</time>
      </trkpt>
      <trkpt lat="43.96673" lon="7.16014">
        <ele>442.00037437959</ele>
        <time>2012-04-10T14:13:17Z</time>
      </trkpt>
      <trkpt lat="43.96672" lon="7.16016">
        <ele>437.00031988388</ele>
        <time>2012-04-10T14:13:22Z</time>
      </trkpt>
      <trkpt lat="43.96671" lon="7.16019">
        <ele>436.00031704458</ele>
        <time>2012-04-10T14:13:27Z</time>
      </trkpt>
      <trkpt lat="43.96669" lon="7.16021">
        <ele>437.00045641588</ele>
        <time>2012-04-10T14:13:32Z</time>
      </trkpt>
      <trkpt lat="43.96665" lon="7.16029">
        <ele>446.00079432419</ele>
        <time>2012-04-10T14:13:37Z</time>
      </trkpt>
      <trkpt lat="43.9666" lon="7.16038">
        <ele>447.00056420245</ele>
        <time>2012-04-10T14:13:42Z</time>
      </trkpt>
      <trkpt lat="43.96657" lon="7.16042">
        <ele>443.00037541211</ele>
        <time>2012-04-10T14:13:47Z</time>
      </trkpt>
      <trkpt lat="43.96652" lon="7.16046">
        <ele>440.00018487304</ele>
        <time>2012-04-10T14:13:52Z</time>
      </trkpt>
      <trkpt lat="43.96651" lon="7.16052">
        <ele>435.0003388349</ele>
        <time>2012-04-10T14:13:57Z</time>
      </trkpt>
      <trkpt lat="43.9665" lon="7.16054">
        <ele>437.00033835047</ele>
        <time>2012-04-10T14:14:02Z</time>
      </trkpt>
      <trkpt lat="43.96646" lon="7.16049">
        <ele>427.9998180558</ele>
        <time>2012-04-10T14:14:07Z</time>
      </trkpt>
      <trkpt lat="43.96643" lon="7.16055">
        <ele>428.99986527257</ele>
        <time>2012-04-10T14:14:12Z</time>
      </trkpt>
      <trkpt lat="43.96636" lon="7.16061">
        <ele>432.00052853849</ele>
        <time>2012-04-10T14:14:17Z</time>
      </trkpt>
      <trkpt lat="43.96629" lon="7.16066">
        <ele>428.00004850815</ele>
        <time>2012-04-10T14:14:22Z</time>
      </trkpt>
      <trkpt lat="43.96625" lon="7.16073">
        <ele>435.99985535904</ele>
        <time>2012-04-10T14:14:27Z</time>
      </trkpt>
      <trkpt lat="43.96625" lon="7.16072">
        <ele>428.99977569576</ele>
        <time>2012-04-10T14:14:32Z</time>
      </trkpt>
      <trkpt lat="43.96625" lon="7.16069">
        <ele>427.99961656038</ele>
        <time>2012-04-10T14:14:37Z</time>
      </trkpt>
      <trkpt lat="43.96627" lon="7.16066">
        <ele>426.9994700033</ele>
        <time>2012-04-10T14:14:42Z</time>
      </trkpt>
      <trkpt lat="43.96632" lon="7.16066">
        <ele>426.9999524785</ele>
        <time>2012-04-10T14:14:47Z</time>
      </trkpt>
      <trkpt lat="43.96634" lon="7.16062">
        <ele>431.99989197013</ele>
        <time>2012-04-10T14:14:52Z</time>
      </trkpt>
      <trkpt lat="43.96636" lon="7.16059">
        <ele>428.9999621456</ele>
        <time>2012-04-10T14:14:57Z</time>
      </trkpt>
      <trkpt lat="43.96634" lon="7.16058">
        <ele>442.99977730561</ele>
        <time>2012-04-10T14:15:02Z</time>
      </trkpt>
      <trkpt lat="43.96633" lon="7.16058">
        <ele>437.99969524836</ele>
        <time>2012-04-10T14:15:07Z</time>
      </trkpt>
      <trkpt lat="43.96631" lon="7.16057">
        <ele>431.99963404597</ele>
        <time>2012-04-10T14:15:12Z</time>
      </trkpt>
      <trkpt lat="43.9663" lon="7.16057">
        <ele>436.99966237722</ele>
        <time>2012-04-10T14:15:17Z</time>
      </trkpt>
      <trkpt lat="43.96629" lon="7.16057">
        <ele>440.99950389504</ele>
        <time>2012-04-10T14:15:22Z</time>
      </trkpt>
      <trkpt lat="43.96629" lon="7.16056">
        <ele>430.99950268944</ele>
        <time>2012-04-10T14:15:27Z</time>
      </trkpt>
      <trkpt lat="43.96628" lon="7.16053">
        <ele>429.99986778427</ele>
        <time>2012-04-10T14:15:32Z</time>
      </trkpt>
      <trkpt lat="43.96627" lon="7.16048">
        <ele>421.99958413192</ele>
        <time>2012-04-10T14:15:37Z</time>
      </trkpt>
      <trkpt lat="43.96627" lon="7.16046">
        <ele>429.99950134318</ele>
        <time>2012-04-10T14:15:42Z</time>
      </trkpt>
      <trkpt lat="43.96627" lon="7.16044">
        <ele>432.99946752759</ele>
        <time>2012-04-10T14:15:47Z</time>
      </trkpt>
      <trkpt lat="43.96627" lon="7.16044">
        <ele>434.99946091726</ele>
        <time>2012-04-10T14:15:52Z</time>
      </trkpt>
      <trkpt lat="43.96627" lon="7.16043">
        <ele>433.99955490108</ele>
        <time>2012-04-10T14:15:57Z</time>
      </trkpt>
      <trkpt lat="43.96626" lon="7.16042">
        <ele>442.99959428015</ele>
        <time>2012-04-10T14:16:02Z</time>
      </trkpt>
      <trkpt lat="43.96625" lon="7.16038">
        <ele>439.99977805732</ele>
        <time>2012-04-10T14:16:07Z</time>
      </trkpt>
      <trkpt lat="43.96624" lon="7.16035">
        <ele>451.99965080928</ele>
        <time>2012-04-10T14:16:12Z</time>
      </trkpt>
      <trkpt lat="43.96623" lon="7.16033">
        <ele>438.99965599802</ele>
        <time>2012-04-10T14:16:17Z</time>
      </trkpt>
      <trkpt lat="43.96625" lon="7.16031">
        <ele>438.99999832229</ele>
        <time>2012-04-10T14:16:22Z</time>
      </trkpt>
      <trkpt lat="43.96623" lon="7.16029">
        <ele>433.99981222732</ele>
        <time>2012-04-10T14:16:27Z</time>
      </trkpt>
      <trkpt lat="43.96621" lon="7.16024">
        <ele>438.00019644877</ele>
        <time>2012-04-10T14:16:32Z</time>
      </trkpt>
      <trkpt lat="43.96619" lon="7.16017">
        <ele>436.00005658336</ele>
        <time>2012-04-10T14:16:37Z</time>
      </trkpt>
      <trkpt lat="43.96618" lon="7.16012">
        <ele>449.99999377424</ele>
        <time>2012-04-10T14:16:42Z</time>
      </trkpt>
      <trkpt lat="43.96615" lon="7.16007">
        <ele>448.00025861659</ele>
        <time>2012-04-10T14:16:47Z</time>
      </trkpt>
      <trkpt lat="43.9661" lon="7.16007">
        <ele>451.99985403783</ele>
        <time>2012-04-10T14:16:52Z</time>
      </trkpt>
      <trkpt lat="43.9661" lon="7.16005">
        <ele>456.99979753158</ele>
        <time>2012-04-10T14:16:57Z</time>
      </trkpt>
      <trkpt lat="43.96607" lon="7.16005">
        <ele>450.99967727195</ele>
        <time>2012-04-10T14:17:02Z</time>
      </trkpt>
      <trkpt lat="43.96606" lon="7.16004">
        <ele>447.99957325199</ele>
        <time>2012-04-10T14:17:07Z</time>
      </trkpt>
      <trkpt lat="43.96609" lon="7.16002">
        <ele>458.99973755287</ele>
        <time>2012-04-10T14:17:12Z</time>
      </trkpt>
      <trkpt lat="43.96607" lon="7.16">
        <ele>464.99972288541</ele>
        <time>2012-04-10T14:17:17Z</time>
      </trkpt>
      <trkpt lat="43.96604" lon="7.15992">
        <ele>456.00026904693</ele>
        <time>2012-04-10T14:17:22Z</time>
      </trkpt>
      <trkpt lat="43.96599" lon="7.15985">
        <ele>459.00047741416</ele>
        <time>2012-04-10T14:17:27Z</time>
      </trkpt>
      <trkpt lat="43.96594" lon="7.15982">
        <ele>457.00028854014</ele>
        <time>2012-04-10T14:17:32Z</time>
      </trkpt>
      <trkpt lat="43.9659" lon="7.1598">
        <ele>458.00010342001</ele>
        <time>2012-04-10T14:17:37Z</time>
      </trkpt>
      <trkpt lat="43.96587" lon="7.15977">
        <ele>463.99979399642</ele>
        <time>2012-04-10T14:17:42Z</time>
      </trkpt>
      <trkpt lat="43.96586" lon="7.15975">
        <ele>469.99986863992</ele>
        <time>2012-04-10T14:17:47Z</time>
      </trkpt>
      <trkpt lat="43.96586" lon="7.15977">
        <ele>457.99999554095</ele>
        <time>2012-04-10T14:17:52Z</time>
      </trkpt>
      <trkpt lat="43.96584" lon="7.15971">
        <ele>449.00009757845</ele>
        <time>2012-04-10T14:17:57Z</time>
      </trkpt>
      <trkpt lat="43.9658" lon="7.15969">
        <ele>456.00014443304</ele>
        <time>2012-04-10T14:18:02Z</time>
      </trkpt>
      <trkpt lat="43.96576" lon="7.15965">
        <ele>456.99994870763</ele>
        <time>2012-04-10T14:18:07Z</time>
      </trkpt>
      <trkpt lat="43.96574" lon="7.15962">
        <ele>459.99992828507</ele>
        <time>2012-04-10T14:18:12Z</time>
      </trkpt>
      <trkpt lat="43.96572" lon="7.15959">
        <ele>456.9998203139</ele>
        <time>2012-04-10T14:18:17Z</time>
      </trkpt>
      <trkpt lat="43.96571" lon="7.15956">
        <ele>451.99970733041</ele>
        <time>2012-04-10T14:18:22Z</time>
      </trkpt>
      <trkpt lat="43.96569" lon="7.15957">
        <ele>457.99970328632</ele>
        <time>2012-04-10T14:18:27Z</time>
      </trkpt>
      <trkpt lat="43.96569" lon="7.15957">
        <ele>457.99985299847</ele>
        <time>2012-04-10T14:18:32Z</time>
      </trkpt>
      <trkpt lat="43.9657" lon="7.1596">
        <ele>452.00010321708</ele>
        <time>2012-04-10T14:18:37Z</time>
      </trkpt>
      <trkpt lat="43.9657" lon="7.1596">
        <ele>464.00023594549</ele>
        <time>2012-04-10T14:18:42Z</time>
      </trkpt>
      <trkpt lat="43.96571" lon="7.15957">
        <ele>460.9998192177</ele>
        <time>2012-04-10T14:20:27Z</time>
      </trkpt>
      <trkpt lat="43.96573" lon="7.15955">
        <ele>453.99995635502</ele>
        <time>2012-04-10T14:20:32Z</time>
      </trkpt>
      <trkpt lat="43.96573" lon="7.15955">
        <ele>462.99999454223</ele>
        <time>2012-04-10T14:20:57Z</time>
      </trkpt>
      <trkpt lat="43.96573" lon="7.15956">
        <ele>464.00022510262</ele>
        <time>2012-04-10T14:21:32Z</time>
      </trkpt>
      <trkpt lat="43.9657" lon="7.15952">
        <ele>466.00029068088</ele>
        <time>2012-04-10T14:21:37Z</time>
      </trkpt>
      <trkpt lat="43.96565" lon="7.15945">
        <ele>463.00039990766</ele>
        <time>2012-04-10T14:21:42Z</time>
      </trkpt>
      <trkpt lat="43.9656" lon="7.15939">
        <ele>462.00023701029</ele>
        <time>2012-04-10T14:21:47Z</time>
      </trkpt>
      <trkpt lat="43.96553" lon="7.15935">
        <ele>472.99996217527</ele>
        <time>2012-04-10T14:21:52Z</time>
      </trkpt>
      <trkpt lat="43.96549" lon="7.15934">
        <ele>468.99985586828</ele>
        <time>2012-04-10T14:21:57Z</time>
      </trkpt>
      <trkpt lat="43.96546" lon="7.1593">
        <ele>472.99987991517</ele>
        <time>2012-04-10T14:22:02Z</time>
      </trkpt>
      <trkpt lat="43.96543" lon="7.15929">
        <ele>469.9998957416</ele>
        <time>2012-04-10T14:22:07Z</time>
      </trkpt>
      <trkpt lat="43.96539" lon="7.15927">
        <ele>468.99985854901</ele>
        <time>2012-04-10T14:22:12Z</time>
      </trkpt>
      <trkpt lat="43.96536" lon="7.15923">
        <ele>455.99982103021</ele>
        <time>2012-04-10T14:22:17Z</time>
      </trkpt>
      <trkpt lat="43.96535" lon="7.15924">
        <ele>467.99980297071</ele>
        <time>2012-04-10T14:22:22Z</time>
      </trkpt>
      <trkpt lat="43.96536" lon="7.15927">
        <ele>448.99995917709</ele>
        <time>2012-04-10T14:22:27Z</time>
      </trkpt>
      <trkpt lat="43.96536" lon="7.15927">
        <ele>451.00001160876</ele>
        <time>2012-04-10T14:22:32Z</time>
      </trkpt>
      <trkpt lat="43.96536" lon="7.15925">
        <ele>470.00008689962</ele>
        <time>2012-04-10T14:22:42Z</time>
      </trkpt>
      <trkpt lat="43.96532" lon="7.1592">
        <ele>467.00005206545</ele>
        <time>2012-04-10T14:22:47Z</time>
      </trkpt>
      <trkpt lat="43.96528" lon="7.15913">
        <ele>461.99992905049</ele>
        <time>2012-04-10T14:22:52Z</time>
      </trkpt>
      <trkpt lat="43.96525" lon="7.15908">
        <ele>464.99991906542</ele>
        <time>2012-04-10T14:22:57Z</time>
      </trkpt>
      <trkpt lat="43.96524" lon="7.15903">
        <ele>460.99990668305</ele>
        <time>2012-04-10T14:23:02Z</time>
      </trkpt>
      <trkpt lat="43.96526" lon="7.15898">
        <ele>466.00005800061</ele>
        <time>2012-04-10T14:23:07Z</time>
      </trkpt>
      <trkpt lat="43.96526" lon="7.15892">
        <ele>460.00016401467</ele>
        <time>2012-04-10T14:23:12Z</time>
      </trkpt>
      <trkpt lat="43.96524" lon="7.15883">
        <ele>457.00016255254</ele>
        <time>2012-04-10T14:23:17Z</time>
      </trkpt>
      <trkpt lat="43.96521" lon="7.15876">
        <ele>464.0000728037</ele>
        <time>2012-04-10T14:23:22Z</time>
      </trkpt>
      <trkpt lat="43.96521" lon="7.15871">
        <ele>460.99999890591</ele>
        <time>2012-04-10T14:23:27Z</time>
      </trkpt>
      <trkpt lat="43.96522" lon="7.15865">
        <ele>456.00001316938</ele>
        <time>2012-04-10T14:23:32Z</time>
      </trkpt>
      <trkpt lat="43.96521" lon="7.1586">
        <ele>451.00004588078</ele>
        <time>2012-04-10T14:23:37Z</time>
      </trkpt>
      <trkpt lat="43.96518" lon="7.15856">
        <ele>445.99992872384</ele>
        <time>2012-04-10T14:23:42Z</time>
      </trkpt>
      <trkpt lat="43.96515" lon="7.15851">
        <ele>452.99992729139</ele>
        <time>2012-04-10T14:23:47Z</time>
      </trkpt>
      <trkpt lat="43.96514" lon="7.15846">
        <ele>444.0000109052</ele>
        <time>2012-04-10T14:23:52Z</time>
      </trkpt>
      <trkpt lat="43.96513" lon="7.15839">
        <ele>440.00012594167</ele>
        <time>2012-04-10T14:23:57Z</time>
      </trkpt>
      <trkpt lat="43.96512" lon="7.15831">
        <ele>449.00038740412</ele>
        <time>2012-04-10T14:24:02Z</time>
      </trkpt>
      <trkpt lat="43.9651" lon="7.15817">
        <ele>455.00040966151</ele>
        <time>2012-04-10T14:24:07Z</time>
      </trkpt>
      <trkpt lat="43.96504" lon="7.15806">
        <ele>458.0002766421</ele>
        <time>2012-04-10T14:24:12Z</time>
      </trkpt>
      <trkpt lat="43.96499" lon="7.15798">
        <ele>465.00017973699</ele>
        <time>2012-04-10T14:24:17Z</time>
      </trkpt>
      <trkpt lat="43.96494" lon="7.15791">
        <ele>466.00008321662</ele>
        <time>2012-04-10T14:24:22Z</time>
      </trkpt>
      <trkpt lat="43.96495" lon="7.15783">
        <ele>464.00006056757</ele>
        <time>2012-04-10T14:24:27Z</time>
      </trkpt>
      <trkpt lat="43.96493" lon="7.15773">
        <ele>464.0000853528</ele>
        <time>2012-04-10T14:24:32Z</time>
      </trkpt>
      <trkpt lat="43.96488" lon="7.15766">
        <ele>470.00008606386</ele>
        <time>2012-04-10T14:24:37Z</time>
      </trkpt>
      <trkpt lat="43.96483" lon="7.1576">
        <ele>471.00007848681</ele>
        <time>2012-04-10T14:24:42Z</time>
      </trkpt>
      <trkpt lat="43.96478" lon="7.15756">
        <ele>473.99995804617</ele>
        <time>2012-04-10T14:24:47Z</time>
      </trkpt>
      <trkpt lat="43.96476" lon="7.15755">
        <ele>470.99991330536</ele>
        <time>2012-04-10T14:24:52Z</time>
      </trkpt>
      <trkpt lat="43.96472" lon="7.15751">
        <ele>460.99986417492</ele>
        <time>2012-04-10T14:24:57Z</time>
      </trkpt>
      <trkpt lat="43.96469" lon="7.15747">
        <ele>464.9998157431</ele>
        <time>2012-04-10T14:25:02Z</time>
      </trkpt>
      <trkpt lat="43.96467" lon="7.15745">
        <ele>465.99992380364</ele>
        <time>2012-04-10T14:25:07Z</time>
      </trkpt>
      <trkpt lat="43.96463" lon="7.1574">
        <ele>460.99999747705</ele>
        <time>2012-04-10T14:25:12Z</time>
      </trkpt>
      <trkpt lat="43.96459" lon="7.15734">
        <ele>461.99997694682</ele>
        <time>2012-04-10T14:25:17Z</time>
      </trkpt>
      <trkpt lat="43.96455" lon="7.15729">
        <ele>459.99999033496</ele>
        <time>2012-04-10T14:25:22Z</time>
      </trkpt>
      <trkpt lat="43.9645" lon="7.15724">
        <ele>458.00000354032</ele>
        <time>2012-04-10T14:25:27Z</time>
      </trkpt>
      <trkpt lat="43.96445" lon="7.15719">
        <ele>462.99997239802</ele>
        <time>2012-04-10T14:25:32Z</time>
      </trkpt>
      <trkpt lat="43.96441" lon="7.15714">
        <ele>456.9999686384</ele>
        <time>2012-04-10T14:25:37Z</time>
      </trkpt>
      <trkpt lat="43.96436" lon="7.15711">
        <ele>457.99996318779</ele>
        <time>2012-04-10T14:25:42Z</time>
      </trkpt>
      <trkpt lat="43.96432" lon="7.15712">
        <ele>461.99994174487</ele>
        <time>2012-04-10T14:25:47Z</time>
      </trkpt>
      <trkpt lat="43.96431" lon="7.15713">
        <ele>461.99997707357</ele>
        <time>2012-04-10T14:25:52Z</time>
      </trkpt>
      <trkpt lat="43.96432" lon="7.15715">
        <ele>460.99995707986</ele>
        <time>2012-04-10T14:25:57Z</time>
      </trkpt>
      <trkpt lat="43.96433" lon="7.15717">
        <ele>458.00007287509</ele>
        <time>2012-04-10T14:26:02Z</time>
      </trkpt>
      <trkpt lat="43.96433" lon="7.15715">
        <ele>456.0000158739</ele>
        <time>2012-04-10T14:26:07Z</time>
      </trkpt>
      <trkpt lat="43.96431" lon="7.15714">
        <ele>454.99994744798</ele>
        <time>2012-04-10T14:26:17Z</time>
      </trkpt>
      <trkpt lat="43.96429" lon="7.15714">
        <ele>459.99983690861</ele>
        <time>2012-04-10T14:26:22Z</time>
      </trkpt>
      <trkpt lat="43.96428" lon="7.15715">
        <ele>463.99978015189</ele>
        <time>2012-04-10T14:26:27Z</time>
      </trkpt>
      <trkpt lat="43.9643" lon="7.15715">
        <ele>460.99983042039</ele>
        <time>2012-04-10T14:26:32Z</time>
      </trkpt>
      <trkpt lat="43.96432" lon="7.15716">
        <ele>463.99992542719</ele>
        <time>2012-04-10T14:26:37Z</time>
      </trkpt>
      <trkpt lat="43.96433" lon="7.15716">
        <ele>465.99997105374</ele>
        <time>2012-04-10T14:26:42Z</time>
      </trkpt>
      <trkpt lat="43.96431" lon="7.15715">
        <ele>465.0001095885</ele>
        <time>2012-04-10T14:26:47Z</time>
      </trkpt>
      <trkpt lat="43.96431" lon="7.15715">
        <ele>470.00021299566</ele>
        <time>2012-04-10T14:26:52Z</time>
      </trkpt>
      <trkpt lat="43.9643" lon="7.15714">
        <ele>477.00028177629</ele>
        <time>2012-04-10T14:26:57Z</time>
      </trkpt>
      <trkpt lat="43.96429" lon="7.15716">
        <ele>460.99992689389</ele>
        <time>2012-04-10T14:27:42Z</time>
      </trkpt>
      <trkpt lat="43.96429" lon="7.15716">
        <ele>465.99996244332</ele>
        <time>2012-04-10T14:27:52Z</time>
      </trkpt>
      <trkpt lat="43.96428" lon="7.15717">
        <ele>467.99994392621</ele>
        <time>2012-04-10T14:27:57Z</time>
      </trkpt>
      <trkpt lat="43.96429" lon="7.15716">
        <ele>472.99989251383</ele>
        <time>2012-04-10T14:28:02Z</time>
      </trkpt>
      <trkpt lat="43.96427" lon="7.15714">
        <ele>477.00040732971</ele>
        <time>2012-04-10T14:28:42Z</time>
      </trkpt>
      <trkpt lat="43.96422" lon="7.15707">
        <ele>477.00000443309</ele>
        <time>2012-04-10T14:28:57Z</time>
      </trkpt>
      <trkpt lat="43.96419" lon="7.15707">
        <ele>467.99980766857</ele>
        <time>2012-04-10T14:29:02Z</time>
      </trkpt>
      <trkpt lat="43.96418" lon="7.15713">
        <ele>464.9999220921</ele>
        <time>2012-04-10T14:29:07Z</time>
      </trkpt>
      <trkpt lat="43.96414" lon="7.15718">
        <ele>464.99995787372</ele>
        <time>2012-04-10T14:29:12Z</time>
      </trkpt>
      <trkpt lat="43.9641" lon="7.15722">
        <ele>465.99996820966</ele>
        <time>2012-04-10T14:29:17Z</time>
      </trkpt>
      <trkpt lat="43.96407" lon="7.15728">
        <ele>463.99994133445</ele>
        <time>2012-04-10T14:29:22Z</time>
      </trkpt>
      <trkpt lat="43.96405" lon="7.15735">
        <ele>462.99996613695</ele>
        <time>2012-04-10T14:29:27Z</time>
      </trkpt>
      <trkpt lat="43.96402" lon="7.15741">
        <ele>461.99999199973</ele>
        <time>2012-04-10T14:29:32Z</time>
      </trkpt>
      <trkpt lat="43.96398" lon="7.15746">
        <ele>458.99999360249</ele>
        <time>2012-04-10T14:29:37Z</time>
      </trkpt>
      <trkpt lat="43.96396" lon="7.15752">
        <ele>458.99999056508</ele>
        <time>2012-04-10T14:29:42Z</time>
      </trkpt>
      <trkpt lat="43.96393" lon="7.15757">
        <ele>457.99998931271</ele>
        <time>2012-04-10T14:29:47Z</time>
      </trkpt>
      <trkpt lat="43.9639" lon="7.15763">
        <ele>457.99999143974</ele>
        <time>2012-04-10T14:29:52Z</time>
      </trkpt>
      <trkpt lat="43.96387" lon="7.15767">
        <ele>458.99999582462</ele>
        <time>2012-04-10T14:29:57Z</time>
      </trkpt>
      <trkpt lat="43.96383" lon="7.15772">
        <ele>458.99999441455</ele>
        <time>2012-04-10T14:30:02Z</time>
      </trkpt>
      <trkpt lat="43.96379" lon="7.15776">
        <ele>465.99996481563</ele>
        <time>2012-04-10T14:30:07Z</time>
      </trkpt>
      <trkpt lat="43.96376" lon="7.15781">
        <ele>464.99996401017</ele>
        <time>2012-04-10T14:30:12Z</time>
      </trkpt>
      <trkpt lat="43.96372" lon="7.15786">
        <ele>461.9999910475</ele>
        <time>2012-04-10T14:30:17Z</time>
      </trkpt>
      <trkpt lat="43.96368" lon="7.15791">
        <ele>459.99999305212</ele>
        <time>2012-04-10T14:30:22Z</time>
      </trkpt>
      <trkpt lat="43.96364" lon="7.15797">
        <ele>460.99999368615</ele>
        <time>2012-04-10T14:30:27Z</time>
      </trkpt>
      <trkpt lat="43.9636" lon="7.15802">
        <ele>459.00000363975</ele>
        <time>2012-04-10T14:30:32Z</time>
      </trkpt>
      <trkpt lat="43.96356" lon="7.15808">
        <ele>456.99999266015</ele>
        <time>2012-04-10T14:30:37Z</time>
      </trkpt>
      <trkpt lat="43.96352" lon="7.15816">
        <ele>455.99997150063</ele>
        <time>2012-04-10T14:30:42Z</time>
      </trkpt>
      <trkpt lat="43.96349" lon="7.15823">
        <ele>454.99998379518</ele>
        <time>2012-04-10T14:30:47Z</time>
      </trkpt>
      <trkpt lat="43.96345" lon="7.15829">
        <ele>453.99999198977</ele>
        <time>2012-04-10T14:30:52Z</time>
      </trkpt>
      <trkpt lat="43.96341" lon="7.15835">
        <ele>449.99999302505</ele>
        <time>2012-04-10T14:30:57Z</time>
      </trkpt>
      <trkpt lat="43.96337" lon="7.1584">
        <ele>451.99997865026</ele>
        <time>2012-04-10T14:31:02Z</time>
      </trkpt>
      <trkpt lat="43.96332" lon="7.15845">
        <ele>450.99997142881</ele>
        <time>2012-04-10T14:31:07Z</time>
      </trkpt>
      <trkpt lat="43.96327" lon="7.1585">
        <ele>449.99999008311</ele>
        <time>2012-04-10T14:31:12Z</time>
      </trkpt>
      <trkpt lat="43.96322" lon="7.15855">
        <ele>449.99998845782</ele>
        <time>2012-04-10T14:31:17Z</time>
      </trkpt>
      <trkpt lat="43.96318" lon="7.15859">
        <ele>447.99998419208</ele>
        <time>2012-04-10T14:31:22Z</time>
      </trkpt>
      <trkpt lat="43.96314" lon="7.15863">
        <ele>450.99997881263</ele>
        <time>2012-04-10T14:31:27Z</time>
      </trkpt>
      <trkpt lat="43.9631" lon="7.15866">
        <ele>448.99999694479</ele>
        <time>2012-04-10T14:31:32Z</time>
      </trkpt>
      <trkpt lat="43.96305" lon="7.15869">
        <ele>449.99998040494</ele>
        <time>2012-04-10T14:31:37Z</time>
      </trkpt>
      <trkpt lat="43.96301" lon="7.15873">
        <ele>445.9999902077</ele>
        <time>2012-04-10T14:31:42Z</time>
      </trkpt>
      <trkpt lat="43.96297" lon="7.15877">
        <ele>443.99998075826</ele>
        <time>2012-04-10T14:31:47Z</time>
      </trkpt>
      <trkpt lat="43.96293" lon="7.15882">
        <ele>443.00000547777</ele>
        <time>2012-04-10T14:31:52Z</time>
      </trkpt>
      <trkpt lat="43.96288" lon="7.15884">
        <ele>446.00000373662</ele>
        <time>2012-04-10T14:31:57Z</time>
      </trkpt>
      <trkpt lat="43.96284" lon="7.15887">
        <ele>442.99997513189</ele>
        <time>2012-04-10T14:32:02Z</time>
      </trkpt>
      <trkpt lat="43.9628" lon="7.15892">
        <ele>438.99996057953</ele>
        <time>2012-04-10T14:32:07Z</time>
      </trkpt>
      <trkpt lat="43.96276" lon="7.15895">
        <ele>438.9999828327</ele>
        <time>2012-04-10T14:32:12Z</time>
      </trkpt>
      <trkpt lat="43.96271" lon="7.15898">
        <ele>440.00000403695</ele>
        <time>2012-04-10T14:32:17Z</time>
      </trkpt>
      <trkpt lat="43.96266" lon="7.159">
        <ele>440.99999213543</ele>
        <time>2012-04-10T14:32:22Z</time>
      </trkpt>
      <trkpt lat="43.96262" lon="7.15902">
        <ele>438.9999949631</ele>
        <time>2012-04-10T14:32:27Z</time>
      </trkpt>
      <trkpt lat="43.96257" lon="7.15904">
        <ele>437.99998924968</ele>
        <time>2012-04-10T14:32:32Z</time>
      </trkpt>
      <trkpt lat="43.96252" lon="7.15907">
        <ele>438.99998267551</ele>
        <time>2012-04-10T14:32:37Z</time>
      </trkpt>
      <trkpt lat="43.96248" lon="7.1591">
        <ele>437.99999078504</ele>
        <time>2012-04-10T14:32:42Z</time>
      </trkpt>
      <trkpt lat="43.96244" lon="7.15912">
        <ele>438.99998494607</ele>
        <time>2012-04-10T14:32:47Z</time>
      </trkpt>
      <trkpt lat="43.96243" lon="7.15912">
        <ele>431.99998704074</ele>
        <time>2012-04-10T14:32:52Z</time>
      </trkpt>
      <trkpt lat="43.96243" lon="7.15912">
        <ele>439.99998596006</ele>
        <time>2012-04-10T14:33:02Z</time>
      </trkpt>
      <trkpt lat="43.96239" lon="7.15915">
        <ele>437.99998788561</ele>
        <time>2012-04-10T14:33:07Z</time>
      </trkpt>
      <trkpt lat="43.96235" lon="7.15915">
        <ele>436.99998781865</ele>
        <time>2012-04-10T14:33:12Z</time>
      </trkpt>
      <trkpt lat="43.9623" lon="7.15917">
        <ele>439.00000654842</ele>
        <time>2012-04-10T14:33:17Z</time>
      </trkpt>
      <trkpt lat="43.96225" lon="7.15918">
        <ele>433.99999608693</ele>
        <time>2012-04-10T14:33:22Z</time>
      </trkpt>
      <trkpt lat="43.96221" lon="7.1592">
        <ele>431.99998857791</ele>
        <time>2012-04-10T14:33:27Z</time>
      </trkpt>
      <trkpt lat="43.96215" lon="7.15922">
        <ele>432.99999192007</ele>
        <time>2012-04-10T14:33:32Z</time>
      </trkpt>
      <trkpt lat="43.96211" lon="7.15925">
        <ele>430.00001282521</ele>
        <time>2012-04-10T14:33:37Z</time>
      </trkpt>
      <trkpt lat="43.96207" lon="7.15928">
        <ele>430.00001833426</ele>
        <time>2012-04-10T14:33:42Z</time>
      </trkpt>
      <trkpt lat="43.96204" lon="7.15932">
        <ele>429.00000682863</ele>
        <time>2012-04-10T14:33:47Z</time>
      </trkpt>
      <trkpt lat="43.962" lon="7.15935">
        <ele>430.99997634974</ele>
        <time>2012-04-10T14:33:52Z</time>
      </trkpt>
      <trkpt lat="43.96198" lon="7.15937">
        <ele>427.99996970852</ele>
        <time>2012-04-10T14:33:57Z</time>
      </trkpt>
      <trkpt lat="43.96194" lon="7.15938">
        <ele>423.99998452489</ele>
        <time>2012-04-10T14:34:02Z</time>
      </trkpt>
      <trkpt lat="43.96189" lon="7.15939">
        <ele>423.9999952705</ele>
        <time>2012-04-10T14:34:07Z</time>
      </trkpt>
      <trkpt lat="43.96185" lon="7.15942">
        <ele>427.99998555717</ele>
        <time>2012-04-10T14:34:12Z</time>
      </trkpt>
      <trkpt lat="43.96181" lon="7.15945">
        <ele>426.99999334946</ele>
        <time>2012-04-10T14:34:17Z</time>
      </trkpt>
      <trkpt lat="43.96177" lon="7.1595">
        <ele>425.00000721004</ele>
        <time>2012-04-10T14:34:22Z</time>
      </trkpt>
      <trkpt lat="43.96174" lon="7.15954">
        <ele>426.00001391399</ele>
        <time>2012-04-10T14:34:27Z</time>
      </trkpt>
      <trkpt lat="43.96172" lon="7.15959">
        <ele>424.00002253365</ele>
        <time>2012-04-10T14:34:32Z</time>
      </trkpt>
      <trkpt lat="43.96167" lon="7.15962">
        <ele>421.00001179436</ele>
        <time>2012-04-10T14:34:37Z</time>
      </trkpt>
      <trkpt lat="43.96162" lon="7.1596">
        <ele>421.99998256284</ele>
        <time>2012-04-10T14:34:42Z</time>
      </trkpt>
      <trkpt lat="43.96158" lon="7.15956">
        <ele>421.99996635993</ele>
        <time>2012-04-10T14:34:47Z</time>
      </trkpt>
      <trkpt lat="43.96156" lon="7.1595">
        <ele>419.99996345881</ele>
        <time>2012-04-10T14:34:52Z</time>
      </trkpt>
      <trkpt lat="43.96156" lon="7.15944">
        <ele>417.99996886205</ele>
        <time>2012-04-10T14:34:57Z</time>
      </trkpt>
      <trkpt lat="43.96156" lon="7.15937">
        <ele>416.99996694027</ele>
        <time>2012-04-10T14:35:02Z</time>
      </trkpt>
      <trkpt lat="43.96156" lon="7.15931">
        <ele>418.99995533561</ele>
        <time>2012-04-10T14:35:07Z</time>
      </trkpt>
      <trkpt lat="43.96154" lon="7.15925">
        <ele>418.99997813187</ele>
        <time>2012-04-10T14:35:12Z</time>
      </trkpt>
      <trkpt lat="43.96151" lon="7.1592">
        <ele>420.99998499866</ele>
        <time>2012-04-10T14:35:17Z</time>
      </trkpt>
      <trkpt lat="43.96147" lon="7.15915">
        <ele>419.99997992619</ele>
        <time>2012-04-10T14:35:22Z</time>
      </trkpt>
      <trkpt lat="43.96144" lon="7.1591">
        <ele>420.99997792871</ele>
        <time>2012-04-10T14:35:27Z</time>
      </trkpt>
      <trkpt lat="43.96142" lon="7.15905">
        <ele>418.99997922718</ele>
        <time>2012-04-10T14:35:32Z</time>
      </trkpt>
      <trkpt lat="43.96138" lon="7.15902">
        <ele>417.99998425987</ele>
        <time>2012-04-10T14:35:37Z</time>
      </trkpt>
      <trkpt lat="43.96134" lon="7.15898">
        <ele>413.9999774589</ele>
        <time>2012-04-10T14:35:42Z</time>
      </trkpt>
      <trkpt lat="43.9613" lon="7.15895">
        <ele>413.99997747473</ele>
        <time>2012-04-10T14:35:47Z</time>
      </trkpt>
      <trkpt lat="43.96126" lon="7.15891">
        <ele>416.0000022714</ele>
        <time>2012-04-10T14:35:52Z</time>
      </trkpt>
      <trkpt lat="43.96123" lon="7.15886">
        <ele>412.99998668744</ele>
        <time>2012-04-10T14:35:57Z</time>
      </trkpt>
      <trkpt lat="43.96119" lon="7.15881">
        <ele>409.9999950818</ele>
        <time>2012-04-10T14:36:02Z</time>
      </trkpt>
      <trkpt lat="43.96115" lon="7.15877">
        <ele>410.99998707159</ele>
        <time>2012-04-10T14:36:07Z</time>
      </trkpt>
      <trkpt lat="43.9611" lon="7.15872">
        <ele>406.99999128241</ele>
        <time>2012-04-10T14:36:12Z</time>
      </trkpt>
      <trkpt lat="43.96106" lon="7.15869">
        <ele>403.99998584483</ele>
        <time>2012-04-10T14:36:17Z</time>
      </trkpt>
      <trkpt lat="43.96102" lon="7.15866">
        <ele>405.99999090645</ele>
        <time>2012-04-10T14:36:22Z</time>
      </trkpt>
      <trkpt lat="43.96099" lon="7.15863">
        <ele>409.99999165298</ele>
        <time>2012-04-10T14:36:27Z</time>
      </trkpt>
      <trkpt lat="43.96094" lon="7.1586">
        <ele>405.00000175688</ele>
        <time>2012-04-10T14:36:32Z</time>
      </trkpt>
      <trkpt lat="43.96088" lon="7.15859">
        <ele>407.99998027336</ele>
        <time>2012-04-10T14:36:37Z</time>
      </trkpt>
      <trkpt lat="43.96084" lon="7.15856">
        <ele>403.99998690347</ele>
        <time>2012-04-10T14:36:42Z</time>
      </trkpt>
      <trkpt lat="43.9608" lon="7.1585">
        <ele>405.0000007369</ele>
        <time>2012-04-10T14:36:47Z</time>
      </trkpt>
      <trkpt lat="43.96075" lon="7.15847">
        <ele>406.99998750316</ele>
        <time>2012-04-10T14:36:52Z</time>
      </trkpt>
      <trkpt lat="43.9607" lon="7.15846">
        <ele>405.99999557057</ele>
        <time>2012-04-10T14:36:57Z</time>
      </trkpt>
      <trkpt lat="43.96064" lon="7.15845">
        <ele>401.99999902654</ele>
        <time>2012-04-10T14:37:02Z</time>
      </trkpt>
      <trkpt lat="43.96058" lon="7.15844">
        <ele>402.00000033182</ele>
        <time>2012-04-10T14:37:07Z</time>
      </trkpt>
      <trkpt lat="43.96053" lon="7.15843">
        <ele>402.00000654073</ele>
        <time>2012-04-10T14:37:12Z</time>
      </trkpt>
      <trkpt lat="43.96048" lon="7.15841">
        <ele>402.00000346609</ele>
        <time>2012-04-10T14:37:17Z</time>
      </trkpt>
      <trkpt lat="43.96044" lon="7.15841">
        <ele>400.00000706815</ele>
        <time>2012-04-10T14:37:22Z</time>
      </trkpt>
      <trkpt lat="43.9604" lon="7.15843">
        <ele>403.99998577076</ele>
        <time>2012-04-10T14:37:27Z</time>
      </trkpt>
      <trkpt lat="43.96037" lon="7.15849">
        <ele>405.99999495547</ele>
        <time>2012-04-10T14:37:32Z</time>
      </trkpt>
      <trkpt lat="43.96035" lon="7.1585">
        <ele>408.00002311854</ele>
        <time>2012-04-10T14:37:37Z</time>
      </trkpt>
      <trkpt lat="43.96038" lon="7.15848">
        <ele>403.00000080581</ele>
        <time>2012-04-10T14:37:42Z</time>
      </trkpt>
      <trkpt lat="43.96038" lon="7.15848">
        <ele>402.99999316857</ele>
        <time>2012-04-10T14:37:47Z</time>
      </trkpt>
      <trkpt lat="43.96038" lon="7.15847">
        <ele>401.999983657</ele>
        <time>2012-04-10T14:37:57Z</time>
      </trkpt>
      <trkpt lat="43.96035" lon="7.15846">
        <ele>405.99999829804</ele>
        <time>2012-04-10T14:38:02Z</time>
      </trkpt>
      <trkpt lat="43.96031" lon="7.15842">
        <ele>407.99998011194</ele>
        <time>2012-04-10T14:38:07Z</time>
      </trkpt>
      <trkpt lat="43.9603" lon="7.15837">
        <ele>403.99999730892</ele>
        <time>2012-04-10T14:38:12Z</time>
      </trkpt>
      <trkpt lat="43.9603" lon="7.1583">
        <ele>401.00000050277</ele>
        <time>2012-04-10T14:38:17Z</time>
      </trkpt>
      <trkpt lat="43.96029" lon="7.15823">
        <ele>399.99999654504</ele>
        <time>2012-04-10T14:38:22Z</time>
      </trkpt>
      <trkpt lat="43.96029" lon="7.15817">
        <ele>397.99998479852</ele>
        <time>2012-04-10T14:38:27Z</time>
      </trkpt>
      <trkpt lat="43.96028" lon="7.15812">
        <ele>403.99998111734</ele>
        <time>2012-04-10T14:38:32Z</time>
      </trkpt>
      <trkpt lat="43.96027" lon="7.15812">
        <ele>399.99998639772</ele>
        <time>2012-04-10T14:38:37Z</time>
      </trkpt>
      <trkpt lat="43.96025" lon="7.15812">
        <ele>399.00000391811</ele>
        <time>2012-04-10T14:38:42Z</time>
      </trkpt>
      <trkpt lat="43.96026" lon="7.15812">
        <ele>400.9999980151</ele>
        <time>2012-04-10T14:38:47Z</time>
      </trkpt>
      <trkpt lat="43.96024" lon="7.15808">
        <ele>395.99998544245</ele>
        <time>2012-04-10T14:38:52Z</time>
      </trkpt>
      <trkpt lat="43.96023" lon="7.15802">
        <ele>398.99997031043</ele>
        <time>2012-04-10T14:38:57Z</time>
      </trkpt>
      <trkpt lat="43.96023" lon="7.15796">
        <ele>399.99998170758</ele>
        <time>2012-04-10T14:39:02Z</time>
      </trkpt>
      <trkpt lat="43.96022" lon="7.15789">
        <ele>395.99997715909</ele>
        <time>2012-04-10T14:39:07Z</time>
      </trkpt>
      <trkpt lat="43.96018" lon="7.15785">
        <ele>391.99996684423</ele>
        <time>2012-04-10T14:39:12Z</time>
      </trkpt>
      <trkpt lat="43.96013" lon="7.15783">
        <ele>392.99997867598</ele>
        <time>2012-04-10T14:39:17Z</time>
      </trkpt>
      <trkpt lat="43.96013" lon="7.1578">
        <ele>397.99998243119</ele>
        <time>2012-04-10T14:39:22Z</time>
      </trkpt>
      <trkpt lat="43.96016" lon="7.15777">
        <ele>396.9999314262</ele>
        <time>2012-04-10T14:39:27Z</time>
      </trkpt>
      <trkpt lat="43.96017" lon="7.15778">
        <ele>394.9999549181</ele>
        <time>2012-04-10T14:39:32Z</time>
      </trkpt>
      <trkpt lat="43.96018" lon="7.15774">
        <ele>395.99997054288</ele>
        <time>2012-04-10T14:39:37Z</time>
      </trkpt>
      <trkpt lat="43.96017" lon="7.15768">
        <ele>393.99995258441</ele>
        <time>2012-04-10T14:39:42Z</time>
      </trkpt>
      <trkpt lat="43.96017" lon="7.15766">
        <ele>389.9999588952</ele>
        <time>2012-04-10T14:39:47Z</time>
      </trkpt>
      <trkpt lat="43.96015" lon="7.15765">
        <ele>390.99998232713</ele>
        <time>2012-04-10T14:39:52Z</time>
      </trkpt>
      <trkpt lat="43.96013" lon="7.1576">
        <ele>387.99996901951</ele>
        <time>2012-04-10T14:39:57Z</time>
      </trkpt>
      <trkpt lat="43.96011" lon="7.15759">
        <ele>386.99999819899</ele>
        <time>2012-04-10T14:40:02Z</time>
      </trkpt>
      <trkpt lat="43.96009" lon="7.15757">
        <ele>385.00000880169</ele>
        <time>2012-04-10T14:40:07Z</time>
      </trkpt>
      <trkpt lat="43.96007" lon="7.15754">
        <ele>386.00000048622</ele>
        <time>2012-04-10T14:40:12Z</time>
      </trkpt>
      <trkpt lat="43.96005" lon="7.15749">
        <ele>387.99998259319</ele>
        <time>2012-04-10T14:40:17Z</time>
      </trkpt>
      <trkpt lat="43.96003" lon="7.15742">
        <ele>388.99999397634</ele>
        <time>2012-04-10T14:40:22Z</time>
      </trkpt>
      <trkpt lat="43.96005" lon="7.15737">
        <ele>386.99998698729</ele>
        <time>2012-04-10T14:40:27Z</time>
      </trkpt>
      <trkpt lat="43.96008" lon="7.15734">
        <ele>390.99997643632</ele>
        <time>2012-04-10T14:40:32Z</time>
      </trkpt>
      <trkpt lat="43.96005" lon="7.15732">
        <ele>390.99997793286</ele>
        <time>2012-04-10T14:40:37Z</time>
      </trkpt>
      <trkpt lat="43.96001" lon="7.15728">
        <ele>389.99998172831</ele>
        <time>2012-04-10T14:40:42Z</time>
      </trkpt>
      <trkpt lat="43.95998" lon="7.15721">
        <ele>391.00001677449</ele>
        <time>2012-04-10T14:40:47Z</time>
      </trkpt>
      <trkpt lat="43.95997" lon="7.15716">
        <ele>388.00001857046</ele>
        <time>2012-04-10T14:40:52Z</time>
      </trkpt>
      <trkpt lat="43.95996" lon="7.15711">
        <ele>391.00001668111</ele>
        <time>2012-04-10T14:40:57Z</time>
      </trkpt>
      <trkpt lat="43.95994" lon="7.15706">
        <ele>386.00001673988</ele>
        <time>2012-04-10T14:41:02Z</time>
      </trkpt>
      <trkpt lat="43.95994" lon="7.15703">
        <ele>385.00000948164</ele>
        <time>2012-04-10T14:41:07Z</time>
      </trkpt>
      <trkpt lat="43.95995" lon="7.15703">
        <ele>383.99999129613</ele>
        <time>2012-04-10T14:41:22Z</time>
      </trkpt>
      <trkpt lat="43.95997" lon="7.15699">
        <ele>384.00000062974</ele>
        <time>2012-04-10T14:41:27Z</time>
      </trkpt>
      <trkpt lat="43.96001" lon="7.15695">
        <ele>385.99999330051</ele>
        <time>2012-04-10T14:41:32Z</time>
      </trkpt>
      <trkpt lat="43.96004" lon="7.15692">
        <ele>386.99999084025</ele>
        <time>2012-04-10T14:41:37Z</time>
      </trkpt>
      <trkpt lat="43.96008" lon="7.15689">
        <ele>386.99999630386</ele>
        <time>2012-04-10T14:41:42Z</time>
      </trkpt>
      <trkpt lat="43.96012" lon="7.15689">
        <ele>385.99999746659</ele>
        <time>2012-04-10T14:41:47Z</time>
      </trkpt>
      <trkpt lat="43.96016" lon="7.15691">
        <ele>386.99999686506</ele>
        <time>2012-04-10T14:41:52Z</time>
      </trkpt>
      <trkpt lat="43.96019" lon="7.15691">
        <ele>386.99999578716</ele>
        <time>2012-04-10T14:41:57Z</time>
      </trkpt>
      <trkpt lat="43.96022" lon="7.1569">
        <ele>384.99998283086</ele>
        <time>2012-04-10T14:42:02Z</time>
      </trkpt>
      <trkpt lat="43.96023" lon="7.1569">
        <ele>384.99999383431</ele>
        <time>2012-04-10T14:42:07Z</time>
      </trkpt>
      <trkpt lat="43.96025" lon="7.15689">
        <ele>386.0000068931</ele>
        <time>2012-04-10T14:42:12Z</time>
      </trkpt>
      <trkpt lat="43.96029" lon="7.1569">
        <ele>383.99998245543</ele>
        <time>2012-04-10T14:42:17Z</time>
      </trkpt>
      <trkpt lat="43.96029" lon="7.1569">
        <ele>382.99999125285</ele>
        <time>2012-04-10T14:42:22Z</time>
      </trkpt>
      <trkpt lat="43.96029" lon="7.15691">
        <ele>384.00000221658</ele>
        <time>2012-04-10T14:42:27Z</time>
      </trkpt>
      <trkpt lat="43.96032" lon="7.15694">
        <ele>391.0000052253</ele>
        <time>2012-04-10T14:42:32Z</time>
      </trkpt>
      <trkpt lat="43.96035" lon="7.15697">
        <ele>391.99998972553</ele>
        <time>2012-04-10T14:42:37Z</time>
      </trkpt>
      <trkpt lat="43.96035" lon="7.15698">
        <ele>392.99998927762</ele>
        <time>2012-04-10T14:42:42Z</time>
      </trkpt>
      <trkpt lat="43.96035" lon="7.15698">
        <ele>393.99998923127</ele>
        <time>2012-04-10T14:42:47Z</time>
      </trkpt>
      <trkpt lat="43.96034" lon="7.15698">
        <ele>396.99998786421</ele>
        <time>2012-04-10T14:42:57Z</time>
      </trkpt>
      <trkpt lat="43.96031" lon="7.15696">
        <ele>394.99999003147</ele>
        <time>2012-04-10T14:43:02Z</time>
      </trkpt>
      <trkpt lat="43.9603" lon="7.15689">
        <ele>390.00000192332</ele>
        <time>2012-04-10T14:43:07Z</time>
      </trkpt>
      <trkpt lat="43.96031" lon="7.15684">
        <ele>390.0000013912</ele>
        <time>2012-04-10T14:43:12Z</time>
      </trkpt>
      <trkpt lat="43.96032" lon="7.15679">
        <ele>391.99999577167</ele>
        <time>2012-04-10T14:43:17Z</time>
      </trkpt>
      <trkpt lat="43.96034" lon="7.15674">
        <ele>390.99999380764</ele>
        <time>2012-04-10T14:43:22Z</time>
      </trkpt>
      <trkpt lat="43.96035" lon="7.15671">
        <ele>389.99998501413</ele>
        <time>2012-04-10T14:43:27Z</time>
      </trkpt>
      <trkpt lat="43.96034" lon="7.15671">
        <ele>387.9999888622</ele>
        <time>2012-04-10T14:43:32Z</time>
      </trkpt>
      <trkpt lat="43.96034" lon="7.1567">
        <ele>386.99999564065</ele>
        <time>2012-04-10T14:43:37Z</time>
      </trkpt>
      <trkpt lat="43.96036" lon="7.15669">
        <ele>389.00000025317</ele>
        <time>2012-04-10T14:43:42Z</time>
      </trkpt>
      <trkpt lat="43.9604" lon="7.1567">
        <ele>385.99998825643</ele>
        <time>2012-04-10T14:43:47Z</time>
      </trkpt>
      <trkpt lat="43.96043" lon="7.15671">
        <ele>384.99999107763</ele>
        <time>2012-04-10T14:43:52Z</time>
      </trkpt>
      <trkpt lat="43.96045" lon="7.15672">
        <ele>384.99998721026</ele>
        <time>2012-04-10T14:43:57Z</time>
      </trkpt>
      <trkpt lat="43.96046" lon="7.15672">
        <ele>383.99998914582</ele>
        <time>2012-04-10T14:44:02Z</time>
      </trkpt>
      <trkpt lat="43.9605" lon="7.15669">
        <ele>384.99999816412</ele>
        <time>2012-04-10T14:44:07Z</time>
      </trkpt>
      <trkpt lat="43.96053" lon="7.15664">
        <ele>383.99999774025</ele>
        <time>2012-04-10T14:44:12Z</time>
      </trkpt>
      <trkpt lat="43.96055" lon="7.15658">
        <ele>386.00000099763</ele>
        <time>2012-04-10T14:44:17Z</time>
      </trkpt>
      <trkpt lat="43.96056" lon="7.15653">
        <ele>388.99999803677</ele>
        <time>2012-04-10T14:44:22Z</time>
      </trkpt>
      <trkpt lat="43.96057" lon="7.15649">
        <ele>388.99999888622</ele>
        <time>2012-04-10T14:44:27Z</time>
      </trkpt>
      <trkpt lat="43.96058" lon="7.15644">
        <ele>386.99999974785</ele>
        <time>2012-04-10T14:44:32Z</time>
      </trkpt>
      <trkpt lat="43.96059" lon="7.15643">
        <ele>380.99999397594</ele>
        <time>2012-04-10T14:44:37Z</time>
      </trkpt>
      <trkpt lat="43.96062" lon="7.15642">
        <ele>378.99999374139</ele>
        <time>2012-04-10T14:44:42Z</time>
      </trkpt>
      <trkpt lat="43.96064" lon="7.15639">
        <ele>376.99999636586</ele>
        <time>2012-04-10T14:44:47Z</time>
      </trkpt>
      <trkpt lat="43.96066" lon="7.15635">
        <ele>376.9999987648</ele>
        <time>2012-04-10T14:44:52Z</time>
      </trkpt>
      <trkpt lat="43.96065" lon="7.15631">
        <ele>380.00000350477</ele>
        <time>2012-04-10T14:44:57Z</time>
      </trkpt>
      <trkpt lat="43.96064" lon="7.15628">
        <ele>384.00000283396</ele>
        <time>2012-04-10T14:45:02Z</time>
      </trkpt>
      <trkpt lat="43.96064" lon="7.15624">
        <ele>380.00000178681</ele>
        <time>2012-04-10T14:45:07Z</time>
      </trkpt>
      <trkpt lat="43.96066" lon="7.15621">
        <ele>379.00000130576</ele>
        <time>2012-04-10T14:45:12Z</time>
      </trkpt>
      <trkpt lat="43.96069" lon="7.15621">
        <ele>378.99999844373</ele>
        <time>2012-04-10T14:45:17Z</time>
      </trkpt>
      <trkpt lat="43.96072" lon="7.15623">
        <ele>378.99999672005</ele>
        <time>2012-04-10T14:45:22Z</time>
      </trkpt>
      <trkpt lat="43.96076" lon="7.15624">
        <ele>376.99999638775</ele>
        <time>2012-04-10T14:45:27Z</time>
      </trkpt>
      <trkpt lat="43.96078" lon="7.15626">
        <ele>377.99999712116</ele>
        <time>2012-04-10T14:45:32Z</time>
      </trkpt>
      <trkpt lat="43.9608" lon="7.15628">
        <ele>378.99999406146</ele>
        <time>2012-04-10T14:45:37Z</time>
      </trkpt>
      <trkpt lat="43.9608" lon="7.15628">
        <ele>375.99999792541</ele>
        <time>2012-04-10T14:45:42Z</time>
      </trkpt>
      <trkpt lat="43.96081" lon="7.15629">
        <ele>374.00000102199</ele>
        <time>2012-04-10T14:45:47Z</time>
      </trkpt>
      <trkpt lat="43.96082" lon="7.1563">
        <ele>376.00000046219</ele>
        <time>2012-04-10T14:45:52Z</time>
      </trkpt>
      <trkpt lat="43.96084" lon="7.15631">
        <ele>377.99999712823</ele>
        <time>2012-04-10T14:45:57Z</time>
      </trkpt>
      <trkpt lat="43.96084" lon="7.15632">
        <ele>379.99999398786</ele>
        <time>2012-04-10T14:46:02Z</time>
      </trkpt>
      <trkpt lat="43.96084" lon="7.15631">
        <ele>382.99999486654</ele>
        <time>2012-04-10T14:46:07Z</time>
      </trkpt>
      <trkpt lat="43.96083" lon="7.1563">
        <ele>372.99999736515</ele>
        <time>2012-04-10T14:46:12Z</time>
      </trkpt>
      <trkpt lat="43.96081" lon="7.15628">
        <ele>374.00000084906</ele>
        <time>2012-04-10T14:46:17Z</time>
      </trkpt>
      <trkpt lat="43.96077" lon="7.15626">
        <ele>371.00000191274</ele>
        <time>2012-04-10T14:46:22Z</time>
      </trkpt>
      <trkpt lat="43.96074" lon="7.15624">
        <ele>377.00000498843</ele>
        <time>2012-04-10T14:46:27Z</time>
      </trkpt>
      <trkpt lat="43.96073" lon="7.15624">
        <ele>373.00000751451</ele>
        <time>2012-04-10T14:46:32Z</time>
      </trkpt>
      <trkpt lat="43.96072" lon="7.15624">
        <ele>374.00000837135</ele>
        <time>2012-04-10T14:46:37Z</time>
      </trkpt>
      <trkpt lat="43.96073" lon="7.15625">
        <ele>376.00000711202</ele>
        <time>2012-04-10T14:46:42Z</time>
      </trkpt>
      <trkpt lat="43.96075" lon="7.15623">
        <ele>380.99999773363</ele>
        <time>2012-04-10T14:46:47Z</time>
      </trkpt>
      <trkpt lat="43.96077" lon="7.15621">
        <ele>385.99999987935</ele>
        <time>2012-04-10T14:46:52Z</time>
      </trkpt>
      <trkpt lat="43.96076" lon="7.15621">
        <ele>376.99999961889</ele>
        <time>2012-04-10T14:47:02Z</time>
      </trkpt>
    </trkseg>
  </trk>
</gpx>